<?xml version="1.0" encoding="UTF-8" standalone="no" ?>
<gpx xmlns="http://www.topografix.com/GPX/1/1" xmlns:xsi="http://www.w3.org/2001/XMLSchema-instance" xsi:schemaLocation="http://www.topografix.com/GPX/1/1 http://www.topografix.com/GPX/1/1/gpx.xsd" version="1.1" creator="VisuGPX - https://www.visugpx.com">
  <metadata>
    <name>Abries SDR</name>
  </metadata>
  <wpt lat="44.7956" lon="6.92592">
    <ele>1571</ele>
  </wpt>
  <wpt lat="44.80157" lon="6.91439">
    <ele>1954</ele>
  </wpt>
  <wpt lat="44.83212" lon="6.90528">
    <ele>2662</ele>
  </wpt>
  <wpt lat="44.82511" lon="6.94159">
    <ele>1781</ele>
  </wpt>
  <wpt lat="44.82948" lon="6.94087">
    <ele>1813</ele>
  </wpt>
  <wpt lat="44.84948" lon="6.94649">
    <ele>2429</ele>
  </wpt>
  <wpt lat="44.85525" lon="6.93276">
    <ele>2686</ele>
  </wpt>
  <wpt lat="44.86127" lon="6.93145">
    <ele>3092</ele>
  </wpt>
  <wpt lat="44.82511" lon="6.94159">
    <ele>1781</ele>
  </wpt>
  <wpt lat="44.82891" lon="6.9414">
    <ele>1830</ele>
  </wpt>
  <wpt lat="44.83196" lon="7.00679">
    <ele>2614</ele>
  </wpt>
  <wpt lat="44.82511" lon="6.94159">
    <ele>1781</ele>
  </wpt>
  <wpt lat="44.82891" lon="6.9414">
    <ele>1830</ele>
  </wpt>
  <wpt lat="44.83547" lon="6.99793">
    <ele>2522</ele>
  </wpt>
  <wpt lat="44.8385" lon="7.00435">
    <ele>2803</ele>
  </wpt>
  <wpt lat="44.82511" lon="6.94159">
    <ele>1781</ele>
  </wpt>
  <wpt lat="44.82891" lon="6.9414">
    <ele>1830</ele>
  </wpt>
  <wpt lat="44.83547" lon="6.99793">
    <ele>2522</ele>
  </wpt>
  <wpt lat="44.84093" lon="6.99998">
    <ele>2874</ele>
  </wpt>
  <wpt lat="44.7956" lon="6.92592">
    <ele>1571</ele>
  </wpt>
  <wpt lat="44.80157" lon="6.91439">
    <ele>1954</ele>
  </wpt>
  <wpt lat="44.82414" lon="6.89209">
    <ele>2344</ele>
  </wpt>
  <wpt lat="44.8303" lon="6.89297">
    <ele>2399</ele>
  </wpt>
  <wpt lat="44.84389" lon="6.90492">
    <ele>2877</ele>
  </wpt>
  <wpt lat="44.81581" lon="6.9467">
    <ele>1710</ele>
  </wpt>
  <wpt lat="44.81329" lon="6.9528">
    <ele>1751</ele>
  </wpt>
  <wpt lat="44.81245" lon="6.95835">
    <ele>1809</ele>
  </wpt>
  <wpt lat="44.81389" lon="6.98449">
    <ele>1950</ele>
  </wpt>
  <wpt lat="44.82375" lon="7.0068">
    <ele>2520</ele>
  </wpt>
  <wpt lat="44.83084" lon="7.01088">
    <ele>2566</ele>
  </wpt>
  <wpt lat="44.82583" lon="7.01892">
    <ele>2661</ele>
  </wpt>
  <wpt lat="44.76756" lon="6.94934">
    <ele>1736</ele>
  </wpt>
  <wpt lat="44.75506" lon="6.93974">
    <ele>1924</ele>
  </wpt>
  <wpt lat="44.75201" lon="6.94055">
    <ele>1962</ele>
  </wpt>
  <wpt lat="44.73659" lon="6.94388">
    <ele>2190</ele>
  </wpt>
  <wpt lat="44.73624" lon="6.96532">
    <ele>2767</ele>
  </wpt>
  <wpt lat="44.7697" lon="6.95353">
    <ele>1725</ele>
  </wpt>
  <wpt lat="44.74148" lon="6.96408">
    <ele>2781</ele>
  </wpt>
  <wpt lat="44.76756" lon="6.94934">
    <ele>1736</ele>
  </wpt>
  <wpt lat="44.75506" lon="6.93974">
    <ele>1924</ele>
  </wpt>
  <wpt lat="44.75201" lon="6.94055">
    <ele>1962</ele>
  </wpt>
  <wpt lat="44.73659" lon="6.94388">
    <ele>2190</ele>
  </wpt>
  <wpt lat="44.72698" lon="6.95272">
    <ele>2313</ele>
  </wpt>
  <wpt lat="44.7211" lon="6.96043">
    <ele>2520</ele>
  </wpt>
  <wpt lat="44.71625" lon="6.96239">
    <ele>2702</ele>
  </wpt>
  <wpt lat="44.71473" lon="6.96795">
    <ele>2765</ele>
  </wpt>
  <wpt lat="44.71082" lon="6.96665">
    <ele>2885</ele>
  </wpt>
  <trk>
    <name><![CDATA[Pic Charbonnel en boucle]]></name>
    <extensions>
      <line xmlns="http://www.topografix.com/GPX/gpx_style/0/2">
        <color>00FF00</color>
        <width>4</width>
          <extensions>
            <sens>1</sens>
          </extensions>
      </line>
    </extensions>
    <trkseg>
      <trkpt lat="44.82113" lon="6.94374">
        <ele>1758.9</ele>
        <time>2023-02-16T08:39:17Z</time>
      </trkpt>
      <trkpt lat="44.82113" lon="6.94374">
        <ele>1758.9</ele>
        <time>2023-02-16T08:39:33Z</time>
      </trkpt>
      <trkpt lat="44.82117" lon="6.94365">
        <ele>1759.1</ele>
        <time>2023-02-16T08:39:41Z</time>
      </trkpt>
      <trkpt lat="44.8212" lon="6.94363">
        <ele>1759.8</ele>
        <time>2023-02-16T08:39:45Z</time>
      </trkpt>
      <trkpt lat="44.82124" lon="6.94362">
        <ele>1760.8</ele>
        <time>2023-02-16T08:39:50Z</time>
      </trkpt>
      <trkpt lat="44.82133" lon="6.94361">
        <ele>1763.3</ele>
        <time>2023-02-16T08:39:57Z</time>
      </trkpt>
      <trkpt lat="44.82136" lon="6.9436">
        <ele>1764</ele>
        <time>2023-02-16T08:39:59Z</time>
      </trkpt>
      <trkpt lat="44.82145" lon="6.94352">
        <ele>1765.4</ele>
        <time>2023-02-16T08:40:08Z</time>
      </trkpt>
      <trkpt lat="44.82149" lon="6.94347">
        <ele>1765.7</ele>
        <time>2023-02-16T08:40:13Z</time>
      </trkpt>
      <trkpt lat="44.82156" lon="6.94338">
        <ele>1766</ele>
        <time>2023-02-16T08:40:22Z</time>
      </trkpt>
      <trkpt lat="44.82165" lon="6.94334">
        <ele>1767.7</ele>
        <time>2023-02-16T08:40:31Z</time>
      </trkpt>
      <trkpt lat="44.8217" lon="6.94333">
        <ele>1768.8</ele>
        <time>2023-02-16T08:40:35Z</time>
      </trkpt>
      <trkpt lat="44.82186" lon="6.94322">
        <ele>1768.9</ele>
        <time>2023-02-16T08:40:51Z</time>
      </trkpt>
      <trkpt lat="44.82198" lon="6.9431">
        <ele>1766.5</ele>
        <time>2023-02-16T08:41:05Z</time>
      </trkpt>
      <trkpt lat="44.82209" lon="6.94306">
        <ele>1766.8</ele>
        <time>2023-02-16T08:41:17Z</time>
      </trkpt>
      <trkpt lat="44.82216" lon="6.94304">
        <ele>1767.3</ele>
        <time>2023-02-16T08:41:30Z</time>
      </trkpt>
      <trkpt lat="44.82215" lon="6.94306">
        <ele>1767.9</ele>
        <time>2023-02-16T08:41:40Z</time>
      </trkpt>
      <trkpt lat="44.82215" lon="6.94306">
        <ele>1767.9</ele>
        <time>2023-02-16T08:41:42Z</time>
      </trkpt>
      <trkpt lat="44.82215" lon="6.94307">
        <ele>1768.3</ele>
        <time>2023-02-16T08:41:56Z</time>
      </trkpt>
      <trkpt lat="44.8222" lon="6.94311">
        <ele>1770.8</ele>
        <time>2023-02-16T08:42:10Z</time>
      </trkpt>
      <trkpt lat="44.82221" lon="6.94312">
        <ele>1771.3</ele>
        <time>2023-02-16T08:42:11Z</time>
      </trkpt>
      <trkpt lat="44.82225" lon="6.94301">
        <ele>1767.9</ele>
        <time>2023-02-16T08:42:23Z</time>
      </trkpt>
      <trkpt lat="44.82226" lon="6.943">
        <ele>1767.8</ele>
        <time>2023-02-16T08:42:25Z</time>
      </trkpt>
      <trkpt lat="44.82234" lon="6.94291">
        <ele>1766.5</ele>
        <time>2023-02-16T08:42:35Z</time>
      </trkpt>
      <trkpt lat="44.82236" lon="6.94289">
        <ele>1766.4</ele>
        <time>2023-02-16T08:42:44Z</time>
      </trkpt>
      <trkpt lat="44.82237" lon="6.94292">
        <ele>1767.6</ele>
        <time>2023-02-16T08:43:01Z</time>
      </trkpt>
      <trkpt lat="44.82238" lon="6.94291">
        <ele>1767.5</ele>
        <time>2023-02-16T08:43:18Z</time>
      </trkpt>
      <trkpt lat="44.82238" lon="6.94291">
        <ele>1767.5</ele>
        <time>2023-02-16T08:43:19Z</time>
      </trkpt>
      <trkpt lat="44.8224" lon="6.94287">
        <ele>1766.8</ele>
        <time>2023-02-16T08:43:26Z</time>
      </trkpt>
      <trkpt lat="44.82241" lon="6.94287">
        <ele>1767.1</ele>
        <time>2023-02-16T08:43:27Z</time>
      </trkpt>
      <trkpt lat="44.82251" lon="6.94274">
        <ele>1766.2</ele>
        <time>2023-02-16T08:43:39Z</time>
      </trkpt>
      <trkpt lat="44.82255" lon="6.9427">
        <ele>1766.2</ele>
        <time>2023-02-16T08:43:44Z</time>
      </trkpt>
      <trkpt lat="44.8226" lon="6.94266">
        <ele>1766.5</ele>
        <time>2023-02-16T08:43:50Z</time>
      </trkpt>
      <trkpt lat="44.82268" lon="6.94258">
        <ele>1766.5</ele>
        <time>2023-02-16T08:44:00Z</time>
      </trkpt>
      <trkpt lat="44.8227" lon="6.94256">
        <ele>1766.5</ele>
        <time>2023-02-16T08:44:02Z</time>
      </trkpt>
      <trkpt lat="44.82272" lon="6.94253">
        <ele>1766.2</ele>
        <time>2023-02-16T08:44:05Z</time>
      </trkpt>
      <trkpt lat="44.82282" lon="6.94247">
        <ele>1767</ele>
        <time>2023-02-16T08:44:14Z</time>
      </trkpt>
      <trkpt lat="44.82297" lon="6.94245">
        <ele>1769.8</ele>
        <time>2023-02-16T08:44:28Z</time>
      </trkpt>
      <trkpt lat="44.8231" lon="6.9424">
        <ele>1771.5</ele>
        <time>2023-02-16T08:44:40Z</time>
      </trkpt>
      <trkpt lat="44.82312" lon="6.94239">
        <ele>1771.7</ele>
        <time>2023-02-16T08:44:42Z</time>
      </trkpt>
      <trkpt lat="44.82317" lon="6.94231">
        <ele>1771.1</ele>
        <time>2023-02-16T08:44:50Z</time>
      </trkpt>
      <trkpt lat="44.82325" lon="6.94221">
        <ele>1771.3</ele>
        <time>2023-02-16T08:45:00Z</time>
      </trkpt>
      <trkpt lat="44.82327" lon="6.94218">
        <ele>1771.2</ele>
        <time>2023-02-16T08:45:03Z</time>
      </trkpt>
      <trkpt lat="44.8234" lon="6.9421">
        <ele>1773.5</ele>
        <time>2023-02-16T08:45:15Z</time>
      </trkpt>
      <trkpt lat="44.82343" lon="6.94206">
        <ele>1773.6</ele>
        <time>2023-02-16T08:45:19Z</time>
      </trkpt>
      <trkpt lat="44.82351" lon="6.94198">
        <ele>1774</ele>
        <time>2023-02-16T08:45:29Z</time>
      </trkpt>
      <trkpt lat="44.82356" lon="6.94195">
        <ele>1774.7</ele>
        <time>2023-02-16T08:45:34Z</time>
      </trkpt>
      <trkpt lat="44.82363" lon="6.94191">
        <ele>1775.4</ele>
        <time>2023-02-16T08:45:42Z</time>
      </trkpt>
      <trkpt lat="44.82373" lon="6.94184">
        <ele>1775.2</ele>
        <time>2023-02-16T08:45:54Z</time>
      </trkpt>
      <trkpt lat="44.82374" lon="6.94184">
        <ele>1775.4</ele>
        <time>2023-02-16T08:45:55Z</time>
      </trkpt>
      <trkpt lat="44.82378" lon="6.94182">
        <ele>1775.5</ele>
        <time>2023-02-16T08:46:04Z</time>
      </trkpt>
      <trkpt lat="44.8238" lon="6.94183">
        <ele>1776.2</ele>
        <time>2023-02-16T08:46:14Z</time>
      </trkpt>
      <trkpt lat="44.82382" lon="6.94183">
        <ele>1776.6</ele>
        <time>2023-02-16T08:46:16Z</time>
      </trkpt>
      <trkpt lat="44.82384" lon="6.94183">
        <ele>1777</ele>
        <time>2023-02-16T08:46:19Z</time>
      </trkpt>
      <trkpt lat="44.82388" lon="6.94182">
        <ele>1777.4</ele>
        <time>2023-02-16T08:46:23Z</time>
      </trkpt>
      <trkpt lat="44.82397" lon="6.94182">
        <ele>1778.2</ele>
        <time>2023-02-16T08:46:32Z</time>
      </trkpt>
      <trkpt lat="44.82402" lon="6.94183">
        <ele>1779</ele>
        <time>2023-02-16T08:46:36Z</time>
      </trkpt>
      <trkpt lat="44.82416" lon="6.94187">
        <ele>1782.2</ele>
        <time>2023-02-16T08:46:51Z</time>
      </trkpt>
      <trkpt lat="44.82422" lon="6.94186">
        <ele>1783.5</ele>
        <time>2023-02-16T08:46:57Z</time>
      </trkpt>
      <trkpt lat="44.82428" lon="6.94182">
        <ele>1783.7</ele>
        <time>2023-02-16T08:47:03Z</time>
      </trkpt>
      <trkpt lat="44.82436" lon="6.94166">
        <ele>1780.1</ele>
        <time>2023-02-16T08:47:14Z</time>
      </trkpt>
      <trkpt lat="44.82444" lon="6.94153">
        <ele>1777.9</ele>
        <time>2023-02-16T08:47:25Z</time>
      </trkpt>
      <trkpt lat="44.82457" lon="6.94145">
        <ele>1778</ele>
        <time>2023-02-16T08:47:38Z</time>
      </trkpt>
      <trkpt lat="44.82477" lon="6.94145">
        <ele>1782.4</ele>
        <time>2023-02-16T08:47:53Z</time>
      </trkpt>
      <trkpt lat="44.82486" lon="6.94149">
        <ele>1784.9</ele>
        <time>2023-02-16T08:48:00Z</time>
      </trkpt>
      <trkpt lat="44.8249" lon="6.9415">
        <ele>1785.6</ele>
        <time>2023-02-16T08:48:07Z</time>
      </trkpt>
      <trkpt lat="44.82491" lon="6.9415">
        <ele>1785.7</ele>
        <time>2023-02-16T08:48:08Z</time>
      </trkpt>
      <trkpt lat="44.82491" lon="6.94146">
        <ele>1783.8</ele>
        <time>2023-02-16T08:48:17Z</time>
      </trkpt>
      <trkpt lat="44.82494" lon="6.94147">
        <ele>1784.4</ele>
        <time>2023-02-16T08:48:22Z</time>
      </trkpt>
      <trkpt lat="44.82497" lon="6.94148">
        <ele>1785.1</ele>
        <time>2023-02-16T08:48:24Z</time>
      </trkpt>
      <trkpt lat="44.82506" lon="6.94151">
        <ele>1786.4</ele>
        <time>2023-02-16T08:48:33Z</time>
      </trkpt>
      <trkpt lat="44.82508" lon="6.94153">
        <ele>1787.2</ele>
        <time>2023-02-16T08:48:38Z</time>
      </trkpt>
      <trkpt lat="44.82513" lon="6.94156">
        <ele>1788.1</ele>
        <time>2023-02-16T08:48:49Z</time>
      </trkpt>
      <trkpt lat="44.82515" lon="6.94151">
        <ele>1786</ele>
        <time>2023-02-16T08:49:05Z</time>
      </trkpt>
      <trkpt lat="44.82516" lon="6.9415">
        <ele>1785.5</ele>
        <time>2023-02-16T08:49:23Z</time>
      </trkpt>
      <trkpt lat="44.82521" lon="6.94159">
        <ele>1788.8</ele>
        <time>2023-02-16T08:49:34Z</time>
      </trkpt>
      <trkpt lat="44.82522" lon="6.94162">
        <ele>1789.8</ele>
        <time>2023-02-16T08:49:36Z</time>
      </trkpt>
      <trkpt lat="44.82522" lon="6.94164">
        <ele>1790.6</ele>
        <time>2023-02-16T08:49:38Z</time>
      </trkpt>
      <trkpt lat="44.82525" lon="6.94171">
        <ele>1793.5</ele>
        <time>2023-02-16T08:49:46Z</time>
      </trkpt>
      <trkpt lat="44.82526" lon="6.94172">
        <ele>1793.9</ele>
        <time>2023-02-16T08:49:48Z</time>
      </trkpt>
      <trkpt lat="44.8253" lon="6.94169">
        <ele>1792.6</ele>
        <time>2023-02-16T08:49:53Z</time>
      </trkpt>
      <trkpt lat="44.82533" lon="6.94168">
        <ele>1792.6</ele>
        <time>2023-02-16T08:49:55Z</time>
      </trkpt>
      <trkpt lat="44.82535" lon="6.94166">
        <ele>1792.1</ele>
        <time>2023-02-16T08:49:58Z</time>
      </trkpt>
      <trkpt lat="44.82541" lon="6.9416">
        <ele>1790.9</ele>
        <time>2023-02-16T08:50:06Z</time>
      </trkpt>
      <trkpt lat="44.82545" lon="6.94157">
        <ele>1790.4</ele>
        <time>2023-02-16T08:50:11Z</time>
      </trkpt>
      <trkpt lat="44.82546" lon="6.94153">
        <ele>1789</ele>
        <time>2023-02-16T08:50:15Z</time>
      </trkpt>
      <trkpt lat="44.82554" lon="6.94147">
        <ele>1788</ele>
        <time>2023-02-16T08:50:24Z</time>
      </trkpt>
      <trkpt lat="44.82557" lon="6.94145">
        <ele>1787.7</ele>
        <time>2023-02-16T08:50:27Z</time>
      </trkpt>
      <trkpt lat="44.8256" lon="6.94143">
        <ele>1787.6</ele>
        <time>2023-02-16T08:50:30Z</time>
      </trkpt>
      <trkpt lat="44.82571" lon="6.94141">
        <ele>1789.2</ele>
        <time>2023-02-16T08:50:39Z</time>
      </trkpt>
      <trkpt lat="44.82579" lon="6.94144">
        <ele>1792.1</ele>
        <time>2023-02-16T08:50:45Z</time>
      </trkpt>
      <trkpt lat="44.82585" lon="6.94146">
        <ele>1793.9</ele>
        <time>2023-02-16T08:50:51Z</time>
      </trkpt>
      <trkpt lat="44.82589" lon="6.94147">
        <ele>1794.4</ele>
        <time>2023-02-16T08:50:54Z</time>
      </trkpt>
      <trkpt lat="44.82594" lon="6.9415">
        <ele>1795.8</ele>
        <time>2023-02-16T08:51:00Z</time>
      </trkpt>
      <trkpt lat="44.82601" lon="6.94151">
        <ele>1796.4</ele>
        <time>2023-02-16T08:51:06Z</time>
      </trkpt>
      <trkpt lat="44.82602" lon="6.94152">
        <ele>1796.9</ele>
        <time>2023-02-16T08:51:09Z</time>
      </trkpt>
      <trkpt lat="44.82612" lon="6.94153">
        <ele>1797.6</ele>
        <time>2023-02-16T08:51:17Z</time>
      </trkpt>
      <trkpt lat="44.82615" lon="6.94154">
        <ele>1797.8</ele>
        <time>2023-02-16T08:51:21Z</time>
      </trkpt>
      <trkpt lat="44.82621" lon="6.94157">
        <ele>1798.8</ele>
        <time>2023-02-16T08:51:26Z</time>
      </trkpt>
      <trkpt lat="44.82632" lon="6.9416">
        <ele>1799.6</ele>
        <time>2023-02-16T08:51:36Z</time>
      </trkpt>
      <trkpt lat="44.82634" lon="6.94161">
        <ele>1799.9</ele>
        <time>2023-02-16T08:51:38Z</time>
      </trkpt>
      <trkpt lat="44.82648" lon="6.94164">
        <ele>1801.6</ele>
        <time>2023-02-16T08:51:50Z</time>
      </trkpt>
      <trkpt lat="44.82654" lon="6.94166">
        <ele>1802.8</ele>
        <time>2023-02-16T08:51:55Z</time>
      </trkpt>
      <trkpt lat="44.82664" lon="6.94166">
        <ele>1803.6</ele>
        <time>2023-02-16T08:52:05Z</time>
      </trkpt>
      <trkpt lat="44.82669" lon="6.94164">
        <ele>1803.4</ele>
        <time>2023-02-16T08:52:11Z</time>
      </trkpt>
      <trkpt lat="44.82671" lon="6.94163">
        <ele>1803.4</ele>
        <time>2023-02-16T08:52:14Z</time>
      </trkpt>
      <trkpt lat="44.82674" lon="6.94161">
        <ele>1803.2</ele>
        <time>2023-02-16T08:52:17Z</time>
      </trkpt>
      <trkpt lat="44.82674" lon="6.94161">
        <ele>1803.2</ele>
        <time>2023-02-16T08:52:18Z</time>
      </trkpt>
      <trkpt lat="44.82686" lon="6.9415">
        <ele>1802</ele>
        <time>2023-02-16T08:52:30Z</time>
      </trkpt>
      <trkpt lat="44.82688" lon="6.94149">
        <ele>1802.2</ele>
        <time>2023-02-16T08:52:31Z</time>
      </trkpt>
      <trkpt lat="44.827" lon="6.94136">
        <ele>1801.8</ele>
        <time>2023-02-16T08:52:43Z</time>
      </trkpt>
      <trkpt lat="44.82706" lon="6.94128">
        <ele>1801.2</ele>
        <time>2023-02-16T08:52:55Z</time>
      </trkpt>
      <trkpt lat="44.82715" lon="6.94125">
        <ele>1802.9</ele>
        <time>2023-02-16T08:53:05Z</time>
      </trkpt>
      <trkpt lat="44.82717" lon="6.94126">
        <ele>1803.8</ele>
        <time>2023-02-16T08:53:07Z</time>
      </trkpt>
      <trkpt lat="44.82718" lon="6.94125">
        <ele>1803.8</ele>
        <time>2023-02-16T08:53:08Z</time>
      </trkpt>
      <trkpt lat="44.82726" lon="6.9412">
        <ele>1804.5</ele>
        <time>2023-02-16T08:53:19Z</time>
      </trkpt>
      <trkpt lat="44.82727" lon="6.9412">
        <ele>1804.8</ele>
        <time>2023-02-16T08:53:20Z</time>
      </trkpt>
      <trkpt lat="44.8273" lon="6.94122">
        <ele>1806.1</ele>
        <time>2023-02-16T08:53:31Z</time>
      </trkpt>
      <trkpt lat="44.82728" lon="6.94121">
        <ele>1805.3</ele>
        <time>2023-02-16T08:53:47Z</time>
      </trkpt>
      <trkpt lat="44.82728" lon="6.94122">
        <ele>1805.6</ele>
        <time>2023-02-16T08:54:08Z</time>
      </trkpt>
      <trkpt lat="44.82728" lon="6.94122">
        <ele>1805.6</ele>
        <time>2023-02-16T08:54:29Z</time>
      </trkpt>
      <trkpt lat="44.8273" lon="6.94125">
        <ele>1807</ele>
        <time>2023-02-16T08:54:50Z</time>
      </trkpt>
      <trkpt lat="44.8273" lon="6.94126">
        <ele>1807.2</ele>
        <time>2023-02-16T08:55:09Z</time>
      </trkpt>
      <trkpt lat="44.82731" lon="6.94125">
        <ele>1807.2</ele>
        <time>2023-02-16T08:55:31Z</time>
      </trkpt>
      <trkpt lat="44.82731" lon="6.94125">
        <ele>1807.2</ele>
        <time>2023-02-16T08:55:32Z</time>
      </trkpt>
      <trkpt lat="44.82733" lon="6.94123">
        <ele>1807.1</ele>
        <time>2023-02-16T08:55:44Z</time>
      </trkpt>
      <trkpt lat="44.82739" lon="6.94122">
        <ele>1808.4</ele>
        <time>2023-02-16T08:55:55Z</time>
      </trkpt>
      <trkpt lat="44.82745" lon="6.94113">
        <ele>1807.3</ele>
        <time>2023-02-16T08:56:08Z</time>
      </trkpt>
      <trkpt lat="44.82749" lon="6.94109">
        <ele>1807.1</ele>
        <time>2023-02-16T08:56:16Z</time>
      </trkpt>
      <trkpt lat="44.82753" lon="6.94106">
        <ele>1806.9</ele>
        <time>2023-02-16T08:56:23Z</time>
      </trkpt>
      <trkpt lat="44.82754" lon="6.94104">
        <ele>1806.4</ele>
        <time>2023-02-16T08:56:25Z</time>
      </trkpt>
      <trkpt lat="44.82763" lon="6.94102">
        <ele>1807.4</ele>
        <time>2023-02-16T08:56:35Z</time>
      </trkpt>
      <trkpt lat="44.82766" lon="6.94102">
        <ele>1807.9</ele>
        <time>2023-02-16T08:56:38Z</time>
      </trkpt>
      <trkpt lat="44.82767" lon="6.94102">
        <ele>1808.1</ele>
        <time>2023-02-16T08:56:39Z</time>
      </trkpt>
      <trkpt lat="44.82772" lon="6.94101">
        <ele>1808.7</ele>
        <time>2023-02-16T08:56:45Z</time>
      </trkpt>
      <trkpt lat="44.82782" lon="6.941">
        <ele>1810.1</ele>
        <time>2023-02-16T08:56:55Z</time>
      </trkpt>
      <trkpt lat="44.82782" lon="6.941">
        <ele>1810.1</ele>
        <time>2023-02-16T08:56:56Z</time>
      </trkpt>
      <trkpt lat="44.82787" lon="6.94099">
        <ele>1810.5</ele>
        <time>2023-02-16T08:57:03Z</time>
      </trkpt>
      <trkpt lat="44.82792" lon="6.94097">
        <ele>1810.7</ele>
        <time>2023-02-16T08:57:11Z</time>
      </trkpt>
      <trkpt lat="44.82793" lon="6.94096">
        <ele>1810.6</ele>
        <time>2023-02-16T08:57:12Z</time>
      </trkpt>
      <trkpt lat="44.82802" lon="6.94091">
        <ele>1810.6</ele>
        <time>2023-02-16T08:57:23Z</time>
      </trkpt>
      <trkpt lat="44.82806" lon="6.9409">
        <ele>1811</ele>
        <time>2023-02-16T08:57:27Z</time>
      </trkpt>
      <trkpt lat="44.82808" lon="6.94089">
        <ele>1811</ele>
        <time>2023-02-16T08:57:30Z</time>
      </trkpt>
      <trkpt lat="44.82819" lon="6.9409">
        <ele>1812.7</ele>
        <time>2023-02-16T08:57:37Z</time>
      </trkpt>
      <trkpt lat="44.82826" lon="6.94092">
        <ele>1814.2</ele>
        <time>2023-02-16T08:57:43Z</time>
      </trkpt>
      <trkpt lat="44.8283" lon="6.94094">
        <ele>1815.3</ele>
        <time>2023-02-16T08:57:52Z</time>
      </trkpt>
      <trkpt lat="44.82832" lon="6.94098">
        <ele>1816.5</ele>
        <time>2023-02-16T08:58:01Z</time>
      </trkpt>
      <trkpt lat="44.82833" lon="6.94098">
        <ele>1816.7</ele>
        <time>2023-02-16T08:58:03Z</time>
      </trkpt>
      <trkpt lat="44.82835" lon="6.94097">
        <ele>1816.4</ele>
        <time>2023-02-16T08:58:06Z</time>
      </trkpt>
      <trkpt lat="44.82838" lon="6.94096">
        <ele>1815.9</ele>
        <time>2023-02-16T08:58:09Z</time>
      </trkpt>
      <trkpt lat="44.82848" lon="6.94097">
        <ele>1815.6</ele>
        <time>2023-02-16T08:58:17Z</time>
      </trkpt>
      <trkpt lat="44.82851" lon="6.94094">
        <ele>1814.7</ele>
        <time>2023-02-16T08:58:24Z</time>
      </trkpt>
      <trkpt lat="44.82859" lon="6.94094">
        <ele>1814.2</ele>
        <time>2023-02-16T08:58:32Z</time>
      </trkpt>
      <trkpt lat="44.82866" lon="6.94096">
        <ele>1814.9</ele>
        <time>2023-02-16T08:58:41Z</time>
      </trkpt>
      <trkpt lat="44.82882" lon="6.94099">
        <ele>1816.7</ele>
        <time>2023-02-16T08:58:52Z</time>
      </trkpt>
      <trkpt lat="44.82897" lon="6.94097">
        <ele>1817.3</ele>
        <time>2023-02-16T08:58:59Z</time>
      </trkpt>
      <trkpt lat="44.82903" lon="6.94096">
        <ele>1817.6</ele>
        <time>2023-02-16T08:59:06Z</time>
      </trkpt>
      <trkpt lat="44.8291" lon="6.94095">
        <ele>1817.9</ele>
        <time>2023-02-16T08:59:14Z</time>
      </trkpt>
      <trkpt lat="44.82916" lon="6.94095">
        <ele>1818.6</ele>
        <time>2023-02-16T08:59:19Z</time>
      </trkpt>
      <trkpt lat="44.82923" lon="6.94094">
        <ele>1818.7</ele>
        <time>2023-02-16T08:59:21Z</time>
      </trkpt>
      <trkpt lat="44.82929" lon="6.94093">
        <ele>1818.7</ele>
        <time>2023-02-16T08:59:23Z</time>
      </trkpt>
      <trkpt lat="44.82936" lon="6.94092">
        <ele>1818.8</ele>
        <time>2023-02-16T08:59:28Z</time>
      </trkpt>
      <trkpt lat="44.82942" lon="6.94092">
        <ele>1819.3</ele>
        <time>2023-02-16T08:59:29Z</time>
      </trkpt>
      <trkpt lat="44.82948" lon="6.94091">
        <ele>1819.3</ele>
        <time>2023-02-16T08:59:31Z</time>
      </trkpt>
      <trkpt lat="44.82955" lon="6.9409">
        <ele>1819.4</ele>
        <time>2023-02-16T08:59:59Z</time>
      </trkpt>
      <trkpt lat="44.82961" lon="6.94089">
        <ele>1819.4</ele>
        <time>2023-02-16T09:00:17Z</time>
      </trkpt>
      <trkpt lat="44.82968" lon="6.94089">
        <ele>1819.9</ele>
        <time>2023-02-16T09:00:31Z</time>
      </trkpt>
      <trkpt lat="44.82974" lon="6.94088">
        <ele>1820</ele>
        <time>2023-02-16T09:00:42Z</time>
      </trkpt>
      <trkpt lat="44.82981" lon="6.94087">
        <ele>1820.1</ele>
        <time>2023-02-16T09:00:56Z</time>
      </trkpt>
      <trkpt lat="44.82987" lon="6.94086">
        <ele>1820.1</ele>
        <time>2023-02-16T09:01:00Z</time>
      </trkpt>
      <trkpt lat="44.82994" lon="6.94086">
        <ele>1820.6</ele>
        <time>2023-02-16T09:01:04Z</time>
      </trkpt>
      <trkpt lat="44.82996" lon="6.94087">
        <ele>1821.2</ele>
        <time>2023-02-16T09:01:05Z</time>
      </trkpt>
      <trkpt lat="44.83013" lon="6.94096">
        <ele>1825.7</ele>
        <time>2023-02-16T09:01:16Z</time>
      </trkpt>
      <trkpt lat="44.83024" lon="6.94092">
        <ele>1824.6</ele>
        <time>2023-02-16T09:01:23Z</time>
      </trkpt>
      <trkpt lat="44.83025" lon="6.94091">
        <ele>1824.2</ele>
        <time>2023-02-16T09:01:25Z</time>
      </trkpt>
      <trkpt lat="44.83033" lon="6.94093">
        <ele>1825.4</ele>
        <time>2023-02-16T09:01:31Z</time>
      </trkpt>
      <trkpt lat="44.83041" lon="6.94096">
        <ele>1827.2</ele>
        <time>2023-02-16T09:01:36Z</time>
      </trkpt>
      <trkpt lat="44.83044" lon="6.94096">
        <ele>1827.3</ele>
        <time>2023-02-16T09:01:38Z</time>
      </trkpt>
      <trkpt lat="44.83052" lon="6.94098">
        <ele>1828.7</ele>
        <time>2023-02-16T09:01:45Z</time>
      </trkpt>
      <trkpt lat="44.83053" lon="6.94097">
        <ele>1828.3</ele>
        <time>2023-02-16T09:01:46Z</time>
      </trkpt>
      <trkpt lat="44.83058" lon="6.94095">
        <ele>1827.7</ele>
        <time>2023-02-16T09:01:52Z</time>
      </trkpt>
      <trkpt lat="44.83061" lon="6.9409">
        <ele>1825.7</ele>
        <time>2023-02-16T09:01:58Z</time>
      </trkpt>
      <trkpt lat="44.83062" lon="6.9409">
        <ele>1825.8</ele>
        <time>2023-02-16T09:01:59Z</time>
      </trkpt>
      <trkpt lat="44.83064" lon="6.9409">
        <ele>1826</ele>
        <time>2023-02-16T09:02:02Z</time>
      </trkpt>
      <trkpt lat="44.83067" lon="6.94087">
        <ele>1825</ele>
        <time>2023-02-16T09:02:08Z</time>
      </trkpt>
      <trkpt lat="44.83074" lon="6.94088">
        <ele>1826.2</ele>
        <time>2023-02-16T09:02:16Z</time>
      </trkpt>
      <trkpt lat="44.83075" lon="6.94086">
        <ele>1825.3</ele>
        <time>2023-02-16T09:02:24Z</time>
      </trkpt>
      <trkpt lat="44.83077" lon="6.94085">
        <ele>1825.1</ele>
        <time>2023-02-16T09:02:29Z</time>
      </trkpt>
      <trkpt lat="44.83079" lon="6.94086">
        <ele>1825.8</ele>
        <time>2023-02-16T09:02:30Z</time>
      </trkpt>
      <trkpt lat="44.8309" lon="6.94089">
        <ele>1828.6</ele>
        <time>2023-02-16T09:02:39Z</time>
      </trkpt>
      <trkpt lat="44.83097" lon="6.94093">
        <ele>1831.3</ele>
        <time>2023-02-16T09:02:44Z</time>
      </trkpt>
      <trkpt lat="44.83098" lon="6.94094">
        <ele>1831.9</ele>
        <time>2023-02-16T09:02:45Z</time>
      </trkpt>
      <trkpt lat="44.83099" lon="6.94094">
        <ele>1832</ele>
        <time>2023-02-16T09:02:46Z</time>
      </trkpt>
      <trkpt lat="44.83105" lon="6.94091">
        <ele>1831.5</ele>
        <time>2023-02-16T09:02:54Z</time>
      </trkpt>
      <trkpt lat="44.8311" lon="6.94086">
        <ele>1830</ele>
        <time>2023-02-16T09:02:59Z</time>
      </trkpt>
      <trkpt lat="44.83115" lon="6.94087">
        <ele>1831.3</ele>
        <time>2023-02-16T09:03:01Z</time>
      </trkpt>
      <trkpt lat="44.83117" lon="6.94085">
        <ele>1830.8</ele>
        <time>2023-02-16T09:03:03Z</time>
      </trkpt>
      <trkpt lat="44.83123" lon="6.94082">
        <ele>1830.7</ele>
        <time>2023-02-16T09:03:08Z</time>
      </trkpt>
      <trkpt lat="44.83127" lon="6.94075">
        <ele>1828.9</ele>
        <time>2023-02-16T09:03:15Z</time>
      </trkpt>
      <trkpt lat="44.83127" lon="6.94075">
        <ele>1828.9</ele>
        <time>2023-02-16T09:03:56Z</time>
      </trkpt>
      <trkpt lat="44.83127" lon="6.94075">
        <ele>1828.9</ele>
        <time>2023-02-16T09:04:15Z</time>
      </trkpt>
      <trkpt lat="44.83127" lon="6.94075">
        <ele>1828.9</ele>
        <time>2023-02-16T09:04:26Z</time>
      </trkpt>
      <trkpt lat="44.83127" lon="6.94075">
        <ele>1828.9</ele>
        <time>2023-02-16T09:04:43Z</time>
      </trkpt>
      <trkpt lat="44.83225" lon="6.94048">
        <ele>1832.1</ele>
        <time>2023-02-16T09:04:54Z</time>
      </trkpt>
      <trkpt lat="44.83226" lon="6.94048">
        <ele>1832.3</ele>
        <time>2023-02-16T09:04:55Z</time>
      </trkpt>
      <trkpt lat="44.83232" lon="6.9405">
        <ele>1833.6</ele>
        <time>2023-02-16T09:04:59Z</time>
      </trkpt>
      <trkpt lat="44.83244" lon="6.94053">
        <ele>1836.2</ele>
        <time>2023-02-16T09:05:04Z</time>
      </trkpt>
      <trkpt lat="44.83256" lon="6.94053">
        <ele>1837</ele>
        <time>2023-02-16T09:05:13Z</time>
      </trkpt>
      <trkpt lat="44.83262" lon="6.94052">
        <ele>1836.6</ele>
        <time>2023-02-16T09:05:19Z</time>
      </trkpt>
      <trkpt lat="44.83265" lon="6.9405">
        <ele>1835.8</ele>
        <time>2023-02-16T09:05:23Z</time>
      </trkpt>
      <trkpt lat="44.83277" lon="6.94052">
        <ele>1836.6</ele>
        <time>2023-02-16T09:05:28Z</time>
      </trkpt>
      <trkpt lat="44.83281" lon="6.94051">
        <ele>1836</ele>
        <time>2023-02-16T09:05:31Z</time>
      </trkpt>
      <trkpt lat="44.83287" lon="6.94051">
        <ele>1835.6</ele>
        <time>2023-02-16T09:05:35Z</time>
      </trkpt>
      <trkpt lat="44.83292" lon="6.9405">
        <ele>1834.9</ele>
        <time>2023-02-16T09:05:41Z</time>
      </trkpt>
      <trkpt lat="44.83302" lon="6.94052">
        <ele>1835</ele>
        <time>2023-02-16T09:05:49Z</time>
      </trkpt>
      <trkpt lat="44.83306" lon="6.94053">
        <ele>1835</ele>
        <time>2023-02-16T09:05:52Z</time>
      </trkpt>
      <trkpt lat="44.83309" lon="6.94054">
        <ele>1835</ele>
        <time>2023-02-16T09:05:56Z</time>
      </trkpt>
      <trkpt lat="44.83313" lon="6.94053">
        <ele>1834</ele>
        <time>2023-02-16T09:06:04Z</time>
      </trkpt>
      <trkpt lat="44.83318" lon="6.94056">
        <ele>1834.4</ele>
        <time>2023-02-16T09:06:13Z</time>
      </trkpt>
      <trkpt lat="44.8332" lon="6.94059">
        <ele>1835.1</ele>
        <time>2023-02-16T09:06:18Z</time>
      </trkpt>
      <trkpt lat="44.83321" lon="6.9406">
        <ele>1835.3</ele>
        <time>2023-02-16T09:06:19Z</time>
      </trkpt>
      <trkpt lat="44.83323" lon="6.94062">
        <ele>1835.7</ele>
        <time>2023-02-16T09:06:22Z</time>
      </trkpt>
      <trkpt lat="44.83334" lon="6.9407">
        <ele>1836.6</ele>
        <time>2023-02-16T09:06:32Z</time>
      </trkpt>
      <trkpt lat="44.83334" lon="6.94071">
        <ele>1836.9</ele>
        <time>2023-02-16T09:06:33Z</time>
      </trkpt>
      <trkpt lat="44.83343" lon="6.94077">
        <ele>1837.6</ele>
        <time>2023-02-16T09:06:41Z</time>
      </trkpt>
      <trkpt lat="44.83356" lon="6.94084">
        <ele>1838</ele>
        <time>2023-02-16T09:06:51Z</time>
      </trkpt>
      <trkpt lat="44.83368" lon="6.94086">
        <ele>1837</ele>
        <time>2023-02-16T09:07:01Z</time>
      </trkpt>
      <trkpt lat="44.8337" lon="6.94087">
        <ele>1837.1</ele>
        <time>2023-02-16T09:07:02Z</time>
      </trkpt>
      <trkpt lat="44.8338" lon="6.94087">
        <ele>1835.7</ele>
        <time>2023-02-16T09:07:10Z</time>
      </trkpt>
      <trkpt lat="44.83387" lon="6.94087">
        <ele>1834.7</ele>
        <time>2023-02-16T09:07:17Z</time>
      </trkpt>
      <trkpt lat="44.83399" lon="6.94089">
        <ele>1834.7</ele>
        <time>2023-02-16T09:07:26Z</time>
      </trkpt>
      <trkpt lat="44.8341" lon="6.94089">
        <ele>1834</ele>
        <time>2023-02-16T09:07:35Z</time>
      </trkpt>
      <trkpt lat="44.83418" lon="6.94088">
        <ele>1833.4</ele>
        <time>2023-02-16T09:07:43Z</time>
      </trkpt>
      <trkpt lat="44.83431" lon="6.94087">
        <ele>1833.6</ele>
        <time>2023-02-16T09:07:53Z</time>
      </trkpt>
      <trkpt lat="44.83438" lon="6.94086">
        <ele>1833.5</ele>
        <time>2023-02-16T09:07:59Z</time>
      </trkpt>
      <trkpt lat="44.83446" lon="6.94086">
        <ele>1833.8</ele>
        <time>2023-02-16T09:08:07Z</time>
      </trkpt>
      <trkpt lat="44.83454" lon="6.94085">
        <ele>1833.5</ele>
        <time>2023-02-16T09:08:14Z</time>
      </trkpt>
      <trkpt lat="44.83465" lon="6.94085">
        <ele>1833.5</ele>
        <time>2023-02-16T09:08:23Z</time>
      </trkpt>
      <trkpt lat="44.83475" lon="6.94088">
        <ele>1834.6</ele>
        <time>2023-02-16T09:08:33Z</time>
      </trkpt>
      <trkpt lat="44.83484" lon="6.94091">
        <ele>1835.7</ele>
        <time>2023-02-16T09:08:40Z</time>
      </trkpt>
      <trkpt lat="44.83493" lon="6.94093">
        <ele>1836.4</ele>
        <time>2023-02-16T09:08:48Z</time>
      </trkpt>
      <trkpt lat="44.83502" lon="6.94096">
        <ele>1837.1</ele>
        <time>2023-02-16T09:08:56Z</time>
      </trkpt>
      <trkpt lat="44.83513" lon="6.941">
        <ele>1837.1</ele>
        <time>2023-02-16T09:09:05Z</time>
      </trkpt>
      <trkpt lat="44.83522" lon="6.94107">
        <ele>1837.3</ele>
        <time>2023-02-16T09:09:14Z</time>
      </trkpt>
      <trkpt lat="44.83528" lon="6.94113">
        <ele>1837.5</ele>
        <time>2023-02-16T09:09:21Z</time>
      </trkpt>
      <trkpt lat="44.83534" lon="6.94119">
        <ele>1838.8</ele>
        <time>2023-02-16T09:09:28Z</time>
      </trkpt>
      <trkpt lat="44.83539" lon="6.94124">
        <ele>1839.6</ele>
        <time>2023-02-16T09:09:35Z</time>
      </trkpt>
      <trkpt lat="44.8354" lon="6.94125">
        <ele>1839.7</ele>
        <time>2023-02-16T09:09:36Z</time>
      </trkpt>
      <trkpt lat="44.83545" lon="6.94128">
        <ele>1839.7</ele>
        <time>2023-02-16T09:09:42Z</time>
      </trkpt>
      <trkpt lat="44.83548" lon="6.9413">
        <ele>1839.7</ele>
        <time>2023-02-16T09:09:46Z</time>
      </trkpt>
      <trkpt lat="44.83549" lon="6.94133">
        <ele>1840.1</ele>
        <time>2023-02-16T09:09:49Z</time>
      </trkpt>
      <trkpt lat="44.83552" lon="6.94137">
        <ele>1840.3</ele>
        <time>2023-02-16T09:09:54Z</time>
      </trkpt>
      <trkpt lat="44.83554" lon="6.9414">
        <ele>1840.5</ele>
        <time>2023-02-16T09:09:57Z</time>
      </trkpt>
      <trkpt lat="44.83558" lon="6.94146">
        <ele>1841.6</ele>
        <time>2023-02-16T09:10:03Z</time>
      </trkpt>
      <trkpt lat="44.8356" lon="6.9415">
        <ele>1842.4</ele>
        <time>2023-02-16T09:10:07Z</time>
      </trkpt>
      <trkpt lat="44.83566" lon="6.94155">
        <ele>1843.1</ele>
        <time>2023-02-16T09:10:15Z</time>
      </trkpt>
      <trkpt lat="44.83566" lon="6.94156">
        <ele>1843.3</ele>
        <time>2023-02-16T09:10:16Z</time>
      </trkpt>
      <trkpt lat="44.83567" lon="6.94157">
        <ele>1843.4</ele>
        <time>2023-02-16T09:10:17Z</time>
      </trkpt>
      <trkpt lat="44.83571" lon="6.94157">
        <ele>1843.2</ele>
        <time>2023-02-16T09:10:23Z</time>
      </trkpt>
      <trkpt lat="44.83572" lon="6.94158">
        <ele>1843.3</ele>
        <time>2023-02-16T09:10:34Z</time>
      </trkpt>
      <trkpt lat="44.83575" lon="6.9416">
        <ele>1843.3</ele>
        <time>2023-02-16T09:10:50Z</time>
      </trkpt>
      <trkpt lat="44.83575" lon="6.94159">
        <ele>1843.2</ele>
        <time>2023-02-16T09:10:55Z</time>
      </trkpt>
      <trkpt lat="44.8357" lon="6.9416">
        <ele>1843.6</ele>
        <time>2023-02-16T09:11:07Z</time>
      </trkpt>
      <trkpt lat="44.83573" lon="6.94155">
        <ele>1842.9</ele>
        <time>2023-02-16T09:11:26Z</time>
      </trkpt>
      <trkpt lat="44.83574" lon="6.94154">
        <ele>1842.8</ele>
        <time>2023-02-16T09:11:30Z</time>
      </trkpt>
      <trkpt lat="44.83575" lon="6.94152">
        <ele>1842.6</ele>
        <time>2023-02-16T09:11:35Z</time>
      </trkpt>
      <trkpt lat="44.83581" lon="6.94144">
        <ele>1842.1</ele>
        <time>2023-02-16T09:11:47Z</time>
      </trkpt>
      <trkpt lat="44.83582" lon="6.94143">
        <ele>1842.1</ele>
        <time>2023-02-16T09:11:48Z</time>
      </trkpt>
      <trkpt lat="44.83584" lon="6.94143">
        <ele>1842.3</ele>
        <time>2023-02-16T09:11:50Z</time>
      </trkpt>
      <trkpt lat="44.83586" lon="6.94145">
        <ele>1843</ele>
        <time>2023-02-16T09:11:53Z</time>
      </trkpt>
      <trkpt lat="44.83588" lon="6.94146">
        <ele>1843.6</ele>
        <time>2023-02-16T09:11:55Z</time>
      </trkpt>
      <trkpt lat="44.8359" lon="6.9415">
        <ele>1844.2</ele>
        <time>2023-02-16T09:12:01Z</time>
      </trkpt>
      <trkpt lat="44.83591" lon="6.94153">
        <ele>1844.4</ele>
        <time>2023-02-16T09:12:05Z</time>
      </trkpt>
      <trkpt lat="44.83593" lon="6.94155">
        <ele>1844.9</ele>
        <time>2023-02-16T09:12:08Z</time>
      </trkpt>
      <trkpt lat="44.83594" lon="6.94156">
        <ele>1845.1</ele>
        <time>2023-02-16T09:12:09Z</time>
      </trkpt>
      <trkpt lat="44.83595" lon="6.94159">
        <ele>1845.3</ele>
        <time>2023-02-16T09:12:13Z</time>
      </trkpt>
      <trkpt lat="44.83598" lon="6.94162">
        <ele>1845.8</ele>
        <time>2023-02-16T09:12:19Z</time>
      </trkpt>
      <trkpt lat="44.83601" lon="6.94165">
        <ele>1846.3</ele>
        <time>2023-02-16T09:12:25Z</time>
      </trkpt>
      <trkpt lat="44.83601" lon="6.94166">
        <ele>1846.2</ele>
        <time>2023-02-16T09:12:26Z</time>
      </trkpt>
      <trkpt lat="44.83603" lon="6.94165">
        <ele>1846.6</ele>
        <time>2023-02-16T09:12:29Z</time>
      </trkpt>
      <trkpt lat="44.83607" lon="6.9416">
        <ele>1847.8</ele>
        <time>2023-02-16T09:12:40Z</time>
      </trkpt>
      <trkpt lat="44.83605" lon="6.94158">
        <ele>1847.6</ele>
        <time>2023-02-16T09:12:46Z</time>
      </trkpt>
      <trkpt lat="44.83605" lon="6.94155">
        <ele>1847.8</ele>
        <time>2023-02-16T09:12:51Z</time>
      </trkpt>
      <trkpt lat="44.83606" lon="6.94154">
        <ele>1848.1</ele>
        <time>2023-02-16T09:12:52Z</time>
      </trkpt>
      <trkpt lat="44.83608" lon="6.94146">
        <ele>1849.3</ele>
        <time>2023-02-16T09:13:00Z</time>
      </trkpt>
      <trkpt lat="44.83609" lon="6.94146">
        <ele>1849.6</ele>
        <time>2023-02-16T09:13:01Z</time>
      </trkpt>
      <trkpt lat="44.8361" lon="6.94149">
        <ele>1849.6</ele>
        <time>2023-02-16T09:13:06Z</time>
      </trkpt>
      <trkpt lat="44.83611" lon="6.94151">
        <ele>1849.7</ele>
        <time>2023-02-16T09:13:10Z</time>
      </trkpt>
      <trkpt lat="44.83613" lon="6.94158">
        <ele>1849.6</ele>
        <time>2023-02-16T09:13:17Z</time>
      </trkpt>
      <trkpt lat="44.83617" lon="6.94161">
        <ele>1850.8</ele>
        <time>2023-02-16T09:13:25Z</time>
      </trkpt>
      <trkpt lat="44.83617" lon="6.94162">
        <ele>1850.7</ele>
        <time>2023-02-16T09:13:27Z</time>
      </trkpt>
      <trkpt lat="44.83618" lon="6.94167">
        <ele>1850.5</ele>
        <time>2023-02-16T09:13:36Z</time>
      </trkpt>
      <trkpt lat="44.83618" lon="6.9417">
        <ele>1850.5</ele>
        <time>2023-02-16T09:13:38Z</time>
      </trkpt>
      <trkpt lat="44.83619" lon="6.94179">
        <ele>1850.8</ele>
        <time>2023-02-16T09:13:46Z</time>
      </trkpt>
      <trkpt lat="44.83621" lon="6.94184">
        <ele>1851.6</ele>
        <time>2023-02-16T09:13:51Z</time>
      </trkpt>
      <trkpt lat="44.83623" lon="6.94192">
        <ele>1852.3</ele>
        <time>2023-02-16T09:13:58Z</time>
      </trkpt>
      <trkpt lat="44.83626" lon="6.94207">
        <ele>1853.8</ele>
        <time>2023-02-16T09:14:11Z</time>
      </trkpt>
      <trkpt lat="44.83626" lon="6.94212">
        <ele>1854</ele>
        <time>2023-02-16T09:14:16Z</time>
      </trkpt>
      <trkpt lat="44.83628" lon="6.9422">
        <ele>1855.2</ele>
        <time>2023-02-16T09:14:24Z</time>
      </trkpt>
      <trkpt lat="44.83628" lon="6.94221">
        <ele>1855.2</ele>
        <time>2023-02-16T09:14:25Z</time>
      </trkpt>
      <trkpt lat="44.83628" lon="6.94228">
        <ele>1856</ele>
        <time>2023-02-16T09:14:31Z</time>
      </trkpt>
      <trkpt lat="44.83627" lon="6.94234">
        <ele>1856.3</ele>
        <time>2023-02-16T09:14:36Z</time>
      </trkpt>
      <trkpt lat="44.83627" lon="6.94243">
        <ele>1857.4</ele>
        <time>2023-02-16T09:14:46Z</time>
      </trkpt>
      <trkpt lat="44.83627" lon="6.94245">
        <ele>1857.7</ele>
        <time>2023-02-16T09:14:47Z</time>
      </trkpt>
      <trkpt lat="44.83627" lon="6.94247">
        <ele>1857.9</ele>
        <time>2023-02-16T09:14:49Z</time>
      </trkpt>
      <trkpt lat="44.83628" lon="6.94251">
        <ele>1858.8</ele>
        <time>2023-02-16T09:14:53Z</time>
      </trkpt>
      <trkpt lat="44.83628" lon="6.94258">
        <ele>1859.5</ele>
        <time>2023-02-16T09:15:00Z</time>
      </trkpt>
      <trkpt lat="44.83629" lon="6.94271">
        <ele>1861.1</ele>
        <time>2023-02-16T09:15:11Z</time>
      </trkpt>
      <trkpt lat="44.83628" lon="6.94274">
        <ele>1861.1</ele>
        <time>2023-02-16T09:15:14Z</time>
      </trkpt>
      <trkpt lat="44.83628" lon="6.94279">
        <ele>1861.6</ele>
        <time>2023-02-16T09:15:21Z</time>
      </trkpt>
      <trkpt lat="44.83629" lon="6.94279">
        <ele>1862</ele>
        <time>2023-02-16T09:15:22Z</time>
      </trkpt>
      <trkpt lat="44.83629" lon="6.94284">
        <ele>1862.6</ele>
        <time>2023-02-16T09:15:27Z</time>
      </trkpt>
      <trkpt lat="44.8363" lon="6.94287">
        <ele>1863.3</ele>
        <time>2023-02-16T09:15:30Z</time>
      </trkpt>
      <trkpt lat="44.8363" lon="6.9429">
        <ele>1863.7</ele>
        <time>2023-02-16T09:15:32Z</time>
      </trkpt>
      <trkpt lat="44.83629" lon="6.94297">
        <ele>1864.4</ele>
        <time>2023-02-16T09:15:39Z</time>
      </trkpt>
      <trkpt lat="44.8363" lon="6.943">
        <ele>1865</ele>
        <time>2023-02-16T09:15:44Z</time>
      </trkpt>
      <trkpt lat="44.8363" lon="6.94304">
        <ele>1865.6</ele>
        <time>2023-02-16T09:15:49Z</time>
      </trkpt>
      <trkpt lat="44.8363" lon="6.94308">
        <ele>1866</ele>
        <time>2023-02-16T09:15:52Z</time>
      </trkpt>
      <trkpt lat="44.83631" lon="6.9431">
        <ele>1866.4</ele>
        <time>2023-02-16T09:15:55Z</time>
      </trkpt>
      <trkpt lat="44.83631" lon="6.94318">
        <ele>1867.2</ele>
        <time>2023-02-16T09:16:03Z</time>
      </trkpt>
      <trkpt lat="44.8363" lon="6.94322">
        <ele>1867.3</ele>
        <time>2023-02-16T09:16:09Z</time>
      </trkpt>
      <trkpt lat="44.83628" lon="6.94326">
        <ele>1867.2</ele>
        <time>2023-02-16T09:16:14Z</time>
      </trkpt>
      <trkpt lat="44.83628" lon="6.94327">
        <ele>1867.3</ele>
        <time>2023-02-16T09:16:17Z</time>
      </trkpt>
      <trkpt lat="44.83628" lon="6.94333">
        <ele>1867.8</ele>
        <time>2023-02-16T09:16:25Z</time>
      </trkpt>
      <trkpt lat="44.83629" lon="6.94335">
        <ele>1868.4</ele>
        <time>2023-02-16T09:16:27Z</time>
      </trkpt>
      <trkpt lat="44.83629" lon="6.94339">
        <ele>1868.9</ele>
        <time>2023-02-16T09:16:32Z</time>
      </trkpt>
      <trkpt lat="44.83629" lon="6.94342">
        <ele>1869.3</ele>
        <time>2023-02-16T09:16:35Z</time>
      </trkpt>
      <trkpt lat="44.83629" lon="6.94342">
        <ele>1869.3</ele>
        <time>2023-02-16T09:16:36Z</time>
      </trkpt>
      <trkpt lat="44.83631" lon="6.9435">
        <ele>1871</ele>
        <time>2023-02-16T09:16:45Z</time>
      </trkpt>
      <trkpt lat="44.83631" lon="6.94351">
        <ele>1871.1</ele>
        <time>2023-02-16T09:16:47Z</time>
      </trkpt>
      <trkpt lat="44.83631" lon="6.94352">
        <ele>1871.2</ele>
        <time>2023-02-16T09:16:48Z</time>
      </trkpt>
      <trkpt lat="44.83633" lon="6.94359">
        <ele>1872.8</ele>
        <time>2023-02-16T09:16:58Z</time>
      </trkpt>
      <trkpt lat="44.83633" lon="6.94361">
        <ele>1873.1</ele>
        <time>2023-02-16T09:17:01Z</time>
      </trkpt>
      <trkpt lat="44.83634" lon="6.94367">
        <ele>1873.8</ele>
        <time>2023-02-16T09:17:08Z</time>
      </trkpt>
      <trkpt lat="44.83632" lon="6.94369">
        <ele>1873.3</ele>
        <time>2023-02-16T09:17:18Z</time>
      </trkpt>
      <trkpt lat="44.83632" lon="6.94373">
        <ele>1873.6</ele>
        <time>2023-02-16T09:17:25Z</time>
      </trkpt>
      <trkpt lat="44.83633" lon="6.94375">
        <ele>1874.1</ele>
        <time>2023-02-16T09:17:28Z</time>
      </trkpt>
      <trkpt lat="44.83635" lon="6.94383">
        <ele>1875.3</ele>
        <time>2023-02-16T09:17:36Z</time>
      </trkpt>
      <trkpt lat="44.83635" lon="6.94384">
        <ele>1875.4</ele>
        <time>2023-02-16T09:17:38Z</time>
      </trkpt>
      <trkpt lat="44.83635" lon="6.94386">
        <ele>1875.5</ele>
        <time>2023-02-16T09:17:41Z</time>
      </trkpt>
      <trkpt lat="44.83635" lon="6.94389">
        <ele>1875.8</ele>
        <time>2023-02-16T09:17:48Z</time>
      </trkpt>
      <trkpt lat="44.83635" lon="6.9439">
        <ele>1875.9</ele>
        <time>2023-02-16T09:17:49Z</time>
      </trkpt>
      <trkpt lat="44.83634" lon="6.94393">
        <ele>1875.9</ele>
        <time>2023-02-16T09:18:00Z</time>
      </trkpt>
      <trkpt lat="44.83634" lon="6.94395">
        <ele>1876.1</ele>
        <time>2023-02-16T09:18:10Z</time>
      </trkpt>
      <trkpt lat="44.83635" lon="6.94398">
        <ele>1876.8</ele>
        <time>2023-02-16T09:18:20Z</time>
      </trkpt>
      <trkpt lat="44.83635" lon="6.94398">
        <ele>1876.8</ele>
        <time>2023-02-16T09:18:22Z</time>
      </trkpt>
      <trkpt lat="44.83636" lon="6.94399">
        <ele>1877.2</ele>
        <time>2023-02-16T09:18:33Z</time>
      </trkpt>
      <trkpt lat="44.83636" lon="6.94399">
        <ele>1877.2</ele>
        <time>2023-02-16T09:18:34Z</time>
      </trkpt>
      <trkpt lat="44.83635" lon="6.944">
        <ele>1877</ele>
        <time>2023-02-16T09:18:47Z</time>
      </trkpt>
      <trkpt lat="44.83636" lon="6.94403">
        <ele>1877.6</ele>
        <time>2023-02-16T09:18:59Z</time>
      </trkpt>
      <trkpt lat="44.83637" lon="6.94406">
        <ele>1878.3</ele>
        <time>2023-02-16T09:19:04Z</time>
      </trkpt>
      <trkpt lat="44.83637" lon="6.94409">
        <ele>1878.6</ele>
        <time>2023-02-16T09:19:10Z</time>
      </trkpt>
      <trkpt lat="44.83637" lon="6.9441">
        <ele>1878.7</ele>
        <time>2023-02-16T09:19:14Z</time>
      </trkpt>
      <trkpt lat="44.83637" lon="6.94412">
        <ele>1878.9</ele>
        <time>2023-02-16T09:19:21Z</time>
      </trkpt>
      <trkpt lat="44.83636" lon="6.94413">
        <ele>1878.8</ele>
        <time>2023-02-16T09:19:23Z</time>
      </trkpt>
      <trkpt lat="44.83636" lon="6.94421">
        <ele>1879.6</ele>
        <time>2023-02-16T09:19:31Z</time>
      </trkpt>
      <trkpt lat="44.83635" lon="6.94423">
        <ele>1879.6</ele>
        <time>2023-02-16T09:19:40Z</time>
      </trkpt>
      <trkpt lat="44.83635" lon="6.94424">
        <ele>1879.7</ele>
        <time>2023-02-16T09:19:42Z</time>
      </trkpt>
      <trkpt lat="44.83635" lon="6.94431">
        <ele>1880.4</ele>
        <time>2023-02-16T09:19:52Z</time>
      </trkpt>
      <trkpt lat="44.83634" lon="6.9444">
        <ele>1881.1</ele>
        <time>2023-02-16T09:20:02Z</time>
      </trkpt>
      <trkpt lat="44.83634" lon="6.94442">
        <ele>1881.3</ele>
        <time>2023-02-16T09:20:06Z</time>
      </trkpt>
      <trkpt lat="44.83634" lon="6.94445">
        <ele>1881.7</ele>
        <time>2023-02-16T09:20:10Z</time>
      </trkpt>
      <trkpt lat="44.83634" lon="6.94445">
        <ele>1881.7</ele>
        <time>2023-02-16T09:20:11Z</time>
      </trkpt>
      <trkpt lat="44.83633" lon="6.94448">
        <ele>1881.8</ele>
        <time>2023-02-16T09:20:18Z</time>
      </trkpt>
      <trkpt lat="44.83633" lon="6.94449">
        <ele>1882</ele>
        <time>2023-02-16T09:20:24Z</time>
      </trkpt>
      <trkpt lat="44.83633" lon="6.94449">
        <ele>1882</ele>
        <time>2023-02-16T09:20:28Z</time>
      </trkpt>
      <trkpt lat="44.83634" lon="6.94449">
        <ele>1882.2</ele>
        <time>2023-02-16T09:20:35Z</time>
      </trkpt>
      <trkpt lat="44.83637" lon="6.94447">
        <ele>1882.8</ele>
        <time>2023-02-16T09:20:45Z</time>
      </trkpt>
      <trkpt lat="44.83639" lon="6.94444">
        <ele>1883</ele>
        <time>2023-02-16T09:20:53Z</time>
      </trkpt>
      <trkpt lat="44.83642" lon="6.9444">
        <ele>1884.3</ele>
        <time>2023-02-16T09:21:02Z</time>
      </trkpt>
      <trkpt lat="44.83647" lon="6.94437">
        <ele>1886.9</ele>
        <time>2023-02-16T09:21:13Z</time>
      </trkpt>
      <trkpt lat="44.83649" lon="6.94435">
        <ele>1887.8</ele>
        <time>2023-02-16T09:21:23Z</time>
      </trkpt>
      <trkpt lat="44.83649" lon="6.94435">
        <ele>1887.8</ele>
        <time>2023-02-16T09:21:26Z</time>
      </trkpt>
      <trkpt lat="44.8365" lon="6.94432">
        <ele>1888.1</ele>
        <time>2023-02-16T09:21:35Z</time>
      </trkpt>
      <trkpt lat="44.83653" lon="6.94427">
        <ele>1889.2</ele>
        <time>2023-02-16T09:21:43Z</time>
      </trkpt>
      <trkpt lat="44.83654" lon="6.94426">
        <ele>1889.7</ele>
        <time>2023-02-16T09:21:45Z</time>
      </trkpt>
      <trkpt lat="44.83656" lon="6.94426">
        <ele>1890.9</ele>
        <time>2023-02-16T09:21:48Z</time>
      </trkpt>
      <trkpt lat="44.83658" lon="6.94429">
        <ele>1892.3</ele>
        <time>2023-02-16T09:21:53Z</time>
      </trkpt>
      <trkpt lat="44.83658" lon="6.94436">
        <ele>1893.1</ele>
        <time>2023-02-16T09:22:01Z</time>
      </trkpt>
      <trkpt lat="44.83658" lon="6.94439">
        <ele>1893.4</ele>
        <time>2023-02-16T09:22:04Z</time>
      </trkpt>
      <trkpt lat="44.83659" lon="6.94441">
        <ele>1894.2</ele>
        <time>2023-02-16T09:22:06Z</time>
      </trkpt>
      <trkpt lat="44.83659" lon="6.94444">
        <ele>1894.5</ele>
        <time>2023-02-16T09:22:12Z</time>
      </trkpt>
      <trkpt lat="44.83659" lon="6.94443">
        <ele>1894.4</ele>
        <time>2023-02-16T09:22:13Z</time>
      </trkpt>
      <trkpt lat="44.83661" lon="6.9444">
        <ele>1895.3</ele>
        <time>2023-02-16T09:22:21Z</time>
      </trkpt>
      <trkpt lat="44.83664" lon="6.94441">
        <ele>1897.1</ele>
        <time>2023-02-16T09:22:26Z</time>
      </trkpt>
      <trkpt lat="44.83663" lon="6.94444">
        <ele>1896.8</ele>
        <time>2023-02-16T09:22:29Z</time>
      </trkpt>
      <trkpt lat="44.83663" lon="6.94445">
        <ele>1897</ele>
        <time>2023-02-16T09:22:30Z</time>
      </trkpt>
      <trkpt lat="44.83662" lon="6.94453">
        <ele>1897.5</ele>
        <time>2023-02-16T09:22:38Z</time>
      </trkpt>
      <trkpt lat="44.83662" lon="6.94456">
        <ele>1898</ele>
        <time>2023-02-16T09:22:40Z</time>
      </trkpt>
      <trkpt lat="44.83662" lon="6.94458">
        <ele>1898.3</ele>
        <time>2023-02-16T09:22:42Z</time>
      </trkpt>
      <trkpt lat="44.8366" lon="6.94463">
        <ele>1897.8</ele>
        <time>2023-02-16T09:22:49Z</time>
      </trkpt>
      <trkpt lat="44.83661" lon="6.94467">
        <ele>1899</ele>
        <time>2023-02-16T09:22:55Z</time>
      </trkpt>
      <trkpt lat="44.83661" lon="6.94469">
        <ele>1899.3</ele>
        <time>2023-02-16T09:22:57Z</time>
      </trkpt>
      <trkpt lat="44.83661" lon="6.9447">
        <ele>1899.4</ele>
        <time>2023-02-16T09:22:58Z</time>
      </trkpt>
      <trkpt lat="44.83662" lon="6.94471">
        <ele>1900.1</ele>
        <time>2023-02-16T09:23:00Z</time>
      </trkpt>
      <trkpt lat="44.83665" lon="6.94472">
        <ele>1902</ele>
        <time>2023-02-16T09:23:05Z</time>
      </trkpt>
      <trkpt lat="44.83666" lon="6.94471">
        <ele>1902.4</ele>
        <time>2023-02-16T09:23:06Z</time>
      </trkpt>
      <trkpt lat="44.83671" lon="6.94469">
        <ele>1904.4</ele>
        <time>2023-02-16T09:23:13Z</time>
      </trkpt>
      <trkpt lat="44.83672" lon="6.9447">
        <ele>1905</ele>
        <time>2023-02-16T09:23:16Z</time>
      </trkpt>
      <trkpt lat="44.83673" lon="6.94472">
        <ele>1905.7</ele>
        <time>2023-02-16T09:23:18Z</time>
      </trkpt>
      <trkpt lat="44.83673" lon="6.9448">
        <ele>1907</ele>
        <time>2023-02-16T09:23:24Z</time>
      </trkpt>
      <trkpt lat="44.83671" lon="6.94491">
        <ele>1907.8</ele>
        <time>2023-02-16T09:23:32Z</time>
      </trkpt>
      <trkpt lat="44.83671" lon="6.94495">
        <ele>1908.4</ele>
        <time>2023-02-16T09:23:35Z</time>
      </trkpt>
      <trkpt lat="44.8367" lon="6.94499">
        <ele>1908.5</ele>
        <time>2023-02-16T09:23:38Z</time>
      </trkpt>
      <trkpt lat="44.83668" lon="6.94506">
        <ele>1908.5</ele>
        <time>2023-02-16T09:23:44Z</time>
      </trkpt>
      <trkpt lat="44.83668" lon="6.94513">
        <ele>1909.6</ele>
        <time>2023-02-16T09:23:49Z</time>
      </trkpt>
      <trkpt lat="44.83668" lon="6.94514">
        <ele>1909.7</ele>
        <time>2023-02-16T09:23:50Z</time>
      </trkpt>
      <trkpt lat="44.83668" lon="6.94519">
        <ele>1910.4</ele>
        <time>2023-02-16T09:23:55Z</time>
      </trkpt>
      <trkpt lat="44.83667" lon="6.94526">
        <ele>1910.9</ele>
        <time>2023-02-16T09:24:01Z</time>
      </trkpt>
      <trkpt lat="44.83667" lon="6.94529">
        <ele>1911.3</ele>
        <time>2023-02-16T09:24:03Z</time>
      </trkpt>
      <trkpt lat="44.83665" lon="6.94538">
        <ele>1911.2</ele>
        <time>2023-02-16T09:24:12Z</time>
      </trkpt>
      <trkpt lat="44.83665" lon="6.94539">
        <ele>1911.3</ele>
        <time>2023-02-16T09:24:13Z</time>
      </trkpt>
      <trkpt lat="44.83665" lon="6.94543">
        <ele>1911.7</ele>
        <time>2023-02-16T09:24:16Z</time>
      </trkpt>
      <trkpt lat="44.83665" lon="6.94554">
        <ele>1912.9</ele>
        <time>2023-02-16T09:24:23Z</time>
      </trkpt>
      <trkpt lat="44.83666" lon="6.94566">
        <ele>1914.4</ele>
        <time>2023-02-16T09:24:31Z</time>
      </trkpt>
      <trkpt lat="44.83666" lon="6.94572">
        <ele>1914.9</ele>
        <time>2023-02-16T09:24:35Z</time>
      </trkpt>
      <trkpt lat="44.83666" lon="6.94575">
        <ele>1915.1</ele>
        <time>2023-02-16T09:24:38Z</time>
      </trkpt>
      <trkpt lat="44.83667" lon="6.94585">
        <ele>1916.4</ele>
        <time>2023-02-16T09:24:46Z</time>
      </trkpt>
      <trkpt lat="44.83667" lon="6.94586">
        <ele>1916.6</ele>
        <time>2023-02-16T09:24:47Z</time>
      </trkpt>
      <trkpt lat="44.83667" lon="6.94592">
        <ele>1917.4</ele>
        <time>2023-02-16T09:24:53Z</time>
      </trkpt>
      <trkpt lat="44.83667" lon="6.94595">
        <ele>1917.8</ele>
        <time>2023-02-16T09:24:55Z</time>
      </trkpt>
      <trkpt lat="44.83667" lon="6.94601">
        <ele>1918.7</ele>
        <time>2023-02-16T09:25:00Z</time>
      </trkpt>
      <trkpt lat="44.83666" lon="6.94605">
        <ele>1918.8</ele>
        <time>2023-02-16T09:25:03Z</time>
      </trkpt>
      <trkpt lat="44.83664" lon="6.94613">
        <ele>1919.1</ele>
        <time>2023-02-16T09:25:10Z</time>
      </trkpt>
      <trkpt lat="44.83664" lon="6.94614">
        <ele>1919.3</ele>
        <time>2023-02-16T09:25:11Z</time>
      </trkpt>
      <trkpt lat="44.83663" lon="6.94619">
        <ele>1919.6</ele>
        <time>2023-02-16T09:25:16Z</time>
      </trkpt>
      <trkpt lat="44.83663" lon="6.94626">
        <ele>1920.6</ele>
        <time>2023-02-16T09:25:23Z</time>
      </trkpt>
      <trkpt lat="44.83663" lon="6.94627">
        <ele>1920.8</ele>
        <time>2023-02-16T09:25:24Z</time>
      </trkpt>
      <trkpt lat="44.83663" lon="6.94631">
        <ele>1921.4</ele>
        <time>2023-02-16T09:25:28Z</time>
      </trkpt>
      <trkpt lat="44.83664" lon="6.94634">
        <ele>1922.2</ele>
        <time>2023-02-16T09:25:31Z</time>
      </trkpt>
      <trkpt lat="44.83664" lon="6.94639">
        <ele>1923</ele>
        <time>2023-02-16T09:25:35Z</time>
      </trkpt>
      <trkpt lat="44.83664" lon="6.94642">
        <ele>1923.4</ele>
        <time>2023-02-16T09:25:38Z</time>
      </trkpt>
      <trkpt lat="44.83664" lon="6.94654">
        <ele>1925.2</ele>
        <time>2023-02-16T09:25:47Z</time>
      </trkpt>
      <trkpt lat="44.83664" lon="6.9466">
        <ele>1926.1</ele>
        <time>2023-02-16T09:25:52Z</time>
      </trkpt>
      <trkpt lat="44.83663" lon="6.94669">
        <ele>1927.1</ele>
        <time>2023-02-16T09:26:00Z</time>
      </trkpt>
      <trkpt lat="44.83662" lon="6.94678">
        <ele>1928.5</ele>
        <time>2023-02-16T09:26:08Z</time>
      </trkpt>
      <trkpt lat="44.8366" lon="6.94687">
        <ele>1929.6</ele>
        <time>2023-02-16T09:26:16Z</time>
      </trkpt>
      <trkpt lat="44.83659" lon="6.94689">
        <ele>1929.7</ele>
        <time>2023-02-16T09:26:19Z</time>
      </trkpt>
      <trkpt lat="44.83657" lon="6.94696">
        <ele>1930.6</ele>
        <time>2023-02-16T09:26:25Z</time>
      </trkpt>
      <trkpt lat="44.83655" lon="6.94701">
        <ele>1931.1</ele>
        <time>2023-02-16T09:26:31Z</time>
      </trkpt>
      <trkpt lat="44.83653" lon="6.94704">
        <ele>1931.1</ele>
        <time>2023-02-16T09:26:34Z</time>
      </trkpt>
      <trkpt lat="44.83651" lon="6.94709">
        <ele>1931.6</ele>
        <time>2023-02-16T09:26:39Z</time>
      </trkpt>
      <trkpt lat="44.83649" lon="6.94714">
        <ele>1932.1</ele>
        <time>2023-02-16T09:26:44Z</time>
      </trkpt>
      <trkpt lat="44.83648" lon="6.94716">
        <ele>1932.3</ele>
        <time>2023-02-16T09:26:46Z</time>
      </trkpt>
      <trkpt lat="44.83647" lon="6.94723">
        <ele>1933.4</ele>
        <time>2023-02-16T09:26:52Z</time>
      </trkpt>
      <trkpt lat="44.83647" lon="6.94726">
        <ele>1933.7</ele>
        <time>2023-02-16T09:26:55Z</time>
      </trkpt>
      <trkpt lat="44.83645" lon="6.94733">
        <ele>1933.8</ele>
        <time>2023-02-16T09:27:02Z</time>
      </trkpt>
      <trkpt lat="44.83645" lon="6.94739">
        <ele>1934.4</ele>
        <time>2023-02-16T09:27:08Z</time>
      </trkpt>
      <trkpt lat="44.83646" lon="6.94743">
        <ele>1935.1</ele>
        <time>2023-02-16T09:27:12Z</time>
      </trkpt>
      <trkpt lat="44.83646" lon="6.9475">
        <ele>1935.8</ele>
        <time>2023-02-16T09:27:19Z</time>
      </trkpt>
      <trkpt lat="44.83647" lon="6.94751">
        <ele>1936.3</ele>
        <time>2023-02-16T09:27:20Z</time>
      </trkpt>
      <trkpt lat="44.83648" lon="6.9476">
        <ele>1937.5</ele>
        <time>2023-02-16T09:27:28Z</time>
      </trkpt>
      <trkpt lat="44.83649" lon="6.94764">
        <ele>1938.1</ele>
        <time>2023-02-16T09:27:32Z</time>
      </trkpt>
      <trkpt lat="44.8365" lon="6.94776">
        <ele>1939.5</ele>
        <time>2023-02-16T09:27:43Z</time>
      </trkpt>
      <trkpt lat="44.83651" lon="6.94778">
        <ele>1940</ele>
        <time>2023-02-16T09:27:47Z</time>
      </trkpt>
      <trkpt lat="44.83655" lon="6.94779">
        <ele>1941.4</ele>
        <time>2023-02-16T09:27:53Z</time>
      </trkpt>
      <trkpt lat="44.83656" lon="6.94778">
        <ele>1941.6</ele>
        <time>2023-02-16T09:27:54Z</time>
      </trkpt>
      <trkpt lat="44.83657" lon="6.94777">
        <ele>1941.8</ele>
        <time>2023-02-16T09:27:56Z</time>
      </trkpt>
      <trkpt lat="44.8366" lon="6.94776">
        <ele>1942.7</ele>
        <time>2023-02-16T09:28:01Z</time>
      </trkpt>
      <trkpt lat="44.83661" lon="6.94776">
        <ele>1943.1</ele>
        <time>2023-02-16T09:28:02Z</time>
      </trkpt>
      <trkpt lat="44.83663" lon="6.94778">
        <ele>1943.8</ele>
        <time>2023-02-16T09:28:06Z</time>
      </trkpt>
      <trkpt lat="44.83665" lon="6.94782">
        <ele>1945.1</ele>
        <time>2023-02-16T09:28:13Z</time>
      </trkpt>
      <trkpt lat="44.83666" lon="6.94782">
        <ele>1945.4</ele>
        <time>2023-02-16T09:28:25Z</time>
      </trkpt>
      <trkpt lat="44.83667" lon="6.94782">
        <ele>1945.8</ele>
        <time>2023-02-16T09:28:37Z</time>
      </trkpt>
      <trkpt lat="44.83668" lon="6.94784">
        <ele>1946.5</ele>
        <time>2023-02-16T09:28:40Z</time>
      </trkpt>
      <trkpt lat="44.83671" lon="6.94785">
        <ele>1948</ele>
        <time>2023-02-16T09:28:44Z</time>
      </trkpt>
      <trkpt lat="44.83672" lon="6.94785">
        <ele>1948.5</ele>
        <time>2023-02-16T09:28:46Z</time>
      </trkpt>
      <trkpt lat="44.83674" lon="6.94785">
        <ele>1949.4</ele>
        <time>2023-02-16T09:28:50Z</time>
      </trkpt>
      <trkpt lat="44.83678" lon="6.94788">
        <ele>1951.4</ele>
        <time>2023-02-16T09:28:56Z</time>
      </trkpt>
      <trkpt lat="44.83679" lon="6.94789">
        <ele>1951.9</ele>
        <time>2023-02-16T09:28:57Z</time>
      </trkpt>
      <trkpt lat="44.83679" lon="6.9479">
        <ele>1952</ele>
        <time>2023-02-16T09:28:58Z</time>
      </trkpt>
      <trkpt lat="44.83682" lon="6.94793">
        <ele>1953.4</ele>
        <time>2023-02-16T09:29:03Z</time>
      </trkpt>
      <trkpt lat="44.83684" lon="6.94796">
        <ele>1954.3</ele>
        <time>2023-02-16T09:29:09Z</time>
      </trkpt>
      <trkpt lat="44.83684" lon="6.94796">
        <ele>1954.3</ele>
        <time>2023-02-16T09:29:10Z</time>
      </trkpt>
      <trkpt lat="44.83686" lon="6.94795">
        <ele>1955.1</ele>
        <time>2023-02-16T09:29:14Z</time>
      </trkpt>
      <trkpt lat="44.83689" lon="6.94796">
        <ele>1956.2</ele>
        <time>2023-02-16T09:29:21Z</time>
      </trkpt>
      <trkpt lat="44.8369" lon="6.94796">
        <ele>1956.6</ele>
        <time>2023-02-16T09:29:23Z</time>
      </trkpt>
      <trkpt lat="44.83693" lon="6.94798">
        <ele>1957.7</ele>
        <time>2023-02-16T09:29:30Z</time>
      </trkpt>
      <trkpt lat="44.83693" lon="6.94797">
        <ele>1957.8</ele>
        <time>2023-02-16T09:29:33Z</time>
      </trkpt>
      <trkpt lat="44.83695" lon="6.94796">
        <ele>1958.6</ele>
        <time>2023-02-16T09:29:40Z</time>
      </trkpt>
      <trkpt lat="44.83697" lon="6.94798">
        <ele>1959.4</ele>
        <time>2023-02-16T09:29:46Z</time>
      </trkpt>
      <trkpt lat="44.83698" lon="6.94799">
        <ele>1959.8</ele>
        <time>2023-02-16T09:29:48Z</time>
      </trkpt>
      <trkpt lat="44.83699" lon="6.94803">
        <ele>1960.1</ele>
        <time>2023-02-16T09:29:54Z</time>
      </trkpt>
      <trkpt lat="44.83701" lon="6.94804">
        <ele>1960.9</ele>
        <time>2023-02-16T09:29:59Z</time>
      </trkpt>
      <trkpt lat="44.83701" lon="6.94804">
        <ele>1960.9</ele>
        <time>2023-02-16T09:30:00Z</time>
      </trkpt>
      <trkpt lat="44.83703" lon="6.94806">
        <ele>1961.8</ele>
        <time>2023-02-16T09:30:06Z</time>
      </trkpt>
      <trkpt lat="44.83704" lon="6.94809">
        <ele>1962.7</ele>
        <time>2023-02-16T09:30:11Z</time>
      </trkpt>
      <trkpt lat="44.83706" lon="6.9481">
        <ele>1963.6</ele>
        <time>2023-02-16T09:30:14Z</time>
      </trkpt>
      <trkpt lat="44.8371" lon="6.94814">
        <ele>1965.7</ele>
        <time>2023-02-16T09:30:22Z</time>
      </trkpt>
      <trkpt lat="44.83711" lon="6.94815">
        <ele>1966.1</ele>
        <time>2023-02-16T09:30:24Z</time>
      </trkpt>
      <trkpt lat="44.83712" lon="6.94817">
        <ele>1966.6</ele>
        <time>2023-02-16T09:30:28Z</time>
      </trkpt>
      <trkpt lat="44.83715" lon="6.94816">
        <ele>1967.6</ele>
        <time>2023-02-16T09:30:33Z</time>
      </trkpt>
      <trkpt lat="44.83716" lon="6.94815">
        <ele>1967.8</ele>
        <time>2023-02-16T09:30:35Z</time>
      </trkpt>
      <trkpt lat="44.83717" lon="6.94814">
        <ele>1968.1</ele>
        <time>2023-02-16T09:30:44Z</time>
      </trkpt>
      <trkpt lat="44.83717" lon="6.94814">
        <ele>1968.1</ele>
        <time>2023-02-16T09:30:45Z</time>
      </trkpt>
      <trkpt lat="44.83719" lon="6.94809">
        <ele>1968.7</ele>
        <time>2023-02-16T09:30:58Z</time>
      </trkpt>
      <trkpt lat="44.83719" lon="6.94809">
        <ele>1968.7</ele>
        <time>2023-02-16T09:31:02Z</time>
      </trkpt>
      <trkpt lat="44.8372" lon="6.94812">
        <ele>1969.2</ele>
        <time>2023-02-16T09:31:06Z</time>
      </trkpt>
      <trkpt lat="44.83721" lon="6.9482">
        <ele>1969.6</ele>
        <time>2023-02-16T09:31:13Z</time>
      </trkpt>
      <trkpt lat="44.83722" lon="6.94822">
        <ele>1969.9</ele>
        <time>2023-02-16T09:31:15Z</time>
      </trkpt>
      <trkpt lat="44.83722" lon="6.94825">
        <ele>1969.9</ele>
        <time>2023-02-16T09:31:20Z</time>
      </trkpt>
      <trkpt lat="44.83723" lon="6.9483">
        <ele>1970.4</ele>
        <time>2023-02-16T09:31:26Z</time>
      </trkpt>
      <trkpt lat="44.83722" lon="6.94831">
        <ele>1970</ele>
        <time>2023-02-16T09:31:31Z</time>
      </trkpt>
      <trkpt lat="44.83721" lon="6.94835">
        <ele>1970</ele>
        <time>2023-02-16T09:31:42Z</time>
      </trkpt>
      <trkpt lat="44.83721" lon="6.94842">
        <ele>1970.8</ele>
        <time>2023-02-16T09:31:49Z</time>
      </trkpt>
      <trkpt lat="44.8372" lon="6.94845">
        <ele>1971</ele>
        <time>2023-02-16T09:31:53Z</time>
      </trkpt>
      <trkpt lat="44.83719" lon="6.94846">
        <ele>1970.9</ele>
        <time>2023-02-16T09:31:54Z</time>
      </trkpt>
      <trkpt lat="44.83716" lon="6.94852">
        <ele>1971.3</ele>
        <time>2023-02-16T09:32:02Z</time>
      </trkpt>
      <trkpt lat="44.83715" lon="6.94853">
        <ele>1971.4</ele>
        <time>2023-02-16T09:32:04Z</time>
      </trkpt>
      <trkpt lat="44.83714" lon="6.94853">
        <ele>1971.3</ele>
        <time>2023-02-16T09:32:05Z</time>
      </trkpt>
      <trkpt lat="44.83712" lon="6.94854">
        <ele>1971.2</ele>
        <time>2023-02-16T09:32:09Z</time>
      </trkpt>
      <trkpt lat="44.83713" lon="6.94853">
        <ele>1971.2</ele>
        <time>2023-02-16T09:32:16Z</time>
      </trkpt>
      <trkpt lat="44.83718" lon="6.94857">
        <ele>1972.2</ele>
        <time>2023-02-16T09:32:27Z</time>
      </trkpt>
      <trkpt lat="44.8372" lon="6.94857">
        <ele>1972.4</ele>
        <time>2023-02-16T09:32:28Z</time>
      </trkpt>
      <trkpt lat="44.83723" lon="6.94859">
        <ele>1973.1</ele>
        <time>2023-02-16T09:32:33Z</time>
      </trkpt>
      <trkpt lat="44.83724" lon="6.94859">
        <ele>1973.5</ele>
        <time>2023-02-16T09:32:34Z</time>
      </trkpt>
      <trkpt lat="44.83726" lon="6.9486">
        <ele>1974.4</ele>
        <time>2023-02-16T09:32:37Z</time>
      </trkpt>
      <trkpt lat="44.83727" lon="6.94861">
        <ele>1974.9</ele>
        <time>2023-02-16T09:32:38Z</time>
      </trkpt>
      <trkpt lat="44.83734" lon="6.94863">
        <ele>1978.4</ele>
        <time>2023-02-16T09:32:47Z</time>
      </trkpt>
      <trkpt lat="44.83734" lon="6.94865">
        <ele>1979.1</ele>
        <time>2023-02-16T09:32:51Z</time>
      </trkpt>
      <trkpt lat="44.83734" lon="6.94863">
        <ele>1978.4</ele>
        <time>2023-02-16T09:32:56Z</time>
      </trkpt>
      <trkpt lat="44.83734" lon="6.94863">
        <ele>1978.4</ele>
        <time>2023-02-16T09:33:04Z</time>
      </trkpt>
      <trkpt lat="44.83734" lon="6.94862">
        <ele>1978</ele>
        <time>2023-02-16T09:33:22Z</time>
      </trkpt>
      <trkpt lat="44.83734" lon="6.94865">
        <ele>1979.1</ele>
        <time>2023-02-16T09:33:36Z</time>
      </trkpt>
      <trkpt lat="44.83738" lon="6.94865">
        <ele>1980.6</ele>
        <time>2023-02-16T09:33:41Z</time>
      </trkpt>
      <trkpt lat="44.83741" lon="6.94867">
        <ele>1982.3</ele>
        <time>2023-02-16T09:33:45Z</time>
      </trkpt>
      <trkpt lat="44.83743" lon="6.94868">
        <ele>1983.3</ele>
        <time>2023-02-16T09:33:48Z</time>
      </trkpt>
      <trkpt lat="44.83744" lon="6.94869">
        <ele>1984</ele>
        <time>2023-02-16T09:33:50Z</time>
      </trkpt>
      <trkpt lat="44.83746" lon="6.94869">
        <ele>1984.6</ele>
        <time>2023-02-16T09:33:55Z</time>
      </trkpt>
      <trkpt lat="44.83747" lon="6.94869">
        <ele>1985</ele>
        <time>2023-02-16T09:33:57Z</time>
      </trkpt>
      <trkpt lat="44.83749" lon="6.9487">
        <ele>1985.9</ele>
        <time>2023-02-16T09:34:12Z</time>
      </trkpt>
      <trkpt lat="44.83748" lon="6.94871">
        <ele>1985.9</ele>
        <time>2023-02-16T09:34:30Z</time>
      </trkpt>
      <trkpt lat="44.83747" lon="6.94872">
        <ele>1985.8</ele>
        <time>2023-02-16T09:34:37Z</time>
      </trkpt>
      <trkpt lat="44.83748" lon="6.94872">
        <ele>1986.1</ele>
        <time>2023-02-16T09:34:47Z</time>
      </trkpt>
      <trkpt lat="44.8375" lon="6.94868">
        <ele>1985.7</ele>
        <time>2023-02-16T09:35:03Z</time>
      </trkpt>
      <trkpt lat="44.83751" lon="6.9487">
        <ele>1986.5</ele>
        <time>2023-02-16T09:35:15Z</time>
      </trkpt>
      <trkpt lat="44.83751" lon="6.9487">
        <ele>1986.5</ele>
        <time>2023-02-16T09:35:16Z</time>
      </trkpt>
      <trkpt lat="44.83751" lon="6.94869">
        <ele>1986.3</ele>
        <time>2023-02-16T09:35:28Z</time>
      </trkpt>
      <trkpt lat="44.83753" lon="6.94871">
        <ele>1987.4</ele>
        <time>2023-02-16T09:35:32Z</time>
      </trkpt>
      <trkpt lat="44.83754" lon="6.94872">
        <ele>1987.9</ele>
        <time>2023-02-16T09:35:38Z</time>
      </trkpt>
      <trkpt lat="44.83755" lon="6.94872">
        <ele>1988.2</ele>
        <time>2023-02-16T09:35:40Z</time>
      </trkpt>
      <trkpt lat="44.83758" lon="6.94872">
        <ele>1989.1</ele>
        <time>2023-02-16T09:35:44Z</time>
      </trkpt>
      <trkpt lat="44.83761" lon="6.94872">
        <ele>1990</ele>
        <time>2023-02-16T09:35:48Z</time>
      </trkpt>
      <trkpt lat="44.83761" lon="6.94872">
        <ele>1990</ele>
        <time>2023-02-16T09:35:49Z</time>
      </trkpt>
      <trkpt lat="44.83762" lon="6.94872">
        <ele>1990.3</ele>
        <time>2023-02-16T09:35:50Z</time>
      </trkpt>
      <trkpt lat="44.83762" lon="6.94873">
        <ele>1990.5</ele>
        <time>2023-02-16T09:35:59Z</time>
      </trkpt>
      <trkpt lat="44.83764" lon="6.94876">
        <ele>1991.7</ele>
        <time>2023-02-16T09:36:05Z</time>
      </trkpt>
      <trkpt lat="44.83765" lon="6.94879">
        <ele>1992.7</ele>
        <time>2023-02-16T09:36:09Z</time>
      </trkpt>
      <trkpt lat="44.83765" lon="6.94883">
        <ele>1993.5</ele>
        <time>2023-02-16T09:36:12Z</time>
      </trkpt>
      <trkpt lat="44.83761" lon="6.94888">
        <ele>1993.6</ele>
        <time>2023-02-16T09:36:18Z</time>
      </trkpt>
      <trkpt lat="44.8376" lon="6.94889">
        <ele>1993.6</ele>
        <time>2023-02-16T09:36:20Z</time>
      </trkpt>
      <trkpt lat="44.83756" lon="6.94894">
        <ele>1994.1</ele>
        <time>2023-02-16T09:36:28Z</time>
      </trkpt>
      <trkpt lat="44.83753" lon="6.94897">
        <ele>1994.2</ele>
        <time>2023-02-16T09:36:32Z</time>
      </trkpt>
      <trkpt lat="44.83752" lon="6.94899">
        <ele>1994.5</ele>
        <time>2023-02-16T09:36:35Z</time>
      </trkpt>
      <trkpt lat="44.83749" lon="6.94902">
        <ele>1994.5</ele>
        <time>2023-02-16T09:36:40Z</time>
      </trkpt>
      <trkpt lat="44.83747" lon="6.94906">
        <ele>1995.2</ele>
        <time>2023-02-16T09:36:46Z</time>
      </trkpt>
      <trkpt lat="44.83746" lon="6.94907">
        <ele>1995.2</ele>
        <time>2023-02-16T09:36:48Z</time>
      </trkpt>
      <trkpt lat="44.83743" lon="6.94917">
        <ele>1997</ele>
        <time>2023-02-16T09:36:57Z</time>
      </trkpt>
      <trkpt lat="44.83742" lon="6.94921">
        <ele>1997.4</ele>
        <time>2023-02-16T09:37:00Z</time>
      </trkpt>
      <trkpt lat="44.8374" lon="6.94927">
        <ele>1997.7</ele>
        <time>2023-02-16T09:37:04Z</time>
      </trkpt>
      <trkpt lat="44.83738" lon="6.94938">
        <ele>1998.7</ele>
        <time>2023-02-16T09:37:13Z</time>
      </trkpt>
      <trkpt lat="44.83733" lon="6.94952">
        <ele>1999.7</ele>
        <time>2023-02-16T09:37:24Z</time>
      </trkpt>
      <trkpt lat="44.83728" lon="6.94962">
        <ele>2000.1</ele>
        <time>2023-02-16T09:37:33Z</time>
      </trkpt>
      <trkpt lat="44.83728" lon="6.94965">
        <ele>2000.8</ele>
        <time>2023-02-16T09:37:36Z</time>
      </trkpt>
      <trkpt lat="44.83724" lon="6.94976">
        <ele>2001.5</ele>
        <time>2023-02-16T09:37:45Z</time>
      </trkpt>
      <trkpt lat="44.83722" lon="6.94979">
        <ele>2001.2</ele>
        <time>2023-02-16T09:37:48Z</time>
      </trkpt>
      <trkpt lat="44.83716" lon="6.94997">
        <ele>2002.7</ele>
        <time>2023-02-16T09:38:02Z</time>
      </trkpt>
      <trkpt lat="44.83713" lon="6.95005">
        <ele>2003.2</ele>
        <time>2023-02-16T09:38:10Z</time>
      </trkpt>
      <trkpt lat="44.83712" lon="6.9501">
        <ele>2003.7</ele>
        <time>2023-02-16T09:38:15Z</time>
      </trkpt>
      <trkpt lat="44.83711" lon="6.95012">
        <ele>2003.8</ele>
        <time>2023-02-16T09:38:17Z</time>
      </trkpt>
      <trkpt lat="44.83709" lon="6.95018">
        <ele>2004.1</ele>
        <time>2023-02-16T09:38:23Z</time>
      </trkpt>
      <trkpt lat="44.83707" lon="6.95022">
        <ele>2004.1</ele>
        <time>2023-02-16T09:38:28Z</time>
      </trkpt>
      <trkpt lat="44.83707" lon="6.95024">
        <ele>2004.5</ele>
        <time>2023-02-16T09:38:31Z</time>
      </trkpt>
      <trkpt lat="44.83706" lon="6.95032">
        <ele>2005.4</ele>
        <time>2023-02-16T09:38:40Z</time>
      </trkpt>
      <trkpt lat="44.83706" lon="6.95034">
        <ele>2005.6</ele>
        <time>2023-02-16T09:38:42Z</time>
      </trkpt>
      <trkpt lat="44.83706" lon="6.95036">
        <ele>2005.9</ele>
        <time>2023-02-16T09:38:45Z</time>
      </trkpt>
      <trkpt lat="44.83707" lon="6.95036">
        <ele>2006.3</ele>
        <time>2023-02-16T09:38:51Z</time>
      </trkpt>
      <trkpt lat="44.83706" lon="6.95036">
        <ele>2005.9</ele>
        <time>2023-02-16T09:38:52Z</time>
      </trkpt>
      <trkpt lat="44.83707" lon="6.95036">
        <ele>2006.3</ele>
        <time>2023-02-16T09:39:05Z</time>
      </trkpt>
      <trkpt lat="44.83707" lon="6.95036">
        <ele>2006.3</ele>
        <time>2023-02-16T09:39:23Z</time>
      </trkpt>
      <trkpt lat="44.83707" lon="6.95037">
        <ele>2006.4</ele>
        <time>2023-02-16T09:39:43Z</time>
      </trkpt>
      <trkpt lat="44.83708" lon="6.95042">
        <ele>2007.4</ele>
        <time>2023-02-16T09:39:49Z</time>
      </trkpt>
      <trkpt lat="44.83709" lon="6.95045">
        <ele>2008.2</ele>
        <time>2023-02-16T09:39:52Z</time>
      </trkpt>
      <trkpt lat="44.83709" lon="6.95048">
        <ele>2008.6</ele>
        <time>2023-02-16T09:39:55Z</time>
      </trkpt>
      <trkpt lat="44.83712" lon="6.95055">
        <ele>2010.6</ele>
        <time>2023-02-16T09:40:03Z</time>
      </trkpt>
      <trkpt lat="44.83713" lon="6.95057">
        <ele>2011.2</ele>
        <time>2023-02-16T09:40:06Z</time>
      </trkpt>
      <trkpt lat="44.83718" lon="6.95056">
        <ele>2012.7</ele>
        <time>2023-02-16T09:40:13Z</time>
      </trkpt>
      <trkpt lat="44.8372" lon="6.95055">
        <ele>2013.2</ele>
        <time>2023-02-16T09:40:15Z</time>
      </trkpt>
      <trkpt lat="44.8372" lon="6.95055">
        <ele>2013.2</ele>
        <time>2023-02-16T09:40:16Z</time>
      </trkpt>
      <trkpt lat="44.83723" lon="6.95053">
        <ele>2014</ele>
        <time>2023-02-16T09:40:21Z</time>
      </trkpt>
      <trkpt lat="44.83727" lon="6.9505">
        <ele>2015.6</ele>
        <time>2023-02-16T09:40:27Z</time>
      </trkpt>
      <trkpt lat="44.83728" lon="6.9505">
        <ele>2016.1</ele>
        <time>2023-02-16T09:40:28Z</time>
      </trkpt>
      <trkpt lat="44.83732" lon="6.95049">
        <ele>2017.9</ele>
        <time>2023-02-16T09:40:35Z</time>
      </trkpt>
      <trkpt lat="44.83732" lon="6.9505">
        <ele>2018.1</ele>
        <time>2023-02-16T09:40:37Z</time>
      </trkpt>
      <trkpt lat="44.83733" lon="6.95053">
        <ele>2019</ele>
        <time>2023-02-16T09:40:41Z</time>
      </trkpt>
      <trkpt lat="44.83733" lon="6.95056">
        <ele>2019.5</ele>
        <time>2023-02-16T09:40:43Z</time>
      </trkpt>
      <trkpt lat="44.83733" lon="6.95059">
        <ele>2020.1</ele>
        <time>2023-02-16T09:40:46Z</time>
      </trkpt>
      <trkpt lat="44.83732" lon="6.95062">
        <ele>2020.1</ele>
        <time>2023-02-16T09:40:49Z</time>
      </trkpt>
      <trkpt lat="44.83733" lon="6.95066">
        <ele>2021.3</ele>
        <time>2023-02-16T09:40:54Z</time>
      </trkpt>
      <trkpt lat="44.83733" lon="6.95072">
        <ele>2022.4</ele>
        <time>2023-02-16T09:41:00Z</time>
      </trkpt>
      <trkpt lat="44.83733" lon="6.95073">
        <ele>2022.6</ele>
        <time>2023-02-16T09:41:01Z</time>
      </trkpt>
      <trkpt lat="44.83731" lon="6.95081">
        <ele>2023</ele>
        <time>2023-02-16T09:41:09Z</time>
      </trkpt>
      <trkpt lat="44.83731" lon="6.95083">
        <ele>2023.4</ele>
        <time>2023-02-16T09:41:11Z</time>
      </trkpt>
      <trkpt lat="44.83731" lon="6.95086">
        <ele>2023.9</ele>
        <time>2023-02-16T09:41:14Z</time>
      </trkpt>
      <trkpt lat="44.83731" lon="6.95094">
        <ele>2025.3</ele>
        <time>2023-02-16T09:41:22Z</time>
      </trkpt>
      <trkpt lat="44.83731" lon="6.95094">
        <ele>2025.3</ele>
        <time>2023-02-16T09:41:24Z</time>
      </trkpt>
      <trkpt lat="44.83731" lon="6.95092">
        <ele>2025</ele>
        <time>2023-02-16T09:41:34Z</time>
      </trkpt>
      <trkpt lat="44.83734" lon="6.9509">
        <ele>2026.1</ele>
        <time>2023-02-16T09:41:44Z</time>
      </trkpt>
      <trkpt lat="44.83734" lon="6.95091">
        <ele>2026.3</ele>
        <time>2023-02-16T09:41:46Z</time>
      </trkpt>
      <trkpt lat="44.83734" lon="6.95097">
        <ele>2027.4</ele>
        <time>2023-02-16T09:41:56Z</time>
      </trkpt>
      <trkpt lat="44.83733" lon="6.95099">
        <ele>2027.3</ele>
        <time>2023-02-16T09:41:57Z</time>
      </trkpt>
      <trkpt lat="44.83732" lon="6.95102">
        <ele>2027.3</ele>
        <time>2023-02-16T09:42:03Z</time>
      </trkpt>
      <trkpt lat="44.83731" lon="6.95104">
        <ele>2027.1</ele>
        <time>2023-02-16T09:42:06Z</time>
      </trkpt>
      <trkpt lat="44.8373" lon="6.95106">
        <ele>2027</ele>
        <time>2023-02-16T09:42:10Z</time>
      </trkpt>
      <trkpt lat="44.8373" lon="6.95111">
        <ele>2027.9</ele>
        <time>2023-02-16T09:42:16Z</time>
      </trkpt>
      <trkpt lat="44.83731" lon="6.95112">
        <ele>2028.6</ele>
        <time>2023-02-16T09:42:18Z</time>
      </trkpt>
      <trkpt lat="44.83731" lon="6.95113">
        <ele>2028.7</ele>
        <time>2023-02-16T09:42:19Z</time>
      </trkpt>
      <trkpt lat="44.83733" lon="6.95116">
        <ele>2030.1</ele>
        <time>2023-02-16T09:42:22Z</time>
      </trkpt>
      <trkpt lat="44.83733" lon="6.95121">
        <ele>2030.9</ele>
        <time>2023-02-16T09:42:26Z</time>
      </trkpt>
      <trkpt lat="44.83734" lon="6.95122">
        <ele>2031.5</ele>
        <time>2023-02-16T09:42:29Z</time>
      </trkpt>
      <trkpt lat="44.83735" lon="6.9512">
        <ele>2031.7</ele>
        <time>2023-02-16T09:42:34Z</time>
      </trkpt>
      <trkpt lat="44.83735" lon="6.9512">
        <ele>2031.7</ele>
        <time>2023-02-16T09:42:39Z</time>
      </trkpt>
      <trkpt lat="44.83734" lon="6.95119">
        <ele>2031.1</ele>
        <time>2023-02-16T09:42:53Z</time>
      </trkpt>
      <trkpt lat="44.83734" lon="6.95118">
        <ele>2030.9</ele>
        <time>2023-02-16T09:43:08Z</time>
      </trkpt>
      <trkpt lat="44.83738" lon="6.95116">
        <ele>2032.7</ele>
        <time>2023-02-16T09:43:16Z</time>
      </trkpt>
      <trkpt lat="44.83739" lon="6.95116">
        <ele>2033.2</ele>
        <time>2023-02-16T09:43:18Z</time>
      </trkpt>
      <trkpt lat="44.83743" lon="6.95116">
        <ele>2035.2</ele>
        <time>2023-02-16T09:43:25Z</time>
      </trkpt>
      <trkpt lat="44.83743" lon="6.95117">
        <ele>2035.3</ele>
        <time>2023-02-16T09:43:26Z</time>
      </trkpt>
      <trkpt lat="44.83743" lon="6.95121">
        <ele>2035.9</ele>
        <time>2023-02-16T09:43:30Z</time>
      </trkpt>
      <trkpt lat="44.83743" lon="6.95122">
        <ele>2036</ele>
        <time>2023-02-16T09:43:32Z</time>
      </trkpt>
      <trkpt lat="44.83744" lon="6.95127">
        <ele>2037.3</ele>
        <time>2023-02-16T09:43:37Z</time>
      </trkpt>
      <trkpt lat="44.83746" lon="6.95134">
        <ele>2039.3</ele>
        <time>2023-02-16T09:43:44Z</time>
      </trkpt>
      <trkpt lat="44.83747" lon="6.95139">
        <ele>2040.5</ele>
        <time>2023-02-16T09:43:49Z</time>
      </trkpt>
      <trkpt lat="44.83747" lon="6.95142">
        <ele>2041.2</ele>
        <time>2023-02-16T09:43:52Z</time>
      </trkpt>
      <trkpt lat="44.83747" lon="6.95145">
        <ele>2041.8</ele>
        <time>2023-02-16T09:43:55Z</time>
      </trkpt>
      <trkpt lat="44.83747" lon="6.9515">
        <ele>2042.9</ele>
        <time>2023-02-16T09:44:00Z</time>
      </trkpt>
      <trkpt lat="44.83747" lon="6.95151">
        <ele>2043.1</ele>
        <time>2023-02-16T09:44:01Z</time>
      </trkpt>
      <trkpt lat="44.83747" lon="6.95155">
        <ele>2044</ele>
        <time>2023-02-16T09:44:07Z</time>
      </trkpt>
      <trkpt lat="44.83747" lon="6.95158">
        <ele>2044.6</ele>
        <time>2023-02-16T09:44:11Z</time>
      </trkpt>
      <trkpt lat="44.83747" lon="6.95159">
        <ele>2044.8</ele>
        <time>2023-02-16T09:44:12Z</time>
      </trkpt>
      <trkpt lat="44.8375" lon="6.9516">
        <ele>2046.6</ele>
        <time>2023-02-16T09:44:18Z</time>
      </trkpt>
      <trkpt lat="44.8375" lon="6.9516">
        <ele>2046.6</ele>
        <time>2023-02-16T09:44:20Z</time>
      </trkpt>
      <trkpt lat="44.8375" lon="6.95159">
        <ele>2046.3</ele>
        <time>2023-02-16T09:44:36Z</time>
      </trkpt>
      <trkpt lat="44.83754" lon="6.95156">
        <ele>2047.4</ele>
        <time>2023-02-16T09:44:45Z</time>
      </trkpt>
      <trkpt lat="44.83755" lon="6.95155">
        <ele>2047.7</ele>
        <time>2023-02-16T09:44:47Z</time>
      </trkpt>
      <trkpt lat="44.83756" lon="6.95155">
        <ele>2048.1</ele>
        <time>2023-02-16T09:44:53Z</time>
      </trkpt>
      <trkpt lat="44.83756" lon="6.95157">
        <ele>2048.5</ele>
        <time>2023-02-16T09:44:55Z</time>
      </trkpt>
      <trkpt lat="44.83757" lon="6.95161">
        <ele>2049.7</ele>
        <time>2023-02-16T09:45:01Z</time>
      </trkpt>
      <trkpt lat="44.83757" lon="6.9516">
        <ele>2049.5</ele>
        <time>2023-02-16T09:45:05Z</time>
      </trkpt>
      <trkpt lat="44.8376" lon="6.95156">
        <ele>2050.1</ele>
        <time>2023-02-16T09:45:14Z</time>
      </trkpt>
      <trkpt lat="44.83761" lon="6.95155">
        <ele>2050.3</ele>
        <time>2023-02-16T09:45:16Z</time>
      </trkpt>
      <trkpt lat="44.83763" lon="6.95153">
        <ele>2050.9</ele>
        <time>2023-02-16T09:45:19Z</time>
      </trkpt>
      <trkpt lat="44.83763" lon="6.95152">
        <ele>2050.7</ele>
        <time>2023-02-16T09:45:20Z</time>
      </trkpt>
      <trkpt lat="44.83766" lon="6.95149">
        <ele>2051.6</ele>
        <time>2023-02-16T09:45:25Z</time>
      </trkpt>
      <trkpt lat="44.83768" lon="6.95147">
        <ele>2052.3</ele>
        <time>2023-02-16T09:45:27Z</time>
      </trkpt>
      <trkpt lat="44.8377" lon="6.95144">
        <ele>2052.8</ele>
        <time>2023-02-16T09:45:31Z</time>
      </trkpt>
      <trkpt lat="44.83772" lon="6.95142">
        <ele>2053.5</ele>
        <time>2023-02-16T09:45:36Z</time>
      </trkpt>
      <trkpt lat="44.83772" lon="6.95142">
        <ele>2053.5</ele>
        <time>2023-02-16T09:45:37Z</time>
      </trkpt>
      <trkpt lat="44.83774" lon="6.95146">
        <ele>2055</ele>
        <time>2023-02-16T09:45:44Z</time>
      </trkpt>
      <trkpt lat="44.83774" lon="6.95147">
        <ele>2055.1</ele>
        <time>2023-02-16T09:45:45Z</time>
      </trkpt>
      <trkpt lat="44.83774" lon="6.9515">
        <ele>2055.5</ele>
        <time>2023-02-16T09:45:48Z</time>
      </trkpt>
      <trkpt lat="44.83776" lon="6.95158">
        <ele>2057.3</ele>
        <time>2023-02-16T09:45:55Z</time>
      </trkpt>
      <trkpt lat="44.83776" lon="6.95161">
        <ele>2057.6</ele>
        <time>2023-02-16T09:45:58Z</time>
      </trkpt>
      <trkpt lat="44.83777" lon="6.95167">
        <ele>2058.8</ele>
        <time>2023-02-16T09:46:03Z</time>
      </trkpt>
      <trkpt lat="44.83777" lon="6.95173">
        <ele>2060.1</ele>
        <time>2023-02-16T09:46:09Z</time>
      </trkpt>
      <trkpt lat="44.83776" lon="6.95175">
        <ele>2060.1</ele>
        <time>2023-02-16T09:46:12Z</time>
      </trkpt>
      <trkpt lat="44.83776" lon="6.9518">
        <ele>2061.2</ele>
        <time>2023-02-16T09:46:16Z</time>
      </trkpt>
      <trkpt lat="44.83775" lon="6.95185">
        <ele>2062</ele>
        <time>2023-02-16T09:46:21Z</time>
      </trkpt>
      <trkpt lat="44.83776" lon="6.95191">
        <ele>2063.7</ele>
        <time>2023-02-16T09:46:27Z</time>
      </trkpt>
      <trkpt lat="44.83776" lon="6.95192">
        <ele>2063.9</ele>
        <time>2023-02-16T09:46:28Z</time>
      </trkpt>
      <trkpt lat="44.83774" lon="6.952">
        <ele>2065.2</ele>
        <time>2023-02-16T09:46:35Z</time>
      </trkpt>
      <trkpt lat="44.83773" lon="6.95202">
        <ele>2065.4</ele>
        <time>2023-02-16T09:46:38Z</time>
      </trkpt>
      <trkpt lat="44.83771" lon="6.95206">
        <ele>2065.7</ele>
        <time>2023-02-16T09:46:42Z</time>
      </trkpt>
      <trkpt lat="44.8377" lon="6.9521">
        <ele>2066.4</ele>
        <time>2023-02-16T09:46:45Z</time>
      </trkpt>
      <trkpt lat="44.83769" lon="6.95213">
        <ele>2066.8</ele>
        <time>2023-02-16T09:46:48Z</time>
      </trkpt>
      <trkpt lat="44.83768" lon="6.95215">
        <ele>2067</ele>
        <time>2023-02-16T09:46:50Z</time>
      </trkpt>
      <trkpt lat="44.83767" lon="6.95219">
        <ele>2067.7</ele>
        <time>2023-02-16T09:46:54Z</time>
      </trkpt>
      <trkpt lat="44.83765" lon="6.95225">
        <ele>2068.4</ele>
        <time>2023-02-16T09:47:00Z</time>
      </trkpt>
      <trkpt lat="44.83764" lon="6.95227">
        <ele>2068.4</ele>
        <time>2023-02-16T09:47:02Z</time>
      </trkpt>
      <trkpt lat="44.83764" lon="6.95231">
        <ele>2069.1</ele>
        <time>2023-02-16T09:47:06Z</time>
      </trkpt>
      <trkpt lat="44.83762" lon="6.95236">
        <ele>2069.4</ele>
        <time>2023-02-16T09:47:11Z</time>
      </trkpt>
      <trkpt lat="44.83762" lon="6.9524">
        <ele>2070.1</ele>
        <time>2023-02-16T09:47:14Z</time>
      </trkpt>
      <trkpt lat="44.83762" lon="6.95243">
        <ele>2070.6</ele>
        <time>2023-02-16T09:47:17Z</time>
      </trkpt>
      <trkpt lat="44.83762" lon="6.95249">
        <ele>2071.7</ele>
        <time>2023-02-16T09:47:22Z</time>
      </trkpt>
      <trkpt lat="44.83762" lon="6.95254">
        <ele>2072.7</ele>
        <time>2023-02-16T09:47:27Z</time>
      </trkpt>
      <trkpt lat="44.83762" lon="6.95262">
        <ele>2074.3</ele>
        <time>2023-02-16T09:47:34Z</time>
      </trkpt>
      <trkpt lat="44.83761" lon="6.95268">
        <ele>2075.2</ele>
        <time>2023-02-16T09:47:39Z</time>
      </trkpt>
      <trkpt lat="44.83761" lon="6.95269">
        <ele>2075.4</ele>
        <time>2023-02-16T09:47:40Z</time>
      </trkpt>
      <trkpt lat="44.83762" lon="6.95274">
        <ele>2076.7</ele>
        <time>2023-02-16T09:47:46Z</time>
      </trkpt>
      <trkpt lat="44.83764" lon="6.95274">
        <ele>2077.3</ele>
        <time>2023-02-16T09:47:50Z</time>
      </trkpt>
      <trkpt lat="44.83765" lon="6.95273">
        <ele>2077.4</ele>
        <time>2023-02-16T09:47:51Z</time>
      </trkpt>
      <trkpt lat="44.83769" lon="6.95271">
        <ele>2078.2</ele>
        <time>2023-02-16T09:47:57Z</time>
      </trkpt>
      <trkpt lat="44.83774" lon="6.95267">
        <ele>2078.9</ele>
        <time>2023-02-16T09:48:04Z</time>
      </trkpt>
      <trkpt lat="44.83776" lon="6.95267">
        <ele>2079.5</ele>
        <time>2023-02-16T09:48:06Z</time>
      </trkpt>
      <trkpt lat="44.83779" lon="6.95266">
        <ele>2080.3</ele>
        <time>2023-02-16T09:48:10Z</time>
      </trkpt>
      <trkpt lat="44.83783" lon="6.95264">
        <ele>2081.2</ele>
        <time>2023-02-16T09:48:15Z</time>
      </trkpt>
      <trkpt lat="44.83784" lon="6.95263">
        <ele>2081.3</ele>
        <time>2023-02-16T09:48:17Z</time>
      </trkpt>
      <trkpt lat="44.83787" lon="6.95262">
        <ele>2082.1</ele>
        <time>2023-02-16T09:48:21Z</time>
      </trkpt>
      <trkpt lat="44.8379" lon="6.95261">
        <ele>2082.8</ele>
        <time>2023-02-16T09:48:26Z</time>
      </trkpt>
      <trkpt lat="44.83794" lon="6.9526">
        <ele>2083.9</ele>
        <time>2023-02-16T09:48:31Z</time>
      </trkpt>
      <trkpt lat="44.83799" lon="6.9526">
        <ele>2085.5</ele>
        <time>2023-02-16T09:48:37Z</time>
      </trkpt>
      <trkpt lat="44.838" lon="6.95259">
        <ele>2085.5</ele>
        <time>2023-02-16T09:48:39Z</time>
      </trkpt>
      <trkpt lat="44.83803" lon="6.95258">
        <ele>2086.2</ele>
        <time>2023-02-16T09:48:45Z</time>
      </trkpt>
      <trkpt lat="44.83805" lon="6.95258">
        <ele>2086.8</ele>
        <time>2023-02-16T09:48:48Z</time>
      </trkpt>
      <trkpt lat="44.83808" lon="6.95257">
        <ele>2087.5</ele>
        <time>2023-02-16T09:48:52Z</time>
      </trkpt>
      <trkpt lat="44.83808" lon="6.95257">
        <ele>2087.5</ele>
        <time>2023-02-16T09:48:53Z</time>
      </trkpt>
      <trkpt lat="44.83809" lon="6.95257">
        <ele>2087.8</ele>
        <time>2023-02-16T09:48:58Z</time>
      </trkpt>
      <trkpt lat="44.83811" lon="6.95257">
        <ele>2088.4</ele>
        <time>2023-02-16T09:49:11Z</time>
      </trkpt>
      <trkpt lat="44.83811" lon="6.95257">
        <ele>2088.4</ele>
        <time>2023-02-16T09:49:15Z</time>
      </trkpt>
      <trkpt lat="44.8381" lon="6.9526">
        <ele>2088.9</ele>
        <time>2023-02-16T09:49:19Z</time>
      </trkpt>
      <trkpt lat="44.83809" lon="6.95261">
        <ele>2088.8</ele>
        <time>2023-02-16T09:49:20Z</time>
      </trkpt>
      <trkpt lat="44.83807" lon="6.95267">
        <ele>2089.7</ele>
        <time>2023-02-16T09:49:26Z</time>
      </trkpt>
      <trkpt lat="44.83807" lon="6.9527">
        <ele>2090.5</ele>
        <time>2023-02-16T09:49:30Z</time>
      </trkpt>
      <trkpt lat="44.83807" lon="6.9527">
        <ele>2090.5</ele>
        <time>2023-02-16T09:49:34Z</time>
      </trkpt>
      <trkpt lat="44.83807" lon="6.95272">
        <ele>2091</ele>
        <time>2023-02-16T09:49:41Z</time>
      </trkpt>
      <trkpt lat="44.83806" lon="6.95276">
        <ele>2091.7</ele>
        <time>2023-02-16T09:49:46Z</time>
      </trkpt>
      <trkpt lat="44.83805" lon="6.95284">
        <ele>2093.6</ele>
        <time>2023-02-16T09:49:53Z</time>
      </trkpt>
      <trkpt lat="44.83804" lon="6.95289">
        <ele>2094.6</ele>
        <time>2023-02-16T09:49:59Z</time>
      </trkpt>
      <trkpt lat="44.83804" lon="6.95294">
        <ele>2096</ele>
        <time>2023-02-16T09:50:04Z</time>
      </trkpt>
      <trkpt lat="44.83804" lon="6.95296">
        <ele>2096.6</ele>
        <time>2023-02-16T09:50:06Z</time>
      </trkpt>
      <trkpt lat="44.83803" lon="6.95297">
        <ele>2096.5</ele>
        <time>2023-02-16T09:50:07Z</time>
      </trkpt>
      <trkpt lat="44.83803" lon="6.953">
        <ele>2097.3</ele>
        <time>2023-02-16T09:50:11Z</time>
      </trkpt>
      <trkpt lat="44.838" lon="6.95307">
        <ele>2097.9</ele>
        <time>2023-02-16T09:50:18Z</time>
      </trkpt>
      <trkpt lat="44.838" lon="6.95308">
        <ele>2098.1</ele>
        <time>2023-02-16T09:50:19Z</time>
      </trkpt>
      <trkpt lat="44.83799" lon="6.95311">
        <ele>2098.3</ele>
        <time>2023-02-16T09:50:23Z</time>
      </trkpt>
      <trkpt lat="44.83798" lon="6.95318">
        <ele>2099.4</ele>
        <time>2023-02-16T09:50:30Z</time>
      </trkpt>
      <trkpt lat="44.83798" lon="6.9532">
        <ele>2099.9</ele>
        <time>2023-02-16T09:50:33Z</time>
      </trkpt>
      <trkpt lat="44.83798" lon="6.95323">
        <ele>2100.5</ele>
        <time>2023-02-16T09:50:36Z</time>
      </trkpt>
      <trkpt lat="44.83798" lon="6.95323">
        <ele>2100.5</ele>
        <time>2023-02-16T09:50:43Z</time>
      </trkpt>
      <trkpt lat="44.83799" lon="6.95322">
        <ele>2100.7</ele>
        <time>2023-02-16T09:51:02Z</time>
      </trkpt>
      <trkpt lat="44.83804" lon="6.95321">
        <ele>2102.7</ele>
        <time>2023-02-16T09:51:10Z</time>
      </trkpt>
      <trkpt lat="44.83806" lon="6.9532">
        <ele>2103.2</ele>
        <time>2023-02-16T09:51:13Z</time>
      </trkpt>
      <trkpt lat="44.83808" lon="6.9532">
        <ele>2103.8</ele>
        <time>2023-02-16T09:51:16Z</time>
      </trkpt>
      <trkpt lat="44.83812" lon="6.95319">
        <ele>2104.8</ele>
        <time>2023-02-16T09:51:20Z</time>
      </trkpt>
      <trkpt lat="44.83815" lon="6.95318">
        <ele>2105.4</ele>
        <time>2023-02-16T09:51:23Z</time>
      </trkpt>
      <trkpt lat="44.83815" lon="6.95318">
        <ele>2105.4</ele>
        <time>2023-02-16T09:51:24Z</time>
      </trkpt>
      <trkpt lat="44.83821" lon="6.95317">
        <ele>2106.9</ele>
        <time>2023-02-16T09:51:31Z</time>
      </trkpt>
      <trkpt lat="44.83822" lon="6.95317">
        <ele>2107.2</ele>
        <time>2023-02-16T09:51:33Z</time>
      </trkpt>
      <trkpt lat="44.83825" lon="6.95319">
        <ele>2108.5</ele>
        <time>2023-02-16T09:51:38Z</time>
      </trkpt>
      <trkpt lat="44.83825" lon="6.95323">
        <ele>2109.4</ele>
        <time>2023-02-16T09:51:41Z</time>
      </trkpt>
      <trkpt lat="44.83824" lon="6.95324">
        <ele>2109.3</ele>
        <time>2023-02-16T09:51:42Z</time>
      </trkpt>
      <trkpt lat="44.83823" lon="6.95328">
        <ele>2109.9</ele>
        <time>2023-02-16T09:51:46Z</time>
      </trkpt>
      <trkpt lat="44.83821" lon="6.95334">
        <ele>2110.6</ele>
        <time>2023-02-16T09:51:52Z</time>
      </trkpt>
      <trkpt lat="44.8382" lon="6.95338">
        <ele>2111.2</ele>
        <time>2023-02-16T09:51:55Z</time>
      </trkpt>
      <trkpt lat="44.83819" lon="6.95342">
        <ele>2111.7</ele>
        <time>2023-02-16T09:51:59Z</time>
      </trkpt>
      <trkpt lat="44.83817" lon="6.95347">
        <ele>2112.2</ele>
        <time>2023-02-16T09:52:05Z</time>
      </trkpt>
      <trkpt lat="44.83816" lon="6.95351">
        <ele>2112.8</ele>
        <time>2023-02-16T09:52:09Z</time>
      </trkpt>
      <trkpt lat="44.83815" lon="6.95352">
        <ele>2112.8</ele>
        <time>2023-02-16T09:52:10Z</time>
      </trkpt>
      <trkpt lat="44.83813" lon="6.95359">
        <ele>2113.7</ele>
        <time>2023-02-16T09:52:17Z</time>
      </trkpt>
      <trkpt lat="44.83813" lon="6.95364">
        <ele>2114.7</ele>
        <time>2023-02-16T09:52:21Z</time>
      </trkpt>
      <trkpt lat="44.83813" lon="6.95365">
        <ele>2114.8</ele>
        <time>2023-02-16T09:52:22Z</time>
      </trkpt>
      <trkpt lat="44.83813" lon="6.95367">
        <ele>2115.2</ele>
        <time>2023-02-16T09:52:31Z</time>
      </trkpt>
      <trkpt lat="44.83814" lon="6.95367">
        <ele>2115.5</ele>
        <time>2023-02-16T09:52:35Z</time>
      </trkpt>
      <trkpt lat="44.83814" lon="6.95367">
        <ele>2115.5</ele>
        <time>2023-02-16T09:52:38Z</time>
      </trkpt>
      <trkpt lat="44.83815" lon="6.9537">
        <ele>2116.3</ele>
        <time>2023-02-16T09:52:44Z</time>
      </trkpt>
      <trkpt lat="44.8382" lon="6.95372">
        <ele>2118.1</ele>
        <time>2023-02-16T09:52:52Z</time>
      </trkpt>
      <trkpt lat="44.83822" lon="6.95372">
        <ele>2118.7</ele>
        <time>2023-02-16T09:52:55Z</time>
      </trkpt>
      <trkpt lat="44.83824" lon="6.95372">
        <ele>2119.3</ele>
        <time>2023-02-16T09:52:58Z</time>
      </trkpt>
      <trkpt lat="44.83829" lon="6.95373">
        <ele>2120.9</ele>
        <time>2023-02-16T09:53:04Z</time>
      </trkpt>
      <trkpt lat="44.8383" lon="6.95374">
        <ele>2121.4</ele>
        <time>2023-02-16T09:53:07Z</time>
      </trkpt>
      <trkpt lat="44.83831" lon="6.95375">
        <ele>2121.8</ele>
        <time>2023-02-16T09:53:09Z</time>
      </trkpt>
      <trkpt lat="44.83835" lon="6.95379">
        <ele>2123.8</ele>
        <time>2023-02-16T09:53:15Z</time>
      </trkpt>
      <trkpt lat="44.83836" lon="6.9538">
        <ele>2124.4</ele>
        <time>2023-02-16T09:53:16Z</time>
      </trkpt>
      <trkpt lat="44.83839" lon="6.95382">
        <ele>2125.8</ele>
        <time>2023-02-16T09:53:20Z</time>
      </trkpt>
      <trkpt lat="44.83839" lon="6.95383">
        <ele>2126</ele>
        <time>2023-02-16T09:53:21Z</time>
      </trkpt>
      <trkpt lat="44.83842" lon="6.95385">
        <ele>2127.4</ele>
        <time>2023-02-16T09:53:26Z</time>
      </trkpt>
      <trkpt lat="44.83845" lon="6.95387">
        <ele>2128.9</ele>
        <time>2023-02-16T09:53:31Z</time>
      </trkpt>
      <trkpt lat="44.83847" lon="6.9539">
        <ele>2130.2</ele>
        <time>2023-02-16T09:53:37Z</time>
      </trkpt>
      <trkpt lat="44.83848" lon="6.95391">
        <ele>2130.8</ele>
        <time>2023-02-16T09:53:38Z</time>
      </trkpt>
      <trkpt lat="44.83849" lon="6.95394">
        <ele>2131.8</ele>
        <time>2023-02-16T09:53:42Z</time>
      </trkpt>
      <trkpt lat="44.8385" lon="6.95398">
        <ele>2133</ele>
        <time>2023-02-16T09:53:47Z</time>
      </trkpt>
      <trkpt lat="44.8385" lon="6.95399">
        <ele>2133.3</ele>
        <time>2023-02-16T09:53:48Z</time>
      </trkpt>
      <trkpt lat="44.8385" lon="6.95404">
        <ele>2134.4</ele>
        <time>2023-02-16T09:53:55Z</time>
      </trkpt>
      <trkpt lat="44.83849" lon="6.95407">
        <ele>2134.8</ele>
        <time>2023-02-16T09:53:59Z</time>
      </trkpt>
      <trkpt lat="44.83848" lon="6.9541">
        <ele>2135.2</ele>
        <time>2023-02-16T09:54:02Z</time>
      </trkpt>
      <trkpt lat="44.83845" lon="6.95413">
        <ele>2135.1</ele>
        <time>2023-02-16T09:54:08Z</time>
      </trkpt>
      <trkpt lat="44.83844" lon="6.95414">
        <ele>2135</ele>
        <time>2023-02-16T09:54:11Z</time>
      </trkpt>
      <trkpt lat="44.83843" lon="6.95416">
        <ele>2135.3</ele>
        <time>2023-02-16T09:54:16Z</time>
      </trkpt>
      <trkpt lat="44.83843" lon="6.95418">
        <ele>2135.8</ele>
        <time>2023-02-16T09:54:20Z</time>
      </trkpt>
      <trkpt lat="44.83845" lon="6.95419">
        <ele>2136.6</ele>
        <time>2023-02-16T09:54:26Z</time>
      </trkpt>
      <trkpt lat="44.83848" lon="6.95422">
        <ele>2138.1</ele>
        <time>2023-02-16T09:54:31Z</time>
      </trkpt>
      <trkpt lat="44.83849" lon="6.95423">
        <ele>2138.6</ele>
        <time>2023-02-16T09:54:34Z</time>
      </trkpt>
      <trkpt lat="44.83851" lon="6.95425">
        <ele>2139.6</ele>
        <time>2023-02-16T09:54:38Z</time>
      </trkpt>
      <trkpt lat="44.83851" lon="6.95425">
        <ele>2139.6</ele>
        <time>2023-02-16T09:54:42Z</time>
      </trkpt>
      <trkpt lat="44.83852" lon="6.95425">
        <ele>2139.8</ele>
        <time>2023-02-16T09:54:53Z</time>
      </trkpt>
      <trkpt lat="44.83852" lon="6.95425">
        <ele>2139.8</ele>
        <time>2023-02-16T09:54:54Z</time>
      </trkpt>
      <trkpt lat="44.83852" lon="6.95425">
        <ele>2139.8</ele>
        <time>2023-02-16T09:54:56Z</time>
      </trkpt>
      <trkpt lat="44.83852" lon="6.95425">
        <ele>2139.8</ele>
        <time>2023-02-16T09:54:58Z</time>
      </trkpt>
      <trkpt lat="44.83852" lon="6.95425">
        <ele>2139.8</ele>
        <time>2023-02-16T09:55:00Z</time>
      </trkpt>
      <trkpt lat="44.83853" lon="6.95426">
        <ele>2140.3</ele>
        <time>2023-02-16T09:55:03Z</time>
      </trkpt>
      <trkpt lat="44.83855" lon="6.95426">
        <ele>2140.7</ele>
        <time>2023-02-16T09:55:06Z</time>
      </trkpt>
      <trkpt lat="44.83857" lon="6.95425">
        <ele>2140.9</ele>
        <time>2023-02-16T09:55:10Z</time>
      </trkpt>
      <trkpt lat="44.83858" lon="6.95425">
        <ele>2141.1</ele>
        <time>2023-02-16T09:55:13Z</time>
      </trkpt>
      <trkpt lat="44.83858" lon="6.95425">
        <ele>2141.1</ele>
        <time>2023-02-16T09:55:14Z</time>
      </trkpt>
      <trkpt lat="44.83858" lon="6.95424">
        <ele>2140.9</ele>
        <time>2023-02-16T09:55:21Z</time>
      </trkpt>
      <trkpt lat="44.83857" lon="6.95424">
        <ele>2140.7</ele>
        <time>2023-02-16T09:55:22Z</time>
      </trkpt>
      <trkpt lat="44.83857" lon="6.95425">
        <ele>2140.9</ele>
        <time>2023-02-16T09:55:39Z</time>
      </trkpt>
      <trkpt lat="44.8386" lon="6.95428">
        <ele>2142.2</ele>
        <time>2023-02-16T09:55:49Z</time>
      </trkpt>
      <trkpt lat="44.8386" lon="6.95431">
        <ele>2142.9</ele>
        <time>2023-02-16T09:55:52Z</time>
      </trkpt>
      <trkpt lat="44.8386" lon="6.95432">
        <ele>2143.1</ele>
        <time>2023-02-16T09:55:53Z</time>
      </trkpt>
      <trkpt lat="44.8386" lon="6.95434">
        <ele>2143.5</ele>
        <time>2023-02-16T09:55:54Z</time>
      </trkpt>
      <trkpt lat="44.83859" lon="6.95436">
        <ele>2143.8</ele>
        <time>2023-02-16T09:55:56Z</time>
      </trkpt>
      <trkpt lat="44.83859" lon="6.95438">
        <ele>2144.3</ele>
        <time>2023-02-16T09:55:58Z</time>
      </trkpt>
      <trkpt lat="44.83858" lon="6.95441">
        <ele>2144.8</ele>
        <time>2023-02-16T09:56:00Z</time>
      </trkpt>
      <trkpt lat="44.83857" lon="6.95442">
        <ele>2144.8</ele>
        <time>2023-02-16T09:56:01Z</time>
      </trkpt>
      <trkpt lat="44.83854" lon="6.95446">
        <ele>2145.2</ele>
        <time>2023-02-16T09:56:06Z</time>
      </trkpt>
      <trkpt lat="44.83852" lon="6.95449">
        <ele>2145.4</ele>
        <time>2023-02-16T09:56:12Z</time>
      </trkpt>
      <trkpt lat="44.8385" lon="6.95451">
        <ele>2145.4</ele>
        <time>2023-02-16T09:56:16Z</time>
      </trkpt>
      <trkpt lat="44.8385" lon="6.95455">
        <ele>2146</ele>
        <time>2023-02-16T09:56:23Z</time>
      </trkpt>
      <trkpt lat="44.83851" lon="6.95456">
        <ele>2146.3</ele>
        <time>2023-02-16T09:56:25Z</time>
      </trkpt>
      <trkpt lat="44.83851" lon="6.95461">
        <ele>2147.1</ele>
        <time>2023-02-16T09:56:31Z</time>
      </trkpt>
      <trkpt lat="44.83851" lon="6.95463">
        <ele>2147.4</ele>
        <time>2023-02-16T09:56:32Z</time>
      </trkpt>
      <trkpt lat="44.83851" lon="6.95465">
        <ele>2147.7</ele>
        <time>2023-02-16T09:56:34Z</time>
      </trkpt>
      <trkpt lat="44.83849" lon="6.95474">
        <ele>2148.7</ele>
        <time>2023-02-16T09:56:43Z</time>
      </trkpt>
      <trkpt lat="44.83849" lon="6.95477">
        <ele>2149.1</ele>
        <time>2023-02-16T09:56:46Z</time>
      </trkpt>
      <trkpt lat="44.83849" lon="6.95482">
        <ele>2149.9</ele>
        <time>2023-02-16T09:56:53Z</time>
      </trkpt>
      <trkpt lat="44.83849" lon="6.95482">
        <ele>2149.9</ele>
        <time>2023-02-16T09:56:57Z</time>
      </trkpt>
      <trkpt lat="44.8385" lon="6.95483">
        <ele>2150.3</ele>
        <time>2023-02-16T09:57:06Z</time>
      </trkpt>
      <trkpt lat="44.8385" lon="6.95485">
        <ele>2150.6</ele>
        <time>2023-02-16T09:57:11Z</time>
      </trkpt>
      <trkpt lat="44.83851" lon="6.95485">
        <ele>2150.9</ele>
        <time>2023-02-16T09:57:21Z</time>
      </trkpt>
      <trkpt lat="44.83853" lon="6.95485">
        <ele>2151.5</ele>
        <time>2023-02-16T09:57:32Z</time>
      </trkpt>
      <trkpt lat="44.83853" lon="6.95485">
        <ele>2151.5</ele>
        <time>2023-02-16T09:57:33Z</time>
      </trkpt>
      <trkpt lat="44.83853" lon="6.95486">
        <ele>2151.6</ele>
        <time>2023-02-16T09:57:45Z</time>
      </trkpt>
      <trkpt lat="44.83853" lon="6.95485">
        <ele>2151.5</ele>
        <time>2023-02-16T09:57:57Z</time>
      </trkpt>
      <trkpt lat="44.83853" lon="6.95486">
        <ele>2151.6</ele>
        <time>2023-02-16T09:58:07Z</time>
      </trkpt>
      <trkpt lat="44.83854" lon="6.95483">
        <ele>2151.4</ele>
        <time>2023-02-16T09:58:17Z</time>
      </trkpt>
      <trkpt lat="44.83854" lon="6.95482">
        <ele>2151.2</ele>
        <time>2023-02-16T09:58:30Z</time>
      </trkpt>
      <trkpt lat="44.83854" lon="6.95483">
        <ele>2151.4</ele>
        <time>2023-02-16T09:58:46Z</time>
      </trkpt>
      <trkpt lat="44.83854" lon="6.95484">
        <ele>2151.6</ele>
        <time>2023-02-16T09:59:00Z</time>
      </trkpt>
      <trkpt lat="44.83854" lon="6.95484">
        <ele>2151.6</ele>
        <time>2023-02-16T09:59:10Z</time>
      </trkpt>
      <trkpt lat="44.83854" lon="6.95483">
        <ele>2151.4</ele>
        <time>2023-02-16T09:59:12Z</time>
      </trkpt>
      <trkpt lat="44.83852" lon="6.95481">
        <ele>2150.5</ele>
        <time>2023-02-16T09:59:23Z</time>
      </trkpt>
      <trkpt lat="44.83853" lon="6.9548">
        <ele>2150.6</ele>
        <time>2023-02-16T09:59:35Z</time>
      </trkpt>
      <trkpt lat="44.83854" lon="6.95481">
        <ele>2151</ele>
        <time>2023-02-16T09:59:51Z</time>
      </trkpt>
      <trkpt lat="44.83853" lon="6.95482">
        <ele>2150.9</ele>
        <time>2023-02-16T10:00:08Z</time>
      </trkpt>
      <trkpt lat="44.83854" lon="6.95483">
        <ele>2151.4</ele>
        <time>2023-02-16T10:00:26Z</time>
      </trkpt>
      <trkpt lat="44.83853" lon="6.95483">
        <ele>2151.1</ele>
        <time>2023-02-16T10:00:35Z</time>
      </trkpt>
      <trkpt lat="44.83853" lon="6.95483">
        <ele>2151.1</ele>
        <time>2023-02-16T10:00:38Z</time>
      </trkpt>
      <trkpt lat="44.83854" lon="6.95484">
        <ele>2151.6</ele>
        <time>2023-02-16T10:00:55Z</time>
      </trkpt>
      <trkpt lat="44.83854" lon="6.95485">
        <ele>2151.8</ele>
        <time>2023-02-16T10:01:09Z</time>
      </trkpt>
      <trkpt lat="44.83854" lon="6.95485">
        <ele>2151.8</ele>
        <time>2023-02-16T10:01:22Z</time>
      </trkpt>
      <trkpt lat="44.83854" lon="6.95485">
        <ele>2151.8</ele>
        <time>2023-02-16T10:01:37Z</time>
      </trkpt>
      <trkpt lat="44.83854" lon="6.95485">
        <ele>2151.8</ele>
        <time>2023-02-16T10:01:38Z</time>
      </trkpt>
      <trkpt lat="44.83853" lon="6.95485">
        <ele>2151.5</ele>
        <time>2023-02-16T10:01:50Z</time>
      </trkpt>
      <trkpt lat="44.83853" lon="6.95485">
        <ele>2151.5</ele>
        <time>2023-02-16T10:01:53Z</time>
      </trkpt>
      <trkpt lat="44.83853" lon="6.95484">
        <ele>2151.3</ele>
        <time>2023-02-16T10:02:04Z</time>
      </trkpt>
      <trkpt lat="44.83853" lon="6.95483">
        <ele>2151.1</ele>
        <time>2023-02-16T10:02:23Z</time>
      </trkpt>
      <trkpt lat="44.83853" lon="6.95484">
        <ele>2151.3</ele>
        <time>2023-02-16T10:02:34Z</time>
      </trkpt>
      <trkpt lat="44.83853" lon="6.95485">
        <ele>2151.5</ele>
        <time>2023-02-16T10:02:53Z</time>
      </trkpt>
      <trkpt lat="44.83854" lon="6.95485">
        <ele>2151.8</ele>
        <time>2023-02-16T10:03:11Z</time>
      </trkpt>
      <trkpt lat="44.83854" lon="6.95483">
        <ele>2151.4</ele>
        <time>2023-02-16T10:03:28Z</time>
      </trkpt>
      <trkpt lat="44.83857" lon="6.95481">
        <ele>2151.8</ele>
        <time>2023-02-16T10:03:41Z</time>
      </trkpt>
      <trkpt lat="44.83859" lon="6.95482">
        <ele>2152.5</ele>
        <time>2023-02-16T10:03:43Z</time>
      </trkpt>
      <trkpt lat="44.83864" lon="6.95482">
        <ele>2154</ele>
        <time>2023-02-16T10:03:48Z</time>
      </trkpt>
      <trkpt lat="44.83868" lon="6.95481">
        <ele>2155.1</ele>
        <time>2023-02-16T10:03:52Z</time>
      </trkpt>
      <trkpt lat="44.83871" lon="6.95481">
        <ele>2156.1</ele>
        <time>2023-02-16T10:03:56Z</time>
      </trkpt>
      <trkpt lat="44.83877" lon="6.95479">
        <ele>2157.6</ele>
        <time>2023-02-16T10:04:03Z</time>
      </trkpt>
      <trkpt lat="44.83878" lon="6.95479">
        <ele>2157.9</ele>
        <time>2023-02-16T10:04:04Z</time>
      </trkpt>
      <trkpt lat="44.83883" lon="6.95477">
        <ele>2159.1</ele>
        <time>2023-02-16T10:04:11Z</time>
      </trkpt>
      <trkpt lat="44.83884" lon="6.95476">
        <ele>2159.2</ele>
        <time>2023-02-16T10:04:12Z</time>
      </trkpt>
      <trkpt lat="44.83885" lon="6.95476">
        <ele>2159.6</ele>
        <time>2023-02-16T10:04:13Z</time>
      </trkpt>
      <trkpt lat="44.83886" lon="6.95476">
        <ele>2159.9</ele>
        <time>2023-02-16T10:04:15Z</time>
      </trkpt>
      <trkpt lat="44.83892" lon="6.9547">
        <ele>2161.5</ele>
        <time>2023-02-16T10:04:24Z</time>
      </trkpt>
      <trkpt lat="44.83893" lon="6.95467">
        <ele>2161.8</ele>
        <time>2023-02-16T10:04:29Z</time>
      </trkpt>
      <trkpt lat="44.83895" lon="6.95463">
        <ele>2162.5</ele>
        <time>2023-02-16T10:04:34Z</time>
      </trkpt>
      <trkpt lat="44.83896" lon="6.95462">
        <ele>2162.9</ele>
        <time>2023-02-16T10:04:35Z</time>
      </trkpt>
      <trkpt lat="44.83897" lon="6.95457">
        <ele>2162.9</ele>
        <time>2023-02-16T10:04:42Z</time>
      </trkpt>
      <trkpt lat="44.83898" lon="6.95455">
        <ele>2163.2</ele>
        <time>2023-02-16T10:04:44Z</time>
      </trkpt>
      <trkpt lat="44.83899" lon="6.95453">
        <ele>2163.5</ele>
        <time>2023-02-16T10:04:47Z</time>
      </trkpt>
      <trkpt lat="44.83902" lon="6.95449">
        <ele>2164.6</ele>
        <time>2023-02-16T10:04:52Z</time>
      </trkpt>
      <trkpt lat="44.83903" lon="6.95448">
        <ele>2165.1</ele>
        <time>2023-02-16T10:04:54Z</time>
      </trkpt>
      <trkpt lat="44.83904" lon="6.95446">
        <ele>2165.4</ele>
        <time>2023-02-16T10:04:57Z</time>
      </trkpt>
      <trkpt lat="44.83908" lon="6.95442">
        <ele>2167</ele>
        <time>2023-02-16T10:05:04Z</time>
      </trkpt>
      <trkpt lat="44.83909" lon="6.95442">
        <ele>2167.5</ele>
        <time>2023-02-16T10:05:05Z</time>
      </trkpt>
      <trkpt lat="44.83912" lon="6.95439">
        <ele>2168.7</ele>
        <time>2023-02-16T10:05:10Z</time>
      </trkpt>
      <trkpt lat="44.83914" lon="6.95436">
        <ele>2169.4</ele>
        <time>2023-02-16T10:05:15Z</time>
      </trkpt>
      <trkpt lat="44.83914" lon="6.95435">
        <ele>2169.2</ele>
        <time>2023-02-16T10:05:16Z</time>
      </trkpt>
      <trkpt lat="44.83916" lon="6.95433">
        <ele>2170</ele>
        <time>2023-02-16T10:05:19Z</time>
      </trkpt>
      <trkpt lat="44.83916" lon="6.95432">
        <ele>2169.9</ele>
        <time>2023-02-16T10:05:20Z</time>
      </trkpt>
      <trkpt lat="44.8392" lon="6.95429">
        <ele>2171.1</ele>
        <time>2023-02-16T10:05:26Z</time>
      </trkpt>
      <trkpt lat="44.83921" lon="6.95428">
        <ele>2171.4</ele>
        <time>2023-02-16T10:05:28Z</time>
      </trkpt>
      <trkpt lat="44.83923" lon="6.95427">
        <ele>2172.1</ele>
        <time>2023-02-16T10:05:31Z</time>
      </trkpt>
      <trkpt lat="44.83926" lon="6.95425">
        <ele>2173</ele>
        <time>2023-02-16T10:05:35Z</time>
      </trkpt>
      <trkpt lat="44.83929" lon="6.95423">
        <ele>2173.9</ele>
        <time>2023-02-16T10:05:39Z</time>
      </trkpt>
      <trkpt lat="44.83932" lon="6.9542">
        <ele>2174.6</ele>
        <time>2023-02-16T10:05:45Z</time>
      </trkpt>
      <trkpt lat="44.83933" lon="6.9542">
        <ele>2175</ele>
        <time>2023-02-16T10:05:46Z</time>
      </trkpt>
      <trkpt lat="44.83938" lon="6.95416">
        <ele>2176.3</ele>
        <time>2023-02-16T10:05:53Z</time>
      </trkpt>
      <trkpt lat="44.83941" lon="6.95415">
        <ele>2177.3</ele>
        <time>2023-02-16T10:05:57Z</time>
      </trkpt>
      <trkpt lat="44.83945" lon="6.95413">
        <ele>2178.6</ele>
        <time>2023-02-16T10:06:04Z</time>
      </trkpt>
      <trkpt lat="44.83946" lon="6.95413">
        <ele>2179</ele>
        <time>2023-02-16T10:06:08Z</time>
      </trkpt>
      <trkpt lat="44.83945" lon="6.95413">
        <ele>2178.6</ele>
        <time>2023-02-16T10:06:24Z</time>
      </trkpt>
      <trkpt lat="44.83945" lon="6.95415">
        <ele>2178.9</ele>
        <time>2023-02-16T10:06:36Z</time>
      </trkpt>
      <trkpt lat="44.83947" lon="6.95414">
        <ele>2179.7</ele>
        <time>2023-02-16T10:06:39Z</time>
      </trkpt>
      <trkpt lat="44.8395" lon="6.95412">
        <ele>2180.7</ele>
        <time>2023-02-16T10:06:43Z</time>
      </trkpt>
      <trkpt lat="44.83952" lon="6.95411">
        <ele>2181.4</ele>
        <time>2023-02-16T10:06:45Z</time>
      </trkpt>
      <trkpt lat="44.83957" lon="6.95409">
        <ele>2183.4</ele>
        <time>2023-02-16T10:06:52Z</time>
      </trkpt>
      <trkpt lat="44.83959" lon="6.95408">
        <ele>2184.2</ele>
        <time>2023-02-16T10:06:55Z</time>
      </trkpt>
      <trkpt lat="44.8396" lon="6.95408">
        <ele>2184.7</ele>
        <time>2023-02-16T10:06:57Z</time>
      </trkpt>
      <trkpt lat="44.83961" lon="6.95407">
        <ele>2185</ele>
        <time>2023-02-16T10:07:05Z</time>
      </trkpt>
      <trkpt lat="44.83962" lon="6.9541">
        <ele>2185.8</ele>
        <time>2023-02-16T10:07:18Z</time>
      </trkpt>
      <trkpt lat="44.83962" lon="6.95411">
        <ele>2186</ele>
        <time>2023-02-16T10:07:19Z</time>
      </trkpt>
      <trkpt lat="44.83963" lon="6.95418">
        <ele>2187.2</ele>
        <time>2023-02-16T10:07:25Z</time>
      </trkpt>
      <trkpt lat="44.83963" lon="6.95419">
        <ele>2187.4</ele>
        <time>2023-02-16T10:07:26Z</time>
      </trkpt>
      <trkpt lat="44.83963" lon="6.95423">
        <ele>2188</ele>
        <time>2023-02-16T10:07:29Z</time>
      </trkpt>
      <trkpt lat="44.83964" lon="6.95427">
        <ele>2189</ele>
        <time>2023-02-16T10:07:33Z</time>
      </trkpt>
      <trkpt lat="44.83964" lon="6.95429">
        <ele>2189.4</ele>
        <time>2023-02-16T10:07:35Z</time>
      </trkpt>
      <trkpt lat="44.83963" lon="6.95437">
        <ele>2190.2</ele>
        <time>2023-02-16T10:07:42Z</time>
      </trkpt>
      <trkpt lat="44.83964" lon="6.95441">
        <ele>2191.2</ele>
        <time>2023-02-16T10:07:47Z</time>
      </trkpt>
      <trkpt lat="44.83964" lon="6.95441">
        <ele>2191.2</ele>
        <time>2023-02-16T10:07:48Z</time>
      </trkpt>
      <trkpt lat="44.83969" lon="6.9544">
        <ele>2193.1</ele>
        <time>2023-02-16T10:07:55Z</time>
      </trkpt>
      <trkpt lat="44.8397" lon="6.95439">
        <ele>2193.3</ele>
        <time>2023-02-16T10:07:57Z</time>
      </trkpt>
      <trkpt lat="44.83972" lon="6.95437">
        <ele>2193.8</ele>
        <time>2023-02-16T10:08:00Z</time>
      </trkpt>
      <trkpt lat="44.83975" lon="6.95434">
        <ele>2194.8</ele>
        <time>2023-02-16T10:08:05Z</time>
      </trkpt>
      <trkpt lat="44.83977" lon="6.95432">
        <ele>2195.5</ele>
        <time>2023-02-16T10:08:09Z</time>
      </trkpt>
      <trkpt lat="44.83978" lon="6.9543">
        <ele>2195.7</ele>
        <time>2023-02-16T10:08:10Z</time>
      </trkpt>
      <trkpt lat="44.83981" lon="6.95431">
        <ele>2197.3</ele>
        <time>2023-02-16T10:08:17Z</time>
      </trkpt>
      <trkpt lat="44.83982" lon="6.95436">
        <ele>2198.3</ele>
        <time>2023-02-16T10:08:23Z</time>
      </trkpt>
      <trkpt lat="44.83982" lon="6.95437">
        <ele>2198.4</ele>
        <time>2023-02-16T10:08:24Z</time>
      </trkpt>
      <trkpt lat="44.83982" lon="6.95441">
        <ele>2198.9</ele>
        <time>2023-02-16T10:08:27Z</time>
      </trkpt>
      <trkpt lat="44.83982" lon="6.95445">
        <ele>2199.3</ele>
        <time>2023-02-16T10:08:31Z</time>
      </trkpt>
      <trkpt lat="44.83982" lon="6.95449">
        <ele>2199.8</ele>
        <time>2023-02-16T10:08:35Z</time>
      </trkpt>
      <trkpt lat="44.83984" lon="6.95454">
        <ele>2201.3</ele>
        <time>2023-02-16T10:08:41Z</time>
      </trkpt>
      <trkpt lat="44.83984" lon="6.95455">
        <ele>2201.4</ele>
        <time>2023-02-16T10:08:42Z</time>
      </trkpt>
      <trkpt lat="44.83986" lon="6.95454">
        <ele>2202.2</ele>
        <time>2023-02-16T10:08:50Z</time>
      </trkpt>
      <trkpt lat="44.8399" lon="6.95451">
        <ele>2203.5</ele>
        <time>2023-02-16T10:08:57Z</time>
      </trkpt>
      <trkpt lat="44.83992" lon="6.95449">
        <ele>2204.2</ele>
        <time>2023-02-16T10:09:00Z</time>
      </trkpt>
      <trkpt lat="44.83995" lon="6.95447">
        <ele>2205.2</ele>
        <time>2023-02-16T10:09:04Z</time>
      </trkpt>
      <trkpt lat="44.83998" lon="6.95441">
        <ele>2206</ele>
        <time>2023-02-16T10:09:11Z</time>
      </trkpt>
      <trkpt lat="44.84" lon="6.95438">
        <ele>2206.8</ele>
        <time>2023-02-16T10:09:15Z</time>
      </trkpt>
      <trkpt lat="44.84002" lon="6.95433">
        <ele>2207.7</ele>
        <time>2023-02-16T10:09:20Z</time>
      </trkpt>
      <trkpt lat="44.84003" lon="6.95432">
        <ele>2208.2</ele>
        <time>2023-02-16T10:09:22Z</time>
      </trkpt>
      <trkpt lat="44.84004" lon="6.95429">
        <ele>2208.7</ele>
        <time>2023-02-16T10:09:25Z</time>
      </trkpt>
      <trkpt lat="44.84007" lon="6.95425">
        <ele>2210.3</ele>
        <time>2023-02-16T10:09:32Z</time>
      </trkpt>
      <trkpt lat="44.84009" lon="6.95417">
        <ele>2211.2</ele>
        <time>2023-02-16T10:09:39Z</time>
      </trkpt>
      <trkpt lat="44.84009" lon="6.95414">
        <ele>2211.2</ele>
        <time>2023-02-16T10:09:42Z</time>
      </trkpt>
      <trkpt lat="44.84009" lon="6.95412">
        <ele>2211.2</ele>
        <time>2023-02-16T10:09:45Z</time>
      </trkpt>
      <trkpt lat="44.8401" lon="6.95409">
        <ele>2211.8</ele>
        <time>2023-02-16T10:09:50Z</time>
      </trkpt>
      <trkpt lat="44.8401" lon="6.95408">
        <ele>2211.8</ele>
        <time>2023-02-16T10:09:51Z</time>
      </trkpt>
      <trkpt lat="44.84013" lon="6.95412">
        <ele>2213.5</ele>
        <time>2023-02-16T10:10:01Z</time>
      </trkpt>
      <trkpt lat="44.84015" lon="6.95414">
        <ele>2214.6</ele>
        <time>2023-02-16T10:10:04Z</time>
      </trkpt>
      <trkpt lat="44.84015" lon="6.95415">
        <ele>2214.6</ele>
        <time>2023-02-16T10:10:05Z</time>
      </trkpt>
      <trkpt lat="44.84017" lon="6.95418">
        <ele>2215.8</ele>
        <time>2023-02-16T10:10:09Z</time>
      </trkpt>
      <trkpt lat="44.84019" lon="6.95423">
        <ele>2217</ele>
        <time>2023-02-16T10:10:16Z</time>
      </trkpt>
      <trkpt lat="44.84021" lon="6.95429">
        <ele>2218.2</ele>
        <time>2023-02-16T10:10:22Z</time>
      </trkpt>
      <trkpt lat="44.84023" lon="6.95434">
        <ele>2219.4</ele>
        <time>2023-02-16T10:10:27Z</time>
      </trkpt>
      <trkpt lat="44.84024" lon="6.95436">
        <ele>2219.9</ele>
        <time>2023-02-16T10:10:30Z</time>
      </trkpt>
      <trkpt lat="44.84025" lon="6.95434">
        <ele>2220.5</ele>
        <time>2023-02-16T10:10:36Z</time>
      </trkpt>
      <trkpt lat="44.84025" lon="6.95432">
        <ele>2220.5</ele>
        <time>2023-02-16T10:10:38Z</time>
      </trkpt>
      <trkpt lat="44.84027" lon="6.95428">
        <ele>2221.6</ele>
        <time>2023-02-16T10:10:43Z</time>
      </trkpt>
      <trkpt lat="44.84028" lon="6.95424">
        <ele>2222.1</ele>
        <time>2023-02-16T10:10:49Z</time>
      </trkpt>
      <trkpt lat="44.84028" lon="6.95424">
        <ele>2222.1</ele>
        <time>2023-02-16T10:10:50Z</time>
      </trkpt>
      <trkpt lat="44.84028" lon="6.95422">
        <ele>2222.1</ele>
        <time>2023-02-16T10:10:57Z</time>
      </trkpt>
      <trkpt lat="44.84028" lon="6.95422">
        <ele>2222.1</ele>
        <time>2023-02-16T10:11:01Z</time>
      </trkpt>
      <trkpt lat="44.84032" lon="6.95428">
        <ele>2224.1</ele>
        <time>2023-02-16T10:11:10Z</time>
      </trkpt>
      <trkpt lat="44.84034" lon="6.9543">
        <ele>2225.1</ele>
        <time>2023-02-16T10:11:14Z</time>
      </trkpt>
      <trkpt lat="44.84036" lon="6.95433">
        <ele>2226.2</ele>
        <time>2023-02-16T10:11:20Z</time>
      </trkpt>
      <trkpt lat="44.84036" lon="6.95434">
        <ele>2226.3</ele>
        <time>2023-02-16T10:11:21Z</time>
      </trkpt>
      <trkpt lat="44.84037" lon="6.95435">
        <ele>2226.9</ele>
        <time>2023-02-16T10:11:23Z</time>
      </trkpt>
      <trkpt lat="44.84037" lon="6.9544">
        <ele>2227.1</ele>
        <time>2023-02-16T10:11:28Z</time>
      </trkpt>
      <trkpt lat="44.84039" lon="6.95445">
        <ele>2228.5</ele>
        <time>2023-02-16T10:11:33Z</time>
      </trkpt>
      <trkpt lat="44.84039" lon="6.95446">
        <ele>2228.6</ele>
        <time>2023-02-16T10:11:35Z</time>
      </trkpt>
      <trkpt lat="44.84039" lon="6.95447">
        <ele>2228.8</ele>
        <time>2023-02-16T10:11:46Z</time>
      </trkpt>
      <trkpt lat="44.8404" lon="6.95445">
        <ele>2229.1</ele>
        <time>2023-02-16T10:11:59Z</time>
      </trkpt>
      <trkpt lat="44.84041" lon="6.95443">
        <ele>2229.5</ele>
        <time>2023-02-16T10:12:01Z</time>
      </trkpt>
      <trkpt lat="44.84044" lon="6.95437">
        <ele>2230.7</ele>
        <time>2023-02-16T10:12:08Z</time>
      </trkpt>
      <trkpt lat="44.84045" lon="6.95435">
        <ele>2231.1</ele>
        <time>2023-02-16T10:12:10Z</time>
      </trkpt>
      <trkpt lat="44.84045" lon="6.95432">
        <ele>2230.8</ele>
        <time>2023-02-16T10:12:16Z</time>
      </trkpt>
      <trkpt lat="44.84045" lon="6.95432">
        <ele>2230.8</ele>
        <time>2023-02-16T10:12:20Z</time>
      </trkpt>
      <trkpt lat="44.84047" lon="6.95436">
        <ele>2232.2</ele>
        <time>2023-02-16T10:12:24Z</time>
      </trkpt>
      <trkpt lat="44.84047" lon="6.95437">
        <ele>2232.3</ele>
        <time>2023-02-16T10:12:25Z</time>
      </trkpt>
      <trkpt lat="44.84048" lon="6.95439">
        <ele>2233.1</ele>
        <time>2023-02-16T10:12:27Z</time>
      </trkpt>
      <trkpt lat="44.84048" lon="6.95441">
        <ele>2233.3</ele>
        <time>2023-02-16T10:12:29Z</time>
      </trkpt>
      <trkpt lat="44.84049" lon="6.95446">
        <ele>2234.4</ele>
        <time>2023-02-16T10:12:33Z</time>
      </trkpt>
      <trkpt lat="44.84049" lon="6.9545">
        <ele>2234.7</ele>
        <time>2023-02-16T10:12:37Z</time>
      </trkpt>
      <trkpt lat="44.84049" lon="6.95456">
        <ele>2235.3</ele>
        <time>2023-02-16T10:12:43Z</time>
      </trkpt>
      <trkpt lat="44.84049" lon="6.95459">
        <ele>2235.5</ele>
        <time>2023-02-16T10:12:48Z</time>
      </trkpt>
      <trkpt lat="44.8405" lon="6.95459">
        <ele>2236.1</ele>
        <time>2023-02-16T10:12:53Z</time>
      </trkpt>
      <trkpt lat="44.84053" lon="6.95456">
        <ele>2237.4</ele>
        <time>2023-02-16T10:12:58Z</time>
      </trkpt>
      <trkpt lat="44.84055" lon="6.95453">
        <ele>2238.3</ele>
        <time>2023-02-16T10:13:01Z</time>
      </trkpt>
      <trkpt lat="44.84056" lon="6.95451">
        <ele>2238.7</ele>
        <time>2023-02-16T10:13:03Z</time>
      </trkpt>
      <trkpt lat="44.84057" lon="6.9545">
        <ele>2239.1</ele>
        <time>2023-02-16T10:13:05Z</time>
      </trkpt>
      <trkpt lat="44.84058" lon="6.95444">
        <ele>2239</ele>
        <time>2023-02-16T10:13:10Z</time>
      </trkpt>
      <trkpt lat="44.84059" lon="6.95441">
        <ele>2238.9</ele>
        <time>2023-02-16T10:13:13Z</time>
      </trkpt>
      <trkpt lat="44.8406" lon="6.95436">
        <ele>2238.5</ele>
        <time>2023-02-16T10:13:18Z</time>
      </trkpt>
      <trkpt lat="44.84061" lon="6.95434">
        <ele>2238.6</ele>
        <time>2023-02-16T10:13:22Z</time>
      </trkpt>
      <trkpt lat="44.84062" lon="6.95433">
        <ele>2238.8</ele>
        <time>2023-02-16T10:13:34Z</time>
      </trkpt>
      <trkpt lat="44.84063" lon="6.95433">
        <ele>2239.1</ele>
        <time>2023-02-16T10:13:52Z</time>
      </trkpt>
      <trkpt lat="44.84067" lon="6.95433">
        <ele>2240.6</ele>
        <time>2023-02-16T10:14:03Z</time>
      </trkpt>
      <trkpt lat="44.84068" lon="6.95433">
        <ele>2241</ele>
        <time>2023-02-16T10:14:04Z</time>
      </trkpt>
      <trkpt lat="44.84068" lon="6.95434">
        <ele>2241.2</ele>
        <time>2023-02-16T10:14:05Z</time>
      </trkpt>
      <trkpt lat="44.8407" lon="6.95436">
        <ele>2242.4</ele>
        <time>2023-02-16T10:14:08Z</time>
      </trkpt>
      <trkpt lat="44.84071" lon="6.95441">
        <ele>2243.9</ele>
        <time>2023-02-16T10:14:13Z</time>
      </trkpt>
      <trkpt lat="44.84071" lon="6.95444">
        <ele>2244.6</ele>
        <time>2023-02-16T10:14:16Z</time>
      </trkpt>
      <trkpt lat="44.84072" lon="6.95452">
        <ele>2246.1</ele>
        <time>2023-02-16T10:14:23Z</time>
      </trkpt>
      <trkpt lat="44.84074" lon="6.95454">
        <ele>2247.3</ele>
        <time>2023-02-16T10:14:26Z</time>
      </trkpt>
      <trkpt lat="44.84075" lon="6.95456">
        <ele>2248.1</ele>
        <time>2023-02-16T10:14:29Z</time>
      </trkpt>
      <trkpt lat="44.84077" lon="6.9546">
        <ele>2249.7</ele>
        <time>2023-02-16T10:14:34Z</time>
      </trkpt>
      <trkpt lat="44.84079" lon="6.95462">
        <ele>2251</ele>
        <time>2023-02-16T10:14:38Z</time>
      </trkpt>
      <trkpt lat="44.84081" lon="6.95464">
        <ele>2252.3</ele>
        <time>2023-02-16T10:14:41Z</time>
      </trkpt>
      <trkpt lat="44.84084" lon="6.95464">
        <ele>2253.8</ele>
        <time>2023-02-16T10:14:48Z</time>
      </trkpt>
      <trkpt lat="44.84086" lon="6.95464">
        <ele>2254.8</ele>
        <time>2023-02-16T10:14:50Z</time>
      </trkpt>
      <trkpt lat="44.84087" lon="6.95463">
        <ele>2255.1</ele>
        <time>2023-02-16T10:14:51Z</time>
      </trkpt>
      <trkpt lat="44.84088" lon="6.95461">
        <ele>2255.1</ele>
        <time>2023-02-16T10:14:53Z</time>
      </trkpt>
      <trkpt lat="44.84091" lon="6.95458">
        <ele>2255.9</ele>
        <time>2023-02-16T10:14:58Z</time>
      </trkpt>
      <trkpt lat="44.84092" lon="6.95458">
        <ele>2256.3</ele>
        <time>2023-02-16T10:15:00Z</time>
      </trkpt>
      <trkpt lat="44.84095" lon="6.95457">
        <ele>2257.4</ele>
        <time>2023-02-16T10:15:03Z</time>
      </trkpt>
      <trkpt lat="44.84098" lon="6.95455">
        <ele>2258.3</ele>
        <time>2023-02-16T10:15:08Z</time>
      </trkpt>
      <trkpt lat="44.84101" lon="6.95454">
        <ele>2259.4</ele>
        <time>2023-02-16T10:15:13Z</time>
      </trkpt>
      <trkpt lat="44.84102" lon="6.95453">
        <ele>2259.6</ele>
        <time>2023-02-16T10:15:15Z</time>
      </trkpt>
      <trkpt lat="44.84105" lon="6.95451">
        <ele>2260.3</ele>
        <time>2023-02-16T10:15:21Z</time>
      </trkpt>
      <trkpt lat="44.84107" lon="6.95449">
        <ele>2260.6</ele>
        <time>2023-02-16T10:15:24Z</time>
      </trkpt>
      <trkpt lat="44.84107" lon="6.95448">
        <ele>2260.3</ele>
        <time>2023-02-16T10:15:26Z</time>
      </trkpt>
      <trkpt lat="44.84107" lon="6.95447">
        <ele>2260.1</ele>
        <time>2023-02-16T10:15:33Z</time>
      </trkpt>
      <trkpt lat="44.8411" lon="6.95446">
        <ele>2261</ele>
        <time>2023-02-16T10:15:44Z</time>
      </trkpt>
      <trkpt lat="44.84111" lon="6.95446">
        <ele>2261.4</ele>
        <time>2023-02-16T10:15:45Z</time>
      </trkpt>
      <trkpt lat="44.84113" lon="6.95446">
        <ele>2262.1</ele>
        <time>2023-02-16T10:15:47Z</time>
      </trkpt>
      <trkpt lat="44.84118" lon="6.95447">
        <ele>2264</ele>
        <time>2023-02-16T10:15:54Z</time>
      </trkpt>
      <trkpt lat="44.84123" lon="6.95446">
        <ele>2265.3</ele>
        <time>2023-02-16T10:16:00Z</time>
      </trkpt>
      <trkpt lat="44.84126" lon="6.95445">
        <ele>2266</ele>
        <time>2023-02-16T10:16:05Z</time>
      </trkpt>
      <trkpt lat="44.84127" lon="6.95445">
        <ele>2266.3</ele>
        <time>2023-02-16T10:16:06Z</time>
      </trkpt>
      <trkpt lat="44.84131" lon="6.95443">
        <ele>2266.9</ele>
        <time>2023-02-16T10:16:12Z</time>
      </trkpt>
      <trkpt lat="44.84134" lon="6.95443">
        <ele>2267.9</ele>
        <time>2023-02-16T10:16:16Z</time>
      </trkpt>
      <trkpt lat="44.84134" lon="6.95443">
        <ele>2267.9</ele>
        <time>2023-02-16T10:16:17Z</time>
      </trkpt>
      <trkpt lat="44.84138" lon="6.95444">
        <ele>2269.5</ele>
        <time>2023-02-16T10:16:22Z</time>
      </trkpt>
      <trkpt lat="44.84142" lon="6.95447">
        <ele>2271.2</ele>
        <time>2023-02-16T10:16:27Z</time>
      </trkpt>
      <trkpt lat="44.84143" lon="6.95447">
        <ele>2271.3</ele>
        <time>2023-02-16T10:16:28Z</time>
      </trkpt>
      <trkpt lat="44.84149" lon="6.95452">
        <ele>2273.7</ele>
        <time>2023-02-16T10:16:36Z</time>
      </trkpt>
      <trkpt lat="44.84153" lon="6.95453">
        <ele>2274.7</ele>
        <time>2023-02-16T10:16:42Z</time>
      </trkpt>
      <trkpt lat="44.84154" lon="6.95453">
        <ele>2274.8</ele>
        <time>2023-02-16T10:16:44Z</time>
      </trkpt>
      <trkpt lat="44.84158" lon="6.95454">
        <ele>2275.7</ele>
        <time>2023-02-16T10:16:49Z</time>
      </trkpt>
      <trkpt lat="44.84159" lon="6.95455">
        <ele>2276.2</ele>
        <time>2023-02-16T10:16:52Z</time>
      </trkpt>
      <trkpt lat="44.84159" lon="6.95454">
        <ele>2275.9</ele>
        <time>2023-02-16T10:16:55Z</time>
      </trkpt>
      <trkpt lat="44.84159" lon="6.95456">
        <ele>2276.5</ele>
        <time>2023-02-16T10:17:06Z</time>
      </trkpt>
      <trkpt lat="44.84158" lon="6.95461">
        <ele>2277.9</ele>
        <time>2023-02-16T10:17:12Z</time>
      </trkpt>
      <trkpt lat="44.84157" lon="6.95465">
        <ele>2279</ele>
        <time>2023-02-16T10:17:16Z</time>
      </trkpt>
      <trkpt lat="44.84156" lon="6.95468">
        <ele>2279.8</ele>
        <time>2023-02-16T10:17:19Z</time>
      </trkpt>
      <trkpt lat="44.84155" lon="6.9547">
        <ele>2280.2</ele>
        <time>2023-02-16T10:17:22Z</time>
      </trkpt>
      <trkpt lat="44.84155" lon="6.95471">
        <ele>2280.5</ele>
        <time>2023-02-16T10:17:23Z</time>
      </trkpt>
      <trkpt lat="44.84154" lon="6.95477">
        <ele>2282.1</ele>
        <time>2023-02-16T10:17:29Z</time>
      </trkpt>
      <trkpt lat="44.84154" lon="6.95477">
        <ele>2282.1</ele>
        <time>2023-02-16T10:17:30Z</time>
      </trkpt>
      <trkpt lat="44.84154" lon="6.95481">
        <ele>2283.2</ele>
        <time>2023-02-16T10:17:34Z</time>
      </trkpt>
      <trkpt lat="44.84153" lon="6.95485">
        <ele>2284.2</ele>
        <time>2023-02-16T10:17:40Z</time>
      </trkpt>
      <trkpt lat="44.84152" lon="6.95488">
        <ele>2284.9</ele>
        <time>2023-02-16T10:17:44Z</time>
      </trkpt>
      <trkpt lat="44.84152" lon="6.95489">
        <ele>2285.2</ele>
        <time>2023-02-16T10:17:45Z</time>
      </trkpt>
      <trkpt lat="44.84151" lon="6.95494">
        <ele>2286.5</ele>
        <time>2023-02-16T10:17:50Z</time>
      </trkpt>
      <trkpt lat="44.84152" lon="6.95497">
        <ele>2287.5</ele>
        <time>2023-02-16T10:17:55Z</time>
      </trkpt>
      <trkpt lat="44.84153" lon="6.95497">
        <ele>2287.7</ele>
        <time>2023-02-16T10:17:56Z</time>
      </trkpt>
      <trkpt lat="44.84157" lon="6.95498">
        <ele>2288.7</ele>
        <time>2023-02-16T10:18:03Z</time>
      </trkpt>
      <trkpt lat="44.8416" lon="6.95498">
        <ele>2289.2</ele>
        <time>2023-02-16T10:18:08Z</time>
      </trkpt>
      <trkpt lat="44.84161" lon="6.95497">
        <ele>2289.1</ele>
        <time>2023-02-16T10:18:09Z</time>
      </trkpt>
      <trkpt lat="44.84166" lon="6.95496">
        <ele>2289.7</ele>
        <time>2023-02-16T10:18:16Z</time>
      </trkpt>
      <trkpt lat="44.84169" lon="6.95496">
        <ele>2290.5</ele>
        <time>2023-02-16T10:18:21Z</time>
      </trkpt>
      <trkpt lat="44.8417" lon="6.95497">
        <ele>2291.1</ele>
        <time>2023-02-16T10:18:23Z</time>
      </trkpt>
      <trkpt lat="44.84173" lon="6.95497">
        <ele>2291.9</ele>
        <time>2023-02-16T10:18:27Z</time>
      </trkpt>
      <trkpt lat="44.84174" lon="6.95497">
        <ele>2292.2</ele>
        <time>2023-02-16T10:18:33Z</time>
      </trkpt>
      <trkpt lat="44.84176" lon="6.95496">
        <ele>2292.4</ele>
        <time>2023-02-16T10:18:46Z</time>
      </trkpt>
      <trkpt lat="44.84181" lon="6.95497">
        <ele>2294.2</ele>
        <time>2023-02-16T10:18:53Z</time>
      </trkpt>
      <trkpt lat="44.84188" lon="6.95498">
        <ele>2296.5</ele>
        <time>2023-02-16T10:19:00Z</time>
      </trkpt>
      <trkpt lat="44.84189" lon="6.95498">
        <ele>2296.7</ele>
        <time>2023-02-16T10:19:02Z</time>
      </trkpt>
      <trkpt lat="44.84194" lon="6.95497">
        <ele>2297.8</ele>
        <time>2023-02-16T10:19:09Z</time>
      </trkpt>
      <trkpt lat="44.84196" lon="6.95496">
        <ele>2297.9</ele>
        <time>2023-02-16T10:19:13Z</time>
      </trkpt>
      <trkpt lat="44.84197" lon="6.95496">
        <ele>2298.2</ele>
        <time>2023-02-16T10:19:14Z</time>
      </trkpt>
      <trkpt lat="44.842" lon="6.95495">
        <ele>2298.6</ele>
        <time>2023-02-16T10:19:18Z</time>
      </trkpt>
      <trkpt lat="44.84202" lon="6.95496">
        <ele>2299.4</ele>
        <time>2023-02-16T10:19:23Z</time>
      </trkpt>
      <trkpt lat="44.84206" lon="6.95495">
        <ele>2300</ele>
        <time>2023-02-16T10:19:28Z</time>
      </trkpt>
      <trkpt lat="44.84209" lon="6.95496">
        <ele>2301.2</ele>
        <time>2023-02-16T10:19:35Z</time>
      </trkpt>
      <trkpt lat="44.8421" lon="6.95495">
        <ele>2301</ele>
        <time>2023-02-16T10:19:49Z</time>
      </trkpt>
      <trkpt lat="44.84211" lon="6.95494">
        <ele>2300.9</ele>
        <time>2023-02-16T10:20:00Z</time>
      </trkpt>
      <trkpt lat="44.84211" lon="6.95496">
        <ele>2301.6</ele>
        <time>2023-02-16T10:20:05Z</time>
      </trkpt>
      <trkpt lat="44.84209" lon="6.95503">
        <ele>2303.8</ele>
        <time>2023-02-16T10:20:12Z</time>
      </trkpt>
      <trkpt lat="44.84208" lon="6.95506">
        <ele>2304.7</ele>
        <time>2023-02-16T10:20:15Z</time>
      </trkpt>
      <trkpt lat="44.84206" lon="6.95509">
        <ele>2305.3</ele>
        <time>2023-02-16T10:20:18Z</time>
      </trkpt>
      <trkpt lat="44.84204" lon="6.95515">
        <ele>2307</ele>
        <time>2023-02-16T10:20:24Z</time>
      </trkpt>
      <trkpt lat="44.84203" lon="6.95518">
        <ele>2307.8</ele>
        <time>2023-02-16T10:20:28Z</time>
      </trkpt>
      <trkpt lat="44.84204" lon="6.95522">
        <ele>2309.6</ele>
        <time>2023-02-16T10:20:34Z</time>
      </trkpt>
      <trkpt lat="44.84205" lon="6.95522">
        <ele>2309.9</ele>
        <time>2023-02-16T10:20:37Z</time>
      </trkpt>
      <trkpt lat="44.84207" lon="6.95522">
        <ele>2310.4</ele>
        <time>2023-02-16T10:20:41Z</time>
      </trkpt>
      <trkpt lat="44.8421" lon="6.95523">
        <ele>2311.7</ele>
        <time>2023-02-16T10:20:49Z</time>
      </trkpt>
      <trkpt lat="44.84211" lon="6.95523">
        <ele>2311.9</ele>
        <time>2023-02-16T10:20:50Z</time>
      </trkpt>
      <trkpt lat="44.84213" lon="6.95523">
        <ele>2312.5</ele>
        <time>2023-02-16T10:20:53Z</time>
      </trkpt>
      <trkpt lat="44.84217" lon="6.95522">
        <ele>2313.2</ele>
        <time>2023-02-16T10:21:00Z</time>
      </trkpt>
      <trkpt lat="44.84221" lon="6.95523">
        <ele>2314.8</ele>
        <time>2023-02-16T10:21:08Z</time>
      </trkpt>
      <trkpt lat="44.84223" lon="6.95523">
        <ele>2315.3</ele>
        <time>2023-02-16T10:21:12Z</time>
      </trkpt>
      <trkpt lat="44.84225" lon="6.95523">
        <ele>2315.7</ele>
        <time>2023-02-16T10:21:15Z</time>
      </trkpt>
      <trkpt lat="44.84227" lon="6.95522">
        <ele>2315.7</ele>
        <time>2023-02-16T10:21:21Z</time>
      </trkpt>
      <trkpt lat="44.84228" lon="6.95523">
        <ele>2316.4</ele>
        <time>2023-02-16T10:21:26Z</time>
      </trkpt>
      <trkpt lat="44.84227" lon="6.95526">
        <ele>2317.3</ele>
        <time>2023-02-16T10:21:32Z</time>
      </trkpt>
      <trkpt lat="44.84226" lon="6.95528">
        <ele>2317.9</ele>
        <time>2023-02-16T10:21:35Z</time>
      </trkpt>
      <trkpt lat="44.84226" lon="6.9553">
        <ele>2318.4</ele>
        <time>2023-02-16T10:21:39Z</time>
      </trkpt>
      <trkpt lat="44.84225" lon="6.95532">
        <ele>2318.6</ele>
        <time>2023-02-16T10:21:41Z</time>
      </trkpt>
      <trkpt lat="44.84223" lon="6.95536">
        <ele>2319.2</ele>
        <time>2023-02-16T10:21:47Z</time>
      </trkpt>
      <trkpt lat="44.84222" lon="6.95537">
        <ele>2319.3</ele>
        <time>2023-02-16T10:21:48Z</time>
      </trkpt>
      <trkpt lat="44.84221" lon="6.95538">
        <ele>2319.2</ele>
        <time>2023-02-16T10:21:53Z</time>
      </trkpt>
      <trkpt lat="44.84221" lon="6.95538">
        <ele>2319.2</ele>
        <time>2023-02-16T10:21:59Z</time>
      </trkpt>
      <trkpt lat="44.8422" lon="6.95542">
        <ele>2320</ele>
        <time>2023-02-16T10:22:11Z</time>
      </trkpt>
      <trkpt lat="44.84219" lon="6.95548">
        <ele>2321.3</ele>
        <time>2023-02-16T10:22:17Z</time>
      </trkpt>
      <trkpt lat="44.84219" lon="6.95553">
        <ele>2322.5</ele>
        <time>2023-02-16T10:22:22Z</time>
      </trkpt>
      <trkpt lat="44.8422" lon="6.95555">
        <ele>2323.3</ele>
        <time>2023-02-16T10:22:24Z</time>
      </trkpt>
      <trkpt lat="44.8422" lon="6.9556">
        <ele>2324.3</ele>
        <time>2023-02-16T10:22:29Z</time>
      </trkpt>
      <trkpt lat="44.84221" lon="6.95564">
        <ele>2325.2</ele>
        <time>2023-02-16T10:22:33Z</time>
      </trkpt>
      <trkpt lat="44.84222" lon="6.95566">
        <ele>2325.8</ele>
        <time>2023-02-16T10:22:36Z</time>
      </trkpt>
      <trkpt lat="44.84223" lon="6.95568">
        <ele>2326.4</ele>
        <time>2023-02-16T10:22:39Z</time>
      </trkpt>
      <trkpt lat="44.84227" lon="6.9557">
        <ele>2327.4</ele>
        <time>2023-02-16T10:22:45Z</time>
      </trkpt>
      <trkpt lat="44.84229" lon="6.9557">
        <ele>2327.7</ele>
        <time>2023-02-16T10:22:48Z</time>
      </trkpt>
      <trkpt lat="44.8423" lon="6.95571">
        <ele>2328</ele>
        <time>2023-02-16T10:22:51Z</time>
      </trkpt>
      <trkpt lat="44.84234" lon="6.95573">
        <ele>2329</ele>
        <time>2023-02-16T10:22:57Z</time>
      </trkpt>
      <trkpt lat="44.84235" lon="6.95573">
        <ele>2329.2</ele>
        <time>2023-02-16T10:22:58Z</time>
      </trkpt>
      <trkpt lat="44.84237" lon="6.95574">
        <ele>2329.6</ele>
        <time>2023-02-16T10:23:02Z</time>
      </trkpt>
      <trkpt lat="44.84239" lon="6.95574">
        <ele>2329.9</ele>
        <time>2023-02-16T10:23:04Z</time>
      </trkpt>
      <trkpt lat="44.84241" lon="6.95576">
        <ele>2330.6</ele>
        <time>2023-02-16T10:23:11Z</time>
      </trkpt>
      <trkpt lat="44.84244" lon="6.95578">
        <ele>2331.3</ele>
        <time>2023-02-16T10:23:15Z</time>
      </trkpt>
      <trkpt lat="44.84248" lon="6.95577">
        <ele>2331.8</ele>
        <time>2023-02-16T10:23:19Z</time>
      </trkpt>
      <trkpt lat="44.84251" lon="6.95578">
        <ele>2332.4</ele>
        <time>2023-02-16T10:23:26Z</time>
      </trkpt>
      <trkpt lat="44.84253" lon="6.95579">
        <ele>2332.9</ele>
        <time>2023-02-16T10:23:40Z</time>
      </trkpt>
      <trkpt lat="44.84254" lon="6.95578">
        <ele>2332.9</ele>
        <time>2023-02-16T10:23:57Z</time>
      </trkpt>
      <trkpt lat="44.84259" lon="6.95579">
        <ele>2333.9</ele>
        <time>2023-02-16T10:24:06Z</time>
      </trkpt>
      <trkpt lat="44.8426" lon="6.95578">
        <ele>2333.9</ele>
        <time>2023-02-16T10:24:07Z</time>
      </trkpt>
      <trkpt lat="44.8426" lon="6.95579">
        <ele>2334.1</ele>
        <time>2023-02-16T10:24:08Z</time>
      </trkpt>
      <trkpt lat="44.84266" lon="6.95579">
        <ele>2335.1</ele>
        <time>2023-02-16T10:24:15Z</time>
      </trkpt>
      <trkpt lat="44.84269" lon="6.95577">
        <ele>2335.2</ele>
        <time>2023-02-16T10:24:20Z</time>
      </trkpt>
      <trkpt lat="44.8427" lon="6.95576">
        <ele>2335.2</ele>
        <time>2023-02-16T10:24:22Z</time>
      </trkpt>
      <trkpt lat="44.84275" lon="6.95575">
        <ele>2335.8</ele>
        <time>2023-02-16T10:24:31Z</time>
      </trkpt>
      <trkpt lat="44.84277" lon="6.95576">
        <ele>2336.3</ele>
        <time>2023-02-16T10:24:34Z</time>
      </trkpt>
      <trkpt lat="44.84279" lon="6.95577">
        <ele>2336.9</ele>
        <time>2023-02-16T10:24:38Z</time>
      </trkpt>
      <trkpt lat="44.84281" lon="6.95579">
        <ele>2337.7</ele>
        <time>2023-02-16T10:24:45Z</time>
      </trkpt>
      <trkpt lat="44.84285" lon="6.95581">
        <ele>2339</ele>
        <time>2023-02-16T10:24:52Z</time>
      </trkpt>
      <trkpt lat="44.84286" lon="6.95581">
        <ele>2339.2</ele>
        <time>2023-02-16T10:24:53Z</time>
      </trkpt>
      <trkpt lat="44.84288" lon="6.95582">
        <ele>2339.9</ele>
        <time>2023-02-16T10:24:57Z</time>
      </trkpt>
      <trkpt lat="44.84292" lon="6.95583">
        <ele>2341</ele>
        <time>2023-02-16T10:25:03Z</time>
      </trkpt>
      <trkpt lat="44.84297" lon="6.95585">
        <ele>2342.6</ele>
        <time>2023-02-16T10:25:09Z</time>
      </trkpt>
      <trkpt lat="44.84299" lon="6.95585">
        <ele>2343</ele>
        <time>2023-02-16T10:25:12Z</time>
      </trkpt>
      <trkpt lat="44.84304" lon="6.95585">
        <ele>2344.1</ele>
        <time>2023-02-16T10:25:18Z</time>
      </trkpt>
      <trkpt lat="44.84308" lon="6.95585">
        <ele>2345.1</ele>
        <time>2023-02-16T10:25:24Z</time>
      </trkpt>
      <trkpt lat="44.8431" lon="6.95585">
        <ele>2345.6</ele>
        <time>2023-02-16T10:25:28Z</time>
      </trkpt>
      <trkpt lat="44.84314" lon="6.95584">
        <ele>2346.3</ele>
        <time>2023-02-16T10:25:33Z</time>
      </trkpt>
      <trkpt lat="44.84316" lon="6.95584">
        <ele>2346.8</ele>
        <time>2023-02-16T10:25:37Z</time>
      </trkpt>
      <trkpt lat="44.84319" lon="6.95585">
        <ele>2347.8</ele>
        <time>2023-02-16T10:25:41Z</time>
      </trkpt>
      <trkpt lat="44.84319" lon="6.95585">
        <ele>2347.8</ele>
        <time>2023-02-16T10:25:50Z</time>
      </trkpt>
      <trkpt lat="44.8432" lon="6.95586">
        <ele>2348.4</ele>
        <time>2023-02-16T10:26:02Z</time>
      </trkpt>
      <trkpt lat="44.84322" lon="6.95586">
        <ele>2348.9</ele>
        <time>2023-02-16T10:26:05Z</time>
      </trkpt>
      <trkpt lat="44.84325" lon="6.95587">
        <ele>2349.9</ele>
        <time>2023-02-16T10:26:10Z</time>
      </trkpt>
      <trkpt lat="44.84329" lon="6.95585">
        <ele>2350.3</ele>
        <time>2023-02-16T10:26:16Z</time>
      </trkpt>
      <trkpt lat="44.84329" lon="6.95585">
        <ele>2350.3</ele>
        <time>2023-02-16T10:26:17Z</time>
      </trkpt>
      <trkpt lat="44.84332" lon="6.95581">
        <ele>2350.2</ele>
        <time>2023-02-16T10:26:22Z</time>
      </trkpt>
      <trkpt lat="44.84335" lon="6.95577">
        <ele>2350.2</ele>
        <time>2023-02-16T10:26:28Z</time>
      </trkpt>
      <trkpt lat="44.84336" lon="6.95577">
        <ele>2350.5</ele>
        <time>2023-02-16T10:26:30Z</time>
      </trkpt>
      <trkpt lat="44.8434" lon="6.95579">
        <ele>2352.3</ele>
        <time>2023-02-16T10:26:36Z</time>
      </trkpt>
      <trkpt lat="44.8434" lon="6.9558">
        <ele>2352.5</ele>
        <time>2023-02-16T10:26:38Z</time>
      </trkpt>
      <trkpt lat="44.8434" lon="6.95583">
        <ele>2353.1</ele>
        <time>2023-02-16T10:26:41Z</time>
      </trkpt>
      <trkpt lat="44.84342" lon="6.95589">
        <ele>2355.1</ele>
        <time>2023-02-16T10:26:48Z</time>
      </trkpt>
      <trkpt lat="44.84342" lon="6.9559">
        <ele>2355.3</ele>
        <time>2023-02-16T10:26:50Z</time>
      </trkpt>
      <trkpt lat="44.84343" lon="6.95594">
        <ele>2356.6</ele>
        <time>2023-02-16T10:26:55Z</time>
      </trkpt>
      <trkpt lat="44.84343" lon="6.95597">
        <ele>2357.2</ele>
        <time>2023-02-16T10:27:02Z</time>
      </trkpt>
      <trkpt lat="44.84346" lon="6.95598">
        <ele>2358.3</ele>
        <time>2023-02-16T10:27:08Z</time>
      </trkpt>
      <trkpt lat="44.84349" lon="6.95598">
        <ele>2359.2</ele>
        <time>2023-02-16T10:27:14Z</time>
      </trkpt>
      <trkpt lat="44.84354" lon="6.95598">
        <ele>2360.6</ele>
        <time>2023-02-16T10:27:23Z</time>
      </trkpt>
      <trkpt lat="44.84357" lon="6.95596">
        <ele>2361.1</ele>
        <time>2023-02-16T10:27:28Z</time>
      </trkpt>
      <trkpt lat="44.84359" lon="6.95595">
        <ele>2361.5</ele>
        <time>2023-02-16T10:27:30Z</time>
      </trkpt>
      <trkpt lat="44.84362" lon="6.95592">
        <ele>2361.9</ele>
        <time>2023-02-16T10:27:35Z</time>
      </trkpt>
      <trkpt lat="44.84363" lon="6.95591">
        <ele>2362.1</ele>
        <time>2023-02-16T10:27:39Z</time>
      </trkpt>
      <trkpt lat="44.84368" lon="6.95589">
        <ele>2363.7</ele>
        <time>2023-02-16T10:27:52Z</time>
      </trkpt>
      <trkpt lat="44.84368" lon="6.95591">
        <ele>2364.1</ele>
        <time>2023-02-16T10:27:54Z</time>
      </trkpt>
      <trkpt lat="44.8437" lon="6.95595">
        <ele>2365.6</ele>
        <time>2023-02-16T10:27:58Z</time>
      </trkpt>
      <trkpt lat="44.84371" lon="6.95596">
        <ele>2366.2</ele>
        <time>2023-02-16T10:27:59Z</time>
      </trkpt>
      <trkpt lat="44.84372" lon="6.95599">
        <ele>2367.1</ele>
        <time>2023-02-16T10:28:02Z</time>
      </trkpt>
      <trkpt lat="44.84373" lon="6.95603">
        <ele>2368.2</ele>
        <time>2023-02-16T10:28:05Z</time>
      </trkpt>
      <trkpt lat="44.84374" lon="6.95605">
        <ele>2369</ele>
        <time>2023-02-16T10:28:12Z</time>
      </trkpt>
      <trkpt lat="44.84375" lon="6.95605">
        <ele>2369.4</ele>
        <time>2023-02-16T10:28:14Z</time>
      </trkpt>
      <trkpt lat="44.84376" lon="6.95604">
        <ele>2369.6</ele>
        <time>2023-02-16T10:28:17Z</time>
      </trkpt>
      <trkpt lat="44.84379" lon="6.95601">
        <ele>2370.3</ele>
        <time>2023-02-16T10:28:25Z</time>
      </trkpt>
      <trkpt lat="44.84382" lon="6.95598">
        <ele>2370.9</ele>
        <time>2023-02-16T10:28:32Z</time>
      </trkpt>
      <trkpt lat="44.84384" lon="6.95597">
        <ele>2371.5</ele>
        <time>2023-02-16T10:28:38Z</time>
      </trkpt>
      <trkpt lat="44.84387" lon="6.95599">
        <ele>2373.1</ele>
        <time>2023-02-16T10:28:46Z</time>
      </trkpt>
      <trkpt lat="44.84387" lon="6.95602">
        <ele>2373.6</ele>
        <time>2023-02-16T10:28:49Z</time>
      </trkpt>
      <trkpt lat="44.84387" lon="6.95603">
        <ele>2373.8</ele>
        <time>2023-02-16T10:28:50Z</time>
      </trkpt>
      <trkpt lat="44.84386" lon="6.95608">
        <ele>2374.3</ele>
        <time>2023-02-16T10:28:55Z</time>
      </trkpt>
      <trkpt lat="44.84386" lon="6.95614">
        <ele>2375.4</ele>
        <time>2023-02-16T10:29:01Z</time>
      </trkpt>
      <trkpt lat="44.84384" lon="6.95619">
        <ele>2375.6</ele>
        <time>2023-02-16T10:29:08Z</time>
      </trkpt>
      <trkpt lat="44.84384" lon="6.95619">
        <ele>2375.6</ele>
        <time>2023-02-16T10:29:09Z</time>
      </trkpt>
      <trkpt lat="44.84384" lon="6.95621">
        <ele>2376</ele>
        <time>2023-02-16T10:29:14Z</time>
      </trkpt>
      <trkpt lat="44.84385" lon="6.9562">
        <ele>2376.1</ele>
        <time>2023-02-16T10:29:19Z</time>
      </trkpt>
      <trkpt lat="44.84387" lon="6.95617">
        <ele>2376.3</ele>
        <time>2023-02-16T10:29:24Z</time>
      </trkpt>
      <trkpt lat="44.84388" lon="6.95616">
        <ele>2376.5</ele>
        <time>2023-02-16T10:29:27Z</time>
      </trkpt>
      <trkpt lat="44.84393" lon="6.95614">
        <ele>2378.3</ele>
        <time>2023-02-16T10:29:34Z</time>
      </trkpt>
      <trkpt lat="44.84393" lon="6.95613">
        <ele>2378.1</ele>
        <time>2023-02-16T10:29:35Z</time>
      </trkpt>
      <trkpt lat="44.84398" lon="6.95612">
        <ele>2380.1</ele>
        <time>2023-02-16T10:29:45Z</time>
      </trkpt>
      <trkpt lat="44.84398" lon="6.95612">
        <ele>2380.1</ele>
        <time>2023-02-16T10:29:46Z</time>
      </trkpt>
      <trkpt lat="44.84401" lon="6.95613">
        <ele>2381.6</ele>
        <time>2023-02-16T10:29:51Z</time>
      </trkpt>
      <trkpt lat="44.84405" lon="6.95614">
        <ele>2383.5</ele>
        <time>2023-02-16T10:29:57Z</time>
      </trkpt>
      <trkpt lat="44.84406" lon="6.95614">
        <ele>2383.9</ele>
        <time>2023-02-16T10:29:59Z</time>
      </trkpt>
      <trkpt lat="44.84408" lon="6.95614">
        <ele>2384.8</ele>
        <time>2023-02-16T10:30:05Z</time>
      </trkpt>
      <trkpt lat="44.8441" lon="6.95614">
        <ele>2385.6</ele>
        <time>2023-02-16T10:30:08Z</time>
      </trkpt>
      <trkpt lat="44.84412" lon="6.95612">
        <ele>2386.1</ele>
        <time>2023-02-16T10:30:13Z</time>
      </trkpt>
      <trkpt lat="44.84415" lon="6.9561">
        <ele>2387.1</ele>
        <time>2023-02-16T10:30:21Z</time>
      </trkpt>
      <trkpt lat="44.84415" lon="6.9561">
        <ele>2387.1</ele>
        <time>2023-02-16T10:30:22Z</time>
      </trkpt>
      <trkpt lat="44.84416" lon="6.95614">
        <ele>2388.2</ele>
        <time>2023-02-16T10:30:32Z</time>
      </trkpt>
      <trkpt lat="44.84416" lon="6.95615">
        <ele>2388.4</ele>
        <time>2023-02-16T10:30:33Z</time>
      </trkpt>
      <trkpt lat="44.84415" lon="6.95619">
        <ele>2388.7</ele>
        <time>2023-02-16T10:30:43Z</time>
      </trkpt>
      <trkpt lat="44.84416" lon="6.95619">
        <ele>2389.1</ele>
        <time>2023-02-16T10:30:44Z</time>
      </trkpt>
      <trkpt lat="44.84416" lon="6.95622">
        <ele>2389.7</ele>
        <time>2023-02-16T10:31:00Z</time>
      </trkpt>
      <trkpt lat="44.84418" lon="6.95628">
        <ele>2391.7</ele>
        <time>2023-02-16T10:31:07Z</time>
      </trkpt>
      <trkpt lat="44.84418" lon="6.95631">
        <ele>2392.2</ele>
        <time>2023-02-16T10:31:09Z</time>
      </trkpt>
      <trkpt lat="44.84418" lon="6.95636">
        <ele>2393.1</ele>
        <time>2023-02-16T10:31:14Z</time>
      </trkpt>
      <trkpt lat="44.84419" lon="6.95641">
        <ele>2394.4</ele>
        <time>2023-02-16T10:31:19Z</time>
      </trkpt>
      <trkpt lat="44.84419" lon="6.95647">
        <ele>2395.5</ele>
        <time>2023-02-16T10:31:25Z</time>
      </trkpt>
      <trkpt lat="44.84419" lon="6.95648">
        <ele>2395.6</ele>
        <time>2023-02-16T10:31:26Z</time>
      </trkpt>
      <trkpt lat="44.84419" lon="6.95651">
        <ele>2396.2</ele>
        <time>2023-02-16T10:31:29Z</time>
      </trkpt>
      <trkpt lat="44.84419" lon="6.95654">
        <ele>2396.7</ele>
        <time>2023-02-16T10:31:33Z</time>
      </trkpt>
      <trkpt lat="44.84418" lon="6.9566">
        <ele>2397.4</ele>
        <time>2023-02-16T10:31:39Z</time>
      </trkpt>
      <trkpt lat="44.84418" lon="6.95662">
        <ele>2397.7</ele>
        <time>2023-02-16T10:31:41Z</time>
      </trkpt>
      <trkpt lat="44.84418" lon="6.95668">
        <ele>2398.8</ele>
        <time>2023-02-16T10:31:47Z</time>
      </trkpt>
      <trkpt lat="44.84418" lon="6.95672">
        <ele>2399.5</ele>
        <time>2023-02-16T10:31:52Z</time>
      </trkpt>
      <trkpt lat="44.84418" lon="6.95672">
        <ele>2399.5</ele>
        <time>2023-02-16T10:31:54Z</time>
      </trkpt>
      <trkpt lat="44.8442" lon="6.95675">
        <ele>2401</ele>
        <time>2023-02-16T10:32:01Z</time>
      </trkpt>
      <trkpt lat="44.84421" lon="6.95674">
        <ele>2401.2</ele>
        <time>2023-02-16T10:32:04Z</time>
      </trkpt>
      <trkpt lat="44.84422" lon="6.9567">
        <ele>2400.9</ele>
        <time>2023-02-16T10:32:10Z</time>
      </trkpt>
      <trkpt lat="44.84423" lon="6.95668">
        <ele>2401</ele>
        <time>2023-02-16T10:32:13Z</time>
      </trkpt>
      <trkpt lat="44.84425" lon="6.95666">
        <ele>2401.5</ele>
        <time>2023-02-16T10:32:17Z</time>
      </trkpt>
      <trkpt lat="44.8443" lon="6.95662">
        <ele>2402.9</ele>
        <time>2023-02-16T10:32:23Z</time>
      </trkpt>
      <trkpt lat="44.8443" lon="6.95662">
        <ele>2402.9</ele>
        <time>2023-02-16T10:32:24Z</time>
      </trkpt>
      <trkpt lat="44.84431" lon="6.95661">
        <ele>2403.2</ele>
        <time>2023-02-16T10:32:25Z</time>
      </trkpt>
      <trkpt lat="44.84434" lon="6.95658">
        <ele>2403.9</ele>
        <time>2023-02-16T10:32:32Z</time>
      </trkpt>
      <trkpt lat="44.84436" lon="6.95656">
        <ele>2404.4</ele>
        <time>2023-02-16T10:32:36Z</time>
      </trkpt>
      <trkpt lat="44.84436" lon="6.95655">
        <ele>2404.3</ele>
        <time>2023-02-16T10:32:37Z</time>
      </trkpt>
      <trkpt lat="44.84436" lon="6.95654">
        <ele>2404.1</ele>
        <time>2023-02-16T10:32:47Z</time>
      </trkpt>
      <trkpt lat="44.84436" lon="6.95654">
        <ele>2404.1</ele>
        <time>2023-02-16T10:33:07Z</time>
      </trkpt>
      <trkpt lat="44.84436" lon="6.95653">
        <ele>2403.9</ele>
        <time>2023-02-16T10:33:25Z</time>
      </trkpt>
      <trkpt lat="44.84437" lon="6.95654">
        <ele>2404.5</ele>
        <time>2023-02-16T10:33:41Z</time>
      </trkpt>
      <trkpt lat="44.84438" lon="6.95649">
        <ele>2404</ele>
        <time>2023-02-16T10:33:57Z</time>
      </trkpt>
      <trkpt lat="44.84442" lon="6.95649">
        <ele>2405.8</ele>
        <time>2023-02-16T10:34:02Z</time>
      </trkpt>
      <trkpt lat="44.84444" lon="6.95648">
        <ele>2406.4</ele>
        <time>2023-02-16T10:34:07Z</time>
      </trkpt>
      <trkpt lat="44.84446" lon="6.95646">
        <ele>2407</ele>
        <time>2023-02-16T10:34:11Z</time>
      </trkpt>
      <trkpt lat="44.84447" lon="6.95645">
        <ele>2407.3</ele>
        <time>2023-02-16T10:34:12Z</time>
      </trkpt>
      <trkpt lat="44.84448" lon="6.95644">
        <ele>2407.5</ele>
        <time>2023-02-16T10:34:14Z</time>
      </trkpt>
      <trkpt lat="44.8445" lon="6.95641">
        <ele>2407.9</ele>
        <time>2023-02-16T10:34:17Z</time>
      </trkpt>
      <trkpt lat="44.84452" lon="6.95639">
        <ele>2408.6</ele>
        <time>2023-02-16T10:34:20Z</time>
      </trkpt>
      <trkpt lat="44.84454" lon="6.95635">
        <ele>2409.1</ele>
        <time>2023-02-16T10:34:25Z</time>
      </trkpt>
      <trkpt lat="44.84456" lon="6.95634">
        <ele>2409.9</ele>
        <time>2023-02-16T10:34:28Z</time>
      </trkpt>
      <trkpt lat="44.84457" lon="6.95632">
        <ele>2410.1</ele>
        <time>2023-02-16T10:34:31Z</time>
      </trkpt>
      <trkpt lat="44.84461" lon="6.95628">
        <ele>2411.6</ele>
        <time>2023-02-16T10:34:38Z</time>
      </trkpt>
      <trkpt lat="44.84461" lon="6.95627">
        <ele>2411.5</ele>
        <time>2023-02-16T10:34:39Z</time>
      </trkpt>
      <trkpt lat="44.84462" lon="6.95625">
        <ele>2411.7</ele>
        <time>2023-02-16T10:34:42Z</time>
      </trkpt>
      <trkpt lat="44.84465" lon="6.95623">
        <ele>2412.9</ele>
        <time>2023-02-16T10:34:47Z</time>
      </trkpt>
      <trkpt lat="44.84468" lon="6.95621">
        <ele>2414.1</ele>
        <time>2023-02-16T10:34:53Z</time>
      </trkpt>
      <trkpt lat="44.84469" lon="6.9562">
        <ele>2414.5</ele>
        <time>2023-02-16T10:34:57Z</time>
      </trkpt>
      <trkpt lat="44.84473" lon="6.95616">
        <ele>2415.8</ele>
        <time>2023-02-16T10:35:04Z</time>
      </trkpt>
      <trkpt lat="44.84473" lon="6.95616">
        <ele>2415.8</ele>
        <time>2023-02-16T10:35:05Z</time>
      </trkpt>
      <trkpt lat="44.84479" lon="6.95613">
        <ele>2417.9</ele>
        <time>2023-02-16T10:35:14Z</time>
      </trkpt>
      <trkpt lat="44.8448" lon="6.95613">
        <ele>2418.3</ele>
        <time>2023-02-16T10:35:16Z</time>
      </trkpt>
      <trkpt lat="44.84482" lon="6.95612">
        <ele>2419</ele>
        <time>2023-02-16T10:35:21Z</time>
      </trkpt>
      <trkpt lat="44.84485" lon="6.9561">
        <ele>2419.9</ele>
        <time>2023-02-16T10:35:26Z</time>
      </trkpt>
      <trkpt lat="44.84487" lon="6.9561">
        <ele>2420.7</ele>
        <time>2023-02-16T10:35:29Z</time>
      </trkpt>
      <trkpt lat="44.84491" lon="6.9561">
        <ele>2422.3</ele>
        <time>2023-02-16T10:35:36Z</time>
      </trkpt>
      <trkpt lat="44.84491" lon="6.9561">
        <ele>2422.3</ele>
        <time>2023-02-16T10:35:37Z</time>
      </trkpt>
      <trkpt lat="44.84495" lon="6.95609">
        <ele>2423.7</ele>
        <time>2023-02-16T10:35:43Z</time>
      </trkpt>
      <trkpt lat="44.84499" lon="6.95609">
        <ele>2425.3</ele>
        <time>2023-02-16T10:35:49Z</time>
      </trkpt>
      <trkpt lat="44.84501" lon="6.95608">
        <ele>2426</ele>
        <time>2023-02-16T10:35:52Z</time>
      </trkpt>
      <trkpt lat="44.84503" lon="6.95606">
        <ele>2426.5</ele>
        <time>2023-02-16T10:35:58Z</time>
      </trkpt>
      <trkpt lat="44.84505" lon="6.95603">
        <ele>2426.9</ele>
        <time>2023-02-16T10:36:03Z</time>
      </trkpt>
      <trkpt lat="44.84505" lon="6.95603">
        <ele>2426.9</ele>
        <time>2023-02-16T10:36:04Z</time>
      </trkpt>
      <trkpt lat="44.84508" lon="6.956">
        <ele>2427.7</ele>
        <time>2023-02-16T10:36:11Z</time>
      </trkpt>
      <trkpt lat="44.8451" lon="6.95599">
        <ele>2428.4</ele>
        <time>2023-02-16T10:36:15Z</time>
      </trkpt>
      <trkpt lat="44.84511" lon="6.95599">
        <ele>2428.8</ele>
        <time>2023-02-16T10:36:17Z</time>
      </trkpt>
      <trkpt lat="44.84515" lon="6.95593">
        <ele>2429.7</ele>
        <time>2023-02-16T10:36:27Z</time>
      </trkpt>
      <trkpt lat="44.84516" lon="6.95592">
        <ele>2430</ele>
        <time>2023-02-16T10:36:29Z</time>
      </trkpt>
      <trkpt lat="44.84517" lon="6.9559">
        <ele>2430.2</ele>
        <time>2023-02-16T10:36:33Z</time>
      </trkpt>
      <trkpt lat="44.8452" lon="6.9559">
        <ele>2431.4</ele>
        <time>2023-02-16T10:36:40Z</time>
      </trkpt>
      <trkpt lat="44.84522" lon="6.95595">
        <ele>2432.9</ele>
        <time>2023-02-16T10:36:45Z</time>
      </trkpt>
      <trkpt lat="44.84522" lon="6.95598">
        <ele>2433.2</ele>
        <time>2023-02-16T10:36:49Z</time>
      </trkpt>
      <trkpt lat="44.84523" lon="6.95599">
        <ele>2433.7</ele>
        <time>2023-02-16T10:36:50Z</time>
      </trkpt>
      <trkpt lat="44.84524" lon="6.95605">
        <ele>2434.8</ele>
        <time>2023-02-16T10:36:57Z</time>
      </trkpt>
      <trkpt lat="44.84526" lon="6.95609">
        <ele>2436.1</ele>
        <time>2023-02-16T10:37:03Z</time>
      </trkpt>
      <trkpt lat="44.84527" lon="6.95613">
        <ele>2436.8</ele>
        <time>2023-02-16T10:37:10Z</time>
      </trkpt>
      <trkpt lat="44.84527" lon="6.95618">
        <ele>2437.2</ele>
        <time>2023-02-16T10:37:16Z</time>
      </trkpt>
      <trkpt lat="44.84528" lon="6.95619">
        <ele>2437.6</ele>
        <time>2023-02-16T10:37:18Z</time>
      </trkpt>
      <trkpt lat="44.84529" lon="6.95623">
        <ele>2438.3</ele>
        <time>2023-02-16T10:37:24Z</time>
      </trkpt>
      <trkpt lat="44.84531" lon="6.95629">
        <ele>2439.4</ele>
        <time>2023-02-16T10:37:32Z</time>
      </trkpt>
      <trkpt lat="44.84532" lon="6.9563">
        <ele>2439.9</ele>
        <time>2023-02-16T10:37:34Z</time>
      </trkpt>
      <trkpt lat="44.84533" lon="6.95633">
        <ele>2440.5</ele>
        <time>2023-02-16T10:37:38Z</time>
      </trkpt>
      <trkpt lat="44.84535" lon="6.95637">
        <ele>2441.5</ele>
        <time>2023-02-16T10:37:46Z</time>
      </trkpt>
      <trkpt lat="44.84538" lon="6.95637">
        <ele>2442.5</ele>
        <time>2023-02-16T10:37:52Z</time>
      </trkpt>
      <trkpt lat="44.8454" lon="6.95637">
        <ele>2443.3</ele>
        <time>2023-02-16T10:37:57Z</time>
      </trkpt>
      <trkpt lat="44.8454" lon="6.95637">
        <ele>2443.3</ele>
        <time>2023-02-16T10:37:58Z</time>
      </trkpt>
      <trkpt lat="44.84545" lon="6.9564">
        <ele>2445.3</ele>
        <time>2023-02-16T10:38:07Z</time>
      </trkpt>
      <trkpt lat="44.84545" lon="6.95641">
        <ele>2445.4</ele>
        <time>2023-02-16T10:38:09Z</time>
      </trkpt>
      <trkpt lat="44.84546" lon="6.95644">
        <ele>2446</ele>
        <time>2023-02-16T10:38:13Z</time>
      </trkpt>
      <trkpt lat="44.84547" lon="6.9565">
        <ele>2447</ele>
        <time>2023-02-16T10:38:21Z</time>
      </trkpt>
      <trkpt lat="44.84548" lon="6.95651">
        <ele>2447.5</ele>
        <time>2023-02-16T10:38:23Z</time>
      </trkpt>
      <trkpt lat="44.8455" lon="6.95656">
        <ele>2448.7</ele>
        <time>2023-02-16T10:38:30Z</time>
      </trkpt>
      <trkpt lat="44.84551" lon="6.95659">
        <ele>2449.4</ele>
        <time>2023-02-16T10:38:35Z</time>
      </trkpt>
      <trkpt lat="44.84551" lon="6.9566">
        <ele>2449.5</ele>
        <time>2023-02-16T10:38:36Z</time>
      </trkpt>
      <trkpt lat="44.84553" lon="6.95666">
        <ele>2450.9</ele>
        <time>2023-02-16T10:38:44Z</time>
      </trkpt>
      <trkpt lat="44.84555" lon="6.9567">
        <ele>2452</ele>
        <time>2023-02-16T10:38:50Z</time>
      </trkpt>
      <trkpt lat="44.84555" lon="6.95671">
        <ele>2452.1</ele>
        <time>2023-02-16T10:38:51Z</time>
      </trkpt>
      <trkpt lat="44.84557" lon="6.95674">
        <ele>2453.1</ele>
        <time>2023-02-16T10:38:56Z</time>
      </trkpt>
      <trkpt lat="44.84559" lon="6.95681">
        <ele>2454.5</ele>
        <time>2023-02-16T10:39:05Z</time>
      </trkpt>
      <trkpt lat="44.84561" lon="6.95686">
        <ele>2455.7</ele>
        <time>2023-02-16T10:39:12Z</time>
      </trkpt>
      <trkpt lat="44.84562" lon="6.95687">
        <ele>2456.2</ele>
        <time>2023-02-16T10:39:17Z</time>
      </trkpt>
      <trkpt lat="44.84565" lon="6.95685">
        <ele>2457.3</ele>
        <time>2023-02-16T10:39:22Z</time>
      </trkpt>
      <trkpt lat="44.84567" lon="6.95682">
        <ele>2457.9</ele>
        <time>2023-02-16T10:39:26Z</time>
      </trkpt>
      <trkpt lat="44.84568" lon="6.95681">
        <ele>2458.2</ele>
        <time>2023-02-16T10:39:28Z</time>
      </trkpt>
      <trkpt lat="44.84572" lon="6.95676">
        <ele>2459.4</ele>
        <time>2023-02-16T10:39:36Z</time>
      </trkpt>
      <trkpt lat="44.84573" lon="6.95675">
        <ele>2459.7</ele>
        <time>2023-02-16T10:39:37Z</time>
      </trkpt>
      <trkpt lat="44.84575" lon="6.95673">
        <ele>2460.3</ele>
        <time>2023-02-16T10:39:41Z</time>
      </trkpt>
      <trkpt lat="44.84579" lon="6.95668">
        <ele>2461.4</ele>
        <time>2023-02-16T10:39:50Z</time>
      </trkpt>
      <trkpt lat="44.84581" lon="6.95663">
        <ele>2461.9</ele>
        <time>2023-02-16T10:39:58Z</time>
      </trkpt>
      <trkpt lat="44.84581" lon="6.95662">
        <ele>2461.9</ele>
        <time>2023-02-16T10:40:03Z</time>
      </trkpt>
      <trkpt lat="44.84584" lon="6.95664">
        <ele>2463.3</ele>
        <time>2023-02-16T10:40:09Z</time>
      </trkpt>
      <trkpt lat="44.84584" lon="6.95665">
        <ele>2463.3</ele>
        <time>2023-02-16T10:40:10Z</time>
      </trkpt>
      <trkpt lat="44.84587" lon="6.95672">
        <ele>2465.6</ele>
        <time>2023-02-16T10:40:18Z</time>
      </trkpt>
      <trkpt lat="44.84588" lon="6.95678">
        <ele>2466.8</ele>
        <time>2023-02-16T10:40:23Z</time>
      </trkpt>
      <trkpt lat="44.84588" lon="6.9568">
        <ele>2467</ele>
        <time>2023-02-16T10:40:25Z</time>
      </trkpt>
      <trkpt lat="44.84588" lon="6.95684">
        <ele>2467.4</ele>
        <time>2023-02-16T10:40:29Z</time>
      </trkpt>
      <trkpt lat="44.84589" lon="6.95691">
        <ele>2468.5</ele>
        <time>2023-02-16T10:40:37Z</time>
      </trkpt>
      <trkpt lat="44.84589" lon="6.95693">
        <ele>2468.7</ele>
        <time>2023-02-16T10:40:40Z</time>
      </trkpt>
      <trkpt lat="44.84591" lon="6.95701">
        <ele>2470.4</ele>
        <time>2023-02-16T10:40:48Z</time>
      </trkpt>
      <trkpt lat="44.84591" lon="6.95704">
        <ele>2470.7</ele>
        <time>2023-02-16T10:40:51Z</time>
      </trkpt>
      <trkpt lat="44.84592" lon="6.95708">
        <ele>2471.5</ele>
        <time>2023-02-16T10:40:56Z</time>
      </trkpt>
      <trkpt lat="44.84592" lon="6.95712">
        <ele>2471.9</ele>
        <time>2023-02-16T10:41:01Z</time>
      </trkpt>
      <trkpt lat="44.84592" lon="6.95713">
        <ele>2472</ele>
        <time>2023-02-16T10:41:05Z</time>
      </trkpt>
      <trkpt lat="44.84592" lon="6.95717">
        <ele>2472.3</ele>
        <time>2023-02-16T10:41:10Z</time>
      </trkpt>
      <trkpt lat="44.84592" lon="6.95719">
        <ele>2472.5</ele>
        <time>2023-02-16T10:41:11Z</time>
      </trkpt>
      <trkpt lat="44.84593" lon="6.95723">
        <ele>2473.3</ele>
        <time>2023-02-16T10:41:15Z</time>
      </trkpt>
      <trkpt lat="44.84594" lon="6.95725">
        <ele>2474</ele>
        <time>2023-02-16T10:41:17Z</time>
      </trkpt>
      <trkpt lat="44.84595" lon="6.95734">
        <ele>2475.7</ele>
        <time>2023-02-16T10:41:27Z</time>
      </trkpt>
      <trkpt lat="44.84597" lon="6.9574">
        <ele>2477.5</ele>
        <time>2023-02-16T10:41:34Z</time>
      </trkpt>
      <trkpt lat="44.84597" lon="6.95744">
        <ele>2478</ele>
        <time>2023-02-16T10:41:41Z</time>
      </trkpt>
      <trkpt lat="44.84598" lon="6.95744">
        <ele>2478.5</ele>
        <time>2023-02-16T10:41:42Z</time>
      </trkpt>
      <trkpt lat="44.84601" lon="6.95741">
        <ele>2479.3</ele>
        <time>2023-02-16T10:41:48Z</time>
      </trkpt>
      <trkpt lat="44.84602" lon="6.95741">
        <ele>2479.8</ele>
        <time>2023-02-16T10:41:49Z</time>
      </trkpt>
      <trkpt lat="44.84605" lon="6.95737">
        <ele>2480.5</ele>
        <time>2023-02-16T10:41:59Z</time>
      </trkpt>
      <trkpt lat="44.84605" lon="6.95737">
        <ele>2480.5</ele>
        <time>2023-02-16T10:42:00Z</time>
      </trkpt>
      <trkpt lat="44.84603" lon="6.95738">
        <ele>2479.8</ele>
        <time>2023-02-16T10:42:15Z</time>
      </trkpt>
      <trkpt lat="44.84604" lon="6.95737">
        <ele>2480.1</ele>
        <time>2023-02-16T10:42:27Z</time>
      </trkpt>
      <trkpt lat="44.84604" lon="6.95737">
        <ele>2480.1</ele>
        <time>2023-02-16T10:42:31Z</time>
      </trkpt>
      <trkpt lat="44.84604" lon="6.95735">
        <ele>2479.8</ele>
        <time>2023-02-16T10:42:48Z</time>
      </trkpt>
      <trkpt lat="44.84605" lon="6.95735">
        <ele>2480.2</ele>
        <time>2023-02-16T10:43:03Z</time>
      </trkpt>
      <trkpt lat="44.84607" lon="6.95737">
        <ele>2481.4</ele>
        <time>2023-02-16T10:43:17Z</time>
      </trkpt>
      <trkpt lat="44.84607" lon="6.95736">
        <ele>2481.2</ele>
        <time>2023-02-16T10:43:29Z</time>
      </trkpt>
      <trkpt lat="44.84606" lon="6.95737">
        <ele>2480.9</ele>
        <time>2023-02-16T10:43:43Z</time>
      </trkpt>
      <trkpt lat="44.84608" lon="6.95736">
        <ele>2481.6</ele>
        <time>2023-02-16T10:43:59Z</time>
      </trkpt>
      <trkpt lat="44.84608" lon="6.95735">
        <ele>2481.5</ele>
        <time>2023-02-16T10:44:08Z</time>
      </trkpt>
      <trkpt lat="44.84608" lon="6.95735">
        <ele>2481.5</ele>
        <time>2023-02-16T10:44:15Z</time>
      </trkpt>
      <trkpt lat="44.84607" lon="6.95738">
        <ele>2481.5</ele>
        <time>2023-02-16T10:44:26Z</time>
      </trkpt>
      <trkpt lat="44.84608" lon="6.95737">
        <ele>2481.8</ele>
        <time>2023-02-16T10:44:39Z</time>
      </trkpt>
      <trkpt lat="44.84608" lon="6.95737">
        <ele>2481.8</ele>
        <time>2023-02-16T10:44:40Z</time>
      </trkpt>
      <trkpt lat="44.84608" lon="6.95737">
        <ele>2481.8</ele>
        <time>2023-02-16T10:44:41Z</time>
      </trkpt>
      <trkpt lat="44.84608" lon="6.95737">
        <ele>2481.8</ele>
        <time>2023-02-16T10:44:42Z</time>
      </trkpt>
      <trkpt lat="44.84608" lon="6.95737">
        <ele>2481.8</ele>
        <time>2023-02-16T10:44:43Z</time>
      </trkpt>
      <trkpt lat="44.84607" lon="6.95737">
        <ele>2481.4</ele>
        <time>2023-02-16T10:44:44Z</time>
      </trkpt>
      <trkpt lat="44.84607" lon="6.95737">
        <ele>2481.4</ele>
        <time>2023-02-16T10:44:45Z</time>
      </trkpt>
      <trkpt lat="44.84608" lon="6.95737">
        <ele>2481.8</ele>
        <time>2023-02-16T10:44:48Z</time>
      </trkpt>
      <trkpt lat="44.84608" lon="6.95737">
        <ele>2481.8</ele>
        <time>2023-02-16T10:44:49Z</time>
      </trkpt>
      <trkpt lat="44.84608" lon="6.95737">
        <ele>2481.8</ele>
        <time>2023-02-16T10:44:50Z</time>
      </trkpt>
      <trkpt lat="44.84608" lon="6.95737">
        <ele>2481.8</ele>
        <time>2023-02-16T10:44:51Z</time>
      </trkpt>
      <trkpt lat="44.84608" lon="6.95737">
        <ele>2481.8</ele>
        <time>2023-02-16T10:44:53Z</time>
      </trkpt>
      <trkpt lat="44.84607" lon="6.95737">
        <ele>2481.4</ele>
        <time>2023-02-16T10:44:58Z</time>
      </trkpt>
      <trkpt lat="44.84607" lon="6.95736">
        <ele>2481.2</ele>
        <time>2023-02-16T10:45:19Z</time>
      </trkpt>
      <trkpt lat="44.84605" lon="6.95734">
        <ele>2480.1</ele>
        <time>2023-02-16T10:45:38Z</time>
      </trkpt>
      <trkpt lat="44.84606" lon="6.95734">
        <ele>2480.5</ele>
        <time>2023-02-16T10:45:56Z</time>
      </trkpt>
      <trkpt lat="44.84606" lon="6.95734">
        <ele>2480.5</ele>
        <time>2023-02-16T10:46:15Z</time>
      </trkpt>
      <trkpt lat="44.84605" lon="6.95735">
        <ele>2480.2</ele>
        <time>2023-02-16T10:46:32Z</time>
      </trkpt>
      <trkpt lat="44.84605" lon="6.95735">
        <ele>2480.2</ele>
        <time>2023-02-16T10:46:43Z</time>
      </trkpt>
      <trkpt lat="44.84606" lon="6.95739">
        <ele>2481.2</ele>
        <time>2023-02-16T10:46:51Z</time>
      </trkpt>
      <trkpt lat="44.84606" lon="6.95742">
        <ele>2481.6</ele>
        <time>2023-02-16T10:46:54Z</time>
      </trkpt>
      <trkpt lat="44.84607" lon="6.95748">
        <ele>2482.9</ele>
        <time>2023-02-16T10:47:00Z</time>
      </trkpt>
      <trkpt lat="44.84608" lon="6.95754">
        <ele>2484.4</ele>
        <time>2023-02-16T10:47:06Z</time>
      </trkpt>
      <trkpt lat="44.84608" lon="6.95755">
        <ele>2484.6</ele>
        <time>2023-02-16T10:47:07Z</time>
      </trkpt>
      <trkpt lat="44.84608" lon="6.95763">
        <ele>2486</ele>
        <time>2023-02-16T10:47:14Z</time>
      </trkpt>
      <trkpt lat="44.84609" lon="6.95767">
        <ele>2487.1</ele>
        <time>2023-02-16T10:47:18Z</time>
      </trkpt>
      <trkpt lat="44.8461" lon="6.95775">
        <ele>2489</ele>
        <time>2023-02-16T10:47:25Z</time>
      </trkpt>
      <trkpt lat="44.84609" lon="6.95781">
        <ele>2489.8</ele>
        <time>2023-02-16T10:47:31Z</time>
      </trkpt>
      <trkpt lat="44.84609" lon="6.95782">
        <ele>2490</ele>
        <time>2023-02-16T10:47:32Z</time>
      </trkpt>
      <trkpt lat="44.84608" lon="6.95787">
        <ele>2490.7</ele>
        <time>2023-02-16T10:47:37Z</time>
      </trkpt>
      <trkpt lat="44.84608" lon="6.95795">
        <ele>2492.4</ele>
        <time>2023-02-16T10:47:45Z</time>
      </trkpt>
      <trkpt lat="44.84607" lon="6.95797">
        <ele>2492.5</ele>
        <time>2023-02-16T10:47:47Z</time>
      </trkpt>
      <trkpt lat="44.84607" lon="6.95804">
        <ele>2494</ele>
        <time>2023-02-16T10:47:54Z</time>
      </trkpt>
      <trkpt lat="44.84607" lon="6.95809">
        <ele>2495.4</ele>
        <time>2023-02-16T10:47:59Z</time>
      </trkpt>
      <trkpt lat="44.84607" lon="6.9581">
        <ele>2495.7</ele>
        <time>2023-02-16T10:48:01Z</time>
      </trkpt>
      <trkpt lat="44.84606" lon="6.95816">
        <ele>2497.2</ele>
        <time>2023-02-16T10:48:06Z</time>
      </trkpt>
      <trkpt lat="44.84605" lon="6.95822">
        <ele>2498.5</ele>
        <time>2023-02-16T10:48:12Z</time>
      </trkpt>
      <trkpt lat="44.84605" lon="6.95823">
        <ele>2498.8</ele>
        <time>2023-02-16T10:48:13Z</time>
      </trkpt>
      <trkpt lat="44.84604" lon="6.95825">
        <ele>2498.9</ele>
        <time>2023-02-16T10:48:21Z</time>
      </trkpt>
      <trkpt lat="44.84609" lon="6.95822">
        <ele>2500.4</ele>
        <time>2023-02-16T10:48:29Z</time>
      </trkpt>
      <trkpt lat="44.84609" lon="6.95822">
        <ele>2500.4</ele>
        <time>2023-02-16T10:48:30Z</time>
      </trkpt>
      <trkpt lat="44.84612" lon="6.9582">
        <ele>2501</ele>
        <time>2023-02-16T10:48:35Z</time>
      </trkpt>
      <trkpt lat="44.84617" lon="6.95819">
        <ele>2502.7</ele>
        <time>2023-02-16T10:48:41Z</time>
      </trkpt>
      <trkpt lat="44.84617" lon="6.95818">
        <ele>2502.4</ele>
        <time>2023-02-16T10:48:42Z</time>
      </trkpt>
      <trkpt lat="44.84621" lon="6.95817">
        <ele>2503.6</ele>
        <time>2023-02-16T10:48:48Z</time>
      </trkpt>
      <trkpt lat="44.84624" lon="6.95816">
        <ele>2504.5</ele>
        <time>2023-02-16T10:48:52Z</time>
      </trkpt>
      <trkpt lat="44.84625" lon="6.95816">
        <ele>2504.9</ele>
        <time>2023-02-16T10:48:53Z</time>
      </trkpt>
      <trkpt lat="44.84629" lon="6.95815">
        <ele>2506.1</ele>
        <time>2023-02-16T10:48:59Z</time>
      </trkpt>
      <trkpt lat="44.84632" lon="6.95812">
        <ele>2506.4</ele>
        <time>2023-02-16T10:49:04Z</time>
      </trkpt>
      <trkpt lat="44.84633" lon="6.95811">
        <ele>2506.4</ele>
        <time>2023-02-16T10:49:05Z</time>
      </trkpt>
      <trkpt lat="44.84635" lon="6.9581">
        <ele>2506.9</ele>
        <time>2023-02-16T10:49:08Z</time>
      </trkpt>
      <trkpt lat="44.84636" lon="6.95809">
        <ele>2507</ele>
        <time>2023-02-16T10:49:10Z</time>
      </trkpt>
      <trkpt lat="44.84638" lon="6.95808">
        <ele>2507.4</ele>
        <time>2023-02-16T10:49:14Z</time>
      </trkpt>
      <trkpt lat="44.8464" lon="6.95808">
        <ele>2508.3</ele>
        <time>2023-02-16T10:49:16Z</time>
      </trkpt>
      <trkpt lat="44.84642" lon="6.95807">
        <ele>2508.9</ele>
        <time>2023-02-16T10:49:20Z</time>
      </trkpt>
      <trkpt lat="44.84644" lon="6.95805">
        <ele>2509.3</ele>
        <time>2023-02-16T10:49:23Z</time>
      </trkpt>
      <trkpt lat="44.84647" lon="6.95803">
        <ele>2510.3</ele>
        <time>2023-02-16T10:49:27Z</time>
      </trkpt>
      <trkpt lat="44.84652" lon="6.95799">
        <ele>2511.8</ele>
        <time>2023-02-16T10:49:36Z</time>
      </trkpt>
      <trkpt lat="44.84654" lon="6.95797">
        <ele>2512.4</ele>
        <time>2023-02-16T10:49:40Z</time>
      </trkpt>
      <trkpt lat="44.84658" lon="6.95795">
        <ele>2513.9</ele>
        <time>2023-02-16T10:49:46Z</time>
      </trkpt>
      <trkpt lat="44.84659" lon="6.95794">
        <ele>2514.2</ele>
        <time>2023-02-16T10:49:48Z</time>
      </trkpt>
      <trkpt lat="44.8466" lon="6.95795">
        <ele>2514.9</ele>
        <time>2023-02-16T10:49:53Z</time>
      </trkpt>
      <trkpt lat="44.8466" lon="6.95799">
        <ele>2515.6</ele>
        <time>2023-02-16T10:49:57Z</time>
      </trkpt>
      <trkpt lat="44.84659" lon="6.95804">
        <ele>2516.1</ele>
        <time>2023-02-16T10:50:02Z</time>
      </trkpt>
      <trkpt lat="44.84659" lon="6.9581">
        <ele>2517.6</ele>
        <time>2023-02-16T10:50:08Z</time>
      </trkpt>
      <trkpt lat="44.84659" lon="6.95813">
        <ele>2518.4</ele>
        <time>2023-02-16T10:50:10Z</time>
      </trkpt>
      <trkpt lat="44.84658" lon="6.95818">
        <ele>2519.4</ele>
        <time>2023-02-16T10:50:15Z</time>
      </trkpt>
      <trkpt lat="44.84658" lon="6.95822">
        <ele>2520.5</ele>
        <time>2023-02-16T10:50:19Z</time>
      </trkpt>
      <trkpt lat="44.84658" lon="6.95823">
        <ele>2520.7</ele>
        <time>2023-02-16T10:50:20Z</time>
      </trkpt>
      <trkpt lat="44.84657" lon="6.95826">
        <ele>2521.1</ele>
        <time>2023-02-16T10:50:24Z</time>
      </trkpt>
      <trkpt lat="44.84657" lon="6.95829">
        <ele>2522</ele>
        <time>2023-02-16T10:50:27Z</time>
      </trkpt>
      <trkpt lat="44.84658" lon="6.95828">
        <ele>2522.1</ele>
        <time>2023-02-16T10:50:33Z</time>
      </trkpt>
      <trkpt lat="44.84664" lon="6.95823">
        <ele>2523.3</ele>
        <time>2023-02-16T10:50:43Z</time>
      </trkpt>
      <trkpt lat="44.84666" lon="6.95821">
        <ele>2523.6</ele>
        <time>2023-02-16T10:50:46Z</time>
      </trkpt>
      <trkpt lat="44.84668" lon="6.95819">
        <ele>2524.4</ele>
        <time>2023-02-16T10:50:49Z</time>
      </trkpt>
      <trkpt lat="44.8467" lon="6.95816">
        <ele>2525.1</ele>
        <time>2023-02-16T10:50:54Z</time>
      </trkpt>
      <trkpt lat="44.84673" lon="6.95813">
        <ele>2526.6</ele>
        <time>2023-02-16T10:51:00Z</time>
      </trkpt>
      <trkpt lat="44.84673" lon="6.95813">
        <ele>2526.6</ele>
        <time>2023-02-16T10:51:05Z</time>
      </trkpt>
      <trkpt lat="44.84673" lon="6.95819">
        <ele>2528</ele>
        <time>2023-02-16T10:51:11Z</time>
      </trkpt>
      <trkpt lat="44.84673" lon="6.95821">
        <ele>2528.4</ele>
        <time>2023-02-16T10:51:12Z</time>
      </trkpt>
      <trkpt lat="44.84673" lon="6.95823">
        <ele>2528.8</ele>
        <time>2023-02-16T10:51:14Z</time>
      </trkpt>
      <trkpt lat="44.84673" lon="6.95829">
        <ele>2530.2</ele>
        <time>2023-02-16T10:51:20Z</time>
      </trkpt>
      <trkpt lat="44.84673" lon="6.95835">
        <ele>2531.5</ele>
        <time>2023-02-16T10:51:26Z</time>
      </trkpt>
      <trkpt lat="44.84672" lon="6.95842">
        <ele>2532.8</ele>
        <time>2023-02-16T10:51:33Z</time>
      </trkpt>
      <trkpt lat="44.84672" lon="6.95847">
        <ele>2534.1</ele>
        <time>2023-02-16T10:51:39Z</time>
      </trkpt>
      <trkpt lat="44.84672" lon="6.95848">
        <ele>2534.4</ele>
        <time>2023-02-16T10:51:40Z</time>
      </trkpt>
      <trkpt lat="44.84671" lon="6.95853">
        <ele>2535.1</ele>
        <time>2023-02-16T10:51:45Z</time>
      </trkpt>
      <trkpt lat="44.84669" lon="6.95859">
        <ele>2535.7</ele>
        <time>2023-02-16T10:51:52Z</time>
      </trkpt>
      <trkpt lat="44.84669" lon="6.95861">
        <ele>2536.2</ele>
        <time>2023-02-16T10:51:54Z</time>
      </trkpt>
      <trkpt lat="44.84668" lon="6.95864">
        <ele>2536.4</ele>
        <time>2023-02-16T10:51:58Z</time>
      </trkpt>
      <trkpt lat="44.84666" lon="6.95868">
        <ele>2536.5</ele>
        <time>2023-02-16T10:52:03Z</time>
      </trkpt>
      <trkpt lat="44.84666" lon="6.95871">
        <ele>2537.2</ele>
        <time>2023-02-16T10:52:07Z</time>
      </trkpt>
      <trkpt lat="44.84665" lon="6.95872">
        <ele>2537</ele>
        <time>2023-02-16T10:52:08Z</time>
      </trkpt>
      <trkpt lat="44.84665" lon="6.95877">
        <ele>2538.2</ele>
        <time>2023-02-16T10:52:14Z</time>
      </trkpt>
      <trkpt lat="44.84666" lon="6.95881">
        <ele>2539.7</ele>
        <time>2023-02-16T10:52:18Z</time>
      </trkpt>
      <trkpt lat="44.84665" lon="6.95885">
        <ele>2540.2</ele>
        <time>2023-02-16T10:52:22Z</time>
      </trkpt>
      <trkpt lat="44.84665" lon="6.95891">
        <ele>2541.6</ele>
        <time>2023-02-16T10:52:28Z</time>
      </trkpt>
      <trkpt lat="44.84664" lon="6.95893">
        <ele>2541.5</ele>
        <time>2023-02-16T10:52:30Z</time>
      </trkpt>
      <trkpt lat="44.84664" lon="6.95897">
        <ele>2542.4</ele>
        <time>2023-02-16T10:52:34Z</time>
      </trkpt>
      <trkpt lat="44.84664" lon="6.95903">
        <ele>2543.7</ele>
        <time>2023-02-16T10:52:40Z</time>
      </trkpt>
      <trkpt lat="44.84664" lon="6.95907">
        <ele>2544.6</ele>
        <time>2023-02-16T10:52:45Z</time>
      </trkpt>
      <trkpt lat="44.84664" lon="6.95906">
        <ele>2544.4</ele>
        <time>2023-02-16T10:52:59Z</time>
      </trkpt>
      <trkpt lat="44.84665" lon="6.95906">
        <ele>2544.9</ele>
        <time>2023-02-16T10:53:17Z</time>
      </trkpt>
      <trkpt lat="44.84664" lon="6.95911">
        <ele>2545.4</ele>
        <time>2023-02-16T10:53:26Z</time>
      </trkpt>
      <trkpt lat="44.84664" lon="6.95912">
        <ele>2545.6</ele>
        <time>2023-02-16T10:53:27Z</time>
      </trkpt>
      <trkpt lat="44.84664" lon="6.95917">
        <ele>2546.8</ele>
        <time>2023-02-16T10:53:33Z</time>
      </trkpt>
      <trkpt lat="44.84663" lon="6.9592">
        <ele>2547.1</ele>
        <time>2023-02-16T10:53:35Z</time>
      </trkpt>
      <trkpt lat="44.84663" lon="6.95923">
        <ele>2547.9</ele>
        <time>2023-02-16T10:53:38Z</time>
      </trkpt>
      <trkpt lat="44.84662" lon="6.95925">
        <ele>2548</ele>
        <time>2023-02-16T10:53:40Z</time>
      </trkpt>
      <trkpt lat="44.84662" lon="6.95928">
        <ele>2548.8</ele>
        <time>2023-02-16T10:53:43Z</time>
      </trkpt>
      <trkpt lat="44.84662" lon="6.95933">
        <ele>2550.3</ele>
        <time>2023-02-16T10:53:49Z</time>
      </trkpt>
      <trkpt lat="44.84661" lon="6.95936">
        <ele>2550.6</ele>
        <time>2023-02-16T10:53:53Z</time>
      </trkpt>
      <trkpt lat="44.8466" lon="6.95941">
        <ele>2551.4</ele>
        <time>2023-02-16T10:53:58Z</time>
      </trkpt>
      <trkpt lat="44.8466" lon="6.95941">
        <ele>2551.4</ele>
        <time>2023-02-16T10:54:02Z</time>
      </trkpt>
      <trkpt lat="44.84661" lon="6.9594">
        <ele>2551.7</ele>
        <time>2023-02-16T10:54:04Z</time>
      </trkpt>
      <trkpt lat="44.84663" lon="6.95938">
        <ele>2552.2</ele>
        <time>2023-02-16T10:54:09Z</time>
      </trkpt>
      <trkpt lat="44.84665" lon="6.95936">
        <ele>2552.7</ele>
        <time>2023-02-16T10:54:13Z</time>
      </trkpt>
      <trkpt lat="44.84667" lon="6.95935">
        <ele>2553.5</ele>
        <time>2023-02-16T10:54:17Z</time>
      </trkpt>
      <trkpt lat="44.84671" lon="6.95931">
        <ele>2554.7</ele>
        <time>2023-02-16T10:54:24Z</time>
      </trkpt>
      <trkpt lat="44.84674" lon="6.95928">
        <ele>2555.6</ele>
        <time>2023-02-16T10:54:29Z</time>
      </trkpt>
      <trkpt lat="44.84676" lon="6.95926">
        <ele>2556.2</ele>
        <time>2023-02-16T10:54:33Z</time>
      </trkpt>
      <trkpt lat="44.8468" lon="6.95923">
        <ele>2557.6</ele>
        <time>2023-02-16T10:54:40Z</time>
      </trkpt>
      <trkpt lat="44.84682" lon="6.95921">
        <ele>2558.2</ele>
        <time>2023-02-16T10:54:43Z</time>
      </trkpt>
      <trkpt lat="44.84683" lon="6.9592">
        <ele>2558.4</ele>
        <time>2023-02-16T10:54:45Z</time>
      </trkpt>
      <trkpt lat="44.84685" lon="6.95918">
        <ele>2559</ele>
        <time>2023-02-16T10:54:49Z</time>
      </trkpt>
      <trkpt lat="44.84688" lon="6.95914">
        <ele>2559.6</ele>
        <time>2023-02-16T10:54:54Z</time>
      </trkpt>
      <trkpt lat="44.8469" lon="6.95912">
        <ele>2560.1</ele>
        <time>2023-02-16T10:54:58Z</time>
      </trkpt>
      <trkpt lat="44.84692" lon="6.9591">
        <ele>2560.7</ele>
        <time>2023-02-16T10:55:02Z</time>
      </trkpt>
      <trkpt lat="44.84693" lon="6.9591">
        <ele>2561.3</ele>
        <time>2023-02-16T10:55:06Z</time>
      </trkpt>
      <trkpt lat="44.84694" lon="6.9591">
        <ele>2561.8</ele>
        <time>2023-02-16T10:55:12Z</time>
      </trkpt>
      <trkpt lat="44.84694" lon="6.95913">
        <ele>2562.7</ele>
        <time>2023-02-16T10:55:18Z</time>
      </trkpt>
      <trkpt lat="44.84693" lon="6.9592">
        <ele>2564.2</ele>
        <time>2023-02-16T10:55:26Z</time>
      </trkpt>
      <trkpt lat="44.84693" lon="6.95923">
        <ele>2565.2</ele>
        <time>2023-02-16T10:55:28Z</time>
      </trkpt>
      <trkpt lat="44.84693" lon="6.95924">
        <ele>2565.5</ele>
        <time>2023-02-16T10:55:29Z</time>
      </trkpt>
      <trkpt lat="44.84693" lon="6.95927">
        <ele>2566.5</ele>
        <time>2023-02-16T10:55:31Z</time>
      </trkpt>
      <trkpt lat="44.84693" lon="6.95927">
        <ele>2566.5</ele>
        <time>2023-02-16T10:55:37Z</time>
      </trkpt>
      <trkpt lat="44.84691" lon="6.9594">
        <ele>2569.5</ele>
        <time>2023-02-16T10:55:43Z</time>
      </trkpt>
      <trkpt lat="44.84691" lon="6.95941">
        <ele>2569.8</ele>
        <time>2023-02-16T10:55:45Z</time>
      </trkpt>
      <trkpt lat="44.8469" lon="6.95945">
        <ele>2570.4</ele>
        <time>2023-02-16T10:55:49Z</time>
      </trkpt>
      <trkpt lat="44.84688" lon="6.95951">
        <ele>2570.8</ele>
        <time>2023-02-16T10:55:56Z</time>
      </trkpt>
      <trkpt lat="44.84688" lon="6.95954">
        <ele>2571.6</ele>
        <time>2023-02-16T10:56:00Z</time>
      </trkpt>
      <trkpt lat="44.84688" lon="6.95958">
        <ele>2572.7</ele>
        <time>2023-02-16T10:56:06Z</time>
      </trkpt>
      <trkpt lat="44.84687" lon="6.95963">
        <ele>2573.5</ele>
        <time>2023-02-16T10:56:12Z</time>
      </trkpt>
      <trkpt lat="44.84687" lon="6.95964">
        <ele>2573.7</ele>
        <time>2023-02-16T10:56:13Z</time>
      </trkpt>
      <trkpt lat="44.84686" lon="6.95969">
        <ele>2574.6</ele>
        <time>2023-02-16T10:56:18Z</time>
      </trkpt>
      <trkpt lat="44.84685" lon="6.95972">
        <ele>2574.8</ele>
        <time>2023-02-16T10:56:23Z</time>
      </trkpt>
      <trkpt lat="44.84685" lon="6.95975">
        <ele>2575.8</ele>
        <time>2023-02-16T10:56:27Z</time>
      </trkpt>
      <trkpt lat="44.84685" lon="6.95979">
        <ele>2577.2</ele>
        <time>2023-02-16T10:56:32Z</time>
      </trkpt>
      <trkpt lat="44.84685" lon="6.95983">
        <ele>2578.5</ele>
        <time>2023-02-16T10:56:37Z</time>
      </trkpt>
      <trkpt lat="44.84685" lon="6.95985">
        <ele>2579.2</ele>
        <time>2023-02-16T10:56:40Z</time>
      </trkpt>
      <trkpt lat="44.84684" lon="6.95987">
        <ele>2579.3</ele>
        <time>2023-02-16T10:56:43Z</time>
      </trkpt>
      <trkpt lat="44.84684" lon="6.95987">
        <ele>2579.3</ele>
        <time>2023-02-16T10:56:49Z</time>
      </trkpt>
      <trkpt lat="44.84682" lon="6.95993">
        <ele>2580.3</ele>
        <time>2023-02-16T10:57:00Z</time>
      </trkpt>
      <trkpt lat="44.84681" lon="6.95995">
        <ele>2580.5</ele>
        <time>2023-02-16T10:57:03Z</time>
      </trkpt>
      <trkpt lat="44.8468" lon="6.96">
        <ele>2581.7</ele>
        <time>2023-02-16T10:57:09Z</time>
      </trkpt>
      <trkpt lat="44.8468" lon="6.96001">
        <ele>2582.1</ele>
        <time>2023-02-16T10:57:11Z</time>
      </trkpt>
      <trkpt lat="44.84682" lon="6.96">
        <ele>2582.7</ele>
        <time>2023-02-16T10:57:20Z</time>
      </trkpt>
      <trkpt lat="44.84683" lon="6.96">
        <ele>2583.2</ele>
        <time>2023-02-16T10:57:21Z</time>
      </trkpt>
      <trkpt lat="44.84688" lon="6.95999">
        <ele>2585.4</ele>
        <time>2023-02-16T10:57:30Z</time>
      </trkpt>
      <trkpt lat="44.8469" lon="6.95999">
        <ele>2586.4</ele>
        <time>2023-02-16T10:57:32Z</time>
      </trkpt>
      <trkpt lat="44.84692" lon="6.95998">
        <ele>2587.1</ele>
        <time>2023-02-16T10:57:35Z</time>
      </trkpt>
      <trkpt lat="44.84695" lon="6.95997">
        <ele>2588.3</ele>
        <time>2023-02-16T10:57:40Z</time>
      </trkpt>
      <trkpt lat="44.84696" lon="6.95996">
        <ele>2588.5</ele>
        <time>2023-02-16T10:57:42Z</time>
      </trkpt>
      <trkpt lat="44.84698" lon="6.95994">
        <ele>2588.8</ele>
        <time>2023-02-16T10:57:46Z</time>
      </trkpt>
      <trkpt lat="44.84701" lon="6.95991">
        <ele>2589.4</ele>
        <time>2023-02-16T10:57:52Z</time>
      </trkpt>
      <trkpt lat="44.84702" lon="6.9599">
        <ele>2589.6</ele>
        <time>2023-02-16T10:57:54Z</time>
      </trkpt>
      <trkpt lat="44.84707" lon="6.95986">
        <ele>2590.8</ele>
        <time>2023-02-16T10:58:01Z</time>
      </trkpt>
      <trkpt lat="44.84711" lon="6.95982">
        <ele>2591.5</ele>
        <time>2023-02-16T10:58:08Z</time>
      </trkpt>
      <trkpt lat="44.84715" lon="6.95978">
        <ele>2592.2</ele>
        <time>2023-02-16T10:58:14Z</time>
      </trkpt>
      <trkpt lat="44.84715" lon="6.95977">
        <ele>2591.9</ele>
        <time>2023-02-16T10:58:15Z</time>
      </trkpt>
      <trkpt lat="44.84718" lon="6.95974">
        <ele>2592.4</ele>
        <time>2023-02-16T10:58:20Z</time>
      </trkpt>
      <trkpt lat="44.84719" lon="6.95974">
        <ele>2593</ele>
        <time>2023-02-16T10:58:24Z</time>
      </trkpt>
      <trkpt lat="44.8472" lon="6.95971">
        <ele>2592.7</ele>
        <time>2023-02-16T10:58:30Z</time>
      </trkpt>
      <trkpt lat="44.84721" lon="6.95971">
        <ele>2593.2</ele>
        <time>2023-02-16T10:58:32Z</time>
      </trkpt>
      <trkpt lat="44.84721" lon="6.95976">
        <ele>2594.6</ele>
        <time>2023-02-16T10:58:38Z</time>
      </trkpt>
      <trkpt lat="44.84721" lon="6.95977">
        <ele>2594.9</ele>
        <time>2023-02-16T10:58:39Z</time>
      </trkpt>
      <trkpt lat="44.84721" lon="6.95979">
        <ele>2595.6</ele>
        <time>2023-02-16T10:58:40Z</time>
      </trkpt>
      <trkpt lat="44.84721" lon="6.95983">
        <ele>2596.9</ele>
        <time>2023-02-16T10:58:43Z</time>
      </trkpt>
      <trkpt lat="44.84719" lon="6.9599">
        <ele>2598.1</ele>
        <time>2023-02-16T10:58:49Z</time>
      </trkpt>
      <trkpt lat="44.84719" lon="6.95992">
        <ele>2598.8</ele>
        <time>2023-02-16T10:58:51Z</time>
      </trkpt>
      <trkpt lat="44.84718" lon="6.95997">
        <ele>2599.9</ele>
        <time>2023-02-16T10:58:56Z</time>
      </trkpt>
      <trkpt lat="44.84717" lon="6.96002">
        <ele>2601</ele>
        <time>2023-02-16T10:59:02Z</time>
      </trkpt>
      <trkpt lat="44.84716" lon="6.96004">
        <ele>2601.2</ele>
        <time>2023-02-16T10:59:04Z</time>
      </trkpt>
      <trkpt lat="44.84715" lon="6.96007">
        <ele>2601.7</ele>
        <time>2023-02-16T10:59:07Z</time>
      </trkpt>
      <trkpt lat="44.84714" lon="6.96013">
        <ele>2603.2</ele>
        <time>2023-02-16T10:59:14Z</time>
      </trkpt>
      <trkpt lat="44.84713" lon="6.96016">
        <ele>2603.7</ele>
        <time>2023-02-16T10:59:17Z</time>
      </trkpt>
      <trkpt lat="44.84713" lon="6.96017">
        <ele>2604.1</ele>
        <time>2023-02-16T10:59:18Z</time>
      </trkpt>
      <trkpt lat="44.84711" lon="6.96024">
        <ele>2605.5</ele>
        <time>2023-02-16T10:59:25Z</time>
      </trkpt>
      <trkpt lat="44.84711" lon="6.96028">
        <ele>2606.8</ele>
        <time>2023-02-16T10:59:29Z</time>
      </trkpt>
      <trkpt lat="44.84711" lon="6.96029">
        <ele>2607.2</ele>
        <time>2023-02-16T10:59:31Z</time>
      </trkpt>
      <trkpt lat="44.84711" lon="6.96029">
        <ele>2607.2</ele>
        <time>2023-02-16T10:59:39Z</time>
      </trkpt>
      <trkpt lat="44.84711" lon="6.96028">
        <ele>2606.8</ele>
        <time>2023-02-16T10:59:43Z</time>
      </trkpt>
      <trkpt lat="44.8471" lon="6.96034">
        <ele>2608.5</ele>
        <time>2023-02-16T10:59:50Z</time>
      </trkpt>
      <trkpt lat="44.84709" lon="6.96038">
        <ele>2609.5</ele>
        <time>2023-02-16T10:59:54Z</time>
      </trkpt>
      <trkpt lat="44.84708" lon="6.96043">
        <ele>2610.8</ele>
        <time>2023-02-16T10:59:59Z</time>
      </trkpt>
      <trkpt lat="44.84706" lon="6.96047">
        <ele>2611.4</ele>
        <time>2023-02-16T11:00:03Z</time>
      </trkpt>
      <trkpt lat="44.84705" lon="6.96051">
        <ele>2612.5</ele>
        <time>2023-02-16T11:00:08Z</time>
      </trkpt>
      <trkpt lat="44.84704" lon="6.96053">
        <ele>2612.8</ele>
        <time>2023-02-16T11:00:11Z</time>
      </trkpt>
      <trkpt lat="44.84701" lon="6.96058">
        <ele>2613.5</ele>
        <time>2023-02-16T11:00:17Z</time>
      </trkpt>
      <trkpt lat="44.84699" lon="6.96062">
        <ele>2614.2</ele>
        <time>2023-02-16T11:00:23Z</time>
      </trkpt>
      <trkpt lat="44.84696" lon="6.96067">
        <ele>2614.8</ele>
        <time>2023-02-16T11:00:29Z</time>
      </trkpt>
      <trkpt lat="44.84696" lon="6.96068">
        <ele>2615.1</ele>
        <time>2023-02-16T11:00:30Z</time>
      </trkpt>
      <trkpt lat="44.84694" lon="6.96073">
        <ele>2616.1</ele>
        <time>2023-02-16T11:00:36Z</time>
      </trkpt>
      <trkpt lat="44.84692" lon="6.96077">
        <ele>2616.8</ele>
        <time>2023-02-16T11:00:41Z</time>
      </trkpt>
      <trkpt lat="44.8469" lon="6.96079">
        <ele>2616.8</ele>
        <time>2023-02-16T11:00:44Z</time>
      </trkpt>
      <trkpt lat="44.8469" lon="6.9608">
        <ele>2617.2</ele>
        <time>2023-02-16T11:00:45Z</time>
      </trkpt>
      <trkpt lat="44.84689" lon="6.96081">
        <ele>2617.2</ele>
        <time>2023-02-16T11:00:54Z</time>
      </trkpt>
      <trkpt lat="44.84689" lon="6.96083">
        <ele>2617.9</ele>
        <time>2023-02-16T11:01:08Z</time>
      </trkpt>
      <trkpt lat="44.84687" lon="6.96086">
        <ele>2618.2</ele>
        <time>2023-02-16T11:01:12Z</time>
      </trkpt>
      <trkpt lat="44.84685" lon="6.96092">
        <ele>2619.4</ele>
        <time>2023-02-16T11:01:18Z</time>
      </trkpt>
      <trkpt lat="44.84683" lon="6.96098">
        <ele>2620.6</ele>
        <time>2023-02-16T11:01:25Z</time>
      </trkpt>
      <trkpt lat="44.84681" lon="6.96102">
        <ele>2621.2</ele>
        <time>2023-02-16T11:01:29Z</time>
      </trkpt>
      <trkpt lat="44.8468" lon="6.96103">
        <ele>2621.2</ele>
        <time>2023-02-16T11:01:30Z</time>
      </trkpt>
      <trkpt lat="44.84678" lon="6.9611">
        <ele>2622.7</ele>
        <time>2023-02-16T11:01:37Z</time>
      </trkpt>
      <trkpt lat="44.84678" lon="6.96111">
        <ele>2623</ele>
        <time>2023-02-16T11:01:40Z</time>
      </trkpt>
      <trkpt lat="44.84679" lon="6.96109">
        <ele>2622.8</ele>
        <time>2023-02-16T11:01:54Z</time>
      </trkpt>
      <trkpt lat="44.84678" lon="6.96115">
        <ele>2624.1</ele>
        <time>2023-02-16T11:02:03Z</time>
      </trkpt>
      <trkpt lat="44.84678" lon="6.96121">
        <ele>2625.7</ele>
        <time>2023-02-16T11:02:09Z</time>
      </trkpt>
      <trkpt lat="44.84676" lon="6.96129">
        <ele>2627.1</ele>
        <time>2023-02-16T11:02:16Z</time>
      </trkpt>
      <trkpt lat="44.84675" lon="6.96131">
        <ele>2627.2</ele>
        <time>2023-02-16T11:02:18Z</time>
      </trkpt>
      <trkpt lat="44.84675" lon="6.96135">
        <ele>2628.3</ele>
        <time>2023-02-16T11:02:22Z</time>
      </trkpt>
      <trkpt lat="44.84675" lon="6.9614">
        <ele>2629.6</ele>
        <time>2023-02-16T11:02:28Z</time>
      </trkpt>
      <trkpt lat="44.84674" lon="6.96142">
        <ele>2629.6</ele>
        <time>2023-02-16T11:02:30Z</time>
      </trkpt>
      <trkpt lat="44.84673" lon="6.96148">
        <ele>2630.6</ele>
        <time>2023-02-16T11:02:35Z</time>
      </trkpt>
      <trkpt lat="44.84673" lon="6.96153">
        <ele>2631.7</ele>
        <time>2023-02-16T11:02:41Z</time>
      </trkpt>
      <trkpt lat="44.84672" lon="6.96155">
        <ele>2631.7</ele>
        <time>2023-02-16T11:02:42Z</time>
      </trkpt>
      <trkpt lat="44.84671" lon="6.96161">
        <ele>2632.6</ele>
        <time>2023-02-16T11:02:48Z</time>
      </trkpt>
      <trkpt lat="44.8467" lon="6.96166">
        <ele>2633.3</ele>
        <time>2023-02-16T11:02:53Z</time>
      </trkpt>
      <trkpt lat="44.84669" lon="6.96167">
        <ele>2633.1</ele>
        <time>2023-02-16T11:02:54Z</time>
      </trkpt>
      <trkpt lat="44.84667" lon="6.96175">
        <ele>2634.2</ele>
        <time>2023-02-16T11:03:01Z</time>
      </trkpt>
      <trkpt lat="44.84666" lon="6.96179">
        <ele>2634.8</ele>
        <time>2023-02-16T11:03:05Z</time>
      </trkpt>
      <trkpt lat="44.84666" lon="6.96181">
        <ele>2635.3</ele>
        <time>2023-02-16T11:03:08Z</time>
      </trkpt>
      <trkpt lat="44.84665" lon="6.96185">
        <ele>2635.9</ele>
        <time>2023-02-16T11:03:12Z</time>
      </trkpt>
      <trkpt lat="44.84662" lon="6.96192">
        <ele>2636.5</ele>
        <time>2023-02-16T11:03:20Z</time>
      </trkpt>
      <trkpt lat="44.84662" lon="6.96196">
        <ele>2637.6</ele>
        <time>2023-02-16T11:03:23Z</time>
      </trkpt>
      <trkpt lat="44.84662" lon="6.96197">
        <ele>2637.9</ele>
        <time>2023-02-16T11:03:25Z</time>
      </trkpt>
      <trkpt lat="44.8466" lon="6.96202">
        <ele>2638.7</ele>
        <time>2023-02-16T11:03:32Z</time>
      </trkpt>
      <trkpt lat="44.8466" lon="6.96203">
        <ele>2639</ele>
        <time>2023-02-16T11:03:34Z</time>
      </trkpt>
      <trkpt lat="44.84658" lon="6.96208">
        <ele>2639.9</ele>
        <time>2023-02-16T11:03:47Z</time>
      </trkpt>
      <trkpt lat="44.84658" lon="6.96209">
        <ele>2640.3</ele>
        <time>2023-02-16T11:03:48Z</time>
      </trkpt>
      <trkpt lat="44.84658" lon="6.96211">
        <ele>2640.9</ele>
        <time>2023-02-16T11:03:50Z</time>
      </trkpt>
      <trkpt lat="44.84658" lon="6.96217">
        <ele>2642.8</ele>
        <time>2023-02-16T11:03:55Z</time>
      </trkpt>
      <trkpt lat="44.84657" lon="6.96222">
        <ele>2644.1</ele>
        <time>2023-02-16T11:04:00Z</time>
      </trkpt>
      <trkpt lat="44.84657" lon="6.96224">
        <ele>2644.8</ele>
        <time>2023-02-16T11:04:03Z</time>
      </trkpt>
      <trkpt lat="44.84655" lon="6.96229">
        <ele>2645.9</ele>
        <time>2023-02-16T11:04:08Z</time>
      </trkpt>
      <trkpt lat="44.84653" lon="6.96233">
        <ele>2646.7</ele>
        <time>2023-02-16T11:04:13Z</time>
      </trkpt>
      <trkpt lat="44.84653" lon="6.96234">
        <ele>2647.1</ele>
        <time>2023-02-16T11:04:14Z</time>
      </trkpt>
      <trkpt lat="44.8465" lon="6.96239">
        <ele>2648</ele>
        <time>2023-02-16T11:04:20Z</time>
      </trkpt>
      <trkpt lat="44.84648" lon="6.96244">
        <ele>2649.2</ele>
        <time>2023-02-16T11:04:26Z</time>
      </trkpt>
      <trkpt lat="44.84647" lon="6.96245">
        <ele>2649.3</ele>
        <time>2023-02-16T11:04:27Z</time>
      </trkpt>
      <trkpt lat="44.84645" lon="6.96251">
        <ele>2650.9</ele>
        <time>2023-02-16T11:04:33Z</time>
      </trkpt>
      <trkpt lat="44.84642" lon="6.96256">
        <ele>2651.7</ele>
        <time>2023-02-16T11:04:39Z</time>
      </trkpt>
      <trkpt lat="44.84642" lon="6.96256">
        <ele>2651.7</ele>
        <time>2023-02-16T11:04:40Z</time>
      </trkpt>
      <trkpt lat="44.84641" lon="6.96259">
        <ele>2652.4</ele>
        <time>2023-02-16T11:04:45Z</time>
      </trkpt>
      <trkpt lat="44.84638" lon="6.96264">
        <ele>2653.4</ele>
        <time>2023-02-16T11:04:53Z</time>
      </trkpt>
      <trkpt lat="44.84638" lon="6.96264">
        <ele>2653.4</ele>
        <time>2023-02-16T11:04:54Z</time>
      </trkpt>
      <trkpt lat="44.84636" lon="6.96269">
        <ele>2654.6</ele>
        <time>2023-02-16T11:04:59Z</time>
      </trkpt>
      <trkpt lat="44.84634" lon="6.96272">
        <ele>2655.2</ele>
        <time>2023-02-16T11:05:04Z</time>
      </trkpt>
      <trkpt lat="44.84634" lon="6.96274">
        <ele>2655.9</ele>
        <time>2023-02-16T11:05:07Z</time>
      </trkpt>
      <trkpt lat="44.84634" lon="6.96275">
        <ele>2656.2</ele>
        <time>2023-02-16T11:05:11Z</time>
      </trkpt>
      <trkpt lat="44.84632" lon="6.96275">
        <ele>2655.9</ele>
        <time>2023-02-16T11:05:18Z</time>
      </trkpt>
      <trkpt lat="44.84631" lon="6.96275">
        <ele>2655.7</ele>
        <time>2023-02-16T11:05:34Z</time>
      </trkpt>
      <trkpt lat="44.8463" lon="6.96277">
        <ele>2656.1</ele>
        <time>2023-02-16T11:05:56Z</time>
      </trkpt>
      <trkpt lat="44.84631" lon="6.96278">
        <ele>2656.6</ele>
        <time>2023-02-16T11:06:08Z</time>
      </trkpt>
      <trkpt lat="44.84631" lon="6.96278">
        <ele>2656.6</ele>
        <time>2023-02-16T11:06:14Z</time>
      </trkpt>
      <trkpt lat="44.84631" lon="6.96277">
        <ele>2656.3</ele>
        <time>2023-02-16T11:06:31Z</time>
      </trkpt>
      <trkpt lat="44.8463" lon="6.96276">
        <ele>2655.8</ele>
        <time>2023-02-16T11:06:49Z</time>
      </trkpt>
      <trkpt lat="44.8463" lon="6.96276">
        <ele>2655.8</ele>
        <time>2023-02-16T11:06:50Z</time>
      </trkpt>
      <trkpt lat="44.84629" lon="6.96277">
        <ele>2656</ele>
        <time>2023-02-16T11:07:06Z</time>
      </trkpt>
      <trkpt lat="44.8463" lon="6.96277">
        <ele>2656.1</ele>
        <time>2023-02-16T11:07:21Z</time>
      </trkpt>
      <trkpt lat="44.84631" lon="6.96277">
        <ele>2656.3</ele>
        <time>2023-02-16T11:07:39Z</time>
      </trkpt>
      <trkpt lat="44.8463" lon="6.96278">
        <ele>2656.4</ele>
        <time>2023-02-16T11:07:55Z</time>
      </trkpt>
      <trkpt lat="44.84635" lon="6.96279">
        <ele>2657.6</ele>
        <time>2023-02-16T11:08:10Z</time>
      </trkpt>
      <trkpt lat="44.84641" lon="6.96281">
        <ele>2659.1</ele>
        <time>2023-02-16T11:08:17Z</time>
      </trkpt>
      <trkpt lat="44.84641" lon="6.96282">
        <ele>2659.4</ele>
        <time>2023-02-16T11:08:18Z</time>
      </trkpt>
      <trkpt lat="44.84646" lon="6.96285">
        <ele>2661</ele>
        <time>2023-02-16T11:08:24Z</time>
      </trkpt>
      <trkpt lat="44.84647" lon="6.96285">
        <ele>2661.2</ele>
        <time>2023-02-16T11:08:25Z</time>
      </trkpt>
      <trkpt lat="44.84651" lon="6.96286">
        <ele>2662.3</ele>
        <time>2023-02-16T11:08:30Z</time>
      </trkpt>
      <trkpt lat="44.84655" lon="6.96286">
        <ele>2663.1</ele>
        <time>2023-02-16T11:08:36Z</time>
      </trkpt>
      <trkpt lat="44.84656" lon="6.96286">
        <ele>2663.3</ele>
        <time>2023-02-16T11:08:38Z</time>
      </trkpt>
      <trkpt lat="44.84659" lon="6.96286">
        <ele>2663.9</ele>
        <time>2023-02-16T11:08:42Z</time>
      </trkpt>
      <trkpt lat="44.84663" lon="6.96287">
        <ele>2664.9</ele>
        <time>2023-02-16T11:08:48Z</time>
      </trkpt>
      <trkpt lat="44.84664" lon="6.96287">
        <ele>2665.1</ele>
        <time>2023-02-16T11:08:49Z</time>
      </trkpt>
      <trkpt lat="44.84667" lon="6.96287">
        <ele>2665.7</ele>
        <time>2023-02-16T11:08:53Z</time>
      </trkpt>
      <trkpt lat="44.84672" lon="6.96287">
        <ele>2666.7</ele>
        <time>2023-02-16T11:09:01Z</time>
      </trkpt>
      <trkpt lat="44.84672" lon="6.96286">
        <ele>2666.6</ele>
        <time>2023-02-16T11:09:02Z</time>
      </trkpt>
      <trkpt lat="44.84674" lon="6.96286">
        <ele>2667</ele>
        <time>2023-02-16T11:09:04Z</time>
      </trkpt>
      <trkpt lat="44.84676" lon="6.96287">
        <ele>2667.6</ele>
        <time>2023-02-16T11:09:08Z</time>
      </trkpt>
      <trkpt lat="44.84681" lon="6.96288">
        <ele>2668.8</ele>
        <time>2023-02-16T11:09:14Z</time>
      </trkpt>
      <trkpt lat="44.84682" lon="6.96288">
        <ele>2669</ele>
        <time>2023-02-16T11:09:15Z</time>
      </trkpt>
      <trkpt lat="44.84684" lon="6.96289">
        <ele>2669.6</ele>
        <time>2023-02-16T11:09:19Z</time>
      </trkpt>
      <trkpt lat="44.84688" lon="6.96292">
        <ele>2671.2</ele>
        <time>2023-02-16T11:09:26Z</time>
      </trkpt>
      <trkpt lat="44.8469" lon="6.96297">
        <ele>2672.8</ele>
        <time>2023-02-16T11:09:33Z</time>
      </trkpt>
      <trkpt lat="44.84693" lon="6.96302">
        <ele>2674.8</ele>
        <time>2023-02-16T11:09:39Z</time>
      </trkpt>
      <trkpt lat="44.84694" lon="6.96303">
        <ele>2675.2</ele>
        <time>2023-02-16T11:09:40Z</time>
      </trkpt>
      <trkpt lat="44.84694" lon="6.96304">
        <ele>2675.5</ele>
        <time>2023-02-16T11:09:42Z</time>
      </trkpt>
      <trkpt lat="44.84695" lon="6.96311">
        <ele>2677.6</ele>
        <time>2023-02-16T11:09:49Z</time>
      </trkpt>
      <trkpt lat="44.84695" lon="6.96312">
        <ele>2677.8</ele>
        <time>2023-02-16T11:09:50Z</time>
      </trkpt>
      <trkpt lat="44.84694" lon="6.96317">
        <ele>2678.8</ele>
        <time>2023-02-16T11:09:54Z</time>
      </trkpt>
      <trkpt lat="44.84695" lon="6.96319">
        <ele>2679.6</ele>
        <time>2023-02-16T11:09:59Z</time>
      </trkpt>
      <trkpt lat="44.84696" lon="6.96319">
        <ele>2679.9</ele>
        <time>2023-02-16T11:10:02Z</time>
      </trkpt>
      <trkpt lat="44.84699" lon="6.96319">
        <ele>2680.9</ele>
        <time>2023-02-16T11:10:06Z</time>
      </trkpt>
      <trkpt lat="44.84701" lon="6.96319">
        <ele>2681.6</ele>
        <time>2023-02-16T11:10:08Z</time>
      </trkpt>
      <trkpt lat="44.84703" lon="6.96318">
        <ele>2682</ele>
        <time>2023-02-16T11:10:13Z</time>
      </trkpt>
      <trkpt lat="44.84704" lon="6.96318">
        <ele>2682.4</ele>
        <time>2023-02-16T11:10:14Z</time>
      </trkpt>
      <trkpt lat="44.84708" lon="6.96318">
        <ele>2683.7</ele>
        <time>2023-02-16T11:10:20Z</time>
      </trkpt>
      <trkpt lat="44.84711" lon="6.96317">
        <ele>2684.5</ele>
        <time>2023-02-16T11:10:25Z</time>
      </trkpt>
      <trkpt lat="44.84712" lon="6.96316">
        <ele>2684.6</ele>
        <time>2023-02-16T11:10:27Z</time>
      </trkpt>
      <trkpt lat="44.84714" lon="6.96315">
        <ele>2685</ele>
        <time>2023-02-16T11:10:32Z</time>
      </trkpt>
      <trkpt lat="44.84717" lon="6.96315">
        <ele>2686</ele>
        <time>2023-02-16T11:10:36Z</time>
      </trkpt>
      <trkpt lat="44.84718" lon="6.96314">
        <ele>2686</ele>
        <time>2023-02-16T11:10:38Z</time>
      </trkpt>
      <trkpt lat="44.84721" lon="6.96313">
        <ele>2686.7</ele>
        <time>2023-02-16T11:10:42Z</time>
      </trkpt>
      <trkpt lat="44.84723" lon="6.96312">
        <ele>2687.2</ele>
        <time>2023-02-16T11:10:46Z</time>
      </trkpt>
      <trkpt lat="44.84726" lon="6.96312">
        <ele>2688.4</ele>
        <time>2023-02-16T11:10:50Z</time>
      </trkpt>
      <trkpt lat="44.84727" lon="6.96311">
        <ele>2688.5</ele>
        <time>2023-02-16T11:10:52Z</time>
      </trkpt>
      <trkpt lat="44.84728" lon="6.96312">
        <ele>2689.1</ele>
        <time>2023-02-16T11:10:53Z</time>
      </trkpt>
      <trkpt lat="44.84732" lon="6.96312">
        <ele>2690.7</ele>
        <time>2023-02-16T11:10:58Z</time>
      </trkpt>
      <trkpt lat="44.84734" lon="6.96312">
        <ele>2691.5</ele>
        <time>2023-02-16T11:11:01Z</time>
      </trkpt>
      <trkpt lat="44.84735" lon="6.96311">
        <ele>2691.6</ele>
        <time>2023-02-16T11:11:13Z</time>
      </trkpt>
      <trkpt lat="44.84736" lon="6.9631">
        <ele>2691.7</ele>
        <time>2023-02-16T11:11:27Z</time>
      </trkpt>
      <trkpt lat="44.84739" lon="6.9631">
        <ele>2692.9</ele>
        <time>2023-02-16T11:11:31Z</time>
      </trkpt>
      <trkpt lat="44.84742" lon="6.96309">
        <ele>2693.8</ele>
        <time>2023-02-16T11:11:35Z</time>
      </trkpt>
      <trkpt lat="44.84744" lon="6.96308">
        <ele>2694.3</ele>
        <time>2023-02-16T11:11:39Z</time>
      </trkpt>
      <trkpt lat="44.84747" lon="6.96307">
        <ele>2695.2</ele>
        <time>2023-02-16T11:11:44Z</time>
      </trkpt>
      <trkpt lat="44.8475" lon="6.96307">
        <ele>2696.4</ele>
        <time>2023-02-16T11:11:48Z</time>
      </trkpt>
      <trkpt lat="44.84751" lon="6.96307">
        <ele>2696.9</ele>
        <time>2023-02-16T11:11:50Z</time>
      </trkpt>
      <trkpt lat="44.84753" lon="6.96307">
        <ele>2697.9</ele>
        <time>2023-02-16T11:11:53Z</time>
      </trkpt>
      <trkpt lat="44.84757" lon="6.96307">
        <ele>2699.9</ele>
        <time>2023-02-16T11:11:59Z</time>
      </trkpt>
      <trkpt lat="44.84757" lon="6.96307">
        <ele>2699.9</ele>
        <time>2023-02-16T11:12:02Z</time>
      </trkpt>
      <trkpt lat="44.84757" lon="6.96308">
        <ele>2700.2</ele>
        <time>2023-02-16T11:12:03Z</time>
      </trkpt>
      <trkpt lat="44.84754" lon="6.96315">
        <ele>2700.7</ele>
        <time>2023-02-16T11:12:10Z</time>
      </trkpt>
      <trkpt lat="44.84754" lon="6.96316">
        <ele>2701</ele>
        <time>2023-02-16T11:12:12Z</time>
      </trkpt>
      <trkpt lat="44.84753" lon="6.96319">
        <ele>2701.3</ele>
        <time>2023-02-16T11:12:15Z</time>
      </trkpt>
      <trkpt lat="44.84752" lon="6.96322">
        <ele>2701.7</ele>
        <time>2023-02-16T11:12:18Z</time>
      </trkpt>
      <trkpt lat="44.84751" lon="6.96327">
        <ele>2702.7</ele>
        <time>2023-02-16T11:12:23Z</time>
      </trkpt>
      <trkpt lat="44.84751" lon="6.96328">
        <ele>2702.9</ele>
        <time>2023-02-16T11:12:24Z</time>
      </trkpt>
      <trkpt lat="44.8475" lon="6.96331">
        <ele>2703.3</ele>
        <time>2023-02-16T11:12:27Z</time>
      </trkpt>
      <trkpt lat="44.84749" lon="6.96338">
        <ele>2704.9</ele>
        <time>2023-02-16T11:12:34Z</time>
      </trkpt>
      <trkpt lat="44.84749" lon="6.96342">
        <ele>2706.1</ele>
        <time>2023-02-16T11:12:39Z</time>
      </trkpt>
      <trkpt lat="44.84748" lon="6.96347">
        <ele>2707.1</ele>
        <time>2023-02-16T11:12:44Z</time>
      </trkpt>
      <trkpt lat="44.84747" lon="6.96349">
        <ele>2707.3</ele>
        <time>2023-02-16T11:12:47Z</time>
      </trkpt>
      <trkpt lat="44.84746" lon="6.96353">
        <ele>2708.1</ele>
        <time>2023-02-16T11:12:51Z</time>
      </trkpt>
      <trkpt lat="44.84745" lon="6.96355">
        <ele>2708.3</ele>
        <time>2023-02-16T11:12:54Z</time>
      </trkpt>
      <trkpt lat="44.84744" lon="6.96359">
        <ele>2709</ele>
        <time>2023-02-16T11:12:57Z</time>
      </trkpt>
      <trkpt lat="44.84742" lon="6.96365">
        <ele>2710.2</ele>
        <time>2023-02-16T11:13:03Z</time>
      </trkpt>
      <trkpt lat="44.84739" lon="6.9637">
        <ele>2710.8</ele>
        <time>2023-02-16T11:13:08Z</time>
      </trkpt>
      <trkpt lat="44.84739" lon="6.9637">
        <ele>2710.8</ele>
        <time>2023-02-16T11:13:09Z</time>
      </trkpt>
      <trkpt lat="44.84738" lon="6.96374">
        <ele>2711.9</ele>
        <time>2023-02-16T11:13:13Z</time>
      </trkpt>
      <trkpt lat="44.84736" lon="6.96378">
        <ele>2712.5</ele>
        <time>2023-02-16T11:13:18Z</time>
      </trkpt>
      <trkpt lat="44.84736" lon="6.96382">
        <ele>2714</ele>
        <time>2023-02-16T11:13:24Z</time>
      </trkpt>
      <trkpt lat="44.84736" lon="6.96383">
        <ele>2714.3</ele>
        <time>2023-02-16T11:13:25Z</time>
      </trkpt>
      <trkpt lat="44.84735" lon="6.96386">
        <ele>2715</ele>
        <time>2023-02-16T11:13:29Z</time>
      </trkpt>
      <trkpt lat="44.84736" lon="6.96388">
        <ele>2716.1</ele>
        <time>2023-02-16T11:13:36Z</time>
      </trkpt>
      <trkpt lat="44.84738" lon="6.96385">
        <ele>2715.8</ele>
        <time>2023-02-16T11:13:47Z</time>
      </trkpt>
      <trkpt lat="44.84739" lon="6.96385">
        <ele>2716.2</ele>
        <time>2023-02-16T11:13:48Z</time>
      </trkpt>
      <trkpt lat="44.84743" lon="6.96383">
        <ele>2717.1</ele>
        <time>2023-02-16T11:13:55Z</time>
      </trkpt>
      <trkpt lat="44.84747" lon="6.96383">
        <ele>2718.7</ele>
        <time>2023-02-16T11:14:00Z</time>
      </trkpt>
      <trkpt lat="44.84748" lon="6.96383">
        <ele>2719.1</ele>
        <time>2023-02-16T11:14:02Z</time>
      </trkpt>
      <trkpt lat="44.8475" lon="6.96383">
        <ele>2719.9</ele>
        <time>2023-02-16T11:14:04Z</time>
      </trkpt>
      <trkpt lat="44.84751" lon="6.96382">
        <ele>2720</ele>
        <time>2023-02-16T11:14:06Z</time>
      </trkpt>
      <trkpt lat="44.84755" lon="6.96382">
        <ele>2721.9</ele>
        <time>2023-02-16T11:14:11Z</time>
      </trkpt>
      <trkpt lat="44.84758" lon="6.96381">
        <ele>2723</ele>
        <time>2023-02-16T11:14:15Z</time>
      </trkpt>
      <trkpt lat="44.84761" lon="6.9638">
        <ele>2724.1</ele>
        <time>2023-02-16T11:14:21Z</time>
      </trkpt>
      <trkpt lat="44.84764" lon="6.96379">
        <ele>2725.2</ele>
        <time>2023-02-16T11:14:25Z</time>
      </trkpt>
      <trkpt lat="44.84767" lon="6.96378">
        <ele>2726.3</ele>
        <time>2023-02-16T11:14:31Z</time>
      </trkpt>
      <trkpt lat="44.8477" lon="6.96376">
        <ele>2727.1</ele>
        <time>2023-02-16T11:14:36Z</time>
      </trkpt>
      <trkpt lat="44.84771" lon="6.96376">
        <ele>2727.5</ele>
        <time>2023-02-16T11:14:37Z</time>
      </trkpt>
      <trkpt lat="44.84774" lon="6.96375">
        <ele>2728.7</ele>
        <time>2023-02-16T11:14:42Z</time>
      </trkpt>
      <trkpt lat="44.84776" lon="6.96374">
        <ele>2729.3</ele>
        <time>2023-02-16T11:14:45Z</time>
      </trkpt>
      <trkpt lat="44.84777" lon="6.96374">
        <ele>2729.8</ele>
        <time>2023-02-16T11:14:46Z</time>
      </trkpt>
      <trkpt lat="44.84778" lon="6.96373">
        <ele>2730</ele>
        <time>2023-02-16T11:14:50Z</time>
      </trkpt>
      <trkpt lat="44.84777" lon="6.96373">
        <ele>2729.5</ele>
        <time>2023-02-16T11:14:59Z</time>
      </trkpt>
      <trkpt lat="44.84781" lon="6.96371">
        <ele>2730.8</ele>
        <time>2023-02-16T11:15:08Z</time>
      </trkpt>
      <trkpt lat="44.84782" lon="6.96371">
        <ele>2731.3</ele>
        <time>2023-02-16T11:15:09Z</time>
      </trkpt>
      <trkpt lat="44.84784" lon="6.96369">
        <ele>2731.6</ele>
        <time>2023-02-16T11:15:13Z</time>
      </trkpt>
      <trkpt lat="44.84788" lon="6.96368">
        <ele>2733.3</ele>
        <time>2023-02-16T11:15:19Z</time>
      </trkpt>
      <trkpt lat="44.8479" lon="6.96368">
        <ele>2734.3</ele>
        <time>2023-02-16T11:15:21Z</time>
      </trkpt>
      <trkpt lat="44.84792" lon="6.96367">
        <ele>2735</ele>
        <time>2023-02-16T11:15:24Z</time>
      </trkpt>
      <trkpt lat="44.84794" lon="6.96366">
        <ele>2735.7</ele>
        <time>2023-02-16T11:15:29Z</time>
      </trkpt>
      <trkpt lat="44.84794" lon="6.96366">
        <ele>2735.7</ele>
        <time>2023-02-16T11:15:30Z</time>
      </trkpt>
      <trkpt lat="44.84793" lon="6.96368">
        <ele>2735.8</ele>
        <time>2023-02-16T11:15:39Z</time>
      </trkpt>
      <trkpt lat="44.84792" lon="6.96369">
        <ele>2735.6</ele>
        <time>2023-02-16T11:15:51Z</time>
      </trkpt>
      <trkpt lat="44.84792" lon="6.96368">
        <ele>2735.3</ele>
        <time>2023-02-16T11:15:53Z</time>
      </trkpt>
      <trkpt lat="44.84792" lon="6.96368">
        <ele>2735.3</ele>
        <time>2023-02-16T11:15:58Z</time>
      </trkpt>
      <trkpt lat="44.84792" lon="6.96368">
        <ele>2735.3</ele>
        <time>2023-02-16T11:16:08Z</time>
      </trkpt>
      <trkpt lat="44.84793" lon="6.96369">
        <ele>2736.1</ele>
        <time>2023-02-16T11:16:19Z</time>
      </trkpt>
      <trkpt lat="44.84793" lon="6.96369">
        <ele>2736.1</ele>
        <time>2023-02-16T11:16:40Z</time>
      </trkpt>
      <trkpt lat="44.84792" lon="6.96369">
        <ele>2735.6</ele>
        <time>2023-02-16T11:17:04Z</time>
      </trkpt>
      <trkpt lat="44.84793" lon="6.96368">
        <ele>2735.8</ele>
        <time>2023-02-16T11:17:16Z</time>
      </trkpt>
      <trkpt lat="44.84791" lon="6.96374">
        <ele>2736.6</ele>
        <time>2023-02-16T11:17:26Z</time>
      </trkpt>
      <trkpt lat="44.84791" lon="6.96376">
        <ele>2737.2</ele>
        <time>2023-02-16T11:17:28Z</time>
      </trkpt>
      <trkpt lat="44.84789" lon="6.9638">
        <ele>2737.5</ele>
        <time>2023-02-16T11:17:32Z</time>
      </trkpt>
      <trkpt lat="44.84789" lon="6.96381">
        <ele>2737.8</ele>
        <time>2023-02-16T11:17:33Z</time>
      </trkpt>
      <trkpt lat="44.84787" lon="6.96387">
        <ele>2738.7</ele>
        <time>2023-02-16T11:17:39Z</time>
      </trkpt>
      <trkpt lat="44.84786" lon="6.9639">
        <ele>2739.2</ele>
        <time>2023-02-16T11:17:42Z</time>
      </trkpt>
      <trkpt lat="44.84784" lon="6.964">
        <ele>2741.5</ele>
        <time>2023-02-16T11:17:52Z</time>
      </trkpt>
      <trkpt lat="44.84783" lon="6.96403">
        <ele>2742</ele>
        <time>2023-02-16T11:17:55Z</time>
      </trkpt>
      <trkpt lat="44.84783" lon="6.96404">
        <ele>2742.3</ele>
        <time>2023-02-16T11:17:56Z</time>
      </trkpt>
      <trkpt lat="44.84782" lon="6.9641">
        <ele>2743.8</ele>
        <time>2023-02-16T11:18:03Z</time>
      </trkpt>
      <trkpt lat="44.8478" lon="6.96415">
        <ele>2744.5</ele>
        <time>2023-02-16T11:18:08Z</time>
      </trkpt>
      <trkpt lat="44.8478" lon="6.96416">
        <ele>2744.8</ele>
        <time>2023-02-16T11:18:09Z</time>
      </trkpt>
      <trkpt lat="44.84779" lon="6.96419">
        <ele>2745.5</ele>
        <time>2023-02-16T11:18:14Z</time>
      </trkpt>
      <trkpt lat="44.84778" lon="6.96426">
        <ele>2747.8</ele>
        <time>2023-02-16T11:18:21Z</time>
      </trkpt>
      <trkpt lat="44.84777" lon="6.9643">
        <ele>2749</ele>
        <time>2023-02-16T11:18:27Z</time>
      </trkpt>
      <trkpt lat="44.84776" lon="6.96433">
        <ele>2749.9</ele>
        <time>2023-02-16T11:18:32Z</time>
      </trkpt>
      <trkpt lat="44.84775" lon="6.96435">
        <ele>2750.3</ele>
        <time>2023-02-16T11:18:34Z</time>
      </trkpt>
      <trkpt lat="44.84772" lon="6.9644">
        <ele>2751.3</ele>
        <time>2023-02-16T11:18:40Z</time>
      </trkpt>
      <trkpt lat="44.84771" lon="6.96445">
        <ele>2753</ele>
        <time>2023-02-16T11:18:47Z</time>
      </trkpt>
      <trkpt lat="44.8477" lon="6.96446">
        <ele>2753</ele>
        <time>2023-02-16T11:18:48Z</time>
      </trkpt>
      <trkpt lat="44.84769" lon="6.96448">
        <ele>2753.3</ele>
        <time>2023-02-16T11:18:51Z</time>
      </trkpt>
      <trkpt lat="44.84768" lon="6.96453">
        <ele>2754.7</ele>
        <time>2023-02-16T11:18:56Z</time>
      </trkpt>
      <trkpt lat="44.84766" lon="6.96457">
        <ele>2755.4</ele>
        <time>2023-02-16T11:19:00Z</time>
      </trkpt>
      <trkpt lat="44.84765" lon="6.96459">
        <ele>2755.8</ele>
        <time>2023-02-16T11:19:03Z</time>
      </trkpt>
      <trkpt lat="44.84763" lon="6.96463">
        <ele>2756.6</ele>
        <time>2023-02-16T11:19:08Z</time>
      </trkpt>
      <trkpt lat="44.84762" lon="6.96466">
        <ele>2757.3</ele>
        <time>2023-02-16T11:19:12Z</time>
      </trkpt>
      <trkpt lat="44.8476" lon="6.9647">
        <ele>2758.1</ele>
        <time>2023-02-16T11:19:17Z</time>
      </trkpt>
      <trkpt lat="44.84759" lon="6.96471">
        <ele>2758.2</ele>
        <time>2023-02-16T11:19:23Z</time>
      </trkpt>
      <trkpt lat="44.84757" lon="6.96475">
        <ele>2759</ele>
        <time>2023-02-16T11:19:29Z</time>
      </trkpt>
      <trkpt lat="44.84756" lon="6.96477">
        <ele>2759.4</ele>
        <time>2023-02-16T11:19:33Z</time>
      </trkpt>
      <trkpt lat="44.84756" lon="6.96478">
        <ele>2759.8</ele>
        <time>2023-02-16T11:19:34Z</time>
      </trkpt>
      <trkpt lat="44.84755" lon="6.96481">
        <ele>2760.5</ele>
        <time>2023-02-16T11:19:38Z</time>
      </trkpt>
      <trkpt lat="44.84754" lon="6.96486">
        <ele>2762</ele>
        <time>2023-02-16T11:19:45Z</time>
      </trkpt>
      <trkpt lat="44.84754" lon="6.96486">
        <ele>2762</ele>
        <time>2023-02-16T11:19:46Z</time>
      </trkpt>
      <trkpt lat="44.84753" lon="6.96491">
        <ele>2763.6</ele>
        <time>2023-02-16T11:19:52Z</time>
      </trkpt>
      <trkpt lat="44.84751" lon="6.96496">
        <ele>2764.8</ele>
        <time>2023-02-16T11:19:59Z</time>
      </trkpt>
      <trkpt lat="44.84751" lon="6.96497">
        <ele>2765.2</ele>
        <time>2023-02-16T11:20:00Z</time>
      </trkpt>
      <trkpt lat="44.8475" lon="6.965">
        <ele>2766</ele>
        <time>2023-02-16T11:20:04Z</time>
      </trkpt>
      <trkpt lat="44.84749" lon="6.96504">
        <ele>2766.8</ele>
        <time>2023-02-16T11:20:09Z</time>
      </trkpt>
      <trkpt lat="44.84748" lon="6.96507">
        <ele>2767.3</ele>
        <time>2023-02-16T11:20:14Z</time>
      </trkpt>
      <trkpt lat="44.84748" lon="6.96506">
        <ele>2767</ele>
        <time>2023-02-16T11:20:15Z</time>
      </trkpt>
      <trkpt lat="44.84748" lon="6.96506">
        <ele>2767</ele>
        <time>2023-02-16T11:20:16Z</time>
      </trkpt>
      <trkpt lat="44.84747" lon="6.9651">
        <ele>2767.9</ele>
        <time>2023-02-16T11:20:24Z</time>
      </trkpt>
      <trkpt lat="44.84746" lon="6.96512">
        <ele>2768.1</ele>
        <time>2023-02-16T11:20:27Z</time>
      </trkpt>
      <trkpt lat="44.84744" lon="6.96515">
        <ele>2768.4</ele>
        <time>2023-02-16T11:20:30Z</time>
      </trkpt>
      <trkpt lat="44.84744" lon="6.96516">
        <ele>2768.7</ele>
        <time>2023-02-16T11:20:36Z</time>
      </trkpt>
      <trkpt lat="44.84749" lon="6.96516">
        <ele>2770.3</ele>
        <time>2023-02-16T11:20:45Z</time>
      </trkpt>
      <trkpt lat="44.84751" lon="6.96516">
        <ele>2770.9</ele>
        <time>2023-02-16T11:20:47Z</time>
      </trkpt>
      <trkpt lat="44.84758" lon="6.96516">
        <ele>2772.6</ele>
        <time>2023-02-16T11:20:56Z</time>
      </trkpt>
      <trkpt lat="44.8476" lon="6.96517">
        <ele>2773.4</ele>
        <time>2023-02-16T11:20:59Z</time>
      </trkpt>
      <trkpt lat="44.84761" lon="6.96517">
        <ele>2773.7</ele>
        <time>2023-02-16T11:21:00Z</time>
      </trkpt>
      <trkpt lat="44.84764" lon="6.96517">
        <ele>2774.4</ele>
        <time>2023-02-16T11:21:05Z</time>
      </trkpt>
      <trkpt lat="44.84765" lon="6.96516">
        <ele>2774.4</ele>
        <time>2023-02-16T11:21:09Z</time>
      </trkpt>
      <trkpt lat="44.84766" lon="6.96515">
        <ele>2774.4</ele>
        <time>2023-02-16T11:21:10Z</time>
      </trkpt>
      <trkpt lat="44.84766" lon="6.96516">
        <ele>2774.6</ele>
        <time>2023-02-16T11:21:15Z</time>
      </trkpt>
      <trkpt lat="44.84766" lon="6.96517">
        <ele>2774.9</ele>
        <time>2023-02-16T11:21:21Z</time>
      </trkpt>
      <trkpt lat="44.8477" lon="6.96517">
        <ele>2775.9</ele>
        <time>2023-02-16T11:21:30Z</time>
      </trkpt>
      <trkpt lat="44.84771" lon="6.96517">
        <ele>2776.2</ele>
        <time>2023-02-16T11:21:31Z</time>
      </trkpt>
      <trkpt lat="44.84774" lon="6.96517">
        <ele>2776.9</ele>
        <time>2023-02-16T11:21:35Z</time>
      </trkpt>
      <trkpt lat="44.84779" lon="6.96517">
        <ele>2778.1</ele>
        <time>2023-02-16T11:21:41Z</time>
      </trkpt>
      <trkpt lat="44.84781" lon="6.96517">
        <ele>2778.5</ele>
        <time>2023-02-16T11:21:44Z</time>
      </trkpt>
      <trkpt lat="44.84783" lon="6.96517">
        <ele>2778.9</ele>
        <time>2023-02-16T11:21:48Z</time>
      </trkpt>
      <trkpt lat="44.84788" lon="6.96517">
        <ele>2779.9</ele>
        <time>2023-02-16T11:21:54Z</time>
      </trkpt>
      <trkpt lat="44.84789" lon="6.96517">
        <ele>2780.1</ele>
        <time>2023-02-16T11:21:55Z</time>
      </trkpt>
      <trkpt lat="44.8479" lon="6.96517">
        <ele>2780.3</ele>
        <time>2023-02-16T11:21:59Z</time>
      </trkpt>
      <trkpt lat="44.84791" lon="6.96516">
        <ele>2780.2</ele>
        <time>2023-02-16T11:22:06Z</time>
      </trkpt>
      <trkpt lat="44.84788" lon="6.96519">
        <ele>2780.4</ele>
        <time>2023-02-16T11:22:23Z</time>
      </trkpt>
      <trkpt lat="44.84788" lon="6.96519">
        <ele>2780.4</ele>
        <time>2023-02-16T11:22:26Z</time>
      </trkpt>
      <trkpt lat="44.84788" lon="6.9652">
        <ele>2780.7</ele>
        <time>2023-02-16T11:22:41Z</time>
      </trkpt>
      <trkpt lat="44.8479" lon="6.96519">
        <ele>2780.8</ele>
        <time>2023-02-16T11:23:01Z</time>
      </trkpt>
      <trkpt lat="44.84796" lon="6.96521">
        <ele>2782.5</ele>
        <time>2023-02-16T11:23:09Z</time>
      </trkpt>
      <trkpt lat="44.84797" lon="6.96521">
        <ele>2782.7</ele>
        <time>2023-02-16T11:23:11Z</time>
      </trkpt>
      <trkpt lat="44.84798" lon="6.96521">
        <ele>2782.9</ele>
        <time>2023-02-16T11:23:12Z</time>
      </trkpt>
      <trkpt lat="44.848" lon="6.96522">
        <ele>2783.5</ele>
        <time>2023-02-16T11:23:14Z</time>
      </trkpt>
      <trkpt lat="44.84801" lon="6.96525">
        <ele>2784.5</ele>
        <time>2023-02-16T11:23:20Z</time>
      </trkpt>
      <trkpt lat="44.84801" lon="6.96528">
        <ele>2785.2</ele>
        <time>2023-02-16T11:23:23Z</time>
      </trkpt>
      <trkpt lat="44.84801" lon="6.96529">
        <ele>2785.5</ele>
        <time>2023-02-16T11:23:24Z</time>
      </trkpt>
      <trkpt lat="44.84796" lon="6.96534">
        <ele>2785.9</ele>
        <time>2023-02-16T11:23:33Z</time>
      </trkpt>
      <trkpt lat="44.84796" lon="6.96534">
        <ele>2785.9</ele>
        <time>2023-02-16T11:23:34Z</time>
      </trkpt>
      <trkpt lat="44.84796" lon="6.96533">
        <ele>2785.7</ele>
        <time>2023-02-16T11:23:42Z</time>
      </trkpt>
      <trkpt lat="44.84796" lon="6.96534">
        <ele>2785.9</ele>
        <time>2023-02-16T11:23:45Z</time>
      </trkpt>
      <trkpt lat="44.84796" lon="6.96534">
        <ele>2785.9</ele>
        <time>2023-02-16T11:24:04Z</time>
      </trkpt>
      <trkpt lat="44.84795" lon="6.96535">
        <ele>2786</ele>
        <time>2023-02-16T11:24:20Z</time>
      </trkpt>
      <trkpt lat="44.84797" lon="6.96539">
        <ele>2787.4</ele>
        <time>2023-02-16T11:24:29Z</time>
      </trkpt>
      <trkpt lat="44.84796" lon="6.96541">
        <ele>2787.8</ele>
        <time>2023-02-16T11:24:31Z</time>
      </trkpt>
      <trkpt lat="44.84795" lon="6.96544">
        <ele>2788.4</ele>
        <time>2023-02-16T11:24:34Z</time>
      </trkpt>
      <trkpt lat="44.84794" lon="6.96548">
        <ele>2789.3</ele>
        <time>2023-02-16T11:24:38Z</time>
      </trkpt>
      <trkpt lat="44.84794" lon="6.96549">
        <ele>2789.6</ele>
        <time>2023-02-16T11:24:39Z</time>
      </trkpt>
      <trkpt lat="44.84793" lon="6.96553">
        <ele>2790.5</ele>
        <time>2023-02-16T11:24:43Z</time>
      </trkpt>
      <trkpt lat="44.84793" lon="6.96554">
        <ele>2790.8</ele>
        <time>2023-02-16T11:24:44Z</time>
      </trkpt>
      <trkpt lat="44.84791" lon="6.96561">
        <ele>2792.5</ele>
        <time>2023-02-16T11:24:54Z</time>
      </trkpt>
      <trkpt lat="44.84791" lon="6.96563">
        <ele>2793</ele>
        <time>2023-02-16T11:24:56Z</time>
      </trkpt>
      <trkpt lat="44.8479" lon="6.96567">
        <ele>2794.1</ele>
        <time>2023-02-16T11:25:01Z</time>
      </trkpt>
      <trkpt lat="44.84788" lon="6.96572">
        <ele>2795.2</ele>
        <time>2023-02-16T11:25:07Z</time>
      </trkpt>
      <trkpt lat="44.84788" lon="6.96573">
        <ele>2795.5</ele>
        <time>2023-02-16T11:25:09Z</time>
      </trkpt>
      <trkpt lat="44.84786" lon="6.96576">
        <ele>2796.1</ele>
        <time>2023-02-16T11:25:12Z</time>
      </trkpt>
      <trkpt lat="44.84784" lon="6.96581">
        <ele>2797.2</ele>
        <time>2023-02-16T11:25:19Z</time>
      </trkpt>
      <trkpt lat="44.84783" lon="6.96581">
        <ele>2797.1</ele>
        <time>2023-02-16T11:25:20Z</time>
      </trkpt>
      <trkpt lat="44.84781" lon="6.96586">
        <ele>2798.2</ele>
        <time>2023-02-16T11:25:26Z</time>
      </trkpt>
      <trkpt lat="44.84781" lon="6.96588">
        <ele>2798.8</ele>
        <time>2023-02-16T11:25:29Z</time>
      </trkpt>
      <trkpt lat="44.8478" lon="6.96592">
        <ele>2799.8</ele>
        <time>2023-02-16T11:25:33Z</time>
      </trkpt>
      <trkpt lat="44.8478" lon="6.96593">
        <ele>2800.1</ele>
        <time>2023-02-16T11:25:34Z</time>
      </trkpt>
      <trkpt lat="44.84781" lon="6.96597">
        <ele>2801.4</ele>
        <time>2023-02-16T11:25:43Z</time>
      </trkpt>
      <trkpt lat="44.84785" lon="6.966">
        <ele>2802.8</ele>
        <time>2023-02-16T11:25:49Z</time>
      </trkpt>
      <trkpt lat="44.84787" lon="6.96602">
        <ele>2803.7</ele>
        <time>2023-02-16T11:25:52Z</time>
      </trkpt>
      <trkpt lat="44.84787" lon="6.96602">
        <ele>2803.7</ele>
        <time>2023-02-16T11:25:53Z</time>
      </trkpt>
      <trkpt lat="44.84793" lon="6.96603">
        <ele>2804.9</ele>
        <time>2023-02-16T11:26:01Z</time>
      </trkpt>
      <trkpt lat="44.84794" lon="6.96603">
        <ele>2805</ele>
        <time>2023-02-16T11:26:02Z</time>
      </trkpt>
      <trkpt lat="44.84795" lon="6.96603">
        <ele>2805.1</ele>
        <time>2023-02-16T11:26:03Z</time>
      </trkpt>
      <trkpt lat="44.84796" lon="6.96603">
        <ele>2805.3</ele>
        <time>2023-02-16T11:26:04Z</time>
      </trkpt>
      <trkpt lat="44.84797" lon="6.96603">
        <ele>2805.4</ele>
        <time>2023-02-16T11:26:05Z</time>
      </trkpt>
      <trkpt lat="44.84801" lon="6.96604">
        <ele>2806.3</ele>
        <time>2023-02-16T11:26:10Z</time>
      </trkpt>
      <trkpt lat="44.84804" lon="6.96606">
        <ele>2807.3</ele>
        <time>2023-02-16T11:26:14Z</time>
      </trkpt>
      <trkpt lat="44.84807" lon="6.96606">
        <ele>2807.6</ele>
        <time>2023-02-16T11:26:18Z</time>
      </trkpt>
      <trkpt lat="44.84812" lon="6.96608">
        <ele>2808.4</ele>
        <time>2023-02-16T11:26:24Z</time>
      </trkpt>
      <trkpt lat="44.84813" lon="6.96608">
        <ele>2808.4</ele>
        <time>2023-02-16T11:26:27Z</time>
      </trkpt>
      <trkpt lat="44.84817" lon="6.9661">
        <ele>2809.1</ele>
        <time>2023-02-16T11:26:33Z</time>
      </trkpt>
      <trkpt lat="44.84819" lon="6.96612">
        <ele>2809.7</ele>
        <time>2023-02-16T11:26:36Z</time>
      </trkpt>
      <trkpt lat="44.84819" lon="6.96614">
        <ele>2810.2</ele>
        <time>2023-02-16T11:26:38Z</time>
      </trkpt>
      <trkpt lat="44.8482" lon="6.96616">
        <ele>2810.7</ele>
        <time>2023-02-16T11:26:41Z</time>
      </trkpt>
      <trkpt lat="44.84822" lon="6.96621">
        <ele>2811.9</ele>
        <time>2023-02-16T11:26:48Z</time>
      </trkpt>
      <trkpt lat="44.84822" lon="6.96622">
        <ele>2812.1</ele>
        <time>2023-02-16T11:26:49Z</time>
      </trkpt>
      <trkpt lat="44.84823" lon="6.96627">
        <ele>2813.3</ele>
        <time>2023-02-16T11:26:53Z</time>
      </trkpt>
      <trkpt lat="44.84824" lon="6.96631">
        <ele>2814.2</ele>
        <time>2023-02-16T11:26:57Z</time>
      </trkpt>
      <trkpt lat="44.84826" lon="6.96635">
        <ele>2815.1</ele>
        <time>2023-02-16T11:27:01Z</time>
      </trkpt>
      <trkpt lat="44.84827" lon="6.9664">
        <ele>2816.2</ele>
        <time>2023-02-16T11:27:06Z</time>
      </trkpt>
      <trkpt lat="44.84829" lon="6.96644">
        <ele>2817.1</ele>
        <time>2023-02-16T11:27:11Z</time>
      </trkpt>
      <trkpt lat="44.8483" lon="6.96648">
        <ele>2818</ele>
        <time>2023-02-16T11:27:15Z</time>
      </trkpt>
      <trkpt lat="44.8483" lon="6.96649">
        <ele>2818.2</ele>
        <time>2023-02-16T11:27:16Z</time>
      </trkpt>
      <trkpt lat="44.84832" lon="6.96651">
        <ele>2818.6</ele>
        <time>2023-02-16T11:27:19Z</time>
      </trkpt>
      <trkpt lat="44.84833" lon="6.96656">
        <ele>2819.7</ele>
        <time>2023-02-16T11:27:24Z</time>
      </trkpt>
      <trkpt lat="44.84834" lon="6.96658">
        <ele>2820.2</ele>
        <time>2023-02-16T11:27:27Z</time>
      </trkpt>
      <trkpt lat="44.84835" lon="6.9666">
        <ele>2820.8</ele>
        <time>2023-02-16T11:27:30Z</time>
      </trkpt>
      <trkpt lat="44.84836" lon="6.96665">
        <ele>2822</ele>
        <time>2023-02-16T11:27:35Z</time>
      </trkpt>
      <trkpt lat="44.84838" lon="6.96669">
        <ele>2823</ele>
        <time>2023-02-16T11:27:40Z</time>
      </trkpt>
      <trkpt lat="44.84838" lon="6.96671">
        <ele>2823.4</ele>
        <time>2023-02-16T11:27:42Z</time>
      </trkpt>
      <trkpt lat="44.8484" lon="6.96676">
        <ele>2824.5</ele>
        <time>2023-02-16T11:27:48Z</time>
      </trkpt>
      <trkpt lat="44.84841" lon="6.96681">
        <ele>2825.5</ele>
        <time>2023-02-16T11:27:53Z</time>
      </trkpt>
      <trkpt lat="44.84841" lon="6.96683">
        <ele>2825.9</ele>
        <time>2023-02-16T11:27:55Z</time>
      </trkpt>
      <trkpt lat="44.84841" lon="6.96685">
        <ele>2826.2</ele>
        <time>2023-02-16T11:27:57Z</time>
      </trkpt>
      <trkpt lat="44.84841" lon="6.96686">
        <ele>2826.4</ele>
        <time>2023-02-16T11:27:58Z</time>
      </trkpt>
      <trkpt lat="44.84841" lon="6.96693">
        <ele>2827.7</ele>
        <time>2023-02-16T11:28:04Z</time>
      </trkpt>
      <trkpt lat="44.8484" lon="6.96697">
        <ele>2828.2</ele>
        <time>2023-02-16T11:28:08Z</time>
      </trkpt>
      <trkpt lat="44.8484" lon="6.967">
        <ele>2828.5</ele>
        <time>2023-02-16T11:28:11Z</time>
      </trkpt>
      <trkpt lat="44.8484" lon="6.96705">
        <ele>2828.9</ele>
        <time>2023-02-16T11:28:17Z</time>
      </trkpt>
      <trkpt lat="44.8484" lon="6.96707">
        <ele>2829</ele>
        <time>2023-02-16T11:28:21Z</time>
      </trkpt>
      <trkpt lat="44.84841" lon="6.96708">
        <ele>2829.1</ele>
        <time>2023-02-16T11:28:25Z</time>
      </trkpt>
      <trkpt lat="44.84841" lon="6.96713">
        <ele>2829.5</ele>
        <time>2023-02-16T11:28:30Z</time>
      </trkpt>
      <trkpt lat="44.84842" lon="6.96719">
        <ele>2829.8</ele>
        <time>2023-02-16T11:28:36Z</time>
      </trkpt>
      <trkpt lat="44.84841" lon="6.96726">
        <ele>2830.1</ele>
        <time>2023-02-16T11:28:42Z</time>
      </trkpt>
      <trkpt lat="44.84841" lon="6.96736">
        <ele>2829.8</ele>
        <time>2023-02-16T11:28:51Z</time>
      </trkpt>
      <trkpt lat="44.84841" lon="6.96738">
        <ele>2829.7</ele>
        <time>2023-02-16T11:28:52Z</time>
      </trkpt>
      <trkpt lat="44.84841" lon="6.96739">
        <ele>2829.7</ele>
        <time>2023-02-16T11:28:53Z</time>
      </trkpt>
      <trkpt lat="44.84843" lon="6.96745">
        <ele>2829.1</ele>
        <time>2023-02-16T11:29:02Z</time>
      </trkpt>
      <trkpt lat="44.84842" lon="6.96747">
        <ele>2829.2</ele>
        <time>2023-02-16T11:29:16Z</time>
      </trkpt>
      <trkpt lat="44.84843" lon="6.96748">
        <ele>2829</ele>
        <time>2023-02-16T11:29:17Z</time>
      </trkpt>
      <trkpt lat="44.84843" lon="6.9675">
        <ele>2828.9</ele>
        <time>2023-02-16T11:29:19Z</time>
      </trkpt>
      <trkpt lat="44.84842" lon="6.96757">
        <ele>2828.2</ele>
        <time>2023-02-16T11:29:24Z</time>
      </trkpt>
      <trkpt lat="44.84843" lon="6.96759">
        <ele>2827.6</ele>
        <time>2023-02-16T11:29:25Z</time>
      </trkpt>
      <trkpt lat="44.84843" lon="6.96769">
        <ele>2826.1</ele>
        <time>2023-02-16T11:29:33Z</time>
      </trkpt>
      <trkpt lat="44.84843" lon="6.96773">
        <ele>2825.5</ele>
        <time>2023-02-16T11:29:40Z</time>
      </trkpt>
      <trkpt lat="44.84843" lon="6.96774">
        <ele>2825.4</ele>
        <time>2023-02-16T11:29:57Z</time>
      </trkpt>
      <trkpt lat="44.84835" lon="6.96776">
        <ele>2828.4</ele>
        <time>2023-02-16T11:30:05Z</time>
      </trkpt>
      <trkpt lat="44.84834" lon="6.96776">
        <ele>2828.8</ele>
        <time>2023-02-16T11:30:06Z</time>
      </trkpt>
      <trkpt lat="44.84833" lon="6.96776">
        <ele>2829.2</ele>
        <time>2023-02-16T11:30:07Z</time>
      </trkpt>
      <trkpt lat="44.84832" lon="6.96776">
        <ele>2829.4</ele>
        <time>2023-02-16T11:30:08Z</time>
      </trkpt>
      <trkpt lat="44.84825" lon="6.96779">
        <ele>2830.8</ele>
        <time>2023-02-16T11:30:18Z</time>
      </trkpt>
      <trkpt lat="44.84823" lon="6.9678">
        <ele>2831.2</ele>
        <time>2023-02-16T11:30:20Z</time>
      </trkpt>
      <trkpt lat="44.84819" lon="6.96782">
        <ele>2832.1</ele>
        <time>2023-02-16T11:30:24Z</time>
      </trkpt>
      <trkpt lat="44.84811" lon="6.96785">
        <ele>2833.8</ele>
        <time>2023-02-16T11:30:33Z</time>
      </trkpt>
      <trkpt lat="44.848" lon="6.96795">
        <ele>2836.2</ele>
        <time>2023-02-16T11:30:45Z</time>
      </trkpt>
      <trkpt lat="44.84797" lon="6.96798">
        <ele>2836.8</ele>
        <time>2023-02-16T11:30:48Z</time>
      </trkpt>
      <trkpt lat="44.8479" lon="6.96802">
        <ele>2838.4</ele>
        <time>2023-02-16T11:30:55Z</time>
      </trkpt>
      <trkpt lat="44.84789" lon="6.96803">
        <ele>2838.6</ele>
        <time>2023-02-16T11:30:57Z</time>
      </trkpt>
      <trkpt lat="44.84783" lon="6.96811">
        <ele>2840</ele>
        <time>2023-02-16T11:31:07Z</time>
      </trkpt>
      <trkpt lat="44.84782" lon="6.96814">
        <ele>2840.3</ele>
        <time>2023-02-16T11:31:10Z</time>
      </trkpt>
      <trkpt lat="44.84781" lon="6.96815">
        <ele>2840.6</ele>
        <time>2023-02-16T11:31:12Z</time>
      </trkpt>
      <trkpt lat="44.84778" lon="6.96821">
        <ele>2841.5</ele>
        <time>2023-02-16T11:31:19Z</time>
      </trkpt>
      <trkpt lat="44.84775" lon="6.96824">
        <ele>2842.6</ele>
        <time>2023-02-16T11:31:23Z</time>
      </trkpt>
      <trkpt lat="44.84774" lon="6.96826">
        <ele>2843</ele>
        <time>2023-02-16T11:31:25Z</time>
      </trkpt>
      <trkpt lat="44.84772" lon="6.96829">
        <ele>2843.7</ele>
        <time>2023-02-16T11:31:29Z</time>
      </trkpt>
      <trkpt lat="44.84771" lon="6.9683">
        <ele>2844.1</ele>
        <time>2023-02-16T11:31:30Z</time>
      </trkpt>
      <trkpt lat="44.8477" lon="6.96832">
        <ele>2844.5</ele>
        <time>2023-02-16T11:31:34Z</time>
      </trkpt>
      <trkpt lat="44.84769" lon="6.96834">
        <ele>2844.8</ele>
        <time>2023-02-16T11:31:36Z</time>
      </trkpt>
      <trkpt lat="44.84766" lon="6.96837">
        <ele>2845.8</ele>
        <time>2023-02-16T11:31:40Z</time>
      </trkpt>
      <trkpt lat="44.84764" lon="6.9684">
        <ele>2846.5</ele>
        <time>2023-02-16T11:31:44Z</time>
      </trkpt>
      <trkpt lat="44.84764" lon="6.9684">
        <ele>2846.5</ele>
        <time>2023-02-16T11:31:45Z</time>
      </trkpt>
      <trkpt lat="44.8476" lon="6.96844">
        <ele>2847.9</ele>
        <time>2023-02-16T11:31:51Z</time>
      </trkpt>
      <trkpt lat="44.84759" lon="6.96844">
        <ele>2848.2</ele>
        <time>2023-02-16T11:31:52Z</time>
      </trkpt>
      <trkpt lat="44.84756" lon="6.96849">
        <ele>2849.4</ele>
        <time>2023-02-16T11:32:00Z</time>
      </trkpt>
      <trkpt lat="44.84755" lon="6.9685">
        <ele>2849.8</ele>
        <time>2023-02-16T11:32:01Z</time>
      </trkpt>
      <trkpt lat="44.84754" lon="6.96853">
        <ele>2850.2</ele>
        <time>2023-02-16T11:32:04Z</time>
      </trkpt>
      <trkpt lat="44.84752" lon="6.96858">
        <ele>2851.1</ele>
        <time>2023-02-16T11:32:12Z</time>
      </trkpt>
      <trkpt lat="44.84751" lon="6.96855">
        <ele>2851.4</ele>
        <time>2023-02-16T11:32:22Z</time>
      </trkpt>
      <trkpt lat="44.84751" lon="6.96854">
        <ele>2851.4</ele>
        <time>2023-02-16T11:32:23Z</time>
      </trkpt>
      <trkpt lat="44.84748" lon="6.96848">
        <ele>2852.2</ele>
        <time>2023-02-16T11:32:32Z</time>
      </trkpt>
      <trkpt lat="44.84748" lon="6.96847">
        <ele>2852.1</ele>
        <time>2023-02-16T11:32:36Z</time>
      </trkpt>
      <trkpt lat="44.8475" lon="6.96848">
        <ele>2851.5</ele>
        <time>2023-02-16T11:32:49Z</time>
      </trkpt>
      <trkpt lat="44.84748" lon="6.96844">
        <ele>2852</ele>
        <time>2023-02-16T11:32:56Z</time>
      </trkpt>
      <trkpt lat="44.84748" lon="6.96844">
        <ele>2852</ele>
        <time>2023-02-16T11:32:57Z</time>
      </trkpt>
      <trkpt lat="44.84744" lon="6.9684">
        <ele>2852.8</ele>
        <time>2023-02-16T11:33:03Z</time>
      </trkpt>
      <trkpt lat="44.84743" lon="6.96837">
        <ele>2852.8</ele>
        <time>2023-02-16T11:33:08Z</time>
      </trkpt>
      <trkpt lat="44.84743" lon="6.96836">
        <ele>2852.7</ele>
        <time>2023-02-16T11:33:09Z</time>
      </trkpt>
      <trkpt lat="44.84741" lon="6.96834">
        <ele>2853</ele>
        <time>2023-02-16T11:33:15Z</time>
      </trkpt>
      <trkpt lat="44.84741" lon="6.96835">
        <ele>2853.1</ele>
        <time>2023-02-16T11:33:17Z</time>
      </trkpt>
      <trkpt lat="44.8474" lon="6.96842">
        <ele>2854</ele>
        <time>2023-02-16T11:33:24Z</time>
      </trkpt>
      <trkpt lat="44.84739" lon="6.96846">
        <ele>2854.7</ele>
        <time>2023-02-16T11:33:28Z</time>
      </trkpt>
      <trkpt lat="44.84737" lon="6.9685">
        <ele>2855.8</ele>
        <time>2023-02-16T11:33:34Z</time>
      </trkpt>
      <trkpt lat="44.84735" lon="6.96854">
        <ele>2857</ele>
        <time>2023-02-16T11:33:38Z</time>
      </trkpt>
      <trkpt lat="44.84734" lon="6.96857">
        <ele>2857.8</ele>
        <time>2023-02-16T11:33:41Z</time>
      </trkpt>
      <trkpt lat="44.84731" lon="6.96861">
        <ele>2859.5</ele>
        <time>2023-02-16T11:33:46Z</time>
      </trkpt>
      <trkpt lat="44.84731" lon="6.96862">
        <ele>2859.5</ele>
        <time>2023-02-16T11:33:50Z</time>
      </trkpt>
      <trkpt lat="44.8473" lon="6.96862">
        <ele>2859.9</ele>
        <time>2023-02-16T11:33:55Z</time>
      </trkpt>
      <trkpt lat="44.84729" lon="6.96858">
        <ele>2859.8</ele>
        <time>2023-02-16T11:34:00Z</time>
      </trkpt>
      <trkpt lat="44.84729" lon="6.96857">
        <ele>2859.6</ele>
        <time>2023-02-16T11:34:03Z</time>
      </trkpt>
      <trkpt lat="44.84727" lon="6.96854">
        <ele>2859.8</ele>
        <time>2023-02-16T11:34:08Z</time>
      </trkpt>
      <trkpt lat="44.84726" lon="6.96854">
        <ele>2860.1</ele>
        <time>2023-02-16T11:34:11Z</time>
      </trkpt>
      <trkpt lat="44.84722" lon="6.9686">
        <ele>2862.7</ele>
        <time>2023-02-16T11:34:20Z</time>
      </trkpt>
      <trkpt lat="44.84722" lon="6.96861">
        <ele>2862.9</ele>
        <time>2023-02-16T11:34:21Z</time>
      </trkpt>
      <trkpt lat="44.8472" lon="6.96863">
        <ele>2862.1</ele>
        <time>2023-02-16T11:34:25Z</time>
      </trkpt>
      <trkpt lat="44.8472" lon="6.96865">
        <ele>2862.2</ele>
        <time>2023-02-16T11:34:28Z</time>
      </trkpt>
      <trkpt lat="44.8472" lon="6.96867">
        <ele>2862.2</ele>
        <time>2023-02-16T11:34:32Z</time>
      </trkpt>
      <trkpt lat="44.84714" lon="6.96867">
        <ele>2860.1</ele>
        <time>2023-02-16T11:34:38Z</time>
      </trkpt>
      <trkpt lat="44.84712" lon="6.96865">
        <ele>2859.1</ele>
        <time>2023-02-16T11:34:41Z</time>
      </trkpt>
      <trkpt lat="44.84712" lon="6.96865">
        <ele>2859.1</ele>
        <time>2023-02-16T11:34:48Z</time>
      </trkpt>
      <trkpt lat="44.84708" lon="6.96867">
        <ele>2857.9</ele>
        <time>2023-02-16T11:34:58Z</time>
      </trkpt>
      <trkpt lat="44.84708" lon="6.96867">
        <ele>2857.9</ele>
        <time>2023-02-16T11:34:59Z</time>
      </trkpt>
      <trkpt lat="44.84707" lon="6.96867">
        <ele>2857.6</ele>
        <time>2023-02-16T11:35:03Z</time>
      </trkpt>
      <trkpt lat="44.84707" lon="6.96866">
        <ele>2857.4</ele>
        <time>2023-02-16T11:35:08Z</time>
      </trkpt>
      <trkpt lat="44.84707" lon="6.96865">
        <ele>2857.2</ele>
        <time>2023-02-16T11:35:19Z</time>
      </trkpt>
      <trkpt lat="44.84708" lon="6.96864">
        <ele>2857.4</ele>
        <time>2023-02-16T11:35:31Z</time>
      </trkpt>
      <trkpt lat="44.84708" lon="6.96863">
        <ele>2857.2</ele>
        <time>2023-02-16T11:35:37Z</time>
      </trkpt>
      <trkpt lat="44.84708" lon="6.9686">
        <ele>2856.6</ele>
        <time>2023-02-16T11:35:43Z</time>
      </trkpt>
      <trkpt lat="44.8471" lon="6.96856">
        <ele>2856.5</ele>
        <time>2023-02-16T11:35:53Z</time>
      </trkpt>
      <trkpt lat="44.84708" lon="6.96848">
        <ele>2853.5</ele>
        <time>2023-02-16T11:36:02Z</time>
      </trkpt>
      <trkpt lat="44.84708" lon="6.96844">
        <ele>2852.5</ele>
        <time>2023-02-16T11:36:10Z</time>
      </trkpt>
      <trkpt lat="44.84707" lon="6.96844">
        <ele>2852.1</ele>
        <time>2023-02-16T11:36:14Z</time>
      </trkpt>
      <trkpt lat="44.84707" lon="6.96844">
        <ele>2852.1</ele>
        <time>2023-02-16T11:36:21Z</time>
      </trkpt>
      <trkpt lat="44.84708" lon="6.96843">
        <ele>2852.3</ele>
        <time>2023-02-16T11:36:27Z</time>
      </trkpt>
      <trkpt lat="44.84707" lon="6.96844">
        <ele>2852.1</ele>
        <time>2023-02-16T11:36:37Z</time>
      </trkpt>
      <trkpt lat="44.84708" lon="6.96845">
        <ele>2852.8</ele>
        <time>2023-02-16T11:36:40Z</time>
      </trkpt>
      <trkpt lat="44.84709" lon="6.96845">
        <ele>2853.3</ele>
        <time>2023-02-16T11:36:53Z</time>
      </trkpt>
      <trkpt lat="44.84709" lon="6.96846">
        <ele>2853.5</ele>
        <time>2023-02-16T11:37:09Z</time>
      </trkpt>
      <trkpt lat="44.84708" lon="6.96847">
        <ele>2853.3</ele>
        <time>2023-02-16T11:37:19Z</time>
      </trkpt>
      <trkpt lat="44.84709" lon="6.96847">
        <ele>2853.8</ele>
        <time>2023-02-16T11:37:34Z</time>
      </trkpt>
      <trkpt lat="44.8471" lon="6.96847">
        <ele>2854.2</ele>
        <time>2023-02-16T11:37:41Z</time>
      </trkpt>
      <trkpt lat="44.84709" lon="6.9685">
        <ele>2854.5</ele>
        <time>2023-02-16T11:37:47Z</time>
      </trkpt>
      <trkpt lat="44.8471" lon="6.96859">
        <ele>2857.2</ele>
        <time>2023-02-16T11:37:58Z</time>
      </trkpt>
      <trkpt lat="44.84709" lon="6.96866">
        <ele>2858.1</ele>
        <time>2023-02-16T11:38:08Z</time>
      </trkpt>
      <trkpt lat="44.8471" lon="6.96865">
        <ele>2858.3</ele>
        <time>2023-02-16T11:38:18Z</time>
      </trkpt>
      <trkpt lat="44.8471" lon="6.96865">
        <ele>2858.3</ele>
        <time>2023-02-16T11:38:19Z</time>
      </trkpt>
      <trkpt lat="44.8471" lon="6.96864">
        <ele>2858.2</ele>
        <time>2023-02-16T11:38:35Z</time>
      </trkpt>
      <trkpt lat="44.8471" lon="6.96864">
        <ele>2858.2</ele>
        <time>2023-02-16T11:38:50Z</time>
      </trkpt>
      <trkpt lat="44.84711" lon="6.96865">
        <ele>2858.7</ele>
        <time>2023-02-16T11:39:04Z</time>
      </trkpt>
      <trkpt lat="44.84712" lon="6.96863">
        <ele>2858.8</ele>
        <time>2023-02-16T11:39:17Z</time>
      </trkpt>
      <trkpt lat="44.84711" lon="6.96863">
        <ele>2858.4</ele>
        <time>2023-02-16T11:39:31Z</time>
      </trkpt>
      <trkpt lat="44.84707" lon="6.96863">
        <ele>2856.8</ele>
        <time>2023-02-16T11:39:46Z</time>
      </trkpt>
      <trkpt lat="44.84707" lon="6.96864">
        <ele>2857</ele>
        <time>2023-02-16T11:39:59Z</time>
      </trkpt>
      <trkpt lat="44.84707" lon="6.96864">
        <ele>2857</ele>
        <time>2023-02-16T11:40:04Z</time>
      </trkpt>
      <trkpt lat="44.84707" lon="6.96864">
        <ele>2857</ele>
        <time>2023-02-16T11:40:14Z</time>
      </trkpt>
      <trkpt lat="44.84707" lon="6.96863">
        <ele>2856.8</ele>
        <time>2023-02-16T11:40:31Z</time>
      </trkpt>
      <trkpt lat="44.84707" lon="6.96864">
        <ele>2857</ele>
        <time>2023-02-16T11:40:40Z</time>
      </trkpt>
      <trkpt lat="44.84707" lon="6.96867">
        <ele>2857.6</ele>
        <time>2023-02-16T11:40:43Z</time>
      </trkpt>
      <trkpt lat="44.84707" lon="6.96871">
        <ele>2858.4</ele>
        <time>2023-02-16T11:40:48Z</time>
      </trkpt>
      <trkpt lat="44.84705" lon="6.96873">
        <ele>2858.2</ele>
        <time>2023-02-16T11:40:52Z</time>
      </trkpt>
      <trkpt lat="44.84705" lon="6.96874">
        <ele>2858.4</ele>
        <time>2023-02-16T11:40:54Z</time>
      </trkpt>
      <trkpt lat="44.84704" lon="6.96877">
        <ele>2858.9</ele>
        <time>2023-02-16T11:41:00Z</time>
      </trkpt>
      <trkpt lat="44.84704" lon="6.96878">
        <ele>2859.1</ele>
        <time>2023-02-16T11:41:03Z</time>
      </trkpt>
      <trkpt lat="44.84703" lon="6.96881">
        <ele>2859.7</ele>
        <time>2023-02-16T11:41:08Z</time>
      </trkpt>
      <trkpt lat="44.84702" lon="6.96885">
        <ele>2860.5</ele>
        <time>2023-02-16T11:41:14Z</time>
      </trkpt>
      <trkpt lat="44.847" lon="6.9689">
        <ele>2861.6</ele>
        <time>2023-02-16T11:41:24Z</time>
      </trkpt>
      <trkpt lat="44.84699" lon="6.96893">
        <ele>2862.1</ele>
        <time>2023-02-16T11:41:31Z</time>
      </trkpt>
      <trkpt lat="44.84698" lon="6.96895">
        <ele>2862.4</ele>
        <time>2023-02-16T11:41:35Z</time>
      </trkpt>
      <trkpt lat="44.84697" lon="6.96897">
        <ele>2862.8</ele>
        <time>2023-02-16T11:41:47Z</time>
      </trkpt>
      <trkpt lat="44.84697" lon="6.96897">
        <ele>2862.8</ele>
        <time>2023-02-16T11:41:50Z</time>
      </trkpt>
      <trkpt lat="44.84698" lon="6.969">
        <ele>2863.3</ele>
        <time>2023-02-16T11:42:01Z</time>
      </trkpt>
      <trkpt lat="44.84698" lon="6.96902">
        <ele>2863.7</ele>
        <time>2023-02-16T11:42:11Z</time>
      </trkpt>
      <trkpt lat="44.84698" lon="6.96902">
        <ele>2863.7</ele>
        <time>2023-02-16T11:42:13Z</time>
      </trkpt>
      <trkpt lat="44.84699" lon="6.96908">
        <ele>2864.8</ele>
        <time>2023-02-16T11:42:23Z</time>
      </trkpt>
      <trkpt lat="44.84699" lon="6.96914">
        <ele>2865.9</ele>
        <time>2023-02-16T11:42:34Z</time>
      </trkpt>
      <trkpt lat="44.84698" lon="6.96914">
        <ele>2866</ele>
        <time>2023-02-16T11:42:36Z</time>
      </trkpt>
      <trkpt lat="44.84697" lon="6.96916">
        <ele>2866.5</ele>
        <time>2023-02-16T11:42:43Z</time>
      </trkpt>
      <trkpt lat="44.84697" lon="6.96916">
        <ele>2866.5</ele>
        <time>2023-02-16T11:42:45Z</time>
      </trkpt>
      <trkpt lat="44.84697" lon="6.96921">
        <ele>2867.3</ele>
        <time>2023-02-16T11:42:56Z</time>
      </trkpt>
      <trkpt lat="44.84698" lon="6.96922">
        <ele>2867.3</ele>
        <time>2023-02-16T11:43:09Z</time>
      </trkpt>
      <trkpt lat="44.84698" lon="6.96924">
        <ele>2867.6</ele>
        <time>2023-02-16T11:43:26Z</time>
      </trkpt>
      <trkpt lat="44.84698" lon="6.96924">
        <ele>2867.6</ele>
        <time>2023-02-16T11:43:27Z</time>
      </trkpt>
      <trkpt lat="44.84696" lon="6.96925">
        <ele>2868.2</ele>
        <time>2023-02-16T11:43:37Z</time>
      </trkpt>
      <trkpt lat="44.84697" lon="6.96928">
        <ele>2868.4</ele>
        <time>2023-02-16T11:43:46Z</time>
      </trkpt>
      <trkpt lat="44.84697" lon="6.96931">
        <ele>2868.9</ele>
        <time>2023-02-16T11:43:49Z</time>
      </trkpt>
      <trkpt lat="44.84694" lon="6.9694">
        <ele>2871</ele>
        <time>2023-02-16T11:44:01Z</time>
      </trkpt>
      <trkpt lat="44.84693" lon="6.96943">
        <ele>2871.1</ele>
        <time>2023-02-16T11:44:12Z</time>
      </trkpt>
      <trkpt lat="44.84693" lon="6.96944">
        <ele>2871.3</ele>
        <time>2023-02-16T11:44:28Z</time>
      </trkpt>
      <trkpt lat="44.84694" lon="6.96943">
        <ele>2871.5</ele>
        <time>2023-02-16T11:44:41Z</time>
      </trkpt>
      <trkpt lat="44.84695" lon="6.96949">
        <ele>2871.8</ele>
        <time>2023-02-16T11:44:51Z</time>
      </trkpt>
      <trkpt lat="44.84693" lon="6.96952">
        <ele>2871.4</ele>
        <time>2023-02-16T11:44:58Z</time>
      </trkpt>
      <trkpt lat="44.84692" lon="6.96954">
        <ele>2870.9</ele>
        <time>2023-02-16T11:45:02Z</time>
      </trkpt>
      <trkpt lat="44.84692" lon="6.96954">
        <ele>2870.9</ele>
        <time>2023-02-16T11:45:03Z</time>
      </trkpt>
      <trkpt lat="44.84692" lon="6.96955">
        <ele>2870.9</ele>
        <time>2023-02-16T11:45:08Z</time>
      </trkpt>
      <trkpt lat="44.84692" lon="6.96956">
        <ele>2870.9</ele>
        <time>2023-02-16T11:45:14Z</time>
      </trkpt>
      <trkpt lat="44.84691" lon="6.96956">
        <ele>2870.5</ele>
        <time>2023-02-16T11:45:19Z</time>
      </trkpt>
      <trkpt lat="44.8469" lon="6.96958">
        <ele>2870</ele>
        <time>2023-02-16T11:45:26Z</time>
      </trkpt>
      <trkpt lat="44.8469" lon="6.9696">
        <ele>2870</ele>
        <time>2023-02-16T11:45:39Z</time>
      </trkpt>
      <trkpt lat="44.8469" lon="6.9696">
        <ele>2870</ele>
        <time>2023-02-16T11:45:42Z</time>
      </trkpt>
      <trkpt lat="44.8469" lon="6.9696">
        <ele>2870</ele>
        <time>2023-02-16T11:45:55Z</time>
      </trkpt>
      <trkpt lat="44.84689" lon="6.96962">
        <ele>2869.5</ele>
        <time>2023-02-16T11:46:08Z</time>
      </trkpt>
      <trkpt lat="44.84689" lon="6.96962">
        <ele>2869.5</ele>
        <time>2023-02-16T11:46:09Z</time>
      </trkpt>
      <trkpt lat="44.8469" lon="6.9696">
        <ele>2870</ele>
        <time>2023-02-16T11:46:21Z</time>
      </trkpt>
      <trkpt lat="44.8469" lon="6.9696">
        <ele>2870</ele>
        <time>2023-02-16T11:46:24Z</time>
      </trkpt>
      <trkpt lat="44.8469" lon="6.9696">
        <ele>2870</ele>
        <time>2023-02-16T11:46:32Z</time>
      </trkpt>
      <trkpt lat="44.84689" lon="6.96963">
        <ele>2869.5</ele>
        <time>2023-02-16T11:46:40Z</time>
      </trkpt>
      <trkpt lat="44.84687" lon="6.96964">
        <ele>2868.6</ele>
        <time>2023-02-16T11:46:53Z</time>
      </trkpt>
      <trkpt lat="44.84687" lon="6.96964">
        <ele>2868.6</ele>
        <time>2023-02-16T11:46:54Z</time>
      </trkpt>
      <trkpt lat="44.84688" lon="6.96965">
        <ele>2869</ele>
        <time>2023-02-16T11:47:03Z</time>
      </trkpt>
      <trkpt lat="44.84688" lon="6.96965">
        <ele>2869</ele>
        <time>2023-02-16T11:47:07Z</time>
      </trkpt>
      <trkpt lat="44.84688" lon="6.96965">
        <ele>2869</ele>
        <time>2023-02-16T11:47:17Z</time>
      </trkpt>
      <trkpt lat="44.84688" lon="6.96965">
        <ele>2869</ele>
        <time>2023-02-16T11:47:23Z</time>
      </trkpt>
      <trkpt lat="44.84688" lon="6.96964">
        <ele>2869.1</ele>
        <time>2023-02-16T11:47:34Z</time>
      </trkpt>
      <trkpt lat="44.84688" lon="6.96964">
        <ele>2869.1</ele>
        <time>2023-02-16T11:47:35Z</time>
      </trkpt>
      <trkpt lat="44.84688" lon="6.96963">
        <ele>2869.1</ele>
        <time>2023-02-16T11:47:49Z</time>
      </trkpt>
      <trkpt lat="44.84688" lon="6.96964">
        <ele>2869.1</ele>
        <time>2023-02-16T11:48:02Z</time>
      </trkpt>
      <trkpt lat="44.84688" lon="6.96963">
        <ele>2869.1</ele>
        <time>2023-02-16T11:48:07Z</time>
      </trkpt>
      <trkpt lat="44.84688" lon="6.96963">
        <ele>2869.1</ele>
        <time>2023-02-16T11:48:09Z</time>
      </trkpt>
      <trkpt lat="44.84688" lon="6.96964">
        <ele>2869.1</ele>
        <time>2023-02-16T11:48:23Z</time>
      </trkpt>
      <trkpt lat="44.84688" lon="6.96964">
        <ele>2869.1</ele>
        <time>2023-02-16T11:48:38Z</time>
      </trkpt>
      <trkpt lat="44.84688" lon="6.96964">
        <ele>2869.1</ele>
        <time>2023-02-16T11:48:55Z</time>
      </trkpt>
      <trkpt lat="44.84688" lon="6.96964">
        <ele>2869.1</ele>
        <time>2023-02-16T11:49:08Z</time>
      </trkpt>
      <trkpt lat="44.84688" lon="6.96965">
        <ele>2869</ele>
        <time>2023-02-16T11:49:21Z</time>
      </trkpt>
      <trkpt lat="44.84688" lon="6.96966">
        <ele>2869</ele>
        <time>2023-02-16T11:49:27Z</time>
      </trkpt>
      <trkpt lat="44.84687" lon="6.96965">
        <ele>2868.6</ele>
        <time>2023-02-16T11:49:30Z</time>
        <extensions>
          <visugpx:TrkExtension xmlns:visugpx="https://www.visugpx.com/editgpx/">
            <visugpx:etape>1</visugpx:etape>
            </visugpx:TrkExtension>
        </extensions>
      </trkpt>
      <trkpt lat="44.84687" lon="6.96963">
        <ele>2868.6</ele>
        <time>2023-02-16T11:49:34Z</time>
      </trkpt>
      <trkpt lat="44.84687" lon="6.96962">
        <ele>2868.6</ele>
        <time>2023-02-16T11:49:37Z</time>
      </trkpt>
      <trkpt lat="44.84689" lon="6.96958">
        <ele>2869.6</ele>
        <time>2023-02-16T11:49:47Z</time>
      </trkpt>
      <trkpt lat="44.84691" lon="6.96957">
        <ele>2870.5</ele>
        <time>2023-02-16T11:50:00Z</time>
      </trkpt>
      <trkpt lat="44.8469" lon="6.96957">
        <ele>2870</ele>
        <time>2023-02-16T11:50:14Z</time>
      </trkpt>
      <trkpt lat="44.8469" lon="6.96956">
        <ele>2870</ele>
        <time>2023-02-16T11:50:17Z</time>
      </trkpt>
      <trkpt lat="44.84691" lon="6.96956">
        <ele>2870.5</ele>
        <time>2023-02-16T11:50:26Z</time>
      </trkpt>
      <trkpt lat="44.84691" lon="6.96956">
        <ele>2870.5</ele>
        <time>2023-02-16T11:50:41Z</time>
      </trkpt>
      <trkpt lat="44.84691" lon="6.96956">
        <ele>2870.5</ele>
        <time>2023-02-16T11:50:43Z</time>
      </trkpt>
      <trkpt lat="44.84691" lon="6.96956">
        <ele>2870.5</ele>
        <time>2023-02-16T11:51:01Z</time>
      </trkpt>
      <trkpt lat="44.84691" lon="6.96956">
        <ele>2870.5</ele>
        <time>2023-02-16T11:51:08Z</time>
      </trkpt>
      <trkpt lat="44.84691" lon="6.96956">
        <ele>2870.5</ele>
        <time>2023-02-16T11:51:10Z</time>
      </trkpt>
      <trkpt lat="44.84692" lon="6.96954">
        <ele>2870.9</ele>
        <time>2023-02-16T11:51:21Z</time>
      </trkpt>
      <trkpt lat="44.84692" lon="6.96953">
        <ele>2870.9</ele>
        <time>2023-02-16T11:51:24Z</time>
      </trkpt>
      <trkpt lat="44.84694" lon="6.9695">
        <ele>2871.8</ele>
        <time>2023-02-16T11:51:31Z</time>
      </trkpt>
      <trkpt lat="44.84694" lon="6.96944">
        <ele>2871.7</ele>
        <time>2023-02-16T11:51:41Z</time>
      </trkpt>
      <trkpt lat="44.84697" lon="6.96937">
        <ele>2869.9</ele>
        <time>2023-02-16T11:51:50Z</time>
      </trkpt>
      <trkpt lat="44.84698" lon="6.96936">
        <ele>2869.4</ele>
        <time>2023-02-16T11:51:51Z</time>
      </trkpt>
      <trkpt lat="44.847" lon="6.96934">
        <ele>2868.6</ele>
        <time>2023-02-16T11:51:58Z</time>
      </trkpt>
      <trkpt lat="44.84702" lon="6.96932">
        <ele>2867.8</ele>
        <time>2023-02-16T11:52:01Z</time>
      </trkpt>
      <trkpt lat="44.84704" lon="6.96923">
        <ele>2866.3</ele>
        <time>2023-02-16T11:52:11Z</time>
      </trkpt>
      <trkpt lat="44.84703" lon="6.96917">
        <ele>2865.8</ele>
        <time>2023-02-16T11:52:23Z</time>
      </trkpt>
      <trkpt lat="44.84702" lon="6.96909">
        <ele>2864.7</ele>
        <time>2023-02-16T11:52:35Z</time>
      </trkpt>
      <trkpt lat="44.84702" lon="6.96909">
        <ele>2864.7</ele>
        <time>2023-02-16T11:52:36Z</time>
      </trkpt>
      <trkpt lat="44.84702" lon="6.96904">
        <ele>2863.9</ele>
        <time>2023-02-16T11:52:46Z</time>
      </trkpt>
      <trkpt lat="44.84703" lon="6.969">
        <ele>2863.3</ele>
        <time>2023-02-16T11:52:51Z</time>
      </trkpt>
      <trkpt lat="44.84703" lon="6.969">
        <ele>2863.3</ele>
        <time>2023-02-16T11:52:52Z</time>
      </trkpt>
      <trkpt lat="44.84705" lon="6.96893">
        <ele>2862.3</ele>
        <time>2023-02-16T11:53:04Z</time>
      </trkpt>
      <trkpt lat="44.84703" lon="6.96884">
        <ele>2860.4</ele>
        <time>2023-02-16T11:53:17Z</time>
      </trkpt>
      <trkpt lat="44.84702" lon="6.96883">
        <ele>2860</ele>
        <time>2023-02-16T11:53:19Z</time>
      </trkpt>
      <trkpt lat="44.84701" lon="6.9688">
        <ele>2859</ele>
        <time>2023-02-16T11:53:25Z</time>
      </trkpt>
      <trkpt lat="44.84701" lon="6.9688">
        <ele>2859</ele>
        <time>2023-02-16T11:53:29Z</time>
      </trkpt>
      <trkpt lat="44.84703" lon="6.96876">
        <ele>2858.4</ele>
        <time>2023-02-16T11:53:37Z</time>
      </trkpt>
      <trkpt lat="44.84704" lon="6.96874">
        <ele>2858.2</ele>
        <time>2023-02-16T11:53:41Z</time>
      </trkpt>
      <trkpt lat="44.84704" lon="6.96873">
        <ele>2857.9</ele>
        <time>2023-02-16T11:53:43Z</time>
      </trkpt>
      <trkpt lat="44.84705" lon="6.96872">
        <ele>2858</ele>
        <time>2023-02-16T11:53:47Z</time>
      </trkpt>
      <trkpt lat="44.84706" lon="6.96868">
        <ele>2857.4</ele>
        <time>2023-02-16T11:53:53Z</time>
      </trkpt>
      <trkpt lat="44.84707" lon="6.96865">
        <ele>2857.2</ele>
        <time>2023-02-16T11:54:05Z</time>
      </trkpt>
      <trkpt lat="44.84708" lon="6.96864">
        <ele>2857.4</ele>
        <time>2023-02-16T11:54:20Z</time>
      </trkpt>
      <trkpt lat="44.84708" lon="6.96864">
        <ele>2857.4</ele>
        <time>2023-02-16T11:54:21Z</time>
      </trkpt>
      <trkpt lat="44.84707" lon="6.96863">
        <ele>2856.8</ele>
        <time>2023-02-16T11:54:39Z</time>
      </trkpt>
      <trkpt lat="44.84707" lon="6.96864">
        <ele>2857</ele>
        <time>2023-02-16T11:54:57Z</time>
      </trkpt>
      <trkpt lat="44.84707" lon="6.96864">
        <ele>2857</ele>
        <time>2023-02-16T11:55:14Z</time>
      </trkpt>
      <trkpt lat="44.84707" lon="6.96866">
        <ele>2857.4</ele>
        <time>2023-02-16T11:55:31Z</time>
      </trkpt>
      <trkpt lat="44.84707" lon="6.96866">
        <ele>2857.4</ele>
        <time>2023-02-16T11:55:41Z</time>
      </trkpt>
      <trkpt lat="44.84707" lon="6.96867">
        <ele>2857.6</ele>
        <time>2023-02-16T11:55:44Z</time>
      </trkpt>
      <trkpt lat="44.84707" lon="6.96867">
        <ele>2857.6</ele>
        <time>2023-02-16T11:55:46Z</time>
      </trkpt>
      <trkpt lat="44.84706" lon="6.96864">
        <ele>2856.6</ele>
        <time>2023-02-16T11:55:48Z</time>
      </trkpt>
      <trkpt lat="44.84707" lon="6.96863">
        <ele>2856.8</ele>
        <time>2023-02-16T11:55:55Z</time>
      </trkpt>
      <trkpt lat="44.84707" lon="6.96863">
        <ele>2856.8</ele>
        <time>2023-02-16T11:56:03Z</time>
      </trkpt>
      <trkpt lat="44.84708" lon="6.96864">
        <ele>2857.4</ele>
        <time>2023-02-16T11:56:09Z</time>
      </trkpt>
      <trkpt lat="44.84708" lon="6.96864">
        <ele>2857.4</ele>
        <time>2023-02-16T11:56:13Z</time>
      </trkpt>
      <trkpt lat="44.84708" lon="6.96864">
        <ele>2857.4</ele>
        <time>2023-02-16T11:56:21Z</time>
      </trkpt>
      <trkpt lat="44.84708" lon="6.96864">
        <ele>2857.4</ele>
        <time>2023-02-16T11:56:36Z</time>
      </trkpt>
      <trkpt lat="44.84708" lon="6.96864">
        <ele>2857.4</ele>
        <time>2023-02-16T11:56:37Z</time>
      </trkpt>
      <trkpt lat="44.84708" lon="6.96863">
        <ele>2857.2</ele>
        <time>2023-02-16T11:56:51Z</time>
      </trkpt>
      <trkpt lat="44.84709" lon="6.96861">
        <ele>2857.3</ele>
        <time>2023-02-16T11:57:05Z</time>
      </trkpt>
      <trkpt lat="44.84709" lon="6.96861">
        <ele>2857.3</ele>
        <time>2023-02-16T11:57:06Z</time>
      </trkpt>
      <trkpt lat="44.84708" lon="6.96862">
        <ele>2857</ele>
        <time>2023-02-16T11:57:16Z</time>
      </trkpt>
      <trkpt lat="44.84708" lon="6.96862">
        <ele>2857</ele>
        <time>2023-02-16T11:57:31Z</time>
      </trkpt>
      <trkpt lat="44.84708" lon="6.96861">
        <ele>2856.8</ele>
        <time>2023-02-16T11:57:35Z</time>
      </trkpt>
      <trkpt lat="44.84708" lon="6.96862">
        <ele>2857</ele>
        <time>2023-02-16T11:57:46Z</time>
      </trkpt>
      <trkpt lat="44.84709" lon="6.96862">
        <ele>2857.4</ele>
        <time>2023-02-16T11:58:02Z</time>
      </trkpt>
      <trkpt lat="44.84708" lon="6.96861">
        <ele>2856.8</ele>
        <time>2023-02-16T11:58:21Z</time>
      </trkpt>
      <trkpt lat="44.84707" lon="6.96862">
        <ele>2856.6</ele>
        <time>2023-02-16T11:58:30Z</time>
      </trkpt>
      <trkpt lat="44.84707" lon="6.96862">
        <ele>2856.6</ele>
        <time>2023-02-16T11:58:36Z</time>
      </trkpt>
      <trkpt lat="44.84707" lon="6.96862">
        <ele>2856.6</ele>
        <time>2023-02-16T11:58:51Z</time>
      </trkpt>
      <trkpt lat="44.84708" lon="6.96862">
        <ele>2857</ele>
        <time>2023-02-16T11:58:52Z</time>
      </trkpt>
      <trkpt lat="44.84708" lon="6.96863">
        <ele>2857.2</ele>
        <time>2023-02-16T11:59:05Z</time>
      </trkpt>
      <trkpt lat="44.84707" lon="6.96863">
        <ele>2856.8</ele>
        <time>2023-02-16T11:59:22Z</time>
      </trkpt>
      <trkpt lat="44.84708" lon="6.96864">
        <ele>2857.4</ele>
        <time>2023-02-16T11:59:35Z</time>
      </trkpt>
      <trkpt lat="44.84708" lon="6.96864">
        <ele>2857.4</ele>
        <time>2023-02-16T11:59:36Z</time>
      </trkpt>
      <trkpt lat="44.84709" lon="6.96862">
        <ele>2857.4</ele>
        <time>2023-02-16T11:59:45Z</time>
      </trkpt>
      <trkpt lat="44.8471" lon="6.9686">
        <ele>2857.4</ele>
        <time>2023-02-16T11:59:51Z</time>
      </trkpt>
      <trkpt lat="44.8471" lon="6.9686">
        <ele>2857.4</ele>
        <time>2023-02-16T11:59:56Z</time>
      </trkpt>
      <trkpt lat="44.84711" lon="6.9686">
        <ele>2857.9</ele>
        <time>2023-02-16T12:00:03Z</time>
      </trkpt>
      <trkpt lat="44.84711" lon="6.96861">
        <ele>2858.1</ele>
        <time>2023-02-16T12:00:12Z</time>
      </trkpt>
      <trkpt lat="44.84712" lon="6.9686">
        <ele>2858.3</ele>
        <time>2023-02-16T12:00:25Z</time>
      </trkpt>
      <trkpt lat="44.84711" lon="6.9686">
        <ele>2857.9</ele>
        <time>2023-02-16T12:00:27Z</time>
      </trkpt>
      <trkpt lat="44.84711" lon="6.96861">
        <ele>2858.1</ele>
        <time>2023-02-16T12:00:38Z</time>
      </trkpt>
      <trkpt lat="44.84711" lon="6.9686">
        <ele>2857.9</ele>
        <time>2023-02-16T12:00:49Z</time>
      </trkpt>
      <trkpt lat="44.84711" lon="6.96858">
        <ele>2857.4</ele>
        <time>2023-02-16T12:00:59Z</time>
      </trkpt>
      <trkpt lat="44.84713" lon="6.96854">
        <ele>2857.3</ele>
        <time>2023-02-16T12:01:09Z</time>
      </trkpt>
      <trkpt lat="44.84714" lon="6.96854">
        <ele>2857.8</ele>
        <time>2023-02-16T12:01:12Z</time>
      </trkpt>
      <trkpt lat="44.84715" lon="6.96854">
        <ele>2858.2</ele>
        <time>2023-02-16T12:01:13Z</time>
      </trkpt>
      <trkpt lat="44.84717" lon="6.96852">
        <ele>2858.7</ele>
        <time>2023-02-16T12:01:16Z</time>
      </trkpt>
      <trkpt lat="44.84718" lon="6.96851">
        <ele>2858.9</ele>
        <time>2023-02-16T12:01:19Z</time>
      </trkpt>
      <trkpt lat="44.84718" lon="6.9685">
        <ele>2858.7</ele>
        <time>2023-02-16T12:01:20Z</time>
      </trkpt>
      <trkpt lat="44.84722" lon="6.96851">
        <ele>2860.7</ele>
        <time>2023-02-16T12:01:24Z</time>
      </trkpt>
      <trkpt lat="44.84723" lon="6.96853">
        <ele>2861</ele>
        <time>2023-02-16T12:01:25Z</time>
      </trkpt>
      <trkpt lat="44.84724" lon="6.96855">
        <ele>2861</ele>
        <time>2023-02-16T12:01:26Z</time>
      </trkpt>
      <trkpt lat="44.84724" lon="6.96856">
        <ele>2861.3</ele>
        <time>2023-02-16T12:01:28Z</time>
      </trkpt>
      <trkpt lat="44.84725" lon="6.96856">
        <ele>2860.9</ele>
        <time>2023-02-16T12:01:29Z</time>
      </trkpt>
      <trkpt lat="44.84726" lon="6.96858">
        <ele>2860.9</ele>
        <time>2023-02-16T12:01:43Z</time>
      </trkpt>
      <trkpt lat="44.84727" lon="6.96864">
        <ele>2861.1</ele>
        <time>2023-02-16T12:01:54Z</time>
      </trkpt>
      <trkpt lat="44.84727" lon="6.96866">
        <ele>2861.1</ele>
        <time>2023-02-16T12:01:55Z</time>
      </trkpt>
      <trkpt lat="44.84728" lon="6.96869">
        <ele>2860.7</ele>
        <time>2023-02-16T12:02:02Z</time>
      </trkpt>
      <trkpt lat="44.84728" lon="6.96868">
        <ele>2860.7</ele>
        <time>2023-02-16T12:02:16Z</time>
      </trkpt>
      <trkpt lat="44.8473" lon="6.96863">
        <ele>2859.9</ele>
        <time>2023-02-16T12:02:28Z</time>
      </trkpt>
      <trkpt lat="44.84732" lon="6.96859">
        <ele>2858.8</ele>
        <time>2023-02-16T12:02:29Z</time>
      </trkpt>
      <trkpt lat="44.84736" lon="6.96846">
        <ele>2855.6</ele>
        <time>2023-02-16T12:02:32Z</time>
      </trkpt>
      <trkpt lat="44.84738" lon="6.96841">
        <ele>2854.5</ele>
        <time>2023-02-16T12:02:33Z</time>
      </trkpt>
      <trkpt lat="44.84739" lon="6.96832">
        <ele>2853.4</ele>
        <time>2023-02-16T12:02:35Z</time>
      </trkpt>
      <trkpt lat="44.84742" lon="6.96826">
        <ele>2852.9</ele>
        <time>2023-02-16T12:02:37Z</time>
      </trkpt>
      <trkpt lat="44.84745" lon="6.96826">
        <ele>2852.2</ele>
        <time>2023-02-16T12:02:38Z</time>
      </trkpt>
      <trkpt lat="44.84749" lon="6.96829">
        <ele>2851.2</ele>
        <time>2023-02-16T12:02:39Z</time>
      </trkpt>
      <trkpt lat="44.84752" lon="6.96833">
        <ele>2850.4</ele>
        <time>2023-02-16T12:02:40Z</time>
      </trkpt>
      <trkpt lat="44.84756" lon="6.96845">
        <ele>2849.3</ele>
        <time>2023-02-16T12:02:42Z</time>
      </trkpt>
      <trkpt lat="44.8476" lon="6.9686">
        <ele>2848</ele>
        <time>2023-02-16T12:02:44Z</time>
      </trkpt>
      <trkpt lat="44.84765" lon="6.96875">
        <ele>2846.1</ele>
        <time>2023-02-16T12:02:46Z</time>
      </trkpt>
      <trkpt lat="44.84766" lon="6.96884">
        <ele>2845.7</ele>
        <time>2023-02-16T12:02:47Z</time>
      </trkpt>
      <trkpt lat="44.84767" lon="6.96893">
        <ele>2845.1</ele>
        <time>2023-02-16T12:02:48Z</time>
      </trkpt>
      <trkpt lat="44.84768" lon="6.96901">
        <ele>2844.3</ele>
        <time>2023-02-16T12:02:49Z</time>
      </trkpt>
      <trkpt lat="44.84769" lon="6.96915">
        <ele>2843.2</ele>
        <time>2023-02-16T12:02:51Z</time>
      </trkpt>
      <trkpt lat="44.84769" lon="6.9692">
        <ele>2842.7</ele>
        <time>2023-02-16T12:02:52Z</time>
      </trkpt>
      <trkpt lat="44.84769" lon="6.96925">
        <ele>2842</ele>
        <time>2023-02-16T12:02:54Z</time>
      </trkpt>
      <trkpt lat="44.84771" lon="6.96926">
        <ele>2841.1</ele>
        <time>2023-02-16T12:02:55Z</time>
      </trkpt>
      <trkpt lat="44.8478" lon="6.9692">
        <ele>2838.9</ele>
        <time>2023-02-16T12:02:58Z</time>
      </trkpt>
      <trkpt lat="44.84782" lon="6.96915">
        <ele>2838.8</ele>
        <time>2023-02-16T12:02:59Z</time>
      </trkpt>
      <trkpt lat="44.84785" lon="6.9691">
        <ele>2838.2</ele>
        <time>2023-02-16T12:03:00Z</time>
      </trkpt>
      <trkpt lat="44.84787" lon="6.96905">
        <ele>2837.8</ele>
        <time>2023-02-16T12:03:01Z</time>
      </trkpt>
      <trkpt lat="44.8479" lon="6.96901">
        <ele>2837</ele>
        <time>2023-02-16T12:03:02Z</time>
      </trkpt>
      <trkpt lat="44.84794" lon="6.96902">
        <ele>2835.9</ele>
        <time>2023-02-16T12:03:03Z</time>
      </trkpt>
      <trkpt lat="44.84797" lon="6.96906">
        <ele>2834.8</ele>
        <time>2023-02-16T12:03:04Z</time>
      </trkpt>
      <trkpt lat="44.84799" lon="6.96911">
        <ele>2834.1</ele>
        <time>2023-02-16T12:03:05Z</time>
      </trkpt>
      <trkpt lat="44.848" lon="6.96917">
        <ele>2833.6</ele>
        <time>2023-02-16T12:03:06Z</time>
      </trkpt>
      <trkpt lat="44.848" lon="6.96923">
        <ele>2832.9</ele>
        <time>2023-02-16T12:03:07Z</time>
      </trkpt>
      <trkpt lat="44.848" lon="6.96927">
        <ele>2832.4</ele>
        <time>2023-02-16T12:03:08Z</time>
      </trkpt>
      <trkpt lat="44.84799" lon="6.96938">
        <ele>2831.4</ele>
        <time>2023-02-16T12:03:11Z</time>
      </trkpt>
      <trkpt lat="44.84798" lon="6.96942">
        <ele>2831.2</ele>
        <time>2023-02-16T12:03:12Z</time>
      </trkpt>
      <trkpt lat="44.84796" lon="6.96946">
        <ele>2830.9</ele>
        <time>2023-02-16T12:03:13Z</time>
      </trkpt>
      <trkpt lat="44.84794" lon="6.9695">
        <ele>2830.2</ele>
        <time>2023-02-16T12:03:14Z</time>
      </trkpt>
      <trkpt lat="44.84791" lon="6.96954">
        <ele>2829.8</ele>
        <time>2023-02-16T12:03:15Z</time>
      </trkpt>
      <trkpt lat="44.84786" lon="6.96962">
        <ele>2828.7</ele>
        <time>2023-02-16T12:03:17Z</time>
      </trkpt>
      <trkpt lat="44.84781" lon="6.96969">
        <ele>2828</ele>
        <time>2023-02-16T12:03:19Z</time>
      </trkpt>
      <trkpt lat="44.84779" lon="6.96973">
        <ele>2827.4</ele>
        <time>2023-02-16T12:03:20Z</time>
      </trkpt>
      <trkpt lat="44.84776" lon="6.96979">
        <ele>2826.4</ele>
        <time>2023-02-16T12:03:22Z</time>
      </trkpt>
      <trkpt lat="44.84775" lon="6.96981">
        <ele>2826.2</ele>
        <time>2023-02-16T12:03:25Z</time>
      </trkpt>
      <trkpt lat="44.8478" lon="6.96984">
        <ele>2823.2</ele>
        <time>2023-02-16T12:03:33Z</time>
      </trkpt>
      <trkpt lat="44.84783" lon="6.96983">
        <ele>2822.7</ele>
        <time>2023-02-16T12:03:34Z</time>
      </trkpt>
      <trkpt lat="44.84789" lon="6.96982">
        <ele>2821.4</ele>
        <time>2023-02-16T12:03:36Z</time>
      </trkpt>
      <trkpt lat="44.84792" lon="6.96981">
        <ele>2820.9</ele>
        <time>2023-02-16T12:03:37Z</time>
      </trkpt>
      <trkpt lat="44.84796" lon="6.9698">
        <ele>2820.1</ele>
        <time>2023-02-16T12:03:38Z</time>
      </trkpt>
      <trkpt lat="44.84799" lon="6.96982">
        <ele>2818.6</ele>
        <time>2023-02-16T12:03:39Z</time>
      </trkpt>
      <trkpt lat="44.848" lon="6.96986">
        <ele>2817</ele>
        <time>2023-02-16T12:03:40Z</time>
      </trkpt>
      <trkpt lat="44.848" lon="6.96989">
        <ele>2816</ele>
        <time>2023-02-16T12:03:41Z</time>
      </trkpt>
      <trkpt lat="44.84799" lon="6.96992">
        <ele>2815.3</ele>
        <time>2023-02-16T12:03:42Z</time>
      </trkpt>
      <trkpt lat="44.84798" lon="6.96994">
        <ele>2814.9</ele>
        <time>2023-02-16T12:03:43Z</time>
      </trkpt>
      <trkpt lat="44.84797" lon="6.96995">
        <ele>2814.8</ele>
        <time>2023-02-16T12:03:45Z</time>
      </trkpt>
      <trkpt lat="44.84795" lon="6.96998">
        <ele>2814.3</ele>
        <time>2023-02-16T12:03:47Z</time>
      </trkpt>
      <trkpt lat="44.84794" lon="6.96999">
        <ele>2814.3</ele>
        <time>2023-02-16T12:03:48Z</time>
      </trkpt>
      <trkpt lat="44.84794" lon="6.96999">
        <ele>2814.3</ele>
        <time>2023-02-16T12:03:53Z</time>
      </trkpt>
      <trkpt lat="44.84794" lon="6.97">
        <ele>2813.9</ele>
        <time>2023-02-16T12:03:55Z</time>
      </trkpt>
      <trkpt lat="44.84798" lon="6.96999">
        <ele>2813.2</ele>
        <time>2023-02-16T12:04:06Z</time>
      </trkpt>
      <trkpt lat="44.848" lon="6.96999">
        <ele>2812.7</ele>
        <time>2023-02-16T12:04:08Z</time>
      </trkpt>
      <trkpt lat="44.84804" lon="6.96998">
        <ele>2812</ele>
        <time>2023-02-16T12:04:10Z</time>
      </trkpt>
      <trkpt lat="44.84808" lon="6.96997">
        <ele>2811.2</ele>
        <time>2023-02-16T12:04:12Z</time>
      </trkpt>
      <trkpt lat="44.84813" lon="6.96995">
        <ele>2810.3</ele>
        <time>2023-02-16T12:04:14Z</time>
      </trkpt>
      <trkpt lat="44.84815" lon="6.96994">
        <ele>2810</ele>
        <time>2023-02-16T12:04:15Z</time>
      </trkpt>
      <trkpt lat="44.84821" lon="6.9699">
        <ele>2809.6</ele>
        <time>2023-02-16T12:04:18Z</time>
      </trkpt>
      <trkpt lat="44.84823" lon="6.96989">
        <ele>2809.4</ele>
        <time>2023-02-16T12:04:20Z</time>
      </trkpt>
      <trkpt lat="44.84824" lon="6.96989">
        <ele>2809.1</ele>
        <time>2023-02-16T12:04:21Z</time>
      </trkpt>
      <trkpt lat="44.84826" lon="6.96993">
        <ele>2807</ele>
        <time>2023-02-16T12:04:23Z</time>
      </trkpt>
      <trkpt lat="44.84825" lon="6.96995">
        <ele>2806.6</ele>
        <time>2023-02-16T12:04:24Z</time>
      </trkpt>
      <trkpt lat="44.84825" lon="6.96998">
        <ele>2805.4</ele>
        <time>2023-02-16T12:04:26Z</time>
      </trkpt>
      <trkpt lat="44.84825" lon="6.96998">
        <ele>2805.4</ele>
        <time>2023-02-16T12:04:27Z</time>
      </trkpt>
      <trkpt lat="44.84826" lon="6.96998">
        <ele>2805.1</ele>
        <time>2023-02-16T12:04:30Z</time>
      </trkpt>
      <trkpt lat="44.84827" lon="6.96997">
        <ele>2805.2</ele>
        <time>2023-02-16T12:04:39Z</time>
      </trkpt>
      <trkpt lat="44.84826" lon="6.96996">
        <ele>2805.9</ele>
        <time>2023-02-16T12:04:56Z</time>
      </trkpt>
      <trkpt lat="44.84826" lon="6.97">
        <ele>2804.4</ele>
        <time>2023-02-16T12:05:07Z</time>
      </trkpt>
      <trkpt lat="44.84827" lon="6.97002">
        <ele>2803.1</ele>
        <time>2023-02-16T12:05:08Z</time>
      </trkpt>
      <trkpt lat="44.84829" lon="6.97001">
        <ele>2802.9</ele>
        <time>2023-02-16T12:05:10Z</time>
      </trkpt>
      <trkpt lat="44.84831" lon="6.97001">
        <ele>2802.3</ele>
        <time>2023-02-16T12:05:11Z</time>
      </trkpt>
      <trkpt lat="44.84832" lon="6.97">
        <ele>2802.4</ele>
        <time>2023-02-16T12:05:12Z</time>
      </trkpt>
      <trkpt lat="44.84833" lon="6.97">
        <ele>2802.1</ele>
        <time>2023-02-16T12:05:13Z</time>
      </trkpt>
      <trkpt lat="44.84835" lon="6.97001">
        <ele>2801.1</ele>
        <time>2023-02-16T12:05:16Z</time>
      </trkpt>
      <trkpt lat="44.84835" lon="6.97003">
        <ele>2800.2</ele>
        <time>2023-02-16T12:05:17Z</time>
      </trkpt>
      <trkpt lat="44.84833" lon="6.97005">
        <ele>2799.8</ele>
        <time>2023-02-16T12:05:18Z</time>
      </trkpt>
      <trkpt lat="44.84832" lon="6.97007">
        <ele>2799.2</ele>
        <time>2023-02-16T12:05:19Z</time>
      </trkpt>
      <trkpt lat="44.84831" lon="6.9701">
        <ele>2798.1</ele>
        <time>2023-02-16T12:05:22Z</time>
      </trkpt>
      <trkpt lat="44.84832" lon="6.97013">
        <ele>2796.4</ele>
        <time>2023-02-16T12:05:31Z</time>
      </trkpt>
      <trkpt lat="44.84832" lon="6.97013">
        <ele>2796.4</ele>
        <time>2023-02-16T12:05:33Z</time>
      </trkpt>
      <trkpt lat="44.84833" lon="6.97012">
        <ele>2796.5</ele>
        <time>2023-02-16T12:05:43Z</time>
      </trkpt>
      <trkpt lat="44.84834" lon="6.97012">
        <ele>2796.2</ele>
        <time>2023-02-16T12:05:44Z</time>
      </trkpt>
      <trkpt lat="44.84835" lon="6.97012">
        <ele>2796</ele>
        <time>2023-02-16T12:05:45Z</time>
      </trkpt>
      <trkpt lat="44.84837" lon="6.97013">
        <ele>2795.2</ele>
        <time>2023-02-16T12:05:49Z</time>
      </trkpt>
      <trkpt lat="44.84837" lon="6.97015">
        <ele>2794.3</ele>
        <time>2023-02-16T12:05:50Z</time>
      </trkpt>
      <trkpt lat="44.84836" lon="6.97017">
        <ele>2793.5</ele>
        <time>2023-02-16T12:05:51Z</time>
      </trkpt>
      <trkpt lat="44.84838" lon="6.97019">
        <ele>2792.3</ele>
        <time>2023-02-16T12:05:53Z</time>
      </trkpt>
      <trkpt lat="44.84841" lon="6.97019">
        <ele>2791.7</ele>
        <time>2023-02-16T12:05:55Z</time>
      </trkpt>
      <trkpt lat="44.84841" lon="6.97021">
        <ele>2790.9</ele>
        <time>2023-02-16T12:05:56Z</time>
      </trkpt>
      <trkpt lat="44.84839" lon="6.97026">
        <ele>2789</ele>
        <time>2023-02-16T12:05:58Z</time>
      </trkpt>
      <trkpt lat="44.84837" lon="6.97029">
        <ele>2787.9</ele>
        <time>2023-02-16T12:06:00Z</time>
      </trkpt>
      <trkpt lat="44.84837" lon="6.97029">
        <ele>2787.9</ele>
        <time>2023-02-16T12:06:02Z</time>
      </trkpt>
      <trkpt lat="44.84836" lon="6.97029">
        <ele>2788</ele>
        <time>2023-02-16T12:06:03Z</time>
      </trkpt>
      <trkpt lat="44.84834" lon="6.97033">
        <ele>2786.4</ele>
        <time>2023-02-16T12:06:12Z</time>
      </trkpt>
      <trkpt lat="44.84834" lon="6.97033">
        <ele>2786.4</ele>
        <time>2023-02-16T12:06:13Z</time>
      </trkpt>
      <trkpt lat="44.84836" lon="6.97032">
        <ele>2786.6</ele>
        <time>2023-02-16T12:06:20Z</time>
      </trkpt>
      <trkpt lat="44.84842" lon="6.9703">
        <ele>2786.6</ele>
        <time>2023-02-16T12:06:31Z</time>
      </trkpt>
      <trkpt lat="44.84843" lon="6.9703">
        <ele>2786.4</ele>
        <time>2023-02-16T12:06:32Z</time>
      </trkpt>
      <trkpt lat="44.84844" lon="6.97031">
        <ele>2785.7</ele>
        <time>2023-02-16T12:06:33Z</time>
      </trkpt>
      <trkpt lat="44.84843" lon="6.97034">
        <ele>2784.3</ele>
        <time>2023-02-16T12:06:36Z</time>
      </trkpt>
      <trkpt lat="44.84843" lon="6.97038">
        <ele>2782.2</ele>
        <time>2023-02-16T12:06:37Z</time>
      </trkpt>
      <trkpt lat="44.84842" lon="6.9704">
        <ele>2781.3</ele>
        <time>2023-02-16T12:06:38Z</time>
      </trkpt>
      <trkpt lat="44.84847" lon="6.97042">
        <ele>2779.1</ele>
        <time>2023-02-16T12:06:40Z</time>
      </trkpt>
      <trkpt lat="44.84848" lon="6.97044">
        <ele>2777.8</ele>
        <time>2023-02-16T12:06:41Z</time>
      </trkpt>
      <trkpt lat="44.84847" lon="6.9705">
        <ele>2774.7</ele>
        <time>2023-02-16T12:06:43Z</time>
      </trkpt>
      <trkpt lat="44.84848" lon="6.97053">
        <ele>2772.7</ele>
        <time>2023-02-16T12:06:44Z</time>
      </trkpt>
      <trkpt lat="44.84851" lon="6.97054">
        <ele>2771.2</ele>
        <time>2023-02-16T12:06:45Z</time>
      </trkpt>
      <trkpt lat="44.84854" lon="6.97055">
        <ele>2769.6</ele>
        <time>2023-02-16T12:06:46Z</time>
      </trkpt>
      <trkpt lat="44.84857" lon="6.97054">
        <ele>2769.3</ele>
        <time>2023-02-16T12:06:47Z</time>
      </trkpt>
      <trkpt lat="44.8486" lon="6.97054">
        <ele>2768.4</ele>
        <time>2023-02-16T12:06:48Z</time>
      </trkpt>
      <trkpt lat="44.84865" lon="6.97055">
        <ele>2767.9</ele>
        <time>2023-02-16T12:06:51Z</time>
      </trkpt>
      <trkpt lat="44.84862" lon="6.9706">
        <ele>2765.1</ele>
        <time>2023-02-16T12:06:54Z</time>
      </trkpt>
      <trkpt lat="44.84862" lon="6.97063">
        <ele>2763.7</ele>
        <time>2023-02-16T12:06:55Z</time>
      </trkpt>
      <trkpt lat="44.84866" lon="6.97066">
        <ele>2763.1</ele>
        <time>2023-02-16T12:06:57Z</time>
      </trkpt>
      <trkpt lat="44.84868" lon="6.97068">
        <ele>2762.6</ele>
        <time>2023-02-16T12:06:58Z</time>
      </trkpt>
      <trkpt lat="44.8487" lon="6.9707">
        <ele>2762.2</ele>
        <time>2023-02-16T12:06:59Z</time>
      </trkpt>
      <trkpt lat="44.84869" lon="6.97073">
        <ele>2760.7</ele>
        <time>2023-02-16T12:07:00Z</time>
      </trkpt>
      <trkpt lat="44.84868" lon="6.97076">
        <ele>2759.2</ele>
        <time>2023-02-16T12:07:01Z</time>
      </trkpt>
      <trkpt lat="44.84868" lon="6.9708">
        <ele>2757.4</ele>
        <time>2023-02-16T12:07:02Z</time>
      </trkpt>
      <trkpt lat="44.8487" lon="6.97083">
        <ele>2756.7</ele>
        <time>2023-02-16T12:07:03Z</time>
      </trkpt>
      <trkpt lat="44.8487" lon="6.97087">
        <ele>2754.8</ele>
        <time>2023-02-16T12:07:04Z</time>
      </trkpt>
      <trkpt lat="44.84868" lon="6.97091">
        <ele>2752.4</ele>
        <time>2023-02-16T12:07:05Z</time>
      </trkpt>
      <trkpt lat="44.84868" lon="6.97094">
        <ele>2751</ele>
        <time>2023-02-16T12:07:06Z</time>
      </trkpt>
      <trkpt lat="44.84869" lon="6.97097">
        <ele>2749.8</ele>
        <time>2023-02-16T12:07:07Z</time>
      </trkpt>
      <trkpt lat="44.84872" lon="6.97099">
        <ele>2749.5</ele>
        <time>2023-02-16T12:07:08Z</time>
      </trkpt>
      <trkpt lat="44.84875" lon="6.97101">
        <ele>2749.1</ele>
        <time>2023-02-16T12:07:09Z</time>
      </trkpt>
      <trkpt lat="44.84878" lon="6.97103">
        <ele>2748.6</ele>
        <time>2023-02-16T12:07:10Z</time>
      </trkpt>
      <trkpt lat="44.84881" lon="6.97104">
        <ele>2748.7</ele>
        <time>2023-02-16T12:07:11Z</time>
      </trkpt>
      <trkpt lat="44.84883" lon="6.97106">
        <ele>2747.9</ele>
        <time>2023-02-16T12:07:12Z</time>
      </trkpt>
      <trkpt lat="44.84887" lon="6.97109">
        <ele>2746.9</ele>
        <time>2023-02-16T12:07:15Z</time>
      </trkpt>
      <trkpt lat="44.84888" lon="6.97109">
        <ele>2747.1</ele>
        <time>2023-02-16T12:07:16Z</time>
      </trkpt>
      <trkpt lat="44.84889" lon="6.9711">
        <ele>2746.7</ele>
        <time>2023-02-16T12:07:17Z</time>
      </trkpt>
      <trkpt lat="44.84887" lon="6.97111">
        <ele>2745.8</ele>
        <time>2023-02-16T12:07:18Z</time>
      </trkpt>
      <trkpt lat="44.84885" lon="6.97112">
        <ele>2745</ele>
        <time>2023-02-16T12:07:19Z</time>
      </trkpt>
      <trkpt lat="44.84883" lon="6.97111">
        <ele>2745.2</ele>
        <time>2023-02-16T12:07:20Z</time>
      </trkpt>
      <trkpt lat="44.8488" lon="6.97111">
        <ele>2744.8</ele>
        <time>2023-02-16T12:07:22Z</time>
      </trkpt>
      <trkpt lat="44.84871" lon="6.97112">
        <ele>2743</ele>
        <time>2023-02-16T12:07:25Z</time>
      </trkpt>
      <trkpt lat="44.84864" lon="6.97115">
        <ele>2740.9</ele>
        <time>2023-02-16T12:07:27Z</time>
      </trkpt>
      <trkpt lat="44.84857" lon="6.97119">
        <ele>2740.6</ele>
        <time>2023-02-16T12:07:29Z</time>
      </trkpt>
      <trkpt lat="44.84852" lon="6.97123">
        <ele>2740.7</ele>
        <time>2023-02-16T12:07:31Z</time>
      </trkpt>
      <trkpt lat="44.8485" lon="6.97125">
        <ele>2740.6</ele>
        <time>2023-02-16T12:07:32Z</time>
      </trkpt>
      <trkpt lat="44.84849" lon="6.97131">
        <ele>2738.6</ele>
        <time>2023-02-16T12:07:34Z</time>
      </trkpt>
      <trkpt lat="44.8485" lon="6.97135">
        <ele>2736.7</ele>
        <time>2023-02-16T12:07:35Z</time>
      </trkpt>
      <trkpt lat="44.84853" lon="6.97146">
        <ele>2732.5</ele>
        <time>2023-02-16T12:07:37Z</time>
      </trkpt>
      <trkpt lat="44.84855" lon="6.97151">
        <ele>2730.6</ele>
        <time>2023-02-16T12:07:38Z</time>
      </trkpt>
      <trkpt lat="44.84857" lon="6.97157">
        <ele>2728.3</ele>
        <time>2023-02-16T12:07:39Z</time>
      </trkpt>
      <trkpt lat="44.84858" lon="6.97164">
        <ele>2726</ele>
        <time>2023-02-16T12:07:40Z</time>
      </trkpt>
      <trkpt lat="44.8486" lon="6.9717">
        <ele>2723.6</ele>
        <time>2023-02-16T12:07:41Z</time>
      </trkpt>
      <trkpt lat="44.84862" lon="6.97175">
        <ele>2721.7</ele>
        <time>2023-02-16T12:07:42Z</time>
      </trkpt>
      <trkpt lat="44.84863" lon="6.97182">
        <ele>2719.7</ele>
        <time>2023-02-16T12:07:43Z</time>
      </trkpt>
      <trkpt lat="44.84863" lon="6.9719">
        <ele>2717.7</ele>
        <time>2023-02-16T12:07:44Z</time>
      </trkpt>
      <trkpt lat="44.84864" lon="6.97198">
        <ele>2715.7</ele>
        <time>2023-02-16T12:07:45Z</time>
      </trkpt>
      <trkpt lat="44.84865" lon="6.97206">
        <ele>2713.9</ele>
        <time>2023-02-16T12:07:46Z</time>
      </trkpt>
      <trkpt lat="44.84867" lon="6.97214">
        <ele>2711.8</ele>
        <time>2023-02-16T12:07:47Z</time>
      </trkpt>
      <trkpt lat="44.84868" lon="6.97221">
        <ele>2710</ele>
        <time>2023-02-16T12:07:48Z</time>
      </trkpt>
      <trkpt lat="44.84872" lon="6.97228">
        <ele>2707.6</ele>
        <time>2023-02-16T12:07:49Z</time>
      </trkpt>
      <trkpt lat="44.84875" lon="6.97236">
        <ele>2705.3</ele>
        <time>2023-02-16T12:07:50Z</time>
      </trkpt>
      <trkpt lat="44.84876" lon="6.97242">
        <ele>2703.9</ele>
        <time>2023-02-16T12:07:51Z</time>
      </trkpt>
      <trkpt lat="44.84878" lon="6.97245">
        <ele>2702.6</ele>
        <time>2023-02-16T12:07:52Z</time>
      </trkpt>
      <trkpt lat="44.8488" lon="6.97245">
        <ele>2701.7</ele>
        <time>2023-02-16T12:07:53Z</time>
      </trkpt>
      <trkpt lat="44.84882" lon="6.97245">
        <ele>2700.9</ele>
        <time>2023-02-16T12:07:54Z</time>
      </trkpt>
      <trkpt lat="44.84884" lon="6.97245">
        <ele>2700.1</ele>
        <time>2023-02-16T12:07:55Z</time>
      </trkpt>
      <trkpt lat="44.84885" lon="6.97245">
        <ele>2699.7</ele>
        <time>2023-02-16T12:07:57Z</time>
      </trkpt>
      <trkpt lat="44.84886" lon="6.97242">
        <ele>2699.9</ele>
        <time>2023-02-16T12:08:05Z</time>
      </trkpt>
      <trkpt lat="44.84886" lon="6.97242">
        <ele>2699.9</ele>
        <time>2023-02-16T12:08:06Z</time>
      </trkpt>
      <trkpt lat="44.84882" lon="6.97239">
        <ele>2702.1</ele>
        <time>2023-02-16T12:08:13Z</time>
      </trkpt>
      <trkpt lat="44.84882" lon="6.97237">
        <ele>2702.4</ele>
        <time>2023-02-16T12:08:24Z</time>
      </trkpt>
      <trkpt lat="44.84883" lon="6.97235">
        <ele>2702.4</ele>
        <time>2023-02-16T12:08:36Z</time>
      </trkpt>
      <trkpt lat="44.84884" lon="6.97234">
        <ele>2702.3</ele>
        <time>2023-02-16T12:08:43Z</time>
      </trkpt>
      <trkpt lat="44.84886" lon="6.97233">
        <ele>2701.7</ele>
        <time>2023-02-16T12:08:46Z</time>
      </trkpt>
      <trkpt lat="44.84888" lon="6.97233">
        <ele>2701</ele>
        <time>2023-02-16T12:08:48Z</time>
      </trkpt>
      <trkpt lat="44.84892" lon="6.9724">
        <ele>2698.2</ele>
        <time>2023-02-16T12:08:51Z</time>
      </trkpt>
      <trkpt lat="44.84893" lon="6.97244">
        <ele>2696.8</ele>
        <time>2023-02-16T12:08:52Z</time>
      </trkpt>
      <trkpt lat="44.84894" lon="6.97246">
        <ele>2695.9</ele>
        <time>2023-02-16T12:08:53Z</time>
      </trkpt>
      <trkpt lat="44.84897" lon="6.97246">
        <ele>2694.8</ele>
        <time>2023-02-16T12:08:54Z</time>
      </trkpt>
      <trkpt lat="44.84901" lon="6.97247">
        <ele>2692.9</ele>
        <time>2023-02-16T12:08:55Z</time>
      </trkpt>
      <trkpt lat="44.84904" lon="6.97256">
        <ele>2690.2</ele>
        <time>2023-02-16T12:08:57Z</time>
      </trkpt>
      <trkpt lat="44.84905" lon="6.97261">
        <ele>2689.5</ele>
        <time>2023-02-16T12:08:58Z</time>
      </trkpt>
      <trkpt lat="44.84908" lon="6.97266">
        <ele>2687.7</ele>
        <time>2023-02-16T12:08:59Z</time>
      </trkpt>
      <trkpt lat="44.84911" lon="6.97265">
        <ele>2686.3</ele>
        <time>2023-02-16T12:09:00Z</time>
      </trkpt>
      <trkpt lat="44.84914" lon="6.97263">
        <ele>2684.9</ele>
        <time>2023-02-16T12:09:01Z</time>
      </trkpt>
      <trkpt lat="44.84916" lon="6.97261">
        <ele>2684.1</ele>
        <time>2023-02-16T12:09:02Z</time>
      </trkpt>
      <trkpt lat="44.8492" lon="6.97261">
        <ele>2682.7</ele>
        <time>2023-02-16T12:09:04Z</time>
      </trkpt>
      <trkpt lat="44.8492" lon="6.97264">
        <ele>2682.2</ele>
        <time>2023-02-16T12:09:05Z</time>
      </trkpt>
      <trkpt lat="44.84919" lon="6.97269">
        <ele>2681.9</ele>
        <time>2023-02-16T12:09:06Z</time>
      </trkpt>
      <trkpt lat="44.84919" lon="6.97274">
        <ele>2681.2</ele>
        <time>2023-02-16T12:09:08Z</time>
      </trkpt>
      <trkpt lat="44.84927" lon="6.97275">
        <ele>2676.8</ele>
        <time>2023-02-16T12:09:12Z</time>
      </trkpt>
      <trkpt lat="44.84929" lon="6.97277">
        <ele>2675.1</ele>
        <time>2023-02-16T12:09:13Z</time>
      </trkpt>
      <trkpt lat="44.84931" lon="6.97279">
        <ele>2673.5</ele>
        <time>2023-02-16T12:09:14Z</time>
      </trkpt>
      <trkpt lat="44.84933" lon="6.97281">
        <ele>2671.8</ele>
        <time>2023-02-16T12:09:15Z</time>
      </trkpt>
      <trkpt lat="44.84939" lon="6.97286">
        <ele>2667.1</ele>
        <time>2023-02-16T12:09:17Z</time>
      </trkpt>
      <trkpt lat="44.84939" lon="6.97292">
        <ele>2665.7</ele>
        <time>2023-02-16T12:09:18Z</time>
      </trkpt>
      <trkpt lat="44.84938" lon="6.97298">
        <ele>2664.8</ele>
        <time>2023-02-16T12:09:19Z</time>
      </trkpt>
      <trkpt lat="44.84938" lon="6.97302">
        <ele>2663.8</ele>
        <time>2023-02-16T12:09:20Z</time>
      </trkpt>
      <trkpt lat="44.84939" lon="6.97304">
        <ele>2662.7</ele>
        <time>2023-02-16T12:09:21Z</time>
      </trkpt>
      <trkpt lat="44.84941" lon="6.97305">
        <ele>2661.2</ele>
        <time>2023-02-16T12:09:22Z</time>
      </trkpt>
      <trkpt lat="44.84944" lon="6.97308">
        <ele>2658.3</ele>
        <time>2023-02-16T12:09:23Z</time>
      </trkpt>
      <trkpt lat="44.84945" lon="6.97311">
        <ele>2656.6</ele>
        <time>2023-02-16T12:09:24Z</time>
      </trkpt>
      <trkpt lat="44.84946" lon="6.97313">
        <ele>2655.4</ele>
        <time>2023-02-16T12:09:25Z</time>
      </trkpt>
      <trkpt lat="44.84947" lon="6.97314">
        <ele>2654.6</ele>
        <time>2023-02-16T12:09:26Z</time>
      </trkpt>
      <trkpt lat="44.84947" lon="6.97315">
        <ele>2654.2</ele>
        <time>2023-02-16T12:09:27Z</time>
      </trkpt>
      <trkpt lat="44.84946" lon="6.97317">
        <ele>2653.9</ele>
        <time>2023-02-16T12:09:30Z</time>
      </trkpt>
      <trkpt lat="44.84951" lon="6.97317">
        <ele>2651.9</ele>
        <time>2023-02-16T12:09:34Z</time>
      </trkpt>
      <trkpt lat="44.84953" lon="6.97316">
        <ele>2651.4</ele>
        <time>2023-02-16T12:09:35Z</time>
      </trkpt>
      <trkpt lat="44.84956" lon="6.97314">
        <ele>2650.9</ele>
        <time>2023-02-16T12:09:37Z</time>
      </trkpt>
      <trkpt lat="44.8496" lon="6.9731">
        <ele>2650.4</ele>
        <time>2023-02-16T12:09:39Z</time>
      </trkpt>
      <trkpt lat="44.84961" lon="6.97308">
        <ele>2650.5</ele>
        <time>2023-02-16T12:09:40Z</time>
      </trkpt>
      <trkpt lat="44.84962" lon="6.97306">
        <ele>2650.7</ele>
        <time>2023-02-16T12:09:41Z</time>
      </trkpt>
      <trkpt lat="44.84963" lon="6.97307">
        <ele>2649.9</ele>
        <time>2023-02-16T12:09:42Z</time>
      </trkpt>
      <trkpt lat="44.84965" lon="6.97308">
        <ele>2648.7</ele>
        <time>2023-02-16T12:09:43Z</time>
      </trkpt>
      <trkpt lat="44.84967" lon="6.97309">
        <ele>2647.6</ele>
        <time>2023-02-16T12:09:44Z</time>
      </trkpt>
      <trkpt lat="44.8497" lon="6.9731">
        <ele>2646</ele>
        <time>2023-02-16T12:09:45Z</time>
      </trkpt>
      <trkpt lat="44.84972" lon="6.97313">
        <ele>2644.5</ele>
        <time>2023-02-16T12:09:46Z</time>
      </trkpt>
      <trkpt lat="44.84974" lon="6.97315">
        <ele>2643.2</ele>
        <time>2023-02-16T12:09:47Z</time>
      </trkpt>
      <trkpt lat="44.84977" lon="6.97316">
        <ele>2641.7</ele>
        <time>2023-02-16T12:09:48Z</time>
      </trkpt>
      <trkpt lat="44.8498" lon="6.97321">
        <ele>2639.1</ele>
        <time>2023-02-16T12:09:50Z</time>
      </trkpt>
      <trkpt lat="44.84981" lon="6.97323">
        <ele>2638</ele>
        <time>2023-02-16T12:09:51Z</time>
      </trkpt>
      <trkpt lat="44.84981" lon="6.97325">
        <ele>2637.4</ele>
        <time>2023-02-16T12:09:52Z</time>
      </trkpt>
      <trkpt lat="44.84983" lon="6.97325">
        <ele>2636.4</ele>
        <time>2023-02-16T12:09:53Z</time>
      </trkpt>
      <trkpt lat="44.84985" lon="6.97323">
        <ele>2636.1</ele>
        <time>2023-02-16T12:09:54Z</time>
      </trkpt>
      <trkpt lat="44.84986" lon="6.9732">
        <ele>2636.6</ele>
        <time>2023-02-16T12:09:55Z</time>
      </trkpt>
      <trkpt lat="44.84988" lon="6.97318">
        <ele>2636.4</ele>
        <time>2023-02-16T12:09:56Z</time>
      </trkpt>
      <trkpt lat="44.84989" lon="6.97317">
        <ele>2636.4</ele>
        <time>2023-02-16T12:09:57Z</time>
      </trkpt>
      <trkpt lat="44.84991" lon="6.97317">
        <ele>2635.5</ele>
        <time>2023-02-16T12:09:58Z</time>
      </trkpt>
      <trkpt lat="44.84992" lon="6.97324">
        <ele>2632.3</ele>
        <time>2023-02-16T12:10:01Z</time>
      </trkpt>
      <trkpt lat="44.84993" lon="6.97328">
        <ele>2630.2</ele>
        <time>2023-02-16T12:10:03Z</time>
      </trkpt>
      <trkpt lat="44.84994" lon="6.97327">
        <ele>2630.1</ele>
        <time>2023-02-16T12:10:04Z</time>
      </trkpt>
      <trkpt lat="44.84996" lon="6.97326">
        <ele>2629.5</ele>
        <time>2023-02-16T12:10:05Z</time>
      </trkpt>
      <trkpt lat="44.84997" lon="6.97326">
        <ele>2629</ele>
        <time>2023-02-16T12:10:06Z</time>
      </trkpt>
      <trkpt lat="44.85001" lon="6.97324">
        <ele>2628.3</ele>
        <time>2023-02-16T12:10:08Z</time>
      </trkpt>
      <trkpt lat="44.85003" lon="6.97323">
        <ele>2628.6</ele>
        <time>2023-02-16T12:10:09Z</time>
      </trkpt>
      <trkpt lat="44.85004" lon="6.97322">
        <ele>2628.9</ele>
        <time>2023-02-16T12:10:10Z</time>
      </trkpt>
      <trkpt lat="44.85005" lon="6.97321">
        <ele>2629.3</ele>
        <time>2023-02-16T12:10:11Z</time>
      </trkpt>
      <trkpt lat="44.85005" lon="6.97322">
        <ele>2628.8</ele>
        <time>2023-02-16T12:10:13Z</time>
      </trkpt>
      <trkpt lat="44.85005" lon="6.97325">
        <ele>2627.4</ele>
        <time>2023-02-16T12:10:17Z</time>
      </trkpt>
      <trkpt lat="44.85004" lon="6.97328">
        <ele>2626.1</ele>
        <time>2023-02-16T12:10:18Z</time>
      </trkpt>
      <trkpt lat="44.85004" lon="6.97331">
        <ele>2624.7</ele>
        <time>2023-02-16T12:10:19Z</time>
      </trkpt>
      <trkpt lat="44.85003" lon="6.97337">
        <ele>2622.4</ele>
        <time>2023-02-16T12:10:21Z</time>
      </trkpt>
      <trkpt lat="44.85003" lon="6.97338">
        <ele>2622</ele>
        <time>2023-02-16T12:10:22Z</time>
      </trkpt>
      <trkpt lat="44.85003" lon="6.97339">
        <ele>2621.7</ele>
        <time>2023-02-16T12:10:23Z</time>
      </trkpt>
      <trkpt lat="44.85003" lon="6.97341">
        <ele>2621</ele>
        <time>2023-02-16T12:10:24Z</time>
      </trkpt>
      <trkpt lat="44.85004" lon="6.97343">
        <ele>2620</ele>
        <time>2023-02-16T12:10:25Z</time>
      </trkpt>
      <trkpt lat="44.85005" lon="6.97345">
        <ele>2619.1</ele>
        <time>2023-02-16T12:10:26Z</time>
      </trkpt>
      <trkpt lat="44.85006" lon="6.9735">
        <ele>2616.9</ele>
        <time>2023-02-16T12:10:28Z</time>
      </trkpt>
      <trkpt lat="44.85005" lon="6.97358">
        <ele>2614.2</ele>
        <time>2023-02-16T12:10:30Z</time>
      </trkpt>
      <trkpt lat="44.85006" lon="6.97359">
        <ele>2613.4</ele>
        <time>2023-02-16T12:10:32Z</time>
      </trkpt>
      <trkpt lat="44.85008" lon="6.97358">
        <ele>2613.1</ele>
        <time>2023-02-16T12:10:33Z</time>
      </trkpt>
      <trkpt lat="44.8501" lon="6.97357">
        <ele>2612.8</ele>
        <time>2023-02-16T12:10:34Z</time>
      </trkpt>
      <trkpt lat="44.85012" lon="6.97356">
        <ele>2612.5</ele>
        <time>2023-02-16T12:10:35Z</time>
      </trkpt>
      <trkpt lat="44.85014" lon="6.97354">
        <ele>2612.8</ele>
        <time>2023-02-16T12:10:36Z</time>
      </trkpt>
      <trkpt lat="44.85016" lon="6.97353">
        <ele>2612.6</ele>
        <time>2023-02-16T12:10:37Z</time>
      </trkpt>
      <trkpt lat="44.8502" lon="6.97351">
        <ele>2612.5</ele>
        <time>2023-02-16T12:10:39Z</time>
      </trkpt>
      <trkpt lat="44.85022" lon="6.97354">
        <ele>2610.2</ele>
        <time>2023-02-16T12:10:41Z</time>
      </trkpt>
      <trkpt lat="44.85021" lon="6.97358">
        <ele>2608.4</ele>
        <time>2023-02-16T12:10:42Z</time>
      </trkpt>
      <trkpt lat="44.85019" lon="6.97365">
        <ele>2605.5</ele>
        <time>2023-02-16T12:10:44Z</time>
      </trkpt>
      <trkpt lat="44.85018" lon="6.97371">
        <ele>2602.9</ele>
        <time>2023-02-16T12:10:46Z</time>
      </trkpt>
      <trkpt lat="44.85019" lon="6.97374">
        <ele>2601</ele>
        <time>2023-02-16T12:10:47Z</time>
      </trkpt>
      <trkpt lat="44.8502" lon="6.97378">
        <ele>2598.7</ele>
        <time>2023-02-16T12:10:48Z</time>
      </trkpt>
      <trkpt lat="44.8502" lon="6.97383">
        <ele>2596.2</ele>
        <time>2023-02-16T12:10:49Z</time>
      </trkpt>
      <trkpt lat="44.85018" lon="6.97386">
        <ele>2595.3</ele>
        <time>2023-02-16T12:10:50Z</time>
      </trkpt>
      <trkpt lat="44.85016" lon="6.97391">
        <ele>2593.4</ele>
        <time>2023-02-16T12:10:52Z</time>
      </trkpt>
      <trkpt lat="44.85015" lon="6.97395">
        <ele>2591.7</ele>
        <time>2023-02-16T12:10:58Z</time>
      </trkpt>
      <trkpt lat="44.85017" lon="6.97394">
        <ele>2591.7</ele>
        <time>2023-02-16T12:11:04Z</time>
      </trkpt>
      <trkpt lat="44.85018" lon="6.97394">
        <ele>2591.4</ele>
        <time>2023-02-16T12:11:06Z</time>
      </trkpt>
      <trkpt lat="44.85019" lon="6.97393">
        <ele>2591.6</ele>
        <time>2023-02-16T12:11:07Z</time>
      </trkpt>
      <trkpt lat="44.85021" lon="6.97392">
        <ele>2591.6</ele>
        <time>2023-02-16T12:11:08Z</time>
      </trkpt>
      <trkpt lat="44.85023" lon="6.97396">
        <ele>2589.3</ele>
        <time>2023-02-16T12:11:10Z</time>
      </trkpt>
      <trkpt lat="44.85022" lon="6.97399">
        <ele>2588.2</ele>
        <time>2023-02-16T12:11:11Z</time>
      </trkpt>
      <trkpt lat="44.85022" lon="6.97402">
        <ele>2586.9</ele>
        <time>2023-02-16T12:11:12Z</time>
      </trkpt>
      <trkpt lat="44.85019" lon="6.97406">
        <ele>2585.6</ele>
        <time>2023-02-16T12:11:14Z</time>
      </trkpt>
      <trkpt lat="44.85016" lon="6.97407">
        <ele>2585.6</ele>
        <time>2023-02-16T12:11:16Z</time>
      </trkpt>
      <trkpt lat="44.85011" lon="6.97409">
        <ele>2585.2</ele>
        <time>2023-02-16T12:11:19Z</time>
      </trkpt>
      <trkpt lat="44.85009" lon="6.97411">
        <ele>2584.4</ele>
        <time>2023-02-16T12:11:20Z</time>
      </trkpt>
      <trkpt lat="44.85009" lon="6.97415">
        <ele>2582.3</ele>
        <time>2023-02-16T12:11:21Z</time>
      </trkpt>
      <trkpt lat="44.85011" lon="6.97419">
        <ele>2580.5</ele>
        <time>2023-02-16T12:11:22Z</time>
      </trkpt>
      <trkpt lat="44.85011" lon="6.97423">
        <ele>2579.4</ele>
        <time>2023-02-16T12:11:23Z</time>
      </trkpt>
      <trkpt lat="44.8501" lon="6.97428">
        <ele>2578.1</ele>
        <time>2023-02-16T12:11:24Z</time>
      </trkpt>
      <trkpt lat="44.85008" lon="6.97433">
        <ele>2577</ele>
        <time>2023-02-16T12:11:25Z</time>
      </trkpt>
      <trkpt lat="44.85006" lon="6.9744">
        <ele>2575.6</ele>
        <time>2023-02-16T12:11:26Z</time>
      </trkpt>
      <trkpt lat="44.85003" lon="6.97446">
        <ele>2575.1</ele>
        <time>2023-02-16T12:11:27Z</time>
      </trkpt>
      <trkpt lat="44.85001" lon="6.9745">
        <ele>2575.1</ele>
        <time>2023-02-16T12:11:28Z</time>
      </trkpt>
      <trkpt lat="44.85" lon="6.9746">
        <ele>2574.3</ele>
        <time>2023-02-16T12:11:30Z</time>
      </trkpt>
      <trkpt lat="44.85008" lon="6.97465">
        <ele>2571.8</ele>
        <time>2023-02-16T12:11:32Z</time>
      </trkpt>
      <trkpt lat="44.85014" lon="6.97469">
        <ele>2569.8</ele>
        <time>2023-02-16T12:11:33Z</time>
      </trkpt>
      <trkpt lat="44.85021" lon="6.97473">
        <ele>2567.7</ele>
        <time>2023-02-16T12:11:34Z</time>
      </trkpt>
      <trkpt lat="44.85034" lon="6.97482">
        <ele>2564.1</ele>
        <time>2023-02-16T12:11:36Z</time>
      </trkpt>
      <trkpt lat="44.85041" lon="6.97486">
        <ele>2562.4</ele>
        <time>2023-02-16T12:11:37Z</time>
      </trkpt>
      <trkpt lat="44.85047" lon="6.97492">
        <ele>2560.6</ele>
        <time>2023-02-16T12:11:38Z</time>
      </trkpt>
      <trkpt lat="44.85054" lon="6.97499">
        <ele>2558.4</ele>
        <time>2023-02-16T12:11:39Z</time>
      </trkpt>
      <trkpt lat="44.8506" lon="6.97504">
        <ele>2556.9</ele>
        <time>2023-02-16T12:11:40Z</time>
      </trkpt>
      <trkpt lat="44.85066" lon="6.97509">
        <ele>2555.4</ele>
        <time>2023-02-16T12:11:41Z</time>
      </trkpt>
      <trkpt lat="44.85073" lon="6.97515">
        <ele>2553.4</ele>
        <time>2023-02-16T12:11:42Z</time>
      </trkpt>
      <trkpt lat="44.85079" lon="6.97521">
        <ele>2551.6</ele>
        <time>2023-02-16T12:11:43Z</time>
      </trkpt>
      <trkpt lat="44.85083" lon="6.97528">
        <ele>2550.1</ele>
        <time>2023-02-16T12:11:44Z</time>
      </trkpt>
      <trkpt lat="44.85086" lon="6.97536">
        <ele>2549.1</ele>
        <time>2023-02-16T12:11:45Z</time>
      </trkpt>
      <trkpt lat="44.85093" lon="6.9755">
        <ele>2547.3</ele>
        <time>2023-02-16T12:11:47Z</time>
      </trkpt>
      <trkpt lat="44.85101" lon="6.97563">
        <ele>2546</ele>
        <time>2023-02-16T12:11:49Z</time>
      </trkpt>
      <trkpt lat="44.85105" lon="6.97568">
        <ele>2545.4</ele>
        <time>2023-02-16T12:11:50Z</time>
      </trkpt>
      <trkpt lat="44.85109" lon="6.97573">
        <ele>2545</ele>
        <time>2023-02-16T12:11:51Z</time>
      </trkpt>
      <trkpt lat="44.8512" lon="6.97586">
        <ele>2543</ele>
        <time>2023-02-16T12:11:54Z</time>
      </trkpt>
      <trkpt lat="44.85123" lon="6.97588">
        <ele>2542.2</ele>
        <time>2023-02-16T12:11:55Z</time>
      </trkpt>
      <trkpt lat="44.85125" lon="6.97588">
        <ele>2541.7</ele>
        <time>2023-02-16T12:11:56Z</time>
      </trkpt>
      <trkpt lat="44.85127" lon="6.97586">
        <ele>2541.4</ele>
        <time>2023-02-16T12:11:58Z</time>
      </trkpt>
      <trkpt lat="44.85128" lon="6.97586">
        <ele>2541.2</ele>
        <time>2023-02-16T12:12:00Z</time>
      </trkpt>
      <trkpt lat="44.85129" lon="6.97585">
        <ele>2541</ele>
        <time>2023-02-16T12:12:07Z</time>
      </trkpt>
      <trkpt lat="44.85128" lon="6.97583">
        <ele>2541.3</ele>
        <time>2023-02-16T12:12:18Z</time>
      </trkpt>
      <trkpt lat="44.85128" lon="6.97583">
        <ele>2541.3</ele>
        <time>2023-02-16T12:12:20Z</time>
      </trkpt>
      <trkpt lat="44.85128" lon="6.97583">
        <ele>2541.3</ele>
        <time>2023-02-16T12:12:32Z</time>
      </trkpt>
      <trkpt lat="44.85128" lon="6.97583">
        <ele>2541.3</ele>
        <time>2023-02-16T12:12:33Z</time>
      </trkpt>
      <trkpt lat="44.85127" lon="6.97581">
        <ele>2541.2</ele>
        <time>2023-02-16T12:12:41Z</time>
      </trkpt>
      <trkpt lat="44.85126" lon="6.9758">
        <ele>2541.3</ele>
        <time>2023-02-16T12:12:48Z</time>
      </trkpt>
      <trkpt lat="44.85125" lon="6.97584">
        <ele>2542</ele>
        <time>2023-02-16T12:12:57Z</time>
      </trkpt>
      <trkpt lat="44.85125" lon="6.97584">
        <ele>2542</ele>
        <time>2023-02-16T12:12:58Z</time>
      </trkpt>
      <trkpt lat="44.85126" lon="6.97588">
        <ele>2541.5</ele>
        <time>2023-02-16T12:13:07Z</time>
      </trkpt>
      <trkpt lat="44.85126" lon="6.97594">
        <ele>2541.2</ele>
        <time>2023-02-16T12:13:13Z</time>
      </trkpt>
      <trkpt lat="44.85127" lon="6.97599">
        <ele>2540.7</ele>
        <time>2023-02-16T12:13:16Z</time>
      </trkpt>
      <trkpt lat="44.85122" lon="6.97614">
        <ele>2541</ele>
        <time>2023-02-16T12:13:21Z</time>
      </trkpt>
      <trkpt lat="44.85121" lon="6.97621">
        <ele>2540.6</ele>
        <time>2023-02-16T12:13:22Z</time>
      </trkpt>
      <trkpt lat="44.85122" lon="6.97639">
        <ele>2538.5</ele>
        <time>2023-02-16T12:13:24Z</time>
      </trkpt>
      <trkpt lat="44.85123" lon="6.97646">
        <ele>2538.7</ele>
        <time>2023-02-16T12:13:25Z</time>
      </trkpt>
      <trkpt lat="44.85125" lon="6.97653">
        <ele>2538.3</ele>
        <time>2023-02-16T12:13:26Z</time>
      </trkpt>
      <trkpt lat="44.85127" lon="6.97658">
        <ele>2537.5</ele>
        <time>2023-02-16T12:13:27Z</time>
      </trkpt>
      <trkpt lat="44.85128" lon="6.97663">
        <ele>2537.2</ele>
        <time>2023-02-16T12:13:28Z</time>
      </trkpt>
      <trkpt lat="44.85133" lon="6.97675">
        <ele>2534.5</ele>
        <time>2023-02-16T12:13:32Z</time>
      </trkpt>
      <trkpt lat="44.85137" lon="6.97686">
        <ele>2532.1</ele>
        <time>2023-02-16T12:13:35Z</time>
      </trkpt>
      <trkpt lat="44.85138" lon="6.9769">
        <ele>2531.5</ele>
        <time>2023-02-16T12:13:36Z</time>
      </trkpt>
      <trkpt lat="44.85139" lon="6.97692">
        <ele>2530.8</ele>
        <time>2023-02-16T12:13:37Z</time>
      </trkpt>
      <trkpt lat="44.8514" lon="6.97696">
        <ele>2530.3</ele>
        <time>2023-02-16T12:13:39Z</time>
      </trkpt>
      <trkpt lat="44.85142" lon="6.97699">
        <ele>2528.9</ele>
        <time>2023-02-16T12:13:41Z</time>
      </trkpt>
      <trkpt lat="44.85143" lon="6.97701">
        <ele>2528.1</ele>
        <time>2023-02-16T12:13:42Z</time>
      </trkpt>
      <trkpt lat="44.85144" lon="6.97701">
        <ele>2527.4</ele>
        <time>2023-02-16T12:13:43Z</time>
      </trkpt>
      <trkpt lat="44.85147" lon="6.97699">
        <ele>2525.5</ele>
        <time>2023-02-16T12:13:44Z</time>
      </trkpt>
      <trkpt lat="44.85149" lon="6.977">
        <ele>2524</ele>
        <time>2023-02-16T12:13:45Z</time>
      </trkpt>
      <trkpt lat="44.85152" lon="6.97701">
        <ele>2521.8</ele>
        <time>2023-02-16T12:13:46Z</time>
      </trkpt>
      <trkpt lat="44.85155" lon="6.97702">
        <ele>2519.6</ele>
        <time>2023-02-16T12:13:47Z</time>
      </trkpt>
      <trkpt lat="44.85158" lon="6.97707">
        <ele>2516.8</ele>
        <time>2023-02-16T12:13:48Z</time>
      </trkpt>
      <trkpt lat="44.8516" lon="6.97713">
        <ele>2514.3</ele>
        <time>2023-02-16T12:13:49Z</time>
      </trkpt>
      <trkpt lat="44.85161" lon="6.97718">
        <ele>2512.6</ele>
        <time>2023-02-16T12:13:50Z</time>
      </trkpt>
      <trkpt lat="44.85161" lon="6.97725">
        <ele>2511.5</ele>
        <time>2023-02-16T12:13:51Z</time>
      </trkpt>
      <trkpt lat="44.85161" lon="6.97732">
        <ele>2510.5</ele>
        <time>2023-02-16T12:13:52Z</time>
      </trkpt>
      <trkpt lat="44.85161" lon="6.97741">
        <ele>2509.2</ele>
        <time>2023-02-16T12:13:53Z</time>
      </trkpt>
      <trkpt lat="44.85161" lon="6.9775">
        <ele>2507.9</ele>
        <time>2023-02-16T12:13:54Z</time>
      </trkpt>
      <trkpt lat="44.8516" lon="6.97758">
        <ele>2507.6</ele>
        <time>2023-02-16T12:13:55Z</time>
      </trkpt>
      <trkpt lat="44.85159" lon="6.97765">
        <ele>2507.3</ele>
        <time>2023-02-16T12:13:56Z</time>
      </trkpt>
      <trkpt lat="44.85159" lon="6.97772">
        <ele>2506.4</ele>
        <time>2023-02-16T12:13:57Z</time>
      </trkpt>
      <trkpt lat="44.85158" lon="6.97783">
        <ele>2505.6</ele>
        <time>2023-02-16T12:13:59Z</time>
      </trkpt>
      <trkpt lat="44.85158" lon="6.97795">
        <ele>2504</ele>
        <time>2023-02-16T12:14:01Z</time>
      </trkpt>
      <trkpt lat="44.85158" lon="6.97801">
        <ele>2503.2</ele>
        <time>2023-02-16T12:14:02Z</time>
      </trkpt>
      <trkpt lat="44.85158" lon="6.97814">
        <ele>2501.7</ele>
        <time>2023-02-16T12:14:04Z</time>
      </trkpt>
      <trkpt lat="44.85157" lon="6.97823">
        <ele>2501.4</ele>
        <time>2023-02-16T12:14:06Z</time>
      </trkpt>
      <trkpt lat="44.85158" lon="6.97829">
        <ele>2500.1</ele>
        <time>2023-02-16T12:14:08Z</time>
      </trkpt>
      <trkpt lat="44.85161" lon="6.97832">
        <ele>2497.8</ele>
        <time>2023-02-16T12:14:10Z</time>
      </trkpt>
      <trkpt lat="44.85165" lon="6.97831">
        <ele>2495.3</ele>
        <time>2023-02-16T12:14:11Z</time>
      </trkpt>
      <trkpt lat="44.85168" lon="6.97832">
        <ele>2493.3</ele>
        <time>2023-02-16T12:14:12Z</time>
      </trkpt>
      <trkpt lat="44.85171" lon="6.97833">
        <ele>2491.4</ele>
        <time>2023-02-16T12:14:13Z</time>
      </trkpt>
      <trkpt lat="44.85174" lon="6.97833">
        <ele>2489.5</ele>
        <time>2023-02-16T12:14:14Z</time>
      </trkpt>
      <trkpt lat="44.85177" lon="6.97835">
        <ele>2487.7</ele>
        <time>2023-02-16T12:14:15Z</time>
      </trkpt>
      <trkpt lat="44.85181" lon="6.97835">
        <ele>2485.2</ele>
        <time>2023-02-16T12:14:16Z</time>
      </trkpt>
      <trkpt lat="44.85186" lon="6.97836">
        <ele>2482.1</ele>
        <time>2023-02-16T12:14:17Z</time>
      </trkpt>
      <trkpt lat="44.8519" lon="6.97837">
        <ele>2479.5</ele>
        <time>2023-02-16T12:14:18Z</time>
      </trkpt>
      <trkpt lat="44.85194" lon="6.97837">
        <ele>2477</ele>
        <time>2023-02-16T12:14:19Z</time>
      </trkpt>
      <trkpt lat="44.852" lon="6.97837">
        <ele>2473.2</ele>
        <time>2023-02-16T12:14:20Z</time>
      </trkpt>
      <trkpt lat="44.85205" lon="6.97837">
        <ele>2470</ele>
        <time>2023-02-16T12:14:21Z</time>
      </trkpt>
      <trkpt lat="44.8521" lon="6.97837">
        <ele>2466.9</ele>
        <time>2023-02-16T12:14:22Z</time>
      </trkpt>
      <trkpt lat="44.85215" lon="6.97837">
        <ele>2463.7</ele>
        <time>2023-02-16T12:14:23Z</time>
      </trkpt>
      <trkpt lat="44.85221" lon="6.97838">
        <ele>2459.9</ele>
        <time>2023-02-16T12:14:24Z</time>
      </trkpt>
      <trkpt lat="44.85226" lon="6.97838">
        <ele>2457.1</ele>
        <time>2023-02-16T12:14:25Z</time>
      </trkpt>
      <trkpt lat="44.85231" lon="6.97839">
        <ele>2454.3</ele>
        <time>2023-02-16T12:14:26Z</time>
      </trkpt>
      <trkpt lat="44.85236" lon="6.97839">
        <ele>2451.6</ele>
        <time>2023-02-16T12:14:27Z</time>
      </trkpt>
      <trkpt lat="44.85241" lon="6.97839">
        <ele>2448.8</ele>
        <time>2023-02-16T12:14:28Z</time>
      </trkpt>
      <trkpt lat="44.85245" lon="6.97841">
        <ele>2446.8</ele>
        <time>2023-02-16T12:14:29Z</time>
      </trkpt>
      <trkpt lat="44.85249" lon="6.97846">
        <ele>2445.4</ele>
        <time>2023-02-16T12:14:30Z</time>
      </trkpt>
      <trkpt lat="44.85253" lon="6.97852">
        <ele>2444.9</ele>
        <time>2023-02-16T12:14:31Z</time>
      </trkpt>
      <trkpt lat="44.85259" lon="6.97857">
        <ele>2443.9</ele>
        <time>2023-02-16T12:14:32Z</time>
      </trkpt>
      <trkpt lat="44.85266" lon="6.97862">
        <ele>2442.4</ele>
        <time>2023-02-16T12:14:33Z</time>
      </trkpt>
      <trkpt lat="44.85273" lon="6.97867">
        <ele>2440.6</ele>
        <time>2023-02-16T12:14:34Z</time>
      </trkpt>
      <trkpt lat="44.85281" lon="6.97869">
        <ele>2438.7</ele>
        <time>2023-02-16T12:14:35Z</time>
      </trkpt>
      <trkpt lat="44.85289" lon="6.97868">
        <ele>2437.1</ele>
        <time>2023-02-16T12:14:36Z</time>
      </trkpt>
      <trkpt lat="44.85299" lon="6.97865">
        <ele>2435.2</ele>
        <time>2023-02-16T12:14:37Z</time>
      </trkpt>
      <trkpt lat="44.85306" lon="6.97866">
        <ele>2433.9</ele>
        <time>2023-02-16T12:14:38Z</time>
      </trkpt>
      <trkpt lat="44.85312" lon="6.97866">
        <ele>2432.9</ele>
        <time>2023-02-16T12:14:39Z</time>
      </trkpt>
      <trkpt lat="44.85314" lon="6.97864">
        <ele>2432.5</ele>
        <time>2023-02-16T12:14:40Z</time>
      </trkpt>
      <trkpt lat="44.85316" lon="6.97861">
        <ele>2432.1</ele>
        <time>2023-02-16T12:14:42Z</time>
      </trkpt>
      <trkpt lat="44.85315" lon="6.97859">
        <ele>2432.2</ele>
        <time>2023-02-16T12:14:43Z</time>
      </trkpt>
      <trkpt lat="44.85312" lon="6.97856">
        <ele>2432.5</ele>
        <time>2023-02-16T12:14:50Z</time>
      </trkpt>
      <trkpt lat="44.85313" lon="6.97854">
        <ele>2432.2</ele>
        <time>2023-02-16T12:15:07Z</time>
      </trkpt>
      <trkpt lat="44.85312" lon="6.97854">
        <ele>2432.4</ele>
        <time>2023-02-16T12:15:23Z</time>
      </trkpt>
      <trkpt lat="44.8531" lon="6.97853">
        <ele>2432.7</ele>
        <time>2023-02-16T12:15:42Z</time>
      </trkpt>
      <trkpt lat="44.8531" lon="6.97852">
        <ele>2432.6</ele>
        <time>2023-02-16T12:15:50Z</time>
      </trkpt>
      <trkpt lat="44.8531" lon="6.97853">
        <ele>2432.7</ele>
        <time>2023-02-16T12:15:57Z</time>
      </trkpt>
      <trkpt lat="44.8531" lon="6.97852">
        <ele>2432.6</ele>
        <time>2023-02-16T12:16:11Z</time>
      </trkpt>
      <trkpt lat="44.8531" lon="6.97853">
        <ele>2432.7</ele>
        <time>2023-02-16T12:16:26Z</time>
      </trkpt>
      <trkpt lat="44.85311" lon="6.97849">
        <ele>2432.2</ele>
        <time>2023-02-16T12:16:39Z</time>
      </trkpt>
      <trkpt lat="44.85311" lon="6.97848">
        <ele>2432.2</ele>
        <time>2023-02-16T12:16:40Z</time>
      </trkpt>
      <trkpt lat="44.85315" lon="6.97833">
        <ele>2430.6</ele>
        <time>2023-02-16T12:16:45Z</time>
      </trkpt>
      <trkpt lat="44.85321" lon="6.97802">
        <ele>2426.1</ele>
        <time>2023-02-16T12:16:49Z</time>
      </trkpt>
      <trkpt lat="44.85327" lon="6.97782">
        <ele>2424.5</ele>
        <time>2023-02-16T12:16:51Z</time>
      </trkpt>
      <trkpt lat="44.85334" lon="6.97761">
        <ele>2421.7</ele>
        <time>2023-02-16T12:16:53Z</time>
      </trkpt>
      <trkpt lat="44.85338" lon="6.97751">
        <ele>2420.4</ele>
        <time>2023-02-16T12:16:54Z</time>
      </trkpt>
      <trkpt lat="44.85342" lon="6.97741">
        <ele>2419.8</ele>
        <time>2023-02-16T12:16:55Z</time>
      </trkpt>
      <trkpt lat="44.85346" lon="6.97731">
        <ele>2419.2</ele>
        <time>2023-02-16T12:16:56Z</time>
      </trkpt>
      <trkpt lat="44.8535" lon="6.97722">
        <ele>2418.6</ele>
        <time>2023-02-16T12:16:57Z</time>
      </trkpt>
      <trkpt lat="44.85354" lon="6.97715">
        <ele>2418</ele>
        <time>2023-02-16T12:16:58Z</time>
      </trkpt>
      <trkpt lat="44.85358" lon="6.97709">
        <ele>2417.2</ele>
        <time>2023-02-16T12:16:59Z</time>
      </trkpt>
      <trkpt lat="44.85367" lon="6.97697">
        <ele>2415</ele>
        <time>2023-02-16T12:17:01Z</time>
      </trkpt>
      <trkpt lat="44.85371" lon="6.97691">
        <ele>2414.3</ele>
        <time>2023-02-16T12:17:02Z</time>
      </trkpt>
      <trkpt lat="44.85375" lon="6.97683">
        <ele>2413.5</ele>
        <time>2023-02-16T12:17:03Z</time>
      </trkpt>
      <trkpt lat="44.85378" lon="6.97674">
        <ele>2412.8</ele>
        <time>2023-02-16T12:17:04Z</time>
      </trkpt>
      <trkpt lat="44.85382" lon="6.97658">
        <ele>2411.8</ele>
        <time>2023-02-16T12:17:06Z</time>
      </trkpt>
      <trkpt lat="44.85386" lon="6.97643">
        <ele>2410.8</ele>
        <time>2023-02-16T12:17:08Z</time>
      </trkpt>
      <trkpt lat="44.85387" lon="6.97635">
        <ele>2410.5</ele>
        <time>2023-02-16T12:17:09Z</time>
      </trkpt>
      <trkpt lat="44.85388" lon="6.97621">
        <ele>2410.2</ele>
        <time>2023-02-16T12:17:11Z</time>
      </trkpt>
      <trkpt lat="44.85388" lon="6.97604">
        <ele>2408.9</ele>
        <time>2023-02-16T12:17:14Z</time>
      </trkpt>
      <trkpt lat="44.85385" lon="6.9759">
        <ele>2407.3</ele>
        <time>2023-02-16T12:17:17Z</time>
      </trkpt>
      <trkpt lat="44.85384" lon="6.97576">
        <ele>2405.8</ele>
        <time>2023-02-16T12:17:19Z</time>
      </trkpt>
      <trkpt lat="44.85383" lon="6.97567">
        <ele>2405.6</ele>
        <time>2023-02-16T12:17:20Z</time>
      </trkpt>
      <trkpt lat="44.85384" lon="6.97549">
        <ele>2404.2</ele>
        <time>2023-02-16T12:17:22Z</time>
      </trkpt>
      <trkpt lat="44.85384" lon="6.9754">
        <ele>2404</ele>
        <time>2023-02-16T12:17:23Z</time>
      </trkpt>
      <trkpt lat="44.85386" lon="6.97531">
        <ele>2402.7</ele>
        <time>2023-02-16T12:17:24Z</time>
      </trkpt>
      <trkpt lat="44.8539" lon="6.97515">
        <ele>2401.5</ele>
        <time>2023-02-16T12:17:26Z</time>
      </trkpt>
      <trkpt lat="44.85393" lon="6.97499">
        <ele>2401.4</ele>
        <time>2023-02-16T12:17:28Z</time>
      </trkpt>
      <trkpt lat="44.85397" lon="6.97486">
        <ele>2401.4</ele>
        <time>2023-02-16T12:17:30Z</time>
      </trkpt>
      <trkpt lat="44.85402" lon="6.97473">
        <ele>2400.8</ele>
        <time>2023-02-16T12:17:33Z</time>
      </trkpt>
      <trkpt lat="44.85408" lon="6.97456">
        <ele>2398.8</ele>
        <time>2023-02-16T12:17:39Z</time>
      </trkpt>
      <trkpt lat="44.85412" lon="6.97439">
        <ele>2397.2</ele>
        <time>2023-02-16T12:17:45Z</time>
      </trkpt>
      <trkpt lat="44.85413" lon="6.9743">
        <ele>2396.3</ele>
        <time>2023-02-16T12:17:48Z</time>
      </trkpt>
      <trkpt lat="44.85416" lon="6.97412">
        <ele>2394.2</ele>
        <time>2023-02-16T12:17:52Z</time>
      </trkpt>
      <trkpt lat="44.85417" lon="6.97406">
        <ele>2393.4</ele>
        <time>2023-02-16T12:17:53Z</time>
      </trkpt>
      <trkpt lat="44.85418" lon="6.97399">
        <ele>2392.7</ele>
        <time>2023-02-16T12:17:54Z</time>
      </trkpt>
      <trkpt lat="44.8542" lon="6.97385">
        <ele>2391.3</ele>
        <time>2023-02-16T12:17:56Z</time>
      </trkpt>
      <trkpt lat="44.85425" lon="6.97373">
        <ele>2388.6</ele>
        <time>2023-02-16T12:17:58Z</time>
      </trkpt>
      <trkpt lat="44.85428" lon="6.97368">
        <ele>2387</ele>
        <time>2023-02-16T12:17:59Z</time>
      </trkpt>
      <trkpt lat="44.85432" lon="6.97363">
        <ele>2384.8</ele>
        <time>2023-02-16T12:18:00Z</time>
      </trkpt>
      <trkpt lat="44.85436" lon="6.97357">
        <ele>2382.4</ele>
        <time>2023-02-16T12:18:01Z</time>
      </trkpt>
      <trkpt lat="44.85441" lon="6.9735">
        <ele>2379.5</ele>
        <time>2023-02-16T12:18:02Z</time>
      </trkpt>
      <trkpt lat="44.85446" lon="6.97339">
        <ele>2376.6</ele>
        <time>2023-02-16T12:18:03Z</time>
      </trkpt>
      <trkpt lat="44.85448" lon="6.97328">
        <ele>2375.2</ele>
        <time>2023-02-16T12:18:04Z</time>
      </trkpt>
      <trkpt lat="44.8545" lon="6.97317">
        <ele>2373.6</ele>
        <time>2023-02-16T12:18:05Z</time>
      </trkpt>
      <trkpt lat="44.85451" lon="6.97306">
        <ele>2372.4</ele>
        <time>2023-02-16T12:18:06Z</time>
      </trkpt>
      <trkpt lat="44.85453" lon="6.97294">
        <ele>2371.7</ele>
        <time>2023-02-16T12:18:07Z</time>
      </trkpt>
      <trkpt lat="44.85456" lon="6.97284">
        <ele>2370.7</ele>
        <time>2023-02-16T12:18:08Z</time>
      </trkpt>
      <trkpt lat="44.85459" lon="6.97273">
        <ele>2370.2</ele>
        <time>2023-02-16T12:18:09Z</time>
      </trkpt>
      <trkpt lat="44.85462" lon="6.97264">
        <ele>2370</ele>
        <time>2023-02-16T12:18:10Z</time>
      </trkpt>
      <trkpt lat="44.85469" lon="6.97247">
        <ele>2369.4</ele>
        <time>2023-02-16T12:18:12Z</time>
      </trkpt>
      <trkpt lat="44.85472" lon="6.9724">
        <ele>2369.2</ele>
        <time>2023-02-16T12:18:13Z</time>
      </trkpt>
      <trkpt lat="44.85476" lon="6.97233">
        <ele>2368.5</ele>
        <time>2023-02-16T12:18:14Z</time>
      </trkpt>
      <trkpt lat="44.85483" lon="6.97221">
        <ele>2367.3</ele>
        <time>2023-02-16T12:18:16Z</time>
      </trkpt>
      <trkpt lat="44.85488" lon="6.9721">
        <ele>2367.3</ele>
        <time>2023-02-16T12:18:18Z</time>
      </trkpt>
      <trkpt lat="44.85491" lon="6.97206">
        <ele>2366.8</ele>
        <time>2023-02-16T12:18:19Z</time>
      </trkpt>
      <trkpt lat="44.85494" lon="6.972">
        <ele>2366.5</ele>
        <time>2023-02-16T12:18:21Z</time>
      </trkpt>
      <trkpt lat="44.85497" lon="6.97197">
        <ele>2365.8</ele>
        <time>2023-02-16T12:18:23Z</time>
      </trkpt>
      <trkpt lat="44.85498" lon="6.97195">
        <ele>2365.7</ele>
        <time>2023-02-16T12:18:24Z</time>
      </trkpt>
      <trkpt lat="44.85506" lon="6.97189">
        <ele>2363.5</ele>
        <time>2023-02-16T12:18:28Z</time>
      </trkpt>
      <trkpt lat="44.8551" lon="6.97186">
        <ele>2362.4</ele>
        <time>2023-02-16T12:18:29Z</time>
      </trkpt>
      <trkpt lat="44.85524" lon="6.97172">
        <ele>2358.8</ele>
        <time>2023-02-16T12:18:32Z</time>
      </trkpt>
      <trkpt lat="44.85534" lon="6.97162">
        <ele>2357</ele>
        <time>2023-02-16T12:18:34Z</time>
      </trkpt>
      <trkpt lat="44.85542" lon="6.97155">
        <ele>2355.8</ele>
        <time>2023-02-16T12:18:36Z</time>
      </trkpt>
      <trkpt lat="44.85547" lon="6.9715">
        <ele>2355.3</ele>
        <time>2023-02-16T12:18:38Z</time>
      </trkpt>
      <trkpt lat="44.85551" lon="6.97147">
        <ele>2354.5</ele>
        <time>2023-02-16T12:18:40Z</time>
      </trkpt>
      <trkpt lat="44.85553" lon="6.97145">
        <ele>2354.2</ele>
        <time>2023-02-16T12:18:41Z</time>
      </trkpt>
      <trkpt lat="44.85555" lon="6.97144">
        <ele>2353.6</ele>
        <time>2023-02-16T12:18:42Z</time>
      </trkpt>
      <trkpt lat="44.85556" lon="6.97141">
        <ele>2354</ele>
        <time>2023-02-16T12:18:46Z</time>
      </trkpt>
      <trkpt lat="44.85557" lon="6.97142">
        <ele>2353</ele>
        <time>2023-02-16T12:18:59Z</time>
      </trkpt>
      <trkpt lat="44.85559" lon="6.97141">
        <ele>2352</ele>
        <time>2023-02-16T12:19:02Z</time>
      </trkpt>
      <trkpt lat="44.85564" lon="6.97135">
        <ele>2350.3</ele>
        <time>2023-02-16T12:19:05Z</time>
      </trkpt>
      <trkpt lat="44.85568" lon="6.97128">
        <ele>2349.6</ele>
        <time>2023-02-16T12:19:07Z</time>
      </trkpt>
      <trkpt lat="44.85575" lon="6.97118">
        <ele>2347.7</ele>
        <time>2023-02-16T12:19:10Z</time>
      </trkpt>
      <trkpt lat="44.85581" lon="6.97111">
        <ele>2345.6</ele>
        <time>2023-02-16T12:19:12Z</time>
      </trkpt>
      <trkpt lat="44.85587" lon="6.97104">
        <ele>2344.6</ele>
        <time>2023-02-16T12:19:14Z</time>
      </trkpt>
      <trkpt lat="44.85592" lon="6.97097">
        <ele>2344.1</ele>
        <time>2023-02-16T12:19:17Z</time>
      </trkpt>
      <trkpt lat="44.85598" lon="6.97086">
        <ele>2343.7</ele>
        <time>2023-02-16T12:19:23Z</time>
      </trkpt>
      <trkpt lat="44.856" lon="6.97083">
        <ele>2343.3</ele>
        <time>2023-02-16T12:19:24Z</time>
      </trkpt>
      <trkpt lat="44.85605" lon="6.97075">
        <ele>2341.3</ele>
        <time>2023-02-16T12:19:27Z</time>
      </trkpt>
      <trkpt lat="44.85611" lon="6.97062">
        <ele>2339.9</ele>
        <time>2023-02-16T12:19:30Z</time>
      </trkpt>
      <trkpt lat="44.85613" lon="6.97058">
        <ele>2339.5</ele>
        <time>2023-02-16T12:19:31Z</time>
      </trkpt>
      <trkpt lat="44.85614" lon="6.97054">
        <ele>2339.5</ele>
        <time>2023-02-16T12:19:32Z</time>
      </trkpt>
      <trkpt lat="44.85616" lon="6.97047">
        <ele>2339</ele>
        <time>2023-02-16T12:19:34Z</time>
      </trkpt>
      <trkpt lat="44.85617" lon="6.97044">
        <ele>2338.7</ele>
        <time>2023-02-16T12:19:35Z</time>
      </trkpt>
      <trkpt lat="44.85623" lon="6.97029">
        <ele>2337.3</ele>
        <time>2023-02-16T12:19:39Z</time>
      </trkpt>
      <trkpt lat="44.85625" lon="6.97025">
        <ele>2336.8</ele>
        <time>2023-02-16T12:19:40Z</time>
      </trkpt>
      <trkpt lat="44.85626" lon="6.97022">
        <ele>2336.7</ele>
        <time>2023-02-16T12:19:41Z</time>
      </trkpt>
      <trkpt lat="44.85629" lon="6.97017">
        <ele>2335.8</ele>
        <time>2023-02-16T12:19:43Z</time>
      </trkpt>
      <trkpt lat="44.85631" lon="6.97012">
        <ele>2335.3</ele>
        <time>2023-02-16T12:19:45Z</time>
      </trkpt>
      <trkpt lat="44.85635" lon="6.97">
        <ele>2334.2</ele>
        <time>2023-02-16T12:19:49Z</time>
      </trkpt>
      <trkpt lat="44.85637" lon="6.96993">
        <ele>2333.8</ele>
        <time>2023-02-16T12:19:51Z</time>
      </trkpt>
      <trkpt lat="44.85639" lon="6.96989">
        <ele>2333.1</ele>
        <time>2023-02-16T12:19:52Z</time>
      </trkpt>
      <trkpt lat="44.85643" lon="6.96978">
        <ele>2332.6</ele>
        <time>2023-02-16T12:19:55Z</time>
      </trkpt>
      <trkpt lat="44.8565" lon="6.96962">
        <ele>2331.2</ele>
        <time>2023-02-16T12:19:59Z</time>
      </trkpt>
      <trkpt lat="44.85651" lon="6.96958">
        <ele>2331.1</ele>
        <time>2023-02-16T12:20:00Z</time>
      </trkpt>
      <trkpt lat="44.85656" lon="6.96944">
        <ele>2330</ele>
        <time>2023-02-16T12:20:03Z</time>
      </trkpt>
      <trkpt lat="44.85659" lon="6.96935">
        <ele>2329.5</ele>
        <time>2023-02-16T12:20:05Z</time>
      </trkpt>
      <trkpt lat="44.85663" lon="6.96925">
        <ele>2328.3</ele>
        <time>2023-02-16T12:20:07Z</time>
      </trkpt>
      <trkpt lat="44.8567" lon="6.96914">
        <ele>2326.5</ele>
        <time>2023-02-16T12:20:09Z</time>
      </trkpt>
      <trkpt lat="44.85677" lon="6.96903">
        <ele>2326.1</ele>
        <time>2023-02-16T12:20:11Z</time>
      </trkpt>
      <trkpt lat="44.8568" lon="6.96898">
        <ele>2325.9</ele>
        <time>2023-02-16T12:20:12Z</time>
      </trkpt>
      <trkpt lat="44.85686" lon="6.96889">
        <ele>2325</ele>
        <time>2023-02-16T12:20:14Z</time>
      </trkpt>
      <trkpt lat="44.85694" lon="6.96879">
        <ele>2323.6</ele>
        <time>2023-02-16T12:20:17Z</time>
      </trkpt>
      <trkpt lat="44.857" lon="6.96873">
        <ele>2322.7</ele>
        <time>2023-02-16T12:20:19Z</time>
      </trkpt>
      <trkpt lat="44.85709" lon="6.96864">
        <ele>2321</ele>
        <time>2023-02-16T12:20:22Z</time>
      </trkpt>
      <trkpt lat="44.85714" lon="6.96863">
        <ele>2319.5</ele>
        <time>2023-02-16T12:20:23Z</time>
      </trkpt>
      <trkpt lat="44.85725" lon="6.96863">
        <ele>2316.4</ele>
        <time>2023-02-16T12:20:25Z</time>
      </trkpt>
      <trkpt lat="44.8573" lon="6.96864">
        <ele>2315.4</ele>
        <time>2023-02-16T12:20:26Z</time>
      </trkpt>
      <trkpt lat="44.85736" lon="6.96864">
        <ele>2314.3</ele>
        <time>2023-02-16T12:20:27Z</time>
      </trkpt>
      <trkpt lat="44.85745" lon="6.96859">
        <ele>2313</ele>
        <time>2023-02-16T12:20:29Z</time>
      </trkpt>
      <trkpt lat="44.85749" lon="6.96857">
        <ele>2312.3</ele>
        <time>2023-02-16T12:20:30Z</time>
      </trkpt>
      <trkpt lat="44.85751" lon="6.96856">
        <ele>2312</ele>
        <time>2023-02-16T12:20:32Z</time>
      </trkpt>
      <trkpt lat="44.85752" lon="6.96856">
        <ele>2311.8</ele>
        <time>2023-02-16T12:20:33Z</time>
      </trkpt>
      <trkpt lat="44.85749" lon="6.96857">
        <ele>2312.3</ele>
        <time>2023-02-16T12:20:40Z</time>
      </trkpt>
      <trkpt lat="44.85749" lon="6.96856">
        <ele>2312.4</ele>
        <time>2023-02-16T12:20:52Z</time>
      </trkpt>
      <trkpt lat="44.85748" lon="6.96857">
        <ele>2312.5</ele>
        <time>2023-02-16T12:21:03Z</time>
      </trkpt>
      <trkpt lat="44.85747" lon="6.96858">
        <ele>2312.7</ele>
        <time>2023-02-16T12:21:20Z</time>
      </trkpt>
      <trkpt lat="44.85748" lon="6.96857">
        <ele>2312.5</ele>
        <time>2023-02-16T12:21:32Z</time>
      </trkpt>
      <trkpt lat="44.85748" lon="6.96857">
        <ele>2312.5</ele>
        <time>2023-02-16T12:21:41Z</time>
      </trkpt>
      <trkpt lat="44.85748" lon="6.96857">
        <ele>2312.5</ele>
        <time>2023-02-16T12:21:44Z</time>
      </trkpt>
      <trkpt lat="44.85748" lon="6.96859">
        <ele>2312.4</ele>
        <time>2023-02-16T12:22:00Z</time>
      </trkpt>
      <trkpt lat="44.85749" lon="6.96856">
        <ele>2312.4</ele>
        <time>2023-02-16T12:22:13Z</time>
      </trkpt>
      <trkpt lat="44.85749" lon="6.96856">
        <ele>2312.4</ele>
        <time>2023-02-16T12:22:29Z</time>
      </trkpt>
      <trkpt lat="44.85748" lon="6.96857">
        <ele>2312.5</ele>
        <time>2023-02-16T12:22:42Z</time>
      </trkpt>
      <trkpt lat="44.85747" lon="6.96858">
        <ele>2312.7</ele>
        <time>2023-02-16T12:22:52Z</time>
      </trkpt>
      <trkpt lat="44.85747" lon="6.96858">
        <ele>2312.7</ele>
        <time>2023-02-16T12:22:58Z</time>
      </trkpt>
      <trkpt lat="44.85747" lon="6.96858">
        <ele>2312.7</ele>
        <time>2023-02-16T12:23:00Z</time>
      </trkpt>
      <trkpt lat="44.85747" lon="6.96858">
        <ele>2312.7</ele>
        <time>2023-02-16T12:23:12Z</time>
      </trkpt>
      <trkpt lat="44.85748" lon="6.96858">
        <ele>2312.5</ele>
        <time>2023-02-16T12:23:20Z</time>
      </trkpt>
      <trkpt lat="44.85747" lon="6.96858">
        <ele>2312.7</ele>
        <time>2023-02-16T12:23:25Z</time>
      </trkpt>
      <trkpt lat="44.85747" lon="6.96857">
        <ele>2312.7</ele>
        <time>2023-02-16T12:23:42Z</time>
      </trkpt>
      <trkpt lat="44.85748" lon="6.96857">
        <ele>2312.5</ele>
        <time>2023-02-16T12:23:53Z</time>
      </trkpt>
      <trkpt lat="44.85747" lon="6.96857">
        <ele>2312.7</ele>
        <time>2023-02-16T12:24:06Z</time>
      </trkpt>
      <trkpt lat="44.85747" lon="6.96857">
        <ele>2312.7</ele>
        <time>2023-02-16T12:24:10Z</time>
      </trkpt>
      <trkpt lat="44.85748" lon="6.96857">
        <ele>2312.5</ele>
        <time>2023-02-16T12:24:20Z</time>
      </trkpt>
      <trkpt lat="44.85748" lon="6.96858">
        <ele>2312.5</ele>
        <time>2023-02-16T12:24:35Z</time>
      </trkpt>
      <trkpt lat="44.85748" lon="6.96858">
        <ele>2312.5</ele>
        <time>2023-02-16T12:24:46Z</time>
      </trkpt>
      <trkpt lat="44.85747" lon="6.96859">
        <ele>2312.6</ele>
        <time>2023-02-16T12:24:55Z</time>
      </trkpt>
      <trkpt lat="44.85748" lon="6.9686">
        <ele>2312.4</ele>
        <time>2023-02-16T12:25:09Z</time>
      </trkpt>
      <trkpt lat="44.85748" lon="6.96859">
        <ele>2312.4</ele>
        <time>2023-02-16T12:25:24Z</time>
      </trkpt>
      <trkpt lat="44.85748" lon="6.9686">
        <ele>2312.4</ele>
        <time>2023-02-16T12:25:38Z</time>
      </trkpt>
      <trkpt lat="44.85747" lon="6.96859">
        <ele>2312.6</ele>
        <time>2023-02-16T12:25:54Z</time>
      </trkpt>
      <trkpt lat="44.85748" lon="6.96858">
        <ele>2312.5</ele>
        <time>2023-02-16T12:26:07Z</time>
      </trkpt>
      <trkpt lat="44.85747" lon="6.96857">
        <ele>2312.7</ele>
        <time>2023-02-16T12:26:19Z</time>
      </trkpt>
      <trkpt lat="44.85748" lon="6.96856">
        <ele>2312.6</ele>
        <time>2023-02-16T12:26:35Z</time>
      </trkpt>
      <trkpt lat="44.85748" lon="6.96857">
        <ele>2312.5</ele>
        <time>2023-02-16T12:26:48Z</time>
      </trkpt>
      <trkpt lat="44.85748" lon="6.96856">
        <ele>2312.6</ele>
        <time>2023-02-16T12:27:02Z</time>
      </trkpt>
      <trkpt lat="44.85748" lon="6.96856">
        <ele>2312.6</ele>
        <time>2023-02-16T12:27:17Z</time>
      </trkpt>
      <trkpt lat="44.85748" lon="6.96856">
        <ele>2312.6</ele>
        <time>2023-02-16T12:27:32Z</time>
      </trkpt>
      <trkpt lat="44.85748" lon="6.96856">
        <ele>2312.6</ele>
        <time>2023-02-16T12:27:49Z</time>
      </trkpt>
      <trkpt lat="44.85748" lon="6.96855">
        <ele>2312.6</ele>
        <time>2023-02-16T12:28:07Z</time>
      </trkpt>
      <trkpt lat="44.85748" lon="6.96856">
        <ele>2312.6</ele>
        <time>2023-02-16T12:28:23Z</time>
      </trkpt>
      <trkpt lat="44.85748" lon="6.96856">
        <ele>2312.6</ele>
        <time>2023-02-16T12:28:38Z</time>
      </trkpt>
      <trkpt lat="44.85747" lon="6.96857">
        <ele>2312.7</ele>
        <time>2023-02-16T12:28:48Z</time>
      </trkpt>
      <trkpt lat="44.85747" lon="6.96858">
        <ele>2312.7</ele>
        <time>2023-02-16T12:29:07Z</time>
      </trkpt>
      <trkpt lat="44.85748" lon="6.96858">
        <ele>2312.5</ele>
        <time>2023-02-16T12:29:25Z</time>
      </trkpt>
      <trkpt lat="44.85749" lon="6.96858">
        <ele>2312.3</ele>
        <time>2023-02-16T12:29:42Z</time>
      </trkpt>
      <trkpt lat="44.85748" lon="6.96858">
        <ele>2312.5</ele>
        <time>2023-02-16T12:30:14Z</time>
      </trkpt>
      <trkpt lat="44.85748" lon="6.96858">
        <ele>2312.5</ele>
        <time>2023-02-16T12:32:04Z</time>
      </trkpt>
      <trkpt lat="44.85748" lon="6.96858">
        <ele>2312.5</ele>
        <time>2023-02-16T12:32:24Z</time>
      </trkpt>
      <trkpt lat="44.85748" lon="6.96859">
        <ele>2312.4</ele>
        <time>2023-02-16T12:33:19Z</time>
      </trkpt>
      <trkpt lat="44.85748" lon="6.96859">
        <ele>2312.4</ele>
        <time>2023-02-16T12:33:28Z</time>
      </trkpt>
      <trkpt lat="44.85748" lon="6.96859">
        <ele>2312.4</ele>
        <time>2023-02-16T12:33:37Z</time>
      </trkpt>
      <trkpt lat="44.85747" lon="6.96859">
        <ele>2312.6</ele>
        <time>2023-02-16T12:33:51Z</time>
      </trkpt>
      <trkpt lat="44.85746" lon="6.96859">
        <ele>2312.8</ele>
        <time>2023-02-16T12:34:32Z</time>
      </trkpt>
      <trkpt lat="44.85746" lon="6.96859">
        <ele>2312.8</ele>
        <time>2023-02-16T12:35:19Z</time>
      </trkpt>
      <trkpt lat="44.85746" lon="6.96859">
        <ele>2312.8</ele>
        <time>2023-02-16T12:35:21Z</time>
      </trkpt>
      <trkpt lat="44.85746" lon="6.96859">
        <ele>2312.8</ele>
        <time>2023-02-16T12:36:38Z</time>
      </trkpt>
      <trkpt lat="44.85746" lon="6.96859">
        <ele>2312.8</ele>
        <time>2023-02-16T12:36:39Z</time>
      </trkpt>
      <trkpt lat="44.85747" lon="6.96858">
        <ele>2312.7</ele>
        <time>2023-02-16T12:37:14Z</time>
      </trkpt>
      <trkpt lat="44.85747" lon="6.96858">
        <ele>2312.7</ele>
        <time>2023-02-16T12:37:32Z</time>
      </trkpt>
      <trkpt lat="44.85747" lon="6.96858">
        <ele>2312.7</ele>
        <time>2023-02-16T12:37:49Z</time>
      </trkpt>
      <trkpt lat="44.85746" lon="6.96859">
        <ele>2312.8</ele>
        <time>2023-02-16T12:38:04Z</time>
      </trkpt>
      <trkpt lat="44.85746" lon="6.96859">
        <ele>2312.8</ele>
        <time>2023-02-16T12:38:21Z</time>
      </trkpt>
      <trkpt lat="44.85746" lon="6.96859">
        <ele>2312.8</ele>
        <time>2023-02-16T12:38:38Z</time>
      </trkpt>
      <trkpt lat="44.85748" lon="6.96857">
        <ele>2312.5</ele>
        <time>2023-02-16T12:38:55Z</time>
      </trkpt>
      <trkpt lat="44.85749" lon="6.96856">
        <ele>2312.4</ele>
        <time>2023-02-16T12:39:13Z</time>
      </trkpt>
      <trkpt lat="44.85749" lon="6.96857">
        <ele>2312.3</ele>
        <time>2023-02-16T12:39:33Z</time>
      </trkpt>
      <trkpt lat="44.85748" lon="6.96857">
        <ele>2312.5</ele>
        <time>2023-02-16T12:39:46Z</time>
      </trkpt>
      <trkpt lat="44.85748" lon="6.96857">
        <ele>2312.5</ele>
        <time>2023-02-16T12:39:56Z</time>
      </trkpt>
      <trkpt lat="44.85749" lon="6.96857">
        <ele>2312.3</ele>
        <time>2023-02-16T12:40:12Z</time>
      </trkpt>
      <trkpt lat="44.85749" lon="6.96857">
        <ele>2312.3</ele>
        <time>2023-02-16T12:40:29Z</time>
      </trkpt>
      <trkpt lat="44.85749" lon="6.96858">
        <ele>2312.3</ele>
        <time>2023-02-16T12:40:42Z</time>
      </trkpt>
      <trkpt lat="44.85749" lon="6.96858">
        <ele>2312.3</ele>
        <time>2023-02-16T12:41:01Z</time>
      </trkpt>
      <trkpt lat="44.85749" lon="6.96858">
        <ele>2312.3</ele>
        <time>2023-02-16T12:41:16Z</time>
      </trkpt>
      <trkpt lat="44.85749" lon="6.96858">
        <ele>2312.3</ele>
        <time>2023-02-16T12:41:24Z</time>
      </trkpt>
      <trkpt lat="44.85749" lon="6.96858">
        <ele>2312.3</ele>
        <time>2023-02-16T12:42:10Z</time>
      </trkpt>
      <trkpt lat="44.85749" lon="6.96857">
        <ele>2312.3</ele>
        <time>2023-02-16T12:42:36Z</time>
      </trkpt>
      <trkpt lat="44.85749" lon="6.96857">
        <ele>2312.3</ele>
        <time>2023-02-16T12:43:13Z</time>
      </trkpt>
      <trkpt lat="44.85749" lon="6.96858">
        <ele>2312.3</ele>
        <time>2023-02-16T12:43:24Z</time>
      </trkpt>
      <trkpt lat="44.85749" lon="6.96858">
        <ele>2312.3</ele>
        <time>2023-02-16T12:44:05Z</time>
      </trkpt>
      <trkpt lat="44.85748" lon="6.96857">
        <ele>2312.5</ele>
        <time>2023-02-16T12:45:16Z</time>
      </trkpt>
      <trkpt lat="44.85748" lon="6.96857">
        <ele>2312.5</ele>
        <time>2023-02-16T12:46:38Z</time>
      </trkpt>
      <trkpt lat="44.85749" lon="6.96857">
        <ele>2312.3</ele>
        <time>2023-02-16T12:47:04Z</time>
      </trkpt>
      <trkpt lat="44.85749" lon="6.96857">
        <ele>2312.3</ele>
        <time>2023-02-16T12:48:05Z</time>
      </trkpt>
      <trkpt lat="44.85748" lon="6.96857">
        <ele>2312.5</ele>
        <time>2023-02-16T12:48:28Z</time>
      </trkpt>
      <trkpt lat="44.85749" lon="6.96858">
        <ele>2312.3</ele>
        <time>2023-02-16T12:49:08Z</time>
      </trkpt>
      <trkpt lat="44.85749" lon="6.96858">
        <ele>2312.3</ele>
        <time>2023-02-16T12:50:11Z</time>
      </trkpt>
      <trkpt lat="44.85749" lon="6.96859">
        <ele>2312.3</ele>
        <time>2023-02-16T12:50:27Z</time>
      </trkpt>
      <trkpt lat="44.85749" lon="6.96858">
        <ele>2312.3</ele>
        <time>2023-02-16T12:50:58Z</time>
      </trkpt>
      <trkpt lat="44.85749" lon="6.96858">
        <ele>2312.3</ele>
        <time>2023-02-16T12:51:10Z</time>
      </trkpt>
      <trkpt lat="44.8575" lon="6.96857">
        <ele>2312.1</ele>
        <time>2023-02-16T12:51:36Z</time>
      </trkpt>
      <trkpt lat="44.8575" lon="6.96856">
        <ele>2312.2</ele>
        <time>2023-02-16T12:52:10Z</time>
      </trkpt>
      <trkpt lat="44.8575" lon="6.96857">
        <ele>2312.1</ele>
        <time>2023-02-16T12:52:39Z</time>
      </trkpt>
      <trkpt lat="44.85749" lon="6.96856">
        <ele>2312.4</ele>
        <time>2023-02-16T12:52:55Z</time>
      </trkpt>
      <trkpt lat="44.85747" lon="6.96856">
        <ele>2312.8</ele>
        <time>2023-02-16T12:53:21Z</time>
      </trkpt>
      <trkpt lat="44.85747" lon="6.96856">
        <ele>2312.8</ele>
        <time>2023-02-16T12:53:55Z</time>
      </trkpt>
      <trkpt lat="44.85748" lon="6.96857">
        <ele>2312.5</ele>
        <time>2023-02-16T12:54:02Z</time>
      </trkpt>
      <trkpt lat="44.85748" lon="6.96857">
        <ele>2312.5</ele>
        <time>2023-02-16T12:54:20Z</time>
      </trkpt>
      <trkpt lat="44.85748" lon="6.96858">
        <ele>2312.5</ele>
        <time>2023-02-16T12:54:38Z</time>
      </trkpt>
      <trkpt lat="44.85749" lon="6.96858">
        <ele>2312.3</ele>
        <time>2023-02-16T12:54:45Z</time>
      </trkpt>
      <trkpt lat="44.8575" lon="6.96858">
        <ele>2312.1</ele>
        <time>2023-02-16T12:54:51Z</time>
      </trkpt>
      <trkpt lat="44.85749" lon="6.96857">
        <ele>2312.3</ele>
        <time>2023-02-16T12:55:07Z</time>
      </trkpt>
      <trkpt lat="44.8575" lon="6.96857">
        <ele>2312.1</ele>
        <time>2023-02-16T12:55:18Z</time>
      </trkpt>
      <trkpt lat="44.8575" lon="6.96857">
        <ele>2312.1</ele>
        <time>2023-02-16T12:55:36Z</time>
      </trkpt>
      <trkpt lat="44.85751" lon="6.96856">
        <ele>2312</ele>
        <time>2023-02-16T12:55:49Z</time>
      </trkpt>
      <trkpt lat="44.85751" lon="6.96858">
        <ele>2311.9</ele>
        <time>2023-02-16T12:56:04Z</time>
      </trkpt>
      <trkpt lat="44.85751" lon="6.96858">
        <ele>2311.9</ele>
        <time>2023-02-16T12:56:08Z</time>
      </trkpt>
      <trkpt lat="44.85751" lon="6.96858">
        <ele>2311.9</ele>
        <time>2023-02-16T12:56:23Z</time>
      </trkpt>
      <trkpt lat="44.8575" lon="6.96859">
        <ele>2312.1</ele>
        <time>2023-02-16T12:56:38Z</time>
      </trkpt>
      <trkpt lat="44.85749" lon="6.96859">
        <ele>2312.3</ele>
        <time>2023-02-16T12:56:52Z</time>
      </trkpt>
      <trkpt lat="44.85749" lon="6.96855">
        <ele>2312.4</ele>
        <time>2023-02-16T12:57:08Z</time>
      </trkpt>
      <trkpt lat="44.85748" lon="6.96857">
        <ele>2312.5</ele>
        <time>2023-02-16T12:57:21Z</time>
      </trkpt>
      <trkpt lat="44.85747" lon="6.9686">
        <ele>2312.6</ele>
        <time>2023-02-16T12:57:36Z</time>
      </trkpt>
      <trkpt lat="44.85746" lon="6.96862">
        <ele>2312.6</ele>
        <time>2023-02-16T12:57:39Z</time>
      </trkpt>
      <trkpt lat="44.85743" lon="6.96864">
        <ele>2313</ele>
        <time>2023-02-16T12:57:42Z</time>
      </trkpt>
      <trkpt lat="44.8574" lon="6.96866">
        <ele>2313.4</ele>
        <time>2023-02-16T12:57:46Z</time>
      </trkpt>
      <trkpt lat="44.85737" lon="6.96866">
        <ele>2314</ele>
        <time>2023-02-16T12:57:50Z</time>
      </trkpt>
      <trkpt lat="44.85735" lon="6.96867">
        <ele>2314.3</ele>
        <time>2023-02-16T12:57:57Z</time>
      </trkpt>
      <trkpt lat="44.85734" lon="6.96868">
        <ele>2314.4</ele>
        <time>2023-02-16T12:58:08Z</time>
      </trkpt>
      <trkpt lat="44.85733" lon="6.96869">
        <ele>2314.6</ele>
        <time>2023-02-16T12:58:11Z</time>
      </trkpt>
      <trkpt lat="44.85726" lon="6.96871">
        <ele>2315.9</ele>
        <time>2023-02-16T12:58:20Z</time>
      </trkpt>
      <trkpt lat="44.85723" lon="6.96872">
        <ele>2316.4</ele>
        <time>2023-02-16T12:58:24Z</time>
      </trkpt>
      <trkpt lat="44.85719" lon="6.96873">
        <ele>2317.5</ele>
        <time>2023-02-16T12:58:30Z</time>
      </trkpt>
      <trkpt lat="44.85715" lon="6.96875">
        <ele>2318.5</ele>
        <time>2023-02-16T12:58:36Z</time>
      </trkpt>
      <trkpt lat="44.85713" lon="6.96875">
        <ele>2319</ele>
        <time>2023-02-16T12:58:38Z</time>
      </trkpt>
      <trkpt lat="44.85709" lon="6.96877">
        <ele>2319.9</ele>
        <time>2023-02-16T12:58:44Z</time>
      </trkpt>
      <trkpt lat="44.85705" lon="6.96878">
        <ele>2320.8</ele>
        <time>2023-02-16T12:58:50Z</time>
      </trkpt>
      <trkpt lat="44.85702" lon="6.9688">
        <ele>2321.4</ele>
        <time>2023-02-16T12:58:53Z</time>
      </trkpt>
      <trkpt lat="44.85701" lon="6.96881">
        <ele>2321.5</ele>
        <time>2023-02-16T12:58:56Z</time>
      </trkpt>
      <trkpt lat="44.85697" lon="6.96883">
        <ele>2322.2</ele>
        <time>2023-02-16T12:59:02Z</time>
      </trkpt>
      <trkpt lat="44.85695" lon="6.96884">
        <ele>2322.6</ele>
        <time>2023-02-16T12:59:05Z</time>
      </trkpt>
      <trkpt lat="44.85691" lon="6.96885">
        <ele>2323.8</ele>
        <time>2023-02-16T12:59:10Z</time>
      </trkpt>
      <trkpt lat="44.85687" lon="6.96885">
        <ele>2325.2</ele>
        <time>2023-02-16T12:59:16Z</time>
      </trkpt>
      <trkpt lat="44.85685" lon="6.96882">
        <ele>2326.3</ele>
        <time>2023-02-16T12:59:19Z</time>
      </trkpt>
      <trkpt lat="44.85685" lon="6.96878">
        <ele>2326.8</ele>
        <time>2023-02-16T12:59:23Z</time>
      </trkpt>
      <trkpt lat="44.85684" lon="6.96875">
        <ele>2327.6</ele>
        <time>2023-02-16T12:59:28Z</time>
      </trkpt>
      <trkpt lat="44.85685" lon="6.96874">
        <ele>2327.4</ele>
        <time>2023-02-16T12:59:33Z</time>
      </trkpt>
      <trkpt lat="44.85686" lon="6.96869">
        <ele>2327.7</ele>
        <time>2023-02-16T12:59:38Z</time>
      </trkpt>
      <trkpt lat="44.85687" lon="6.96861">
        <ele>2328.4</ele>
        <time>2023-02-16T12:59:47Z</time>
      </trkpt>
      <trkpt lat="44.85688" lon="6.96857">
        <ele>2328.9</ele>
        <time>2023-02-16T12:59:51Z</time>
      </trkpt>
      <trkpt lat="44.85688" lon="6.96856">
        <ele>2329.1</ele>
        <time>2023-02-16T12:59:52Z</time>
      </trkpt>
      <trkpt lat="44.85687" lon="6.96854">
        <ele>2329.8</ele>
        <time>2023-02-16T12:59:58Z</time>
      </trkpt>
      <trkpt lat="44.85686" lon="6.96854">
        <ele>2330.2</ele>
        <time>2023-02-16T13:00:00Z</time>
      </trkpt>
      <trkpt lat="44.85685" lon="6.96854">
        <ele>2330.5</ele>
        <time>2023-02-16T13:00:11Z</time>
      </trkpt>
      <trkpt lat="44.85685" lon="6.96854">
        <ele>2330.5</ele>
        <time>2023-02-16T13:00:12Z</time>
      </trkpt>
      <trkpt lat="44.85683" lon="6.96855">
        <ele>2331</ele>
        <time>2023-02-16T13:00:28Z</time>
      </trkpt>
      <trkpt lat="44.85679" lon="6.96856">
        <ele>2332.1</ele>
        <time>2023-02-16T13:00:33Z</time>
      </trkpt>
      <trkpt lat="44.85675" lon="6.96858">
        <ele>2333</ele>
        <time>2023-02-16T13:00:39Z</time>
      </trkpt>
      <trkpt lat="44.85673" lon="6.96859">
        <ele>2333.4</ele>
        <time>2023-02-16T13:00:41Z</time>
      </trkpt>
      <trkpt lat="44.85667" lon="6.96862">
        <ele>2334.8</ele>
        <time>2023-02-16T13:00:48Z</time>
      </trkpt>
      <trkpt lat="44.85666" lon="6.96864">
        <ele>2335</ele>
        <time>2023-02-16T13:00:51Z</time>
      </trkpt>
      <trkpt lat="44.85664" lon="6.96866">
        <ele>2335.7</ele>
        <time>2023-02-16T13:00:54Z</time>
      </trkpt>
      <trkpt lat="44.85662" lon="6.9687">
        <ele>2336.2</ele>
        <time>2023-02-16T13:01:00Z</time>
      </trkpt>
      <trkpt lat="44.85661" lon="6.9687">
        <ele>2336.7</ele>
        <time>2023-02-16T13:01:01Z</time>
      </trkpt>
      <trkpt lat="44.85661" lon="6.96869">
        <ele>2336.8</ele>
        <time>2023-02-16T13:01:07Z</time>
      </trkpt>
      <trkpt lat="44.85661" lon="6.96867">
        <ele>2337</ele>
        <time>2023-02-16T13:01:09Z</time>
      </trkpt>
      <trkpt lat="44.8566" lon="6.96862">
        <ele>2338</ele>
        <time>2023-02-16T13:01:14Z</time>
      </trkpt>
      <trkpt lat="44.8566" lon="6.9686">
        <ele>2338.3</ele>
        <time>2023-02-16T13:01:16Z</time>
      </trkpt>
      <trkpt lat="44.85659" lon="6.96855">
        <ele>2339.8</ele>
        <time>2023-02-16T13:01:21Z</time>
      </trkpt>
      <trkpt lat="44.85658" lon="6.9685">
        <ele>2341.1</ele>
        <time>2023-02-16T13:01:25Z</time>
      </trkpt>
      <trkpt lat="44.85655" lon="6.9684">
        <ele>2343.9</ele>
        <time>2023-02-16T13:01:36Z</time>
      </trkpt>
      <trkpt lat="44.85655" lon="6.9684">
        <ele>2343.9</ele>
        <time>2023-02-16T13:01:37Z</time>
      </trkpt>
      <trkpt lat="44.85653" lon="6.9684">
        <ele>2344.5</ele>
        <time>2023-02-16T13:01:40Z</time>
      </trkpt>
      <trkpt lat="44.85651" lon="6.96842">
        <ele>2344.8</ele>
        <time>2023-02-16T13:01:43Z</time>
      </trkpt>
      <trkpt lat="44.8565" lon="6.96844">
        <ele>2344.9</ele>
        <time>2023-02-16T13:01:46Z</time>
      </trkpt>
      <trkpt lat="44.85649" lon="6.96847">
        <ele>2344.9</ele>
        <time>2023-02-16T13:01:49Z</time>
      </trkpt>
      <trkpt lat="44.85649" lon="6.96848">
        <ele>2344.8</ele>
        <time>2023-02-16T13:01:56Z</time>
      </trkpt>
      <trkpt lat="44.85647" lon="6.96851">
        <ele>2345.2</ele>
        <time>2023-02-16T13:02:01Z</time>
      </trkpt>
      <trkpt lat="44.85644" lon="6.96856">
        <ele>2346</ele>
        <time>2023-02-16T13:02:09Z</time>
      </trkpt>
      <trkpt lat="44.85643" lon="6.96856">
        <ele>2346.4</ele>
        <time>2023-02-16T13:02:10Z</time>
      </trkpt>
      <trkpt lat="44.85642" lon="6.96859">
        <ele>2346.7</ele>
        <time>2023-02-16T13:02:14Z</time>
      </trkpt>
      <trkpt lat="44.8564" lon="6.96856">
        <ele>2347.7</ele>
        <time>2023-02-16T13:02:20Z</time>
      </trkpt>
      <trkpt lat="44.85639" lon="6.9685">
        <ele>2348.4</ele>
        <time>2023-02-16T13:02:26Z</time>
      </trkpt>
      <trkpt lat="44.85639" lon="6.96848">
        <ele>2348.4</ele>
        <time>2023-02-16T13:02:28Z</time>
      </trkpt>
      <trkpt lat="44.85637" lon="6.96844">
        <ele>2349.6</ele>
        <time>2023-02-16T13:02:33Z</time>
      </trkpt>
      <trkpt lat="44.85637" lon="6.96843">
        <ele>2349.6</ele>
        <time>2023-02-16T13:02:34Z</time>
      </trkpt>
      <trkpt lat="44.85637" lon="6.96842">
        <ele>2349.7</ele>
        <time>2023-02-16T13:02:35Z</time>
      </trkpt>
      <trkpt lat="44.85636" lon="6.9684">
        <ele>2350.3</ele>
        <time>2023-02-16T13:02:37Z</time>
      </trkpt>
      <trkpt lat="44.85636" lon="6.9684">
        <ele>2350.3</ele>
        <time>2023-02-16T13:02:39Z</time>
      </trkpt>
      <trkpt lat="44.85635" lon="6.96834">
        <ele>2351.1</ele>
        <time>2023-02-16T13:02:44Z</time>
      </trkpt>
      <trkpt lat="44.85635" lon="6.96829">
        <ele>2351.9</ele>
        <time>2023-02-16T13:02:48Z</time>
      </trkpt>
      <trkpt lat="44.85635" lon="6.96827">
        <ele>2352.3</ele>
        <time>2023-02-16T13:02:50Z</time>
      </trkpt>
      <trkpt lat="44.85635" lon="6.96826">
        <ele>2352.5</ele>
        <time>2023-02-16T13:02:51Z</time>
      </trkpt>
      <trkpt lat="44.85635" lon="6.96823">
        <ele>2353.1</ele>
        <time>2023-02-16T13:02:55Z</time>
      </trkpt>
      <trkpt lat="44.85634" lon="6.96818">
        <ele>2354.5</ele>
        <time>2023-02-16T13:03:00Z</time>
      </trkpt>
      <trkpt lat="44.85633" lon="6.96814">
        <ele>2355.6</ele>
        <time>2023-02-16T13:03:05Z</time>
      </trkpt>
      <trkpt lat="44.85633" lon="6.96811">
        <ele>2356.2</ele>
        <time>2023-02-16T13:03:12Z</time>
      </trkpt>
      <trkpt lat="44.85631" lon="6.96811">
        <ele>2356.9</ele>
        <time>2023-02-16T13:03:17Z</time>
      </trkpt>
      <trkpt lat="44.8563" lon="6.96811">
        <ele>2357.3</ele>
        <time>2023-02-16T13:03:20Z</time>
      </trkpt>
      <trkpt lat="44.85627" lon="6.96814">
        <ele>2358.1</ele>
        <time>2023-02-16T13:03:25Z</time>
      </trkpt>
      <trkpt lat="44.85625" lon="6.96817">
        <ele>2358.6</ele>
        <time>2023-02-16T13:03:30Z</time>
      </trkpt>
      <trkpt lat="44.85624" lon="6.96818">
        <ele>2358.9</ele>
        <time>2023-02-16T13:03:31Z</time>
      </trkpt>
      <trkpt lat="44.85622" lon="6.96821">
        <ele>2359.4</ele>
        <time>2023-02-16T13:03:39Z</time>
      </trkpt>
      <trkpt lat="44.85621" lon="6.96822">
        <ele>2359.8</ele>
        <time>2023-02-16T13:03:41Z</time>
      </trkpt>
      <trkpt lat="44.85619" lon="6.96827">
        <ele>2360.3</ele>
        <time>2023-02-16T13:03:49Z</time>
      </trkpt>
      <trkpt lat="44.85617" lon="6.9683">
        <ele>2361.1</ele>
        <time>2023-02-16T13:03:53Z</time>
      </trkpt>
      <trkpt lat="44.85616" lon="6.96833">
        <ele>2361.4</ele>
        <time>2023-02-16T13:03:59Z</time>
      </trkpt>
      <trkpt lat="44.85614" lon="6.96836">
        <ele>2362.3</ele>
        <time>2023-02-16T13:04:06Z</time>
      </trkpt>
      <trkpt lat="44.85612" lon="6.96839">
        <ele>2363.1</ele>
        <time>2023-02-16T13:04:11Z</time>
      </trkpt>
      <trkpt lat="44.8561" lon="6.96842">
        <ele>2363.9</ele>
        <time>2023-02-16T13:04:20Z</time>
      </trkpt>
      <trkpt lat="44.85607" lon="6.96847">
        <ele>2365</ele>
        <time>2023-02-16T13:04:28Z</time>
      </trkpt>
      <trkpt lat="44.85607" lon="6.96848">
        <ele>2364.9</ele>
        <time>2023-02-16T13:04:31Z</time>
      </trkpt>
      <trkpt lat="44.85606" lon="6.96847">
        <ele>2365.5</ele>
        <time>2023-02-16T13:04:37Z</time>
      </trkpt>
      <trkpt lat="44.85606" lon="6.96845">
        <ele>2365.6</ele>
        <time>2023-02-16T13:04:39Z</time>
      </trkpt>
      <trkpt lat="44.85605" lon="6.9684">
        <ele>2366.4</ele>
        <time>2023-02-16T13:04:44Z</time>
      </trkpt>
      <trkpt lat="44.85603" lon="6.96834">
        <ele>2367.8</ele>
        <time>2023-02-16T13:04:52Z</time>
      </trkpt>
      <trkpt lat="44.85602" lon="6.96833">
        <ele>2368.3</ele>
        <time>2023-02-16T13:04:54Z</time>
      </trkpt>
      <trkpt lat="44.85602" lon="6.96828">
        <ele>2368.5</ele>
        <time>2023-02-16T13:05:00Z</time>
      </trkpt>
      <trkpt lat="44.85602" lon="6.96827">
        <ele>2368.6</ele>
        <time>2023-02-16T13:05:02Z</time>
      </trkpt>
      <trkpt lat="44.85602" lon="6.96824">
        <ele>2368.7</ele>
        <time>2023-02-16T13:05:05Z</time>
      </trkpt>
      <trkpt lat="44.85601" lon="6.9682">
        <ele>2369.4</ele>
        <time>2023-02-16T13:05:10Z</time>
      </trkpt>
      <trkpt lat="44.856" lon="6.96818">
        <ele>2370</ele>
        <time>2023-02-16T13:05:14Z</time>
      </trkpt>
      <trkpt lat="44.856" lon="6.96818">
        <ele>2370</ele>
        <time>2023-02-16T13:05:15Z</time>
      </trkpt>
      <trkpt lat="44.85599" lon="6.96819">
        <ele>2370.4</ele>
        <time>2023-02-16T13:05:21Z</time>
      </trkpt>
      <trkpt lat="44.85598" lon="6.96819">
        <ele>2370.9</ele>
        <time>2023-02-16T13:05:23Z</time>
      </trkpt>
      <trkpt lat="44.85595" lon="6.96824">
        <ele>2372.1</ele>
        <time>2023-02-16T13:05:32Z</time>
      </trkpt>
      <trkpt lat="44.85591" lon="6.96828">
        <ele>2373.7</ele>
        <time>2023-02-16T13:05:41Z</time>
      </trkpt>
      <trkpt lat="44.8559" lon="6.96829">
        <ele>2374.2</ele>
        <time>2023-02-16T13:05:44Z</time>
      </trkpt>
      <trkpt lat="44.85586" lon="6.96833">
        <ele>2375.8</ele>
        <time>2023-02-16T13:05:52Z</time>
      </trkpt>
      <trkpt lat="44.85584" lon="6.96835">
        <ele>2376.6</ele>
        <time>2023-02-16T13:05:56Z</time>
      </trkpt>
      <trkpt lat="44.85583" lon="6.96837">
        <ele>2377</ele>
        <time>2023-02-16T13:06:01Z</time>
      </trkpt>
      <trkpt lat="44.85581" lon="6.9684">
        <ele>2378</ele>
        <time>2023-02-16T13:06:09Z</time>
      </trkpt>
      <trkpt lat="44.85581" lon="6.9684">
        <ele>2378</ele>
        <time>2023-02-16T13:06:11Z</time>
      </trkpt>
      <trkpt lat="44.8558" lon="6.96841">
        <ele>2378.5</ele>
        <time>2023-02-16T13:06:16Z</time>
      </trkpt>
      <trkpt lat="44.85579" lon="6.96839">
        <ele>2379.1</ele>
        <time>2023-02-16T13:06:19Z</time>
      </trkpt>
      <trkpt lat="44.85579" lon="6.96836">
        <ele>2379.2</ele>
        <time>2023-02-16T13:06:23Z</time>
      </trkpt>
      <trkpt lat="44.85577" lon="6.96831">
        <ele>2380.6</ele>
        <time>2023-02-16T13:06:29Z</time>
      </trkpt>
      <trkpt lat="44.85577" lon="6.9683">
        <ele>2380.7</ele>
        <time>2023-02-16T13:06:31Z</time>
      </trkpt>
      <trkpt lat="44.85575" lon="6.96825">
        <ele>2382.3</ele>
        <time>2023-02-16T13:06:37Z</time>
      </trkpt>
      <trkpt lat="44.85575" lon="6.96822">
        <ele>2382.6</ele>
        <time>2023-02-16T13:06:41Z</time>
      </trkpt>
      <trkpt lat="44.85574" lon="6.96818">
        <ele>2383.5</ele>
        <time>2023-02-16T13:06:48Z</time>
      </trkpt>
      <trkpt lat="44.85574" lon="6.96817">
        <ele>2383.6</ele>
        <time>2023-02-16T13:06:50Z</time>
      </trkpt>
      <trkpt lat="44.85574" lon="6.96815">
        <ele>2383.8</ele>
        <time>2023-02-16T13:06:57Z</time>
      </trkpt>
      <trkpt lat="44.85573" lon="6.96818">
        <ele>2384.1</ele>
        <time>2023-02-16T13:07:06Z</time>
      </trkpt>
      <trkpt lat="44.8557" lon="6.96825">
        <ele>2385.1</ele>
        <time>2023-02-16T13:07:14Z</time>
      </trkpt>
      <trkpt lat="44.85568" lon="6.96827">
        <ele>2386</ele>
        <time>2023-02-16T13:07:17Z</time>
      </trkpt>
      <trkpt lat="44.85563" lon="6.96831">
        <ele>2388.3</ele>
        <time>2023-02-16T13:07:26Z</time>
      </trkpt>
      <trkpt lat="44.85563" lon="6.96831">
        <ele>2388.3</ele>
        <time>2023-02-16T13:07:27Z</time>
      </trkpt>
      <trkpt lat="44.8556" lon="6.96835">
        <ele>2389.5</ele>
        <time>2023-02-16T13:07:33Z</time>
      </trkpt>
      <trkpt lat="44.85559" lon="6.96837">
        <ele>2389.9</ele>
        <time>2023-02-16T13:07:37Z</time>
      </trkpt>
      <trkpt lat="44.85556" lon="6.96839">
        <ele>2391.4</ele>
        <time>2023-02-16T13:07:44Z</time>
      </trkpt>
      <trkpt lat="44.85555" lon="6.96836">
        <ele>2392.2</ele>
        <time>2023-02-16T13:07:47Z</time>
      </trkpt>
      <trkpt lat="44.85554" lon="6.96829">
        <ele>2393.7</ele>
        <time>2023-02-16T13:07:55Z</time>
      </trkpt>
      <trkpt lat="44.85554" lon="6.96825">
        <ele>2394.2</ele>
        <time>2023-02-16T13:07:59Z</time>
      </trkpt>
      <trkpt lat="44.85554" lon="6.96822">
        <ele>2394.7</ele>
        <time>2023-02-16T13:08:02Z</time>
      </trkpt>
      <trkpt lat="44.85555" lon="6.96818">
        <ele>2394.6</ele>
        <time>2023-02-16T13:08:05Z</time>
      </trkpt>
      <trkpt lat="44.85556" lon="6.96813">
        <ele>2394.7</ele>
        <time>2023-02-16T13:08:11Z</time>
      </trkpt>
      <trkpt lat="44.85556" lon="6.96812">
        <ele>2394.8</ele>
        <time>2023-02-16T13:08:13Z</time>
      </trkpt>
      <trkpt lat="44.85554" lon="6.96806">
        <ele>2396.9</ele>
        <time>2023-02-16T13:08:23Z</time>
      </trkpt>
      <trkpt lat="44.85554" lon="6.96805">
        <ele>2397</ele>
        <time>2023-02-16T13:08:26Z</time>
      </trkpt>
      <trkpt lat="44.85553" lon="6.96801">
        <ele>2397.9</ele>
        <time>2023-02-16T13:08:30Z</time>
      </trkpt>
      <trkpt lat="44.85553" lon="6.96799">
        <ele>2398.1</ele>
        <time>2023-02-16T13:08:32Z</time>
      </trkpt>
      <trkpt lat="44.85551" lon="6.96795">
        <ele>2399.6</ele>
        <time>2023-02-16T13:08:38Z</time>
      </trkpt>
      <trkpt lat="44.85551" lon="6.96794">
        <ele>2399.7</ele>
        <time>2023-02-16T13:08:39Z</time>
      </trkpt>
      <trkpt lat="44.85551" lon="6.96789">
        <ele>2400.1</ele>
        <time>2023-02-16T13:08:44Z</time>
      </trkpt>
      <trkpt lat="44.85549" lon="6.96781">
        <ele>2402</ele>
        <time>2023-02-16T13:08:52Z</time>
      </trkpt>
      <trkpt lat="44.85549" lon="6.9678">
        <ele>2402.1</ele>
        <time>2023-02-16T13:08:58Z</time>
      </trkpt>
      <trkpt lat="44.85549" lon="6.9678">
        <ele>2402.1</ele>
        <time>2023-02-16T13:09:02Z</time>
      </trkpt>
      <trkpt lat="44.85548" lon="6.96786">
        <ele>2402.2</ele>
        <time>2023-02-16T13:09:13Z</time>
      </trkpt>
      <trkpt lat="44.85546" lon="6.9679">
        <ele>2403.2</ele>
        <time>2023-02-16T13:09:18Z</time>
      </trkpt>
      <trkpt lat="44.85543" lon="6.96794">
        <ele>2404.7</ele>
        <time>2023-02-16T13:09:24Z</time>
      </trkpt>
      <trkpt lat="44.85542" lon="6.96798">
        <ele>2405</ele>
        <time>2023-02-16T13:09:29Z</time>
      </trkpt>
      <trkpt lat="44.85542" lon="6.96801">
        <ele>2404.7</ele>
        <time>2023-02-16T13:09:34Z</time>
      </trkpt>
      <trkpt lat="44.8554" lon="6.96802">
        <ele>2405.8</ele>
        <time>2023-02-16T13:09:38Z</time>
      </trkpt>
      <trkpt lat="44.85537" lon="6.96806">
        <ele>2407.3</ele>
        <time>2023-02-16T13:09:45Z</time>
      </trkpt>
      <trkpt lat="44.85536" lon="6.96807">
        <ele>2407.8</ele>
        <time>2023-02-16T13:09:46Z</time>
      </trkpt>
      <trkpt lat="44.85533" lon="6.96812">
        <ele>2409.3</ele>
        <time>2023-02-16T13:09:55Z</time>
      </trkpt>
      <trkpt lat="44.85532" lon="6.96813">
        <ele>2409.8</ele>
        <time>2023-02-16T13:09:59Z</time>
      </trkpt>
      <trkpt lat="44.85531" lon="6.96809">
        <ele>2410.8</ele>
        <time>2023-02-16T13:10:08Z</time>
      </trkpt>
      <trkpt lat="44.85531" lon="6.96808">
        <ele>2410.8</ele>
        <time>2023-02-16T13:10:10Z</time>
      </trkpt>
      <trkpt lat="44.85531" lon="6.96802">
        <ele>2411.4</ele>
        <time>2023-02-16T13:10:18Z</time>
      </trkpt>
      <trkpt lat="44.85531" lon="6.96796">
        <ele>2412</ele>
        <time>2023-02-16T13:10:24Z</time>
      </trkpt>
      <trkpt lat="44.8553" lon="6.96795">
        <ele>2412.7</ele>
        <time>2023-02-16T13:10:25Z</time>
      </trkpt>
      <trkpt lat="44.8553" lon="6.96788">
        <ele>2413.5</ele>
        <time>2023-02-16T13:10:32Z</time>
      </trkpt>
      <trkpt lat="44.85529" lon="6.96785">
        <ele>2414.4</ele>
        <time>2023-02-16T13:10:36Z</time>
      </trkpt>
      <trkpt lat="44.85529" lon="6.96782">
        <ele>2414.8</ele>
        <time>2023-02-16T13:10:40Z</time>
      </trkpt>
      <trkpt lat="44.85529" lon="6.96778">
        <ele>2415.2</ele>
        <time>2023-02-16T13:10:46Z</time>
      </trkpt>
      <trkpt lat="44.85529" lon="6.96776">
        <ele>2415.3</ele>
        <time>2023-02-16T13:10:48Z</time>
      </trkpt>
      <trkpt lat="44.85529" lon="6.96774">
        <ele>2415.4</ele>
        <time>2023-02-16T13:10:52Z</time>
      </trkpt>
      <trkpt lat="44.8553" lon="6.96774">
        <ele>2414.7</ele>
        <time>2023-02-16T13:10:59Z</time>
      </trkpt>
      <trkpt lat="44.85527" lon="6.96776">
        <ele>2416.5</ele>
        <time>2023-02-16T13:11:12Z</time>
      </trkpt>
      <trkpt lat="44.85526" lon="6.96778">
        <ele>2416.9</ele>
        <time>2023-02-16T13:11:14Z</time>
      </trkpt>
      <trkpt lat="44.85521" lon="6.96783">
        <ele>2418.9</ele>
        <time>2023-02-16T13:11:22Z</time>
      </trkpt>
      <trkpt lat="44.85521" lon="6.96783">
        <ele>2418.9</ele>
        <time>2023-02-16T13:11:24Z</time>
      </trkpt>
      <trkpt lat="44.8552" lon="6.96782">
        <ele>2419.5</ele>
        <time>2023-02-16T13:11:32Z</time>
      </trkpt>
      <trkpt lat="44.85519" lon="6.96774">
        <ele>2420.5</ele>
        <time>2023-02-16T13:11:41Z</time>
      </trkpt>
      <trkpt lat="44.85518" lon="6.96769">
        <ele>2421.1</ele>
        <time>2023-02-16T13:11:46Z</time>
      </trkpt>
      <trkpt lat="44.85519" lon="6.96763">
        <ele>2420.8</ele>
        <time>2023-02-16T13:11:52Z</time>
      </trkpt>
      <trkpt lat="44.85517" lon="6.96758">
        <ele>2421.9</ele>
        <time>2023-02-16T13:11:58Z</time>
      </trkpt>
      <trkpt lat="44.85515" lon="6.96758">
        <ele>2422.8</ele>
        <time>2023-02-16T13:12:03Z</time>
      </trkpt>
      <trkpt lat="44.85512" lon="6.9676">
        <ele>2424.2</ele>
        <time>2023-02-16T13:12:09Z</time>
      </trkpt>
      <trkpt lat="44.85507" lon="6.96765">
        <ele>2426.6</ele>
        <time>2023-02-16T13:12:15Z</time>
      </trkpt>
      <trkpt lat="44.85506" lon="6.96765">
        <ele>2427.1</ele>
        <time>2023-02-16T13:12:16Z</time>
      </trkpt>
      <trkpt lat="44.85503" lon="6.96769">
        <ele>2428.5</ele>
        <time>2023-02-16T13:12:23Z</time>
      </trkpt>
      <trkpt lat="44.85501" lon="6.96773">
        <ele>2429.5</ele>
        <time>2023-02-16T13:12:28Z</time>
      </trkpt>
      <trkpt lat="44.855" lon="6.96773">
        <ele>2430</ele>
        <time>2023-02-16T13:12:29Z</time>
      </trkpt>
      <trkpt lat="44.85499" lon="6.9677">
        <ele>2430.3</ele>
        <time>2023-02-16T13:12:37Z</time>
      </trkpt>
      <trkpt lat="44.85499" lon="6.96762">
        <ele>2430.3</ele>
        <time>2023-02-16T13:12:46Z</time>
      </trkpt>
      <trkpt lat="44.85498" lon="6.96759">
        <ele>2430.6</ele>
        <time>2023-02-16T13:12:50Z</time>
      </trkpt>
      <trkpt lat="44.85499" lon="6.96755">
        <ele>2430.3</ele>
        <time>2023-02-16T13:12:56Z</time>
      </trkpt>
      <trkpt lat="44.85499" lon="6.96755">
        <ele>2430.3</ele>
        <time>2023-02-16T13:12:59Z</time>
      </trkpt>
      <trkpt lat="44.85497" lon="6.96749">
        <ele>2430.8</ele>
        <time>2023-02-16T13:13:11Z</time>
      </trkpt>
      <trkpt lat="44.85492" lon="6.96735">
        <ele>2432.8</ele>
        <time>2023-02-16T13:13:23Z</time>
      </trkpt>
      <trkpt lat="44.85491" lon="6.96733">
        <ele>2433.1</ele>
        <time>2023-02-16T13:13:25Z</time>
      </trkpt>
      <trkpt lat="44.8549" lon="6.96724">
        <ele>2433.7</ele>
        <time>2023-02-16T13:13:32Z</time>
      </trkpt>
      <trkpt lat="44.85489" lon="6.96718">
        <ele>2434.6</ele>
        <time>2023-02-16T13:13:38Z</time>
      </trkpt>
      <trkpt lat="44.85487" lon="6.96715">
        <ele>2435.4</ele>
        <time>2023-02-16T13:13:42Z</time>
      </trkpt>
      <trkpt lat="44.85485" lon="6.96714">
        <ele>2435.9</ele>
        <time>2023-02-16T13:13:45Z</time>
      </trkpt>
      <trkpt lat="44.85482" lon="6.96713">
        <ele>2436.6</ele>
        <time>2023-02-16T13:13:48Z</time>
      </trkpt>
      <trkpt lat="44.85481" lon="6.96712">
        <ele>2436.9</ele>
        <time>2023-02-16T13:13:49Z</time>
      </trkpt>
      <trkpt lat="44.85479" lon="6.9671">
        <ele>2437.5</ele>
        <time>2023-02-16T13:13:53Z</time>
      </trkpt>
      <trkpt lat="44.85477" lon="6.96707">
        <ele>2438.3</ele>
        <time>2023-02-16T13:13:57Z</time>
      </trkpt>
      <trkpt lat="44.85477" lon="6.96706">
        <ele>2438.5</ele>
        <time>2023-02-16T13:13:58Z</time>
      </trkpt>
      <trkpt lat="44.85475" lon="6.96706">
        <ele>2438.8</ele>
        <time>2023-02-16T13:14:07Z</time>
      </trkpt>
      <trkpt lat="44.85474" lon="6.96702">
        <ele>2439.6</ele>
        <time>2023-02-16T13:14:16Z</time>
      </trkpt>
      <trkpt lat="44.85474" lon="6.967">
        <ele>2439.9</ele>
        <time>2023-02-16T13:14:18Z</time>
      </trkpt>
      <trkpt lat="44.85473" lon="6.96698">
        <ele>2440.3</ele>
        <time>2023-02-16T13:14:20Z</time>
      </trkpt>
      <trkpt lat="44.85473" lon="6.96691">
        <ele>2441.4</ele>
        <time>2023-02-16T13:14:26Z</time>
      </trkpt>
      <trkpt lat="44.85473" lon="6.96689">
        <ele>2441.6</ele>
        <time>2023-02-16T13:14:28Z</time>
      </trkpt>
      <trkpt lat="44.85473" lon="6.96685">
        <ele>2442.2</ele>
        <time>2023-02-16T13:14:31Z</time>
      </trkpt>
      <trkpt lat="44.85472" lon="6.96684">
        <ele>2442.5</ele>
        <time>2023-02-16T13:14:32Z</time>
      </trkpt>
      <trkpt lat="44.85473" lon="6.9667">
        <ele>2444.4</ele>
        <time>2023-02-16T13:14:44Z</time>
      </trkpt>
      <trkpt lat="44.85473" lon="6.96669">
        <ele>2444.5</ele>
        <time>2023-02-16T13:14:46Z</time>
      </trkpt>
      <trkpt lat="44.85474" lon="6.96664">
        <ele>2445</ele>
        <time>2023-02-16T13:14:51Z</time>
      </trkpt>
      <trkpt lat="44.85474" lon="6.96662">
        <ele>2445.3</ele>
        <time>2023-02-16T13:14:53Z</time>
      </trkpt>
      <trkpt lat="44.85473" lon="6.96657">
        <ele>2446.2</ele>
        <time>2023-02-16T13:14:58Z</time>
      </trkpt>
      <trkpt lat="44.85473" lon="6.96656">
        <ele>2446.4</ele>
        <time>2023-02-16T13:14:59Z</time>
      </trkpt>
      <trkpt lat="44.85473" lon="6.96649">
        <ele>2447.4</ele>
        <time>2023-02-16T13:15:04Z</time>
      </trkpt>
      <trkpt lat="44.85474" lon="6.96638">
        <ele>2448.8</ele>
        <time>2023-02-16T13:15:13Z</time>
      </trkpt>
      <trkpt lat="44.85474" lon="6.96633">
        <ele>2449.8</ele>
        <time>2023-02-16T13:15:18Z</time>
      </trkpt>
      <trkpt lat="44.85475" lon="6.96626">
        <ele>2450.9</ele>
        <time>2023-02-16T13:15:24Z</time>
      </trkpt>
      <trkpt lat="44.85475" lon="6.96625">
        <ele>2451</ele>
        <time>2023-02-16T13:15:25Z</time>
      </trkpt>
      <trkpt lat="44.85477" lon="6.96619">
        <ele>2451.8</ele>
        <time>2023-02-16T13:15:31Z</time>
      </trkpt>
      <trkpt lat="44.85479" lon="6.96614">
        <ele>2452.5</ele>
        <time>2023-02-16T13:15:37Z</time>
      </trkpt>
      <trkpt lat="44.85481" lon="6.96609">
        <ele>2453.3</ele>
        <time>2023-02-16T13:15:43Z</time>
      </trkpt>
      <trkpt lat="44.85484" lon="6.96604">
        <ele>2454.1</ele>
        <time>2023-02-16T13:15:49Z</time>
      </trkpt>
      <trkpt lat="44.85485" lon="6.96601">
        <ele>2454.7</ele>
        <time>2023-02-16T13:15:52Z</time>
      </trkpt>
      <trkpt lat="44.85486" lon="6.96592">
        <ele>2456.8</ele>
        <time>2023-02-16T13:16:00Z</time>
      </trkpt>
      <trkpt lat="44.85487" lon="6.96591">
        <ele>2456.9</ele>
        <time>2023-02-16T13:16:02Z</time>
      </trkpt>
      <trkpt lat="44.85487" lon="6.96588">
        <ele>2457.7</ele>
        <time>2023-02-16T13:16:05Z</time>
      </trkpt>
      <trkpt lat="44.85488" lon="6.96586">
        <ele>2458.1</ele>
        <time>2023-02-16T13:16:08Z</time>
      </trkpt>
      <trkpt lat="44.85488" lon="6.96581">
        <ele>2459.2</ele>
        <time>2023-02-16T13:16:12Z</time>
      </trkpt>
      <trkpt lat="44.8549" lon="6.96575">
        <ele>2460</ele>
        <time>2023-02-16T13:16:18Z</time>
      </trkpt>
      <trkpt lat="44.8549" lon="6.96574">
        <ele>2460.2</ele>
        <time>2023-02-16T13:16:19Z</time>
      </trkpt>
      <trkpt lat="44.85491" lon="6.96568">
        <ele>2461.2</ele>
        <time>2023-02-16T13:16:26Z</time>
      </trkpt>
      <trkpt lat="44.85491" lon="6.96563">
        <ele>2462.2</ele>
        <time>2023-02-16T13:16:31Z</time>
      </trkpt>
      <trkpt lat="44.85491" lon="6.96562">
        <ele>2462.4</ele>
        <time>2023-02-16T13:16:32Z</time>
      </trkpt>
      <trkpt lat="44.85492" lon="6.96557">
        <ele>2463.2</ele>
        <time>2023-02-16T13:16:37Z</time>
      </trkpt>
      <trkpt lat="44.85493" lon="6.96555">
        <ele>2463.4</ele>
        <time>2023-02-16T13:16:44Z</time>
      </trkpt>
      <trkpt lat="44.85494" lon="6.9655">
        <ele>2464.3</ele>
        <time>2023-02-16T13:16:53Z</time>
      </trkpt>
      <trkpt lat="44.85494" lon="6.96549">
        <ele>2464.5</ele>
        <time>2023-02-16T13:16:54Z</time>
      </trkpt>
      <trkpt lat="44.85495" lon="6.96545">
        <ele>2465.2</ele>
        <time>2023-02-16T13:16:58Z</time>
      </trkpt>
      <trkpt lat="44.85496" lon="6.96534">
        <ele>2467.5</ele>
        <time>2023-02-16T13:17:09Z</time>
      </trkpt>
      <trkpt lat="44.85496" lon="6.96531">
        <ele>2468.2</ele>
        <time>2023-02-16T13:17:11Z</time>
      </trkpt>
      <trkpt lat="44.85496" lon="6.96526">
        <ele>2469.4</ele>
        <time>2023-02-16T13:17:16Z</time>
      </trkpt>
      <trkpt lat="44.85497" lon="6.96522">
        <ele>2470.4</ele>
        <time>2023-02-16T13:17:21Z</time>
      </trkpt>
      <trkpt lat="44.85499" lon="6.96519">
        <ele>2470.8</ele>
        <time>2023-02-16T13:17:25Z</time>
      </trkpt>
      <trkpt lat="44.85499" lon="6.96518">
        <ele>2471.1</ele>
        <time>2023-02-16T13:17:26Z</time>
      </trkpt>
      <trkpt lat="44.85502" lon="6.96514">
        <ele>2472.2</ele>
        <time>2023-02-16T13:17:32Z</time>
      </trkpt>
      <trkpt lat="44.85504" lon="6.96511">
        <ele>2473.3</ele>
        <time>2023-02-16T13:17:37Z</time>
      </trkpt>
      <trkpt lat="44.85504" lon="6.9651">
        <ele>2473.6</ele>
        <time>2023-02-16T13:17:39Z</time>
      </trkpt>
      <trkpt lat="44.85506" lon="6.96508">
        <ele>2474.3</ele>
        <time>2023-02-16T13:17:47Z</time>
      </trkpt>
      <trkpt lat="44.85508" lon="6.96504">
        <ele>2475.5</ele>
        <time>2023-02-16T13:17:55Z</time>
      </trkpt>
      <trkpt lat="44.85508" lon="6.96503">
        <ele>2475.8</ele>
        <time>2023-02-16T13:17:56Z</time>
      </trkpt>
      <trkpt lat="44.85509" lon="6.96502">
        <ele>2476.1</ele>
        <time>2023-02-16T13:17:58Z</time>
      </trkpt>
      <trkpt lat="44.8551" lon="6.965">
        <ele>2476.7</ele>
        <time>2023-02-16T13:18:03Z</time>
      </trkpt>
      <trkpt lat="44.8551" lon="6.96497">
        <ele>2477.6</ele>
        <time>2023-02-16T13:18:08Z</time>
      </trkpt>
      <trkpt lat="44.85509" lon="6.96496">
        <ele>2477.8</ele>
        <time>2023-02-16T13:18:13Z</time>
      </trkpt>
      <trkpt lat="44.85506" lon="6.96495">
        <ele>2477.9</ele>
        <time>2023-02-16T13:18:17Z</time>
      </trkpt>
      <trkpt lat="44.85504" lon="6.96494">
        <ele>2478</ele>
        <time>2023-02-16T13:18:19Z</time>
      </trkpt>
      <trkpt lat="44.85501" lon="6.96493">
        <ele>2478.1</ele>
        <time>2023-02-16T13:18:24Z</time>
      </trkpt>
      <trkpt lat="44.85499" lon="6.96493">
        <ele>2478.4</ele>
        <time>2023-02-16T13:18:27Z</time>
      </trkpt>
      <trkpt lat="44.85496" lon="6.96492">
        <ele>2479.7</ele>
        <time>2023-02-16T13:18:32Z</time>
      </trkpt>
      <trkpt lat="44.85496" lon="6.96492">
        <ele>2479.7</ele>
        <time>2023-02-16T13:18:36Z</time>
      </trkpt>
      <trkpt lat="44.85496" lon="6.96493">
        <ele>2479.4</ele>
        <time>2023-02-16T13:18:38Z</time>
      </trkpt>
      <trkpt lat="44.85495" lon="6.96493">
        <ele>2479.7</ele>
        <time>2023-02-16T13:18:52Z</time>
      </trkpt>
      <trkpt lat="44.85496" lon="6.96492">
        <ele>2479.7</ele>
        <time>2023-02-16T13:19:10Z</time>
      </trkpt>
      <trkpt lat="44.85497" lon="6.96491">
        <ele>2479.7</ele>
        <time>2023-02-16T13:19:25Z</time>
      </trkpt>
      <trkpt lat="44.85498" lon="6.96485">
        <ele>2481.1</ele>
        <time>2023-02-16T13:19:33Z</time>
      </trkpt>
      <trkpt lat="44.85499" lon="6.96484">
        <ele>2481</ele>
        <time>2023-02-16T13:19:35Z</time>
      </trkpt>
      <trkpt lat="44.85501" lon="6.96476">
        <ele>2483</ele>
        <time>2023-02-16T13:19:44Z</time>
      </trkpt>
      <trkpt lat="44.85502" lon="6.96473">
        <ele>2484</ele>
        <time>2023-02-16T13:19:48Z</time>
      </trkpt>
      <trkpt lat="44.85503" lon="6.96471">
        <ele>2484.7</ele>
        <time>2023-02-16T13:19:50Z</time>
      </trkpt>
      <trkpt lat="44.85505" lon="6.96466">
        <ele>2486.7</ele>
        <time>2023-02-16T13:19:56Z</time>
      </trkpt>
      <trkpt lat="44.85507" lon="6.96465">
        <ele>2487.5</ele>
        <time>2023-02-16T13:19:59Z</time>
      </trkpt>
      <trkpt lat="44.8551" lon="6.96464">
        <ele>2488.5</ele>
        <time>2023-02-16T13:20:03Z</time>
      </trkpt>
      <trkpt lat="44.8551" lon="6.96464">
        <ele>2488.5</ele>
        <time>2023-02-16T13:20:09Z</time>
      </trkpt>
      <trkpt lat="44.85508" lon="6.96461">
        <ele>2489.3</ele>
        <time>2023-02-16T13:20:18Z</time>
      </trkpt>
      <trkpt lat="44.85506" lon="6.9646">
        <ele>2489.1</ele>
        <time>2023-02-16T13:20:21Z</time>
      </trkpt>
      <trkpt lat="44.85504" lon="6.96458">
        <ele>2489.3</ele>
        <time>2023-02-16T13:20:26Z</time>
      </trkpt>
      <trkpt lat="44.85503" lon="6.96457">
        <ele>2489.3</ele>
        <time>2023-02-16T13:20:28Z</time>
      </trkpt>
      <trkpt lat="44.855" lon="6.96454">
        <ele>2489.2</ele>
        <time>2023-02-16T13:20:34Z</time>
      </trkpt>
      <trkpt lat="44.85498" lon="6.96452">
        <ele>2490.8</ele>
        <time>2023-02-16T13:20:38Z</time>
      </trkpt>
      <trkpt lat="44.85495" lon="6.9645">
        <ele>2492.8</ele>
        <time>2023-02-16T13:20:42Z</time>
      </trkpt>
      <trkpt lat="44.85493" lon="6.96449">
        <ele>2494</ele>
        <time>2023-02-16T13:20:45Z</time>
      </trkpt>
      <trkpt lat="44.85491" lon="6.96448">
        <ele>2495.2</ele>
        <time>2023-02-16T13:20:50Z</time>
      </trkpt>
      <trkpt lat="44.85487" lon="6.96449">
        <ele>2496.8</ele>
        <time>2023-02-16T13:20:56Z</time>
      </trkpt>
      <trkpt lat="44.85486" lon="6.96449">
        <ele>2497.3</ele>
        <time>2023-02-16T13:21:01Z</time>
      </trkpt>
      <trkpt lat="44.85486" lon="6.96443">
        <ele>2498.7</ele>
        <time>2023-02-16T13:21:13Z</time>
      </trkpt>
      <trkpt lat="44.85487" lon="6.96441">
        <ele>2498.5</ele>
        <time>2023-02-16T13:21:15Z</time>
      </trkpt>
      <trkpt lat="44.85488" lon="6.96431">
        <ele>2499.5</ele>
        <time>2023-02-16T13:21:25Z</time>
      </trkpt>
      <trkpt lat="44.85489" lon="6.9643">
        <ele>2499.3</ele>
        <time>2023-02-16T13:21:26Z</time>
      </trkpt>
      <trkpt lat="44.8549" lon="6.96423">
        <ele>2500.1</ele>
        <time>2023-02-16T13:21:32Z</time>
      </trkpt>
      <trkpt lat="44.85493" lon="6.96417">
        <ele>2500.4</ele>
        <time>2023-02-16T13:21:38Z</time>
      </trkpt>
      <trkpt lat="44.85494" lon="6.96416">
        <ele>2500.4</ele>
        <time>2023-02-16T13:21:40Z</time>
      </trkpt>
      <trkpt lat="44.85496" lon="6.96412">
        <ele>2500.7</ele>
        <time>2023-02-16T13:21:44Z</time>
      </trkpt>
      <trkpt lat="44.855" lon="6.96406">
        <ele>2500.9</ele>
        <time>2023-02-16T13:21:52Z</time>
      </trkpt>
      <trkpt lat="44.85503" lon="6.96401">
        <ele>2502.5</ele>
        <time>2023-02-16T13:21:59Z</time>
      </trkpt>
      <trkpt lat="44.85503" lon="6.96398">
        <ele>2503</ele>
        <time>2023-02-16T13:22:03Z</time>
      </trkpt>
      <trkpt lat="44.85503" lon="6.96395">
        <ele>2503.6</ele>
        <time>2023-02-16T13:22:06Z</time>
      </trkpt>
      <trkpt lat="44.85503" lon="6.96386">
        <ele>2505.3</ele>
        <time>2023-02-16T13:22:15Z</time>
      </trkpt>
      <trkpt lat="44.85503" lon="6.96385">
        <ele>2505.5</ele>
        <time>2023-02-16T13:22:16Z</time>
      </trkpt>
      <trkpt lat="44.85504" lon="6.96377">
        <ele>2507.4</ele>
        <time>2023-02-16T13:22:25Z</time>
      </trkpt>
      <trkpt lat="44.85504" lon="6.96373">
        <ele>2508.2</ele>
        <time>2023-02-16T13:22:29Z</time>
      </trkpt>
      <trkpt lat="44.85505" lon="6.96369">
        <ele>2509.2</ele>
        <time>2023-02-16T13:22:34Z</time>
      </trkpt>
      <trkpt lat="44.85506" lon="6.96364">
        <ele>2510.5</ele>
        <time>2023-02-16T13:22:40Z</time>
      </trkpt>
      <trkpt lat="44.85506" lon="6.96363">
        <ele>2510.7</ele>
        <time>2023-02-16T13:22:41Z</time>
      </trkpt>
      <trkpt lat="44.85511" lon="6.96358">
        <ele>2513</ele>
        <time>2023-02-16T13:22:49Z</time>
      </trkpt>
      <trkpt lat="44.85513" lon="6.96357">
        <ele>2513.7</ele>
        <time>2023-02-16T13:22:52Z</time>
      </trkpt>
      <trkpt lat="44.85514" lon="6.96357">
        <ele>2513.9</ele>
        <time>2023-02-16T13:22:53Z</time>
      </trkpt>
      <trkpt lat="44.85517" lon="6.96357">
        <ele>2514.4</ele>
        <time>2023-02-16T13:22:59Z</time>
      </trkpt>
      <trkpt lat="44.85517" lon="6.96358">
        <ele>2514.1</ele>
        <time>2023-02-16T13:23:03Z</time>
      </trkpt>
      <trkpt lat="44.85517" lon="6.96358">
        <ele>2514.1</ele>
        <time>2023-02-16T13:23:06Z</time>
      </trkpt>
      <trkpt lat="44.85516" lon="6.96358">
        <ele>2513.9</ele>
        <time>2023-02-16T13:23:15Z</time>
      </trkpt>
      <trkpt lat="44.85513" lon="6.96354">
        <ele>2514.6</ele>
        <time>2023-02-16T13:23:34Z</time>
      </trkpt>
      <trkpt lat="44.85512" lon="6.96354">
        <ele>2514.4</ele>
        <time>2023-02-16T13:23:35Z</time>
      </trkpt>
      <trkpt lat="44.85511" lon="6.96351">
        <ele>2515.2</ele>
        <time>2023-02-16T13:23:39Z</time>
      </trkpt>
      <trkpt lat="44.8551" lon="6.96348">
        <ele>2515.9</ele>
        <time>2023-02-16T13:23:43Z</time>
      </trkpt>
      <trkpt lat="44.85507" lon="6.96343">
        <ele>2516.8</ele>
        <time>2023-02-16T13:23:49Z</time>
      </trkpt>
      <trkpt lat="44.85504" lon="6.9634">
        <ele>2517</ele>
        <time>2023-02-16T13:23:54Z</time>
      </trkpt>
      <trkpt lat="44.85499" lon="6.96337">
        <ele>2517.3</ele>
        <time>2023-02-16T13:24:00Z</time>
      </trkpt>
      <trkpt lat="44.85498" lon="6.96336">
        <ele>2517.9</ele>
        <time>2023-02-16T13:24:02Z</time>
      </trkpt>
      <trkpt lat="44.85496" lon="6.96335">
        <ele>2518.9</ele>
        <time>2023-02-16T13:24:05Z</time>
      </trkpt>
      <trkpt lat="44.85491" lon="6.96335">
        <ele>2520.7</ele>
        <time>2023-02-16T13:24:13Z</time>
      </trkpt>
      <trkpt lat="44.85489" lon="6.96335">
        <ele>2521.4</ele>
        <time>2023-02-16T13:24:15Z</time>
      </trkpt>
      <trkpt lat="44.8549" lon="6.96332">
        <ele>2522</ele>
        <time>2023-02-16T13:24:25Z</time>
      </trkpt>
      <trkpt lat="44.85491" lon="6.96329">
        <ele>2522.5</ele>
        <time>2023-02-16T13:24:28Z</time>
      </trkpt>
      <trkpt lat="44.85494" lon="6.96324">
        <ele>2522.9</ele>
        <time>2023-02-16T13:24:35Z</time>
      </trkpt>
      <trkpt lat="44.85495" lon="6.96321">
        <ele>2523.4</ele>
        <time>2023-02-16T13:24:38Z</time>
      </trkpt>
      <trkpt lat="44.85497" lon="6.96315">
        <ele>2524.4</ele>
        <time>2023-02-16T13:24:44Z</time>
      </trkpt>
      <trkpt lat="44.85498" lon="6.96311">
        <ele>2525.2</ele>
        <time>2023-02-16T13:24:49Z</time>
      </trkpt>
      <trkpt lat="44.85499" lon="6.96308">
        <ele>2525.7</ele>
        <time>2023-02-16T13:24:53Z</time>
      </trkpt>
      <trkpt lat="44.855" lon="6.96303">
        <ele>2526.9</ele>
        <time>2023-02-16T13:24:58Z</time>
      </trkpt>
      <trkpt lat="44.85501" lon="6.963">
        <ele>2527.8</ele>
        <time>2023-02-16T13:25:01Z</time>
      </trkpt>
      <trkpt lat="44.85502" lon="6.96297">
        <ele>2528.6</ele>
        <time>2023-02-16T13:25:04Z</time>
      </trkpt>
      <trkpt lat="44.85503" lon="6.96295">
        <ele>2529.1</ele>
        <time>2023-02-16T13:25:09Z</time>
      </trkpt>
      <trkpt lat="44.85506" lon="6.96295">
        <ele>2528.3</ele>
        <time>2023-02-16T13:25:15Z</time>
      </trkpt>
      <trkpt lat="44.85509" lon="6.96296">
        <ele>2527.4</ele>
        <time>2023-02-16T13:25:20Z</time>
      </trkpt>
      <trkpt lat="44.85511" lon="6.96299">
        <ele>2526.2</ele>
        <time>2023-02-16T13:25:27Z</time>
      </trkpt>
      <trkpt lat="44.85511" lon="6.96295">
        <ele>2527.1</ele>
        <time>2023-02-16T13:25:34Z</time>
      </trkpt>
      <trkpt lat="44.85511" lon="6.96293">
        <ele>2527.5</ele>
        <time>2023-02-16T13:25:36Z</time>
      </trkpt>
      <trkpt lat="44.85511" lon="6.96283">
        <ele>2529.7</ele>
        <time>2023-02-16T13:25:45Z</time>
      </trkpt>
      <trkpt lat="44.85511" lon="6.9628">
        <ele>2530.4</ele>
        <time>2023-02-16T13:25:48Z</time>
      </trkpt>
      <trkpt lat="44.85512" lon="6.96279">
        <ele>2530.1</ele>
        <time>2023-02-16T13:25:50Z</time>
      </trkpt>
      <trkpt lat="44.85513" lon="6.96272">
        <ele>2531.9</ele>
        <time>2023-02-16T13:25:58Z</time>
      </trkpt>
      <trkpt lat="44.85514" lon="6.96268">
        <ele>2532.8</ele>
        <time>2023-02-16T13:26:03Z</time>
      </trkpt>
      <trkpt lat="44.85514" lon="6.96266">
        <ele>2533.5</ele>
        <time>2023-02-16T13:26:05Z</time>
      </trkpt>
      <trkpt lat="44.85514" lon="6.96262">
        <ele>2534.8</ele>
        <time>2023-02-16T13:26:10Z</time>
      </trkpt>
      <trkpt lat="44.85514" lon="6.96257">
        <ele>2536.6</ele>
        <time>2023-02-16T13:26:15Z</time>
      </trkpt>
      <trkpt lat="44.85514" lon="6.96256">
        <ele>2536.9</ele>
        <time>2023-02-16T13:26:16Z</time>
      </trkpt>
      <trkpt lat="44.85514" lon="6.96251">
        <ele>2538.6</ele>
        <time>2023-02-16T13:26:24Z</time>
      </trkpt>
      <trkpt lat="44.85514" lon="6.96252">
        <ele>2538.3</ele>
        <time>2023-02-16T13:26:25Z</time>
      </trkpt>
      <trkpt lat="44.8551" lon="6.96256">
        <ele>2538.7</ele>
        <time>2023-02-16T13:26:34Z</time>
      </trkpt>
      <trkpt lat="44.85508" lon="6.96257">
        <ele>2539.2</ele>
        <time>2023-02-16T13:26:37Z</time>
      </trkpt>
      <trkpt lat="44.85505" lon="6.9626">
        <ele>2539.5</ele>
        <time>2023-02-16T13:26:42Z</time>
      </trkpt>
      <trkpt lat="44.85502" lon="6.96262">
        <ele>2540.2</ele>
        <time>2023-02-16T13:26:47Z</time>
      </trkpt>
      <trkpt lat="44.85501" lon="6.96263">
        <ele>2540.3</ele>
        <time>2023-02-16T13:26:49Z</time>
      </trkpt>
      <trkpt lat="44.85499" lon="6.96265">
        <ele>2540.5</ele>
        <time>2023-02-16T13:26:57Z</time>
      </trkpt>
      <trkpt lat="44.85499" lon="6.96265">
        <ele>2540.5</ele>
        <time>2023-02-16T13:26:58Z</time>
      </trkpt>
      <trkpt lat="44.85499" lon="6.96265">
        <ele>2540.5</ele>
        <time>2023-02-16T13:27:09Z</time>
      </trkpt>
      <trkpt lat="44.85498" lon="6.96266">
        <ele>2540.6</ele>
        <time>2023-02-16T13:27:14Z</time>
      </trkpt>
      <trkpt lat="44.85497" lon="6.96265">
        <ele>2541.3</ele>
        <time>2023-02-16T13:27:25Z</time>
      </trkpt>
      <trkpt lat="44.85497" lon="6.96261">
        <ele>2542.6</ele>
        <time>2023-02-16T13:27:34Z</time>
      </trkpt>
      <trkpt lat="44.85498" lon="6.9626">
        <ele>2542.5</ele>
        <time>2023-02-16T13:27:35Z</time>
      </trkpt>
      <trkpt lat="44.85498" lon="6.96253">
        <ele>2544.8</ele>
        <time>2023-02-16T13:27:41Z</time>
      </trkpt>
      <trkpt lat="44.85499" lon="6.96248">
        <ele>2546</ele>
        <time>2023-02-16T13:27:46Z</time>
      </trkpt>
      <trkpt lat="44.85499" lon="6.96247">
        <ele>2546.4</ele>
        <time>2023-02-16T13:27:47Z</time>
      </trkpt>
      <trkpt lat="44.855" lon="6.96243">
        <ele>2547.3</ele>
        <time>2023-02-16T13:27:52Z</time>
      </trkpt>
      <trkpt lat="44.85503" lon="6.96236">
        <ele>2548.6</ele>
        <time>2023-02-16T13:28:01Z</time>
      </trkpt>
      <trkpt lat="44.85503" lon="6.96235">
        <ele>2548.9</ele>
        <time>2023-02-16T13:28:02Z</time>
      </trkpt>
      <trkpt lat="44.85503" lon="6.96235">
        <ele>2548.9</ele>
        <time>2023-02-16T13:28:07Z</time>
      </trkpt>
      <trkpt lat="44.85501" lon="6.96236">
        <ele>2549.2</ele>
        <time>2023-02-16T13:28:10Z</time>
      </trkpt>
      <trkpt lat="44.85494" lon="6.9624">
        <ele>2550.5</ele>
        <time>2023-02-16T13:28:21Z</time>
      </trkpt>
      <trkpt lat="44.85492" lon="6.9624">
        <ele>2551.2</ele>
        <time>2023-02-16T13:28:24Z</time>
      </trkpt>
      <trkpt lat="44.8549" lon="6.96242">
        <ele>2551.3</ele>
        <time>2023-02-16T13:28:28Z</time>
      </trkpt>
      <trkpt lat="44.85486" lon="6.96246">
        <ele>2551.7</ele>
        <time>2023-02-16T13:28:34Z</time>
      </trkpt>
      <trkpt lat="44.85484" lon="6.96247">
        <ele>2552.2</ele>
        <time>2023-02-16T13:28:37Z</time>
      </trkpt>
      <trkpt lat="44.85482" lon="6.96248">
        <ele>2552.7</ele>
        <time>2023-02-16T13:28:41Z</time>
      </trkpt>
      <trkpt lat="44.85477" lon="6.96251">
        <ele>2553.8</ele>
        <time>2023-02-16T13:28:48Z</time>
      </trkpt>
      <trkpt lat="44.85477" lon="6.96251">
        <ele>2553.8</ele>
        <time>2023-02-16T13:28:49Z</time>
      </trkpt>
      <trkpt lat="44.85477" lon="6.96249">
        <ele>2554.4</ele>
        <time>2023-02-16T13:28:59Z</time>
      </trkpt>
      <trkpt lat="44.85476" lon="6.96249">
        <ele>2554.8</ele>
        <time>2023-02-16T13:29:04Z</time>
      </trkpt>
      <trkpt lat="44.85473" lon="6.96247">
        <ele>2556.5</ele>
        <time>2023-02-16T13:29:08Z</time>
      </trkpt>
      <trkpt lat="44.85474" lon="6.96243">
        <ele>2557.1</ele>
        <time>2023-02-16T13:29:12Z</time>
      </trkpt>
      <trkpt lat="44.85475" lon="6.96239">
        <ele>2557.8</ele>
        <time>2023-02-16T13:29:15Z</time>
      </trkpt>
      <trkpt lat="44.85475" lon="6.96238">
        <ele>2558</ele>
        <time>2023-02-16T13:29:16Z</time>
      </trkpt>
      <trkpt lat="44.8548" lon="6.96225">
        <ele>2559.7</ele>
        <time>2023-02-16T13:29:29Z</time>
      </trkpt>
      <trkpt lat="44.85481" lon="6.96215">
        <ele>2561.3</ele>
        <time>2023-02-16T13:29:37Z</time>
      </trkpt>
      <trkpt lat="44.85482" lon="6.9621">
        <ele>2561.8</ele>
        <time>2023-02-16T13:29:43Z</time>
      </trkpt>
      <trkpt lat="44.85482" lon="6.96208">
        <ele>2562.1</ele>
        <time>2023-02-16T13:29:45Z</time>
      </trkpt>
      <trkpt lat="44.85483" lon="6.96198">
        <ele>2563.5</ele>
        <time>2023-02-16T13:29:53Z</time>
      </trkpt>
      <trkpt lat="44.85483" lon="6.96193">
        <ele>2564.2</ele>
        <time>2023-02-16T13:29:58Z</time>
      </trkpt>
      <trkpt lat="44.85483" lon="6.96189">
        <ele>2564.8</ele>
        <time>2023-02-16T13:30:01Z</time>
      </trkpt>
      <trkpt lat="44.85483" lon="6.96182">
        <ele>2565.7</ele>
        <time>2023-02-16T13:30:07Z</time>
      </trkpt>
      <trkpt lat="44.85483" lon="6.96177">
        <ele>2566.3</ele>
        <time>2023-02-16T13:30:13Z</time>
      </trkpt>
      <trkpt lat="44.85483" lon="6.96176">
        <ele>2566.5</ele>
        <time>2023-02-16T13:30:14Z</time>
      </trkpt>
      <trkpt lat="44.85484" lon="6.96168">
        <ele>2567.3</ele>
        <time>2023-02-16T13:30:22Z</time>
      </trkpt>
      <trkpt lat="44.85485" lon="6.96163">
        <ele>2567.7</ele>
        <time>2023-02-16T13:30:27Z</time>
      </trkpt>
      <trkpt lat="44.85486" lon="6.9616">
        <ele>2568</ele>
        <time>2023-02-16T13:30:29Z</time>
      </trkpt>
      <trkpt lat="44.85486" lon="6.96152">
        <ele>2569.1</ele>
        <time>2023-02-16T13:30:35Z</time>
      </trkpt>
      <trkpt lat="44.85485" lon="6.96146">
        <ele>2570</ele>
        <time>2023-02-16T13:30:40Z</time>
      </trkpt>
      <trkpt lat="44.85485" lon="6.9614">
        <ele>2570.8</ele>
        <time>2023-02-16T13:30:45Z</time>
      </trkpt>
      <trkpt lat="44.85486" lon="6.96134">
        <ele>2571.9</ele>
        <time>2023-02-16T13:30:51Z</time>
      </trkpt>
      <trkpt lat="44.85486" lon="6.96133">
        <ele>2572.1</ele>
        <time>2023-02-16T13:30:52Z</time>
      </trkpt>
      <trkpt lat="44.85486" lon="6.96128">
        <ele>2573</ele>
        <time>2023-02-16T13:30:58Z</time>
      </trkpt>
      <trkpt lat="44.85485" lon="6.96121">
        <ele>2574.2</ele>
        <time>2023-02-16T13:31:04Z</time>
      </trkpt>
      <trkpt lat="44.85484" lon="6.96119">
        <ele>2574.5</ele>
        <time>2023-02-16T13:31:06Z</time>
      </trkpt>
      <trkpt lat="44.85484" lon="6.96117">
        <ele>2574.8</ele>
        <time>2023-02-16T13:31:09Z</time>
      </trkpt>
      <trkpt lat="44.85484" lon="6.96115">
        <ele>2575.2</ele>
        <time>2023-02-16T13:31:10Z</time>
      </trkpt>
      <trkpt lat="44.85483" lon="6.9611">
        <ele>2575.9</ele>
        <time>2023-02-16T13:31:15Z</time>
      </trkpt>
      <trkpt lat="44.85483" lon="6.96107">
        <ele>2576.3</ele>
        <time>2023-02-16T13:31:19Z</time>
      </trkpt>
      <trkpt lat="44.85484" lon="6.96102">
        <ele>2577.1</ele>
        <time>2023-02-16T13:31:24Z</time>
      </trkpt>
      <trkpt lat="44.85485" lon="6.96096">
        <ele>2578.1</ele>
        <time>2023-02-16T13:31:31Z</time>
      </trkpt>
      <trkpt lat="44.85486" lon="6.96094">
        <ele>2578.5</ele>
        <time>2023-02-16T13:31:33Z</time>
      </trkpt>
      <trkpt lat="44.85487" lon="6.96089">
        <ele>2579.3</ele>
        <time>2023-02-16T13:31:38Z</time>
      </trkpt>
      <trkpt lat="44.85488" lon="6.96083">
        <ele>2580.3</ele>
        <time>2023-02-16T13:31:43Z</time>
      </trkpt>
      <trkpt lat="44.8549" lon="6.96075">
        <ele>2582.1</ele>
        <time>2023-02-16T13:31:52Z</time>
      </trkpt>
      <trkpt lat="44.8549" lon="6.96075">
        <ele>2582.1</ele>
        <time>2023-02-16T13:31:58Z</time>
      </trkpt>
      <trkpt lat="44.8549" lon="6.96076">
        <ele>2581.9</ele>
        <time>2023-02-16T13:32:03Z</time>
      </trkpt>
      <trkpt lat="44.8549" lon="6.96076">
        <ele>2581.9</ele>
        <time>2023-02-16T13:32:21Z</time>
      </trkpt>
      <trkpt lat="44.85489" lon="6.96076">
        <ele>2581.7</ele>
        <time>2023-02-16T13:32:26Z</time>
      </trkpt>
      <trkpt lat="44.85489" lon="6.96076">
        <ele>2581.7</ele>
        <time>2023-02-16T13:32:35Z</time>
      </trkpt>
      <trkpt lat="44.85489" lon="6.96076">
        <ele>2581.7</ele>
        <time>2023-02-16T13:32:53Z</time>
      </trkpt>
      <trkpt lat="44.8549" lon="6.96073">
        <ele>2582.4</ele>
        <time>2023-02-16T13:33:11Z</time>
      </trkpt>
      <trkpt lat="44.8549" lon="6.96067">
        <ele>2583.5</ele>
        <time>2023-02-16T13:33:17Z</time>
      </trkpt>
      <trkpt lat="44.85489" lon="6.96065">
        <ele>2583.7</ele>
        <time>2023-02-16T13:33:20Z</time>
      </trkpt>
      <trkpt lat="44.85487" lon="6.96061">
        <ele>2584.1</ele>
        <time>2023-02-16T13:33:26Z</time>
      </trkpt>
      <trkpt lat="44.85484" lon="6.96058">
        <ele>2584.3</ele>
        <time>2023-02-16T13:33:30Z</time>
      </trkpt>
      <trkpt lat="44.85483" lon="6.96055">
        <ele>2584.7</ele>
        <time>2023-02-16T13:33:33Z</time>
      </trkpt>
      <trkpt lat="44.85479" lon="6.96051">
        <ele>2585.6</ele>
        <time>2023-02-16T13:33:39Z</time>
      </trkpt>
      <trkpt lat="44.85479" lon="6.96051">
        <ele>2585.6</ele>
        <time>2023-02-16T13:33:40Z</time>
      </trkpt>
      <trkpt lat="44.85476" lon="6.96049">
        <ele>2585.9</ele>
        <time>2023-02-16T13:33:44Z</time>
      </trkpt>
      <trkpt lat="44.85472" lon="6.96047">
        <ele>2586.2</ele>
        <time>2023-02-16T13:33:49Z</time>
      </trkpt>
      <trkpt lat="44.85471" lon="6.96047">
        <ele>2586.6</ele>
        <time>2023-02-16T13:33:50Z</time>
      </trkpt>
      <trkpt lat="44.8547" lon="6.9605">
        <ele>2585.9</ele>
        <time>2023-02-16T13:33:57Z</time>
      </trkpt>
      <trkpt lat="44.8547" lon="6.9605">
        <ele>2585.9</ele>
        <time>2023-02-16T13:33:59Z</time>
      </trkpt>
      <trkpt lat="44.85466" lon="6.96048">
        <ele>2588.2</ele>
        <time>2023-02-16T13:34:09Z</time>
      </trkpt>
      <trkpt lat="44.85462" lon="6.96048">
        <ele>2589.7</ele>
        <time>2023-02-16T13:34:15Z</time>
      </trkpt>
      <trkpt lat="44.85458" lon="6.96049">
        <ele>2591</ele>
        <time>2023-02-16T13:34:20Z</time>
      </trkpt>
      <trkpt lat="44.85456" lon="6.96049">
        <ele>2591.8</ele>
        <time>2023-02-16T13:34:27Z</time>
      </trkpt>
      <trkpt lat="44.85456" lon="6.96048">
        <ele>2592.1</ele>
        <time>2023-02-16T13:34:28Z</time>
      </trkpt>
      <trkpt lat="44.85456" lon="6.96048">
        <ele>2592.1</ele>
        <time>2023-02-16T13:34:29Z</time>
      </trkpt>
      <trkpt lat="44.85457" lon="6.96039">
        <ele>2594.2</ele>
        <time>2023-02-16T13:34:36Z</time>
      </trkpt>
      <trkpt lat="44.85458" lon="6.96037">
        <ele>2594.5</ele>
        <time>2023-02-16T13:34:38Z</time>
      </trkpt>
      <trkpt lat="44.85458" lon="6.96036">
        <ele>2594.7</ele>
        <time>2023-02-16T13:34:39Z</time>
      </trkpt>
      <trkpt lat="44.8546" lon="6.96025">
        <ele>2597.4</ele>
        <time>2023-02-16T13:34:48Z</time>
      </trkpt>
      <trkpt lat="44.85461" lon="6.96021">
        <ele>2598.3</ele>
        <time>2023-02-16T13:34:52Z</time>
      </trkpt>
      <trkpt lat="44.85463" lon="6.96017">
        <ele>2598.9</ele>
        <time>2023-02-16T13:34:55Z</time>
      </trkpt>
      <trkpt lat="44.85467" lon="6.96014">
        <ele>2598.6</ele>
        <time>2023-02-16T13:35:02Z</time>
      </trkpt>
      <trkpt lat="44.85468" lon="6.96013">
        <ele>2598.6</ele>
        <time>2023-02-16T13:35:03Z</time>
      </trkpt>
      <trkpt lat="44.8547" lon="6.96012">
        <ele>2598.2</ele>
        <time>2023-02-16T13:35:07Z</time>
      </trkpt>
      <trkpt lat="44.85474" lon="6.96008">
        <ele>2598.5</ele>
        <time>2023-02-16T13:35:13Z</time>
      </trkpt>
      <trkpt lat="44.85476" lon="6.96007">
        <ele>2598.5</ele>
        <time>2023-02-16T13:35:15Z</time>
      </trkpt>
      <trkpt lat="44.85476" lon="6.96008">
        <ele>2598.2</ele>
        <time>2023-02-16T13:35:23Z</time>
      </trkpt>
      <trkpt lat="44.85477" lon="6.96007">
        <ele>2598.3</ele>
        <time>2023-02-16T13:35:24Z</time>
      </trkpt>
      <trkpt lat="44.85479" lon="6.96003">
        <ele>2598.9</ele>
        <time>2023-02-16T13:35:28Z</time>
      </trkpt>
      <trkpt lat="44.85481" lon="6.95998">
        <ele>2599.4</ele>
        <time>2023-02-16T13:35:32Z</time>
      </trkpt>
      <trkpt lat="44.85484" lon="6.95988">
        <ele>2599.8</ele>
        <time>2023-02-16T13:35:44Z</time>
      </trkpt>
      <trkpt lat="44.85484" lon="6.95986">
        <ele>2600</ele>
        <time>2023-02-16T13:35:48Z</time>
      </trkpt>
      <trkpt lat="44.85485" lon="6.95983">
        <ele>2599.9</ele>
        <time>2023-02-16T13:35:54Z</time>
      </trkpt>
      <trkpt lat="44.85485" lon="6.95982">
        <ele>2600</ele>
        <time>2023-02-16T13:35:55Z</time>
      </trkpt>
      <trkpt lat="44.85485" lon="6.95982">
        <ele>2600</ele>
        <time>2023-02-16T13:35:57Z</time>
      </trkpt>
      <trkpt lat="44.85485" lon="6.95976">
        <ele>2600.6</ele>
        <time>2023-02-16T13:36:04Z</time>
      </trkpt>
      <trkpt lat="44.85486" lon="6.95975">
        <ele>2600.3</ele>
        <time>2023-02-16T13:36:05Z</time>
      </trkpt>
      <trkpt lat="44.85487" lon="6.95971">
        <ele>2600.4</ele>
        <time>2023-02-16T13:36:08Z</time>
      </trkpt>
      <trkpt lat="44.85489" lon="6.9596">
        <ele>2601.9</ele>
        <time>2023-02-16T13:36:17Z</time>
      </trkpt>
      <trkpt lat="44.85493" lon="6.95943">
        <ele>2604</ele>
        <time>2023-02-16T13:36:31Z</time>
      </trkpt>
      <trkpt lat="44.85493" lon="6.95942">
        <ele>2604.1</ele>
        <time>2023-02-16T13:36:32Z</time>
      </trkpt>
      <trkpt lat="44.85496" lon="6.95931">
        <ele>2604.5</ele>
        <time>2023-02-16T13:36:42Z</time>
      </trkpt>
      <trkpt lat="44.85497" lon="6.95925">
        <ele>2605</ele>
        <time>2023-02-16T13:36:48Z</time>
      </trkpt>
      <trkpt lat="44.855" lon="6.95917">
        <ele>2605</ele>
        <time>2023-02-16T13:36:56Z</time>
      </trkpt>
      <trkpt lat="44.85501" lon="6.95915">
        <ele>2605.2</ele>
        <time>2023-02-16T13:36:58Z</time>
      </trkpt>
      <trkpt lat="44.85508" lon="6.95902">
        <ele>2607</ele>
        <time>2023-02-16T13:37:10Z</time>
      </trkpt>
      <trkpt lat="44.85513" lon="6.95892">
        <ele>2608.1</ele>
        <time>2023-02-16T13:37:21Z</time>
      </trkpt>
      <trkpt lat="44.85514" lon="6.95888">
        <ele>2608.6</ele>
        <time>2023-02-16T13:37:25Z</time>
      </trkpt>
      <trkpt lat="44.85517" lon="6.95873">
        <ele>2609.7</ele>
        <time>2023-02-16T13:37:38Z</time>
      </trkpt>
      <trkpt lat="44.85517" lon="6.95871">
        <ele>2610</ele>
        <time>2023-02-16T13:37:40Z</time>
      </trkpt>
      <trkpt lat="44.85518" lon="6.95858">
        <ele>2611.4</ele>
        <time>2023-02-16T13:37:52Z</time>
      </trkpt>
      <trkpt lat="44.85518" lon="6.95852">
        <ele>2612.5</ele>
        <time>2023-02-16T13:37:57Z</time>
      </trkpt>
      <trkpt lat="44.8552" lon="6.95851">
        <ele>2612.1</ele>
        <time>2023-02-16T13:38:04Z</time>
      </trkpt>
      <trkpt lat="44.8552" lon="6.95851">
        <ele>2612.1</ele>
        <time>2023-02-16T13:38:21Z</time>
      </trkpt>
      <trkpt lat="44.8552" lon="6.9585">
        <ele>2612.2</ele>
        <time>2023-02-16T13:38:33Z</time>
      </trkpt>
      <trkpt lat="44.8552" lon="6.95849">
        <ele>2612.4</ele>
        <time>2023-02-16T13:38:35Z</time>
      </trkpt>
      <trkpt lat="44.8552" lon="6.95847">
        <ele>2612.8</ele>
        <time>2023-02-16T13:38:37Z</time>
      </trkpt>
      <trkpt lat="44.85519" lon="6.9584">
        <ele>2614.3</ele>
        <time>2023-02-16T13:38:43Z</time>
      </trkpt>
      <trkpt lat="44.85519" lon="6.95837">
        <ele>2614.9</ele>
        <time>2023-02-16T13:38:45Z</time>
      </trkpt>
      <trkpt lat="44.85519" lon="6.95832">
        <ele>2615.9</ele>
        <time>2023-02-16T13:38:49Z</time>
      </trkpt>
      <trkpt lat="44.85521" lon="6.95823">
        <ele>2617.9</ele>
        <time>2023-02-16T13:38:56Z</time>
      </trkpt>
      <trkpt lat="44.85526" lon="6.95816">
        <ele>2619</ele>
        <time>2023-02-16T13:39:05Z</time>
      </trkpt>
      <trkpt lat="44.85526" lon="6.95815">
        <ele>2619.3</ele>
        <time>2023-02-16T13:39:08Z</time>
      </trkpt>
      <trkpt lat="44.85526" lon="6.95814">
        <ele>2619.6</ele>
        <time>2023-02-16T13:39:09Z</time>
      </trkpt>
      <trkpt lat="44.85522" lon="6.95813">
        <ele>2620.6</ele>
        <time>2023-02-16T13:39:16Z</time>
      </trkpt>
      <trkpt lat="44.85519" lon="6.95812">
        <ele>2621.5</ele>
        <time>2023-02-16T13:39:20Z</time>
      </trkpt>
      <trkpt lat="44.85516" lon="6.9581">
        <ele>2622.5</ele>
        <time>2023-02-16T13:39:25Z</time>
      </trkpt>
      <trkpt lat="44.85514" lon="6.95809">
        <ele>2623.1</ele>
        <time>2023-02-16T13:39:28Z</time>
      </trkpt>
      <trkpt lat="44.8551" lon="6.95809">
        <ele>2623.8</ele>
        <time>2023-02-16T13:39:32Z</time>
      </trkpt>
      <trkpt lat="44.85508" lon="6.95809">
        <ele>2624.1</ele>
        <time>2023-02-16T13:39:34Z</time>
      </trkpt>
      <trkpt lat="44.85506" lon="6.9581">
        <ele>2624.2</ele>
        <time>2023-02-16T13:39:38Z</time>
      </trkpt>
      <trkpt lat="44.85504" lon="6.9581">
        <ele>2624.5</ele>
        <time>2023-02-16T13:39:41Z</time>
      </trkpt>
      <trkpt lat="44.855" lon="6.95814">
        <ele>2624.5</ele>
        <time>2023-02-16T13:39:47Z</time>
      </trkpt>
      <trkpt lat="44.85498" lon="6.95815">
        <ele>2625.4</ele>
        <time>2023-02-16T13:39:50Z</time>
      </trkpt>
      <trkpt lat="44.85498" lon="6.95816">
        <ele>2625.2</ele>
        <time>2023-02-16T13:39:56Z</time>
      </trkpt>
      <trkpt lat="44.85498" lon="6.95816">
        <ele>2625.2</ele>
        <time>2023-02-16T13:40:01Z</time>
      </trkpt>
      <trkpt lat="44.85498" lon="6.95817">
        <ele>2625</ele>
        <time>2023-02-16T13:40:16Z</time>
      </trkpt>
      <trkpt lat="44.85498" lon="6.95815">
        <ele>2625.4</ele>
        <time>2023-02-16T13:40:34Z</time>
      </trkpt>
      <trkpt lat="44.85498" lon="6.95813">
        <ele>2625.7</ele>
        <time>2023-02-16T13:40:48Z</time>
      </trkpt>
      <trkpt lat="44.85494" lon="6.95816">
        <ele>2627.4</ele>
        <time>2023-02-16T13:41:00Z</time>
      </trkpt>
      <trkpt lat="44.85495" lon="6.95811">
        <ele>2627.6</ele>
        <time>2023-02-16T13:41:05Z</time>
      </trkpt>
      <trkpt lat="44.85495" lon="6.95808">
        <ele>2628.1</ele>
        <time>2023-02-16T13:41:08Z</time>
      </trkpt>
      <trkpt lat="44.85496" lon="6.95804">
        <ele>2628.3</ele>
        <time>2023-02-16T13:41:12Z</time>
      </trkpt>
      <trkpt lat="44.85496" lon="6.95801">
        <ele>2629</ele>
        <time>2023-02-16T13:41:14Z</time>
      </trkpt>
      <trkpt lat="44.85496" lon="6.95796">
        <ele>2630</ele>
        <time>2023-02-16T13:41:19Z</time>
      </trkpt>
      <trkpt lat="44.85497" lon="6.95794">
        <ele>2630</ele>
        <time>2023-02-16T13:41:20Z</time>
      </trkpt>
      <trkpt lat="44.85501" lon="6.95783">
        <ele>2630.8</ele>
        <time>2023-02-16T13:41:30Z</time>
      </trkpt>
      <trkpt lat="44.85502" lon="6.95779">
        <ele>2631.7</ele>
        <time>2023-02-16T13:41:34Z</time>
      </trkpt>
      <trkpt lat="44.85503" lon="6.95776">
        <ele>2632.4</ele>
        <time>2023-02-16T13:41:37Z</time>
      </trkpt>
      <trkpt lat="44.85505" lon="6.9577">
        <ele>2633.7</ele>
        <time>2023-02-16T13:41:43Z</time>
      </trkpt>
      <trkpt lat="44.85506" lon="6.95765">
        <ele>2634.8</ele>
        <time>2023-02-16T13:41:47Z</time>
      </trkpt>
      <trkpt lat="44.85507" lon="6.95763">
        <ele>2635.3</ele>
        <time>2023-02-16T13:41:49Z</time>
      </trkpt>
      <trkpt lat="44.8551" lon="6.95756">
        <ele>2637.3</ele>
        <time>2023-02-16T13:41:58Z</time>
      </trkpt>
      <trkpt lat="44.85511" lon="6.95755">
        <ele>2637.7</ele>
        <time>2023-02-16T13:42:00Z</time>
      </trkpt>
      <trkpt lat="44.85514" lon="6.95753">
        <ele>2638.7</ele>
        <time>2023-02-16T13:42:04Z</time>
      </trkpt>
      <trkpt lat="44.85517" lon="6.95752">
        <ele>2639.5</ele>
        <time>2023-02-16T13:42:08Z</time>
      </trkpt>
      <trkpt lat="44.85517" lon="6.95751">
        <ele>2639.8</ele>
        <time>2023-02-16T13:42:10Z</time>
      </trkpt>
      <trkpt lat="44.85515" lon="6.95747">
        <ele>2640.7</ele>
        <time>2023-02-16T13:42:20Z</time>
      </trkpt>
      <trkpt lat="44.85514" lon="6.95746">
        <ele>2640.8</ele>
        <time>2023-02-16T13:42:21Z</time>
      </trkpt>
      <trkpt lat="44.85511" lon="6.95743">
        <ele>2641.2</ele>
        <time>2023-02-16T13:42:25Z</time>
      </trkpt>
      <trkpt lat="44.8551" lon="6.95742">
        <ele>2641.3</ele>
        <time>2023-02-16T13:42:27Z</time>
      </trkpt>
      <trkpt lat="44.85508" lon="6.9574">
        <ele>2641.5</ele>
        <time>2023-02-16T13:42:30Z</time>
      </trkpt>
      <trkpt lat="44.85507" lon="6.9574">
        <ele>2641.3</ele>
        <time>2023-02-16T13:42:31Z</time>
      </trkpt>
      <trkpt lat="44.85502" lon="6.95736">
        <ele>2641.5</ele>
        <time>2023-02-16T13:42:39Z</time>
      </trkpt>
      <trkpt lat="44.85498" lon="6.95735">
        <ele>2642</ele>
        <time>2023-02-16T13:42:43Z</time>
      </trkpt>
      <trkpt lat="44.85498" lon="6.95735">
        <ele>2642</ele>
        <time>2023-02-16T13:42:44Z</time>
      </trkpt>
      <trkpt lat="44.85493" lon="6.95735">
        <ele>2643.8</ele>
        <time>2023-02-16T13:42:50Z</time>
      </trkpt>
      <trkpt lat="44.85491" lon="6.95736">
        <ele>2644.3</ele>
        <time>2023-02-16T13:42:53Z</time>
      </trkpt>
      <trkpt lat="44.85489" lon="6.95737">
        <ele>2644.8</ele>
        <time>2023-02-16T13:42:56Z</time>
      </trkpt>
      <trkpt lat="44.85485" lon="6.95742">
        <ele>2645.2</ele>
        <time>2023-02-16T13:43:04Z</time>
      </trkpt>
      <trkpt lat="44.85484" lon="6.95742">
        <ele>2645.6</ele>
        <time>2023-02-16T13:43:05Z</time>
      </trkpt>
      <trkpt lat="44.8548" lon="6.95745">
        <ele>2646.6</ele>
        <time>2023-02-16T13:43:11Z</time>
      </trkpt>
      <trkpt lat="44.85479" lon="6.95746">
        <ele>2646.8</ele>
        <time>2023-02-16T13:43:12Z</time>
      </trkpt>
      <trkpt lat="44.85478" lon="6.95746">
        <ele>2647.2</ele>
        <time>2023-02-16T13:43:14Z</time>
      </trkpt>
      <trkpt lat="44.85477" lon="6.95747">
        <ele>2647.4</ele>
        <time>2023-02-16T13:43:16Z</time>
      </trkpt>
      <trkpt lat="44.85475" lon="6.95753">
        <ele>2647.4</ele>
        <time>2023-02-16T13:43:27Z</time>
      </trkpt>
      <trkpt lat="44.85474" lon="6.95753">
        <ele>2647.8</ele>
        <time>2023-02-16T13:43:28Z</time>
      </trkpt>
      <trkpt lat="44.85471" lon="6.95757">
        <ele>2648.6</ele>
        <time>2023-02-16T13:43:34Z</time>
      </trkpt>
      <trkpt lat="44.85468" lon="6.95758">
        <ele>2649.9</ele>
        <time>2023-02-16T13:43:39Z</time>
      </trkpt>
      <trkpt lat="44.85466" lon="6.95758">
        <ele>2650.9</ele>
        <time>2023-02-16T13:43:44Z</time>
      </trkpt>
      <trkpt lat="44.85466" lon="6.95757">
        <ele>2651</ele>
        <time>2023-02-16T13:43:47Z</time>
      </trkpt>
      <trkpt lat="44.85466" lon="6.95751">
        <ele>2651.8</ele>
        <time>2023-02-16T13:43:58Z</time>
      </trkpt>
      <trkpt lat="44.85467" lon="6.95751">
        <ele>2651.3</ele>
        <time>2023-02-16T13:44:01Z</time>
      </trkpt>
      <trkpt lat="44.85466" lon="6.95751">
        <ele>2651.8</ele>
        <time>2023-02-16T13:44:03Z</time>
      </trkpt>
      <trkpt lat="44.85466" lon="6.9575">
        <ele>2651.9</ele>
        <time>2023-02-16T13:44:11Z</time>
      </trkpt>
      <trkpt lat="44.85465" lon="6.95748">
        <ele>2652.7</ele>
        <time>2023-02-16T13:44:27Z</time>
      </trkpt>
      <trkpt lat="44.85465" lon="6.95739">
        <ele>2654.1</ele>
        <time>2023-02-16T13:44:35Z</time>
      </trkpt>
      <trkpt lat="44.85465" lon="6.95734">
        <ele>2654.8</ele>
        <time>2023-02-16T13:44:39Z</time>
      </trkpt>
      <trkpt lat="44.85465" lon="6.9573">
        <ele>2655.4</ele>
        <time>2023-02-16T13:44:42Z</time>
      </trkpt>
      <trkpt lat="44.85465" lon="6.95723">
        <ele>2656.5</ele>
        <time>2023-02-16T13:44:49Z</time>
      </trkpt>
      <trkpt lat="44.85465" lon="6.95722">
        <ele>2656.7</ele>
        <time>2023-02-16T13:44:50Z</time>
      </trkpt>
      <trkpt lat="44.85466" lon="6.95719">
        <ele>2656.7</ele>
        <time>2023-02-16T13:44:52Z</time>
      </trkpt>
      <trkpt lat="44.85465" lon="6.95717">
        <ele>2657.5</ele>
        <time>2023-02-16T13:44:55Z</time>
      </trkpt>
      <trkpt lat="44.85466" lon="6.9571">
        <ele>2658.1</ele>
        <time>2023-02-16T13:45:03Z</time>
      </trkpt>
      <trkpt lat="44.85466" lon="6.95709">
        <ele>2658.3</ele>
        <time>2023-02-16T13:45:04Z</time>
      </trkpt>
      <trkpt lat="44.85466" lon="6.95701">
        <ele>2659.6</ele>
        <time>2023-02-16T13:45:12Z</time>
      </trkpt>
      <trkpt lat="44.85465" lon="6.95695">
        <ele>2661</ele>
        <time>2023-02-16T13:45:18Z</time>
      </trkpt>
      <trkpt lat="44.85465" lon="6.95693">
        <ele>2661.4</ele>
        <time>2023-02-16T13:45:20Z</time>
      </trkpt>
      <trkpt lat="44.85465" lon="6.95686">
        <ele>2662.8</ele>
        <time>2023-02-16T13:45:27Z</time>
      </trkpt>
      <trkpt lat="44.85467" lon="6.95681">
        <ele>2663</ele>
        <time>2023-02-16T13:45:32Z</time>
      </trkpt>
      <trkpt lat="44.85468" lon="6.95681">
        <ele>2662.6</ele>
        <time>2023-02-16T13:45:42Z</time>
      </trkpt>
      <trkpt lat="44.85469" lon="6.95677">
        <ele>2663</ele>
        <time>2023-02-16T13:45:46Z</time>
      </trkpt>
      <trkpt lat="44.85469" lon="6.95671">
        <ele>2664.3</ele>
        <time>2023-02-16T13:45:51Z</time>
      </trkpt>
      <trkpt lat="44.8547" lon="6.95668">
        <ele>2664.5</ele>
        <time>2023-02-16T13:45:53Z</time>
      </trkpt>
      <trkpt lat="44.8547" lon="6.95662">
        <ele>2666.5</ele>
        <time>2023-02-16T13:45:58Z</time>
      </trkpt>
      <trkpt lat="44.85472" lon="6.95656">
        <ele>2668.3</ele>
        <time>2023-02-16T13:46:04Z</time>
      </trkpt>
      <trkpt lat="44.85473" lon="6.95654">
        <ele>2669.1</ele>
        <time>2023-02-16T13:46:06Z</time>
      </trkpt>
      <trkpt lat="44.85473" lon="6.95653">
        <ele>2669.5</ele>
        <time>2023-02-16T13:46:11Z</time>
      </trkpt>
      <trkpt lat="44.85471" lon="6.95653">
        <ele>2669.7</ele>
        <time>2023-02-16T13:46:14Z</time>
      </trkpt>
      <trkpt lat="44.85467" lon="6.95652">
        <ele>2670.9</ele>
        <time>2023-02-16T13:46:19Z</time>
      </trkpt>
      <trkpt lat="44.85464" lon="6.95652">
        <ele>2671.5</ele>
        <time>2023-02-16T13:46:24Z</time>
      </trkpt>
      <trkpt lat="44.85458" lon="6.95654">
        <ele>2672.3</ele>
        <time>2023-02-16T13:46:31Z</time>
      </trkpt>
      <trkpt lat="44.85457" lon="6.95654">
        <ele>2672.5</ele>
        <time>2023-02-16T13:46:32Z</time>
      </trkpt>
      <trkpt lat="44.85454" lon="6.95656">
        <ele>2672.8</ele>
        <time>2023-02-16T13:46:36Z</time>
      </trkpt>
      <trkpt lat="44.85453" lon="6.95657">
        <ele>2672.8</ele>
        <time>2023-02-16T13:46:38Z</time>
      </trkpt>
      <trkpt lat="44.85448" lon="6.95662">
        <ele>2673.4</ele>
        <time>2023-02-16T13:46:44Z</time>
      </trkpt>
      <trkpt lat="44.85447" lon="6.95664">
        <ele>2673.4</ele>
        <time>2023-02-16T13:46:46Z</time>
      </trkpt>
      <trkpt lat="44.85446" lon="6.95665">
        <ele>2673.6</ele>
        <time>2023-02-16T13:46:48Z</time>
      </trkpt>
      <trkpt lat="44.85444" lon="6.95666">
        <ele>2674.3</ele>
        <time>2023-02-16T13:46:51Z</time>
      </trkpt>
      <trkpt lat="44.85441" lon="6.9567">
        <ele>2675.1</ele>
        <time>2023-02-16T13:46:58Z</time>
      </trkpt>
      <trkpt lat="44.85439" lon="6.95672">
        <ele>2675.8</ele>
        <time>2023-02-16T13:47:01Z</time>
      </trkpt>
      <trkpt lat="44.85437" lon="6.95675">
        <ele>2676.4</ele>
        <time>2023-02-16T13:47:05Z</time>
      </trkpt>
      <trkpt lat="44.85434" lon="6.95679">
        <ele>2677.3</ele>
        <time>2023-02-16T13:47:11Z</time>
      </trkpt>
      <trkpt lat="44.85434" lon="6.95679">
        <ele>2677.3</ele>
        <time>2023-02-16T13:47:13Z</time>
      </trkpt>
      <trkpt lat="44.85436" lon="6.95681">
        <ele>2676</ele>
        <time>2023-02-16T13:47:26Z</time>
      </trkpt>
      <trkpt lat="44.85436" lon="6.95681">
        <ele>2676</ele>
        <time>2023-02-16T13:47:39Z</time>
      </trkpt>
      <trkpt lat="44.85436" lon="6.9568">
        <ele>2676.2</ele>
        <time>2023-02-16T13:47:51Z</time>
      </trkpt>
      <trkpt lat="44.85435" lon="6.95679">
        <ele>2676.8</ele>
        <time>2023-02-16T13:47:55Z</time>
      </trkpt>
      <trkpt lat="44.85434" lon="6.95673">
        <ele>2678.1</ele>
        <time>2023-02-16T13:48:01Z</time>
      </trkpt>
      <trkpt lat="44.85433" lon="6.95669">
        <ele>2679.1</ele>
        <time>2023-02-16T13:48:04Z</time>
      </trkpt>
      <trkpt lat="44.85433" lon="6.95667">
        <ele>2679.3</ele>
        <time>2023-02-16T13:48:05Z</time>
      </trkpt>
      <trkpt lat="44.85433" lon="6.95666">
        <ele>2679.4</ele>
        <time>2023-02-16T13:48:06Z</time>
      </trkpt>
      <trkpt lat="44.85433" lon="6.95659">
        <ele>2680.2</ele>
        <time>2023-02-16T13:48:11Z</time>
      </trkpt>
      <trkpt lat="44.85432" lon="6.95651">
        <ele>2681.5</ele>
        <time>2023-02-16T13:48:17Z</time>
      </trkpt>
      <trkpt lat="44.85432" lon="6.95649">
        <ele>2681.7</ele>
        <time>2023-02-16T13:48:19Z</time>
      </trkpt>
      <trkpt lat="44.85432" lon="6.95642">
        <ele>2682.5</ele>
        <time>2023-02-16T13:48:24Z</time>
      </trkpt>
      <trkpt lat="44.85431" lon="6.9563">
        <ele>2686</ele>
        <time>2023-02-16T13:48:33Z</time>
      </trkpt>
      <trkpt lat="44.85432" lon="6.95624">
        <ele>2687.4</ele>
        <time>2023-02-16T13:48:38Z</time>
      </trkpt>
      <trkpt lat="44.85433" lon="6.95616">
        <ele>2689.4</ele>
        <time>2023-02-16T13:48:46Z</time>
      </trkpt>
      <trkpt lat="44.85433" lon="6.95615">
        <ele>2689.7</ele>
        <time>2023-02-16T13:48:56Z</time>
      </trkpt>
      <trkpt lat="44.85434" lon="6.95611">
        <ele>2690.5</ele>
        <time>2023-02-16T13:49:03Z</time>
      </trkpt>
      <trkpt lat="44.85436" lon="6.95607">
        <ele>2690.8</ele>
        <time>2023-02-16T13:49:07Z</time>
      </trkpt>
      <trkpt lat="44.85439" lon="6.956">
        <ele>2691.9</ele>
        <time>2023-02-16T13:49:14Z</time>
      </trkpt>
      <trkpt lat="44.8544" lon="6.95597">
        <ele>2692.6</ele>
        <time>2023-02-16T13:49:17Z</time>
      </trkpt>
      <trkpt lat="44.85441" lon="6.95596">
        <ele>2692.7</ele>
        <time>2023-02-16T13:49:19Z</time>
      </trkpt>
      <trkpt lat="44.85442" lon="6.95595">
        <ele>2692.9</ele>
        <time>2023-02-16T13:49:21Z</time>
      </trkpt>
      <trkpt lat="44.85443" lon="6.95594">
        <ele>2693</ele>
        <time>2023-02-16T13:49:23Z</time>
      </trkpt>
      <trkpt lat="44.85444" lon="6.95594">
        <ele>2692.9</ele>
        <time>2023-02-16T13:49:30Z</time>
      </trkpt>
      <trkpt lat="44.85441" lon="6.95593">
        <ele>2693.8</ele>
        <time>2023-02-16T13:49:36Z</time>
      </trkpt>
      <trkpt lat="44.85439" lon="6.95592">
        <ele>2694.4</ele>
        <time>2023-02-16T13:49:38Z</time>
      </trkpt>
      <trkpt lat="44.85438" lon="6.95592">
        <ele>2694.6</ele>
        <time>2023-02-16T13:49:40Z</time>
      </trkpt>
      <trkpt lat="44.85436" lon="6.95592">
        <ele>2694.9</ele>
        <time>2023-02-16T13:49:42Z</time>
      </trkpt>
      <trkpt lat="44.85435" lon="6.95593">
        <ele>2694.8</ele>
        <time>2023-02-16T13:49:43Z</time>
      </trkpt>
      <trkpt lat="44.85434" lon="6.95593">
        <ele>2695</ele>
        <time>2023-02-16T13:49:47Z</time>
      </trkpt>
      <trkpt lat="44.85434" lon="6.95594">
        <ele>2694.7</ele>
        <time>2023-02-16T13:49:50Z</time>
      </trkpt>
      <trkpt lat="44.85429" lon="6.95593">
        <ele>2695.9</ele>
        <time>2023-02-16T13:50:00Z</time>
      </trkpt>
      <trkpt lat="44.85428" lon="6.95593">
        <ele>2696</ele>
        <time>2023-02-16T13:50:01Z</time>
      </trkpt>
      <trkpt lat="44.85429" lon="6.9559">
        <ele>2696.4</ele>
        <time>2023-02-16T13:50:08Z</time>
      </trkpt>
      <trkpt lat="44.8543" lon="6.95589">
        <ele>2696.4</ele>
        <time>2023-02-16T13:50:09Z</time>
      </trkpt>
      <trkpt lat="44.85431" lon="6.95587">
        <ele>2696.7</ele>
        <time>2023-02-16T13:50:13Z</time>
      </trkpt>
      <trkpt lat="44.85434" lon="6.95582">
        <ele>2697.6</ele>
        <time>2023-02-16T13:50:20Z</time>
      </trkpt>
      <trkpt lat="44.85435" lon="6.95581">
        <ele>2697.8</ele>
        <time>2023-02-16T13:50:22Z</time>
      </trkpt>
      <trkpt lat="44.85436" lon="6.9558">
        <ele>2698</ele>
        <time>2023-02-16T13:50:29Z</time>
      </trkpt>
      <trkpt lat="44.85439" lon="6.95575">
        <ele>2699.1</ele>
        <time>2023-02-16T13:50:36Z</time>
      </trkpt>
      <trkpt lat="44.85442" lon="6.95572">
        <ele>2700.1</ele>
        <time>2023-02-16T13:50:41Z</time>
      </trkpt>
      <trkpt lat="44.85444" lon="6.9557">
        <ele>2700.8</ele>
        <time>2023-02-16T13:50:47Z</time>
      </trkpt>
      <trkpt lat="44.85445" lon="6.95569">
        <ele>2701.3</ele>
        <time>2023-02-16T13:50:51Z</time>
      </trkpt>
      <trkpt lat="44.85444" lon="6.95569">
        <ele>2701.1</ele>
        <time>2023-02-16T13:50:54Z</time>
      </trkpt>
      <trkpt lat="44.85442" lon="6.95568">
        <ele>2701.1</ele>
        <time>2023-02-16T13:51:01Z</time>
      </trkpt>
      <trkpt lat="44.85439" lon="6.95567">
        <ele>2701</ele>
        <time>2023-02-16T13:51:11Z</time>
      </trkpt>
      <trkpt lat="44.85441" lon="6.95565">
        <ele>2701.7</ele>
        <time>2023-02-16T13:51:16Z</time>
      </trkpt>
      <trkpt lat="44.85444" lon="6.95564">
        <ele>2702.5</ele>
        <time>2023-02-16T13:51:23Z</time>
      </trkpt>
      <trkpt lat="44.85445" lon="6.95564">
        <ele>2702.7</ele>
        <time>2023-02-16T13:51:26Z</time>
      </trkpt>
      <trkpt lat="44.85449" lon="6.95563">
        <ele>2704.3</ele>
        <time>2023-02-16T13:51:32Z</time>
      </trkpt>
      <trkpt lat="44.8545" lon="6.95562">
        <ele>2704.9</ele>
        <time>2023-02-16T13:51:34Z</time>
      </trkpt>
      <trkpt lat="44.85452" lon="6.95561">
        <ele>2705.9</ele>
        <time>2023-02-16T13:51:38Z</time>
      </trkpt>
      <trkpt lat="44.85454" lon="6.95561">
        <ele>2706.5</ele>
        <time>2023-02-16T13:51:44Z</time>
      </trkpt>
      <trkpt lat="44.85453" lon="6.95561">
        <ele>2706.2</ele>
        <time>2023-02-16T13:51:47Z</time>
      </trkpt>
      <trkpt lat="44.85449" lon="6.9556">
        <ele>2705.2</ele>
        <time>2023-02-16T13:51:53Z</time>
      </trkpt>
      <trkpt lat="44.85446" lon="6.95559">
        <ele>2704.5</ele>
        <time>2023-02-16T13:52:03Z</time>
      </trkpt>
      <trkpt lat="44.85446" lon="6.9556">
        <ele>2704.2</ele>
        <time>2023-02-16T13:52:16Z</time>
      </trkpt>
      <trkpt lat="44.85445" lon="6.9556">
        <ele>2703.9</ele>
        <time>2023-02-16T13:52:17Z</time>
      </trkpt>
      <trkpt lat="44.85444" lon="6.9556">
        <ele>2703.6</ele>
        <time>2023-02-16T13:52:23Z</time>
      </trkpt>
      <trkpt lat="44.85443" lon="6.95562">
        <ele>2702.9</ele>
        <time>2023-02-16T13:52:31Z</time>
      </trkpt>
      <trkpt lat="44.85444" lon="6.95562">
        <ele>2703.1</ele>
        <time>2023-02-16T13:52:45Z</time>
      </trkpt>
      <trkpt lat="44.85442" lon="6.95563">
        <ele>2702.4</ele>
        <time>2023-02-16T13:52:54Z</time>
      </trkpt>
      <trkpt lat="44.85441" lon="6.95563">
        <ele>2702.3</ele>
        <time>2023-02-16T13:52:57Z</time>
      </trkpt>
      <trkpt lat="44.85439" lon="6.95565">
        <ele>2701.4</ele>
        <time>2023-02-16T13:53:09Z</time>
      </trkpt>
      <trkpt lat="44.85434" lon="6.95567">
        <ele>2700.3</ele>
        <time>2023-02-16T13:53:18Z</time>
      </trkpt>
      <trkpt lat="44.85433" lon="6.95566">
        <ele>2700.3</ele>
        <time>2023-02-16T13:53:31Z</time>
      </trkpt>
      <trkpt lat="44.85433" lon="6.95565">
        <ele>2700.5</ele>
        <time>2023-02-16T13:53:40Z</time>
      </trkpt>
      <trkpt lat="44.85434" lon="6.95565">
        <ele>2700.7</ele>
        <time>2023-02-16T13:53:47Z</time>
      </trkpt>
      <trkpt lat="44.85434" lon="6.95566">
        <ele>2700.5</ele>
        <time>2023-02-16T13:53:50Z</time>
      </trkpt>
      <trkpt lat="44.85436" lon="6.95566">
        <ele>2700.8</ele>
        <time>2023-02-16T13:53:58Z</time>
      </trkpt>
      <trkpt lat="44.85437" lon="6.95567">
        <ele>2700.7</ele>
        <time>2023-02-16T13:54:14Z</time>
      </trkpt>
      <trkpt lat="44.85435" lon="6.95567">
        <ele>2700.4</ele>
        <time>2023-02-16T13:54:27Z</time>
      </trkpt>
      <trkpt lat="44.85436" lon="6.95567">
        <ele>2700.6</ele>
        <time>2023-02-16T13:54:40Z</time>
      </trkpt>
      <trkpt lat="44.85436" lon="6.95567">
        <ele>2700.6</ele>
        <time>2023-02-16T13:54:54Z</time>
      </trkpt>
      <trkpt lat="44.85436" lon="6.95567">
        <ele>2700.6</ele>
        <time>2023-02-16T13:55:02Z</time>
      </trkpt>
      <trkpt lat="44.85436" lon="6.95567">
        <ele>2700.6</ele>
        <time>2023-02-16T13:55:09Z</time>
      </trkpt>
      <trkpt lat="44.85437" lon="6.95567">
        <ele>2700.7</ele>
        <time>2023-02-16T13:55:16Z</time>
      </trkpt>
      <trkpt lat="44.85437" lon="6.95567">
        <ele>2700.7</ele>
        <time>2023-02-16T13:55:24Z</time>
      </trkpt>
      <trkpt lat="44.85437" lon="6.95567">
        <ele>2700.7</ele>
        <time>2023-02-16T13:55:28Z</time>
      </trkpt>
      <trkpt lat="44.85436" lon="6.95566">
        <ele>2700.8</ele>
        <time>2023-02-16T13:55:33Z</time>
      </trkpt>
      <trkpt lat="44.85437" lon="6.95566">
        <ele>2700.9</ele>
        <time>2023-02-16T13:55:40Z</time>
      </trkpt>
      <trkpt lat="44.85438" lon="6.95565">
        <ele>2701.3</ele>
        <time>2023-02-16T13:55:50Z</time>
      </trkpt>
      <trkpt lat="44.85439" lon="6.95566">
        <ele>2701.2</ele>
        <time>2023-02-16T13:56:00Z</time>
      </trkpt>
      <trkpt lat="44.85437" lon="6.95567">
        <ele>2700.7</ele>
        <time>2023-02-16T13:56:12Z</time>
      </trkpt>
      <trkpt lat="44.85436" lon="6.95565">
        <ele>2701</ele>
        <time>2023-02-16T13:56:27Z</time>
      </trkpt>
      <trkpt lat="44.85436" lon="6.95566">
        <ele>2700.8</ele>
        <time>2023-02-16T13:56:41Z</time>
      </trkpt>
      <trkpt lat="44.85437" lon="6.95566">
        <ele>2700.9</ele>
        <time>2023-02-16T13:56:55Z</time>
      </trkpt>
      <trkpt lat="44.85437" lon="6.95566">
        <ele>2700.9</ele>
        <time>2023-02-16T13:57:02Z</time>
      </trkpt>
      <trkpt lat="44.85437" lon="6.95567">
        <ele>2700.7</ele>
        <time>2023-02-16T13:57:15Z</time>
      </trkpt>
      <trkpt lat="44.85436" lon="6.95568">
        <ele>2700.4</ele>
        <time>2023-02-16T13:57:22Z</time>
      </trkpt>
      <trkpt lat="44.85436" lon="6.95568">
        <ele>2700.4</ele>
        <time>2023-02-16T13:57:25Z</time>
      </trkpt>
      <trkpt lat="44.85435" lon="6.9557">
        <ele>2699.9</ele>
        <time>2023-02-16T13:57:41Z</time>
      </trkpt>
      <trkpt lat="44.85434" lon="6.9557">
        <ele>2699.8</ele>
        <time>2023-02-16T13:57:56Z</time>
      </trkpt>
      <trkpt lat="44.85435" lon="6.9557">
        <ele>2699.9</ele>
        <time>2023-02-16T13:58:10Z</time>
      </trkpt>
      <trkpt lat="44.85435" lon="6.95571">
        <ele>2699.7</ele>
        <time>2023-02-16T13:58:17Z</time>
      </trkpt>
      <trkpt lat="44.85435" lon="6.9557">
        <ele>2699.9</ele>
        <time>2023-02-16T13:58:28Z</time>
      </trkpt>
      <trkpt lat="44.85435" lon="6.9557">
        <ele>2699.9</ele>
        <time>2023-02-16T13:58:33Z</time>
      </trkpt>
      <trkpt lat="44.85435" lon="6.95569">
        <ele>2700.1</ele>
        <time>2023-02-16T13:58:47Z</time>
      </trkpt>
      <trkpt lat="44.85434" lon="6.95569">
        <ele>2700</ele>
        <time>2023-02-16T13:59:08Z</time>
      </trkpt>
      <trkpt lat="44.85434" lon="6.95569">
        <ele>2700</ele>
        <time>2023-02-16T13:59:12Z</time>
      </trkpt>
      <trkpt lat="44.85434" lon="6.95569">
        <ele>2700</ele>
        <time>2023-02-16T13:59:21Z</time>
      </trkpt>
      <trkpt lat="44.85434" lon="6.95568">
        <ele>2700.1</ele>
        <time>2023-02-16T13:59:30Z</time>
      </trkpt>
      <trkpt lat="44.85433" lon="6.95567">
        <ele>2700.2</ele>
        <time>2023-02-16T13:59:45Z</time>
      </trkpt>
      <trkpt lat="44.85429" lon="6.95566">
        <ele>2699.8</ele>
        <time>2023-02-16T13:59:51Z</time>
      </trkpt>
      <trkpt lat="44.85425" lon="6.95566">
        <ele>2699.2</ele>
        <time>2023-02-16T13:59:53Z</time>
      </trkpt>
      <trkpt lat="44.85409" lon="6.95569">
        <ele>2697.5</ele>
        <time>2023-02-16T13:59:57Z</time>
      </trkpt>
      <trkpt lat="44.85406" lon="6.9557">
        <ele>2697.5</ele>
        <time>2023-02-16T13:59:58Z</time>
      </trkpt>
      <trkpt lat="44.85404" lon="6.95571">
        <ele>2697.6</ele>
        <time>2023-02-16T13:59:59Z</time>
      </trkpt>
      <trkpt lat="44.85399" lon="6.95573">
        <ele>2697.9</ele>
        <time>2023-02-16T14:00:02Z</time>
      </trkpt>
      <trkpt lat="44.85398" lon="6.95574">
        <ele>2698.2</ele>
        <time>2023-02-16T14:00:03Z</time>
      </trkpt>
      <trkpt lat="44.85397" lon="6.95574">
        <ele>2698.2</ele>
        <time>2023-02-16T14:00:06Z</time>
      </trkpt>
      <trkpt lat="44.85397" lon="6.95574">
        <ele>2698.2</ele>
        <time>2023-02-16T14:00:09Z</time>
      </trkpt>
      <trkpt lat="44.85394" lon="6.95574">
        <ele>2698.2</ele>
        <time>2023-02-16T14:00:18Z</time>
      </trkpt>
      <trkpt lat="44.85391" lon="6.95574">
        <ele>2698.3</ele>
        <time>2023-02-16T14:00:19Z</time>
      </trkpt>
      <trkpt lat="44.85385" lon="6.95574">
        <ele>2697.6</ele>
        <time>2023-02-16T14:00:21Z</time>
      </trkpt>
      <trkpt lat="44.85378" lon="6.95575">
        <ele>2696.8</ele>
        <time>2023-02-16T14:00:23Z</time>
      </trkpt>
      <trkpt lat="44.85374" lon="6.95573">
        <ele>2695.2</ele>
        <time>2023-02-16T14:00:25Z</time>
      </trkpt>
      <trkpt lat="44.85375" lon="6.9557">
        <ele>2694</ele>
        <time>2023-02-16T14:00:26Z</time>
      </trkpt>
      <trkpt lat="44.85377" lon="6.95566">
        <ele>2692.6</ele>
        <time>2023-02-16T14:00:27Z</time>
      </trkpt>
      <trkpt lat="44.85379" lon="6.95564">
        <ele>2692.2</ele>
        <time>2023-02-16T14:00:28Z</time>
      </trkpt>
      <trkpt lat="44.85382" lon="6.9556">
        <ele>2691.1</ele>
        <time>2023-02-16T14:00:30Z</time>
      </trkpt>
      <trkpt lat="44.85384" lon="6.95555">
        <ele>2689.5</ele>
        <time>2023-02-16T14:00:32Z</time>
      </trkpt>
      <trkpt lat="44.85383" lon="6.95555">
        <ele>2689.3</ele>
        <time>2023-02-16T14:00:33Z</time>
      </trkpt>
      <trkpt lat="44.8538" lon="6.95554">
        <ele>2688.1</ele>
        <time>2023-02-16T14:00:34Z</time>
      </trkpt>
      <trkpt lat="44.85357" lon="6.95554">
        <ele>2683.5</ele>
        <time>2023-02-16T14:00:38Z</time>
      </trkpt>
      <trkpt lat="44.85351" lon="6.95554">
        <ele>2683.7</ele>
        <time>2023-02-16T14:00:39Z</time>
      </trkpt>
      <trkpt lat="44.85341" lon="6.95551">
        <ele>2682.7</ele>
        <time>2023-02-16T14:00:41Z</time>
      </trkpt>
      <trkpt lat="44.85331" lon="6.95549">
        <ele>2681.8</ele>
        <time>2023-02-16T14:00:43Z</time>
      </trkpt>
      <trkpt lat="44.85326" lon="6.95548">
        <ele>2681.2</ele>
        <time>2023-02-16T14:00:44Z</time>
      </trkpt>
      <trkpt lat="44.85316" lon="6.95546">
        <ele>2680.1</ele>
        <time>2023-02-16T14:00:46Z</time>
      </trkpt>
      <trkpt lat="44.85301" lon="6.95543">
        <ele>2678.6</ele>
        <time>2023-02-16T14:00:49Z</time>
      </trkpt>
      <trkpt lat="44.85291" lon="6.95542">
        <ele>2677.6</ele>
        <time>2023-02-16T14:00:51Z</time>
      </trkpt>
      <trkpt lat="44.8528" lon="6.95541">
        <ele>2676.4</ele>
        <time>2023-02-16T14:00:53Z</time>
      </trkpt>
      <trkpt lat="44.85266" lon="6.95541">
        <ele>2675.2</ele>
        <time>2023-02-16T14:00:56Z</time>
      </trkpt>
      <trkpt lat="44.85255" lon="6.9554">
        <ele>2673.7</ele>
        <time>2023-02-16T14:00:58Z</time>
      </trkpt>
      <trkpt lat="44.8525" lon="6.95539">
        <ele>2672.8</ele>
        <time>2023-02-16T14:00:59Z</time>
      </trkpt>
      <trkpt lat="44.85244" lon="6.95537">
        <ele>2672.5</ele>
        <time>2023-02-16T14:01:00Z</time>
      </trkpt>
      <trkpt lat="44.85239" lon="6.95535">
        <ele>2672.1</ele>
        <time>2023-02-16T14:01:01Z</time>
      </trkpt>
      <trkpt lat="44.85239" lon="6.95535">
        <ele>2672.1</ele>
        <time>2023-02-16T14:01:02Z</time>
      </trkpt>
      <trkpt lat="44.85222" lon="6.95526">
        <ele>2670.2</ele>
        <time>2023-02-16T14:01:05Z</time>
      </trkpt>
      <trkpt lat="44.85215" lon="6.95522">
        <ele>2669.2</ele>
        <time>2023-02-16T14:01:07Z</time>
      </trkpt>
      <trkpt lat="44.85206" lon="6.95517">
        <ele>2668.2</ele>
        <time>2023-02-16T14:01:10Z</time>
      </trkpt>
      <trkpt lat="44.85198" lon="6.95513">
        <ele>2667.8</ele>
        <time>2023-02-16T14:01:13Z</time>
      </trkpt>
      <trkpt lat="44.85196" lon="6.95512">
        <ele>2667.7</ele>
        <time>2023-02-16T14:01:14Z</time>
      </trkpt>
      <trkpt lat="44.85187" lon="6.95509">
        <ele>2666.5</ele>
        <time>2023-02-16T14:01:19Z</time>
      </trkpt>
      <trkpt lat="44.8518" lon="6.95508">
        <ele>2665.6</ele>
        <time>2023-02-16T14:01:23Z</time>
      </trkpt>
      <trkpt lat="44.85169" lon="6.95507">
        <ele>2664.4</ele>
        <time>2023-02-16T14:01:27Z</time>
      </trkpt>
      <trkpt lat="44.85165" lon="6.95507">
        <ele>2663.9</ele>
        <time>2023-02-16T14:01:28Z</time>
      </trkpt>
      <trkpt lat="44.85154" lon="6.95508">
        <ele>2661.9</ele>
        <time>2023-02-16T14:01:31Z</time>
      </trkpt>
      <trkpt lat="44.85147" lon="6.9551">
        <ele>2661.2</ele>
        <time>2023-02-16T14:01:33Z</time>
      </trkpt>
      <trkpt lat="44.85142" lon="6.95511">
        <ele>2660.5</ele>
        <time>2023-02-16T14:01:35Z</time>
      </trkpt>
      <trkpt lat="44.85138" lon="6.95512">
        <ele>2659.9</ele>
        <time>2023-02-16T14:01:36Z</time>
      </trkpt>
      <trkpt lat="44.85133" lon="6.95515">
        <ele>2659.4</ele>
        <time>2023-02-16T14:01:38Z</time>
      </trkpt>
      <trkpt lat="44.8513" lon="6.95517">
        <ele>2659.1</ele>
        <time>2023-02-16T14:01:40Z</time>
      </trkpt>
      <trkpt lat="44.85129" lon="6.95518">
        <ele>2659.2</ele>
        <time>2023-02-16T14:01:41Z</time>
      </trkpt>
      <trkpt lat="44.85128" lon="6.95518">
        <ele>2658.9</ele>
        <time>2023-02-16T14:01:46Z</time>
      </trkpt>
      <trkpt lat="44.85128" lon="6.95518">
        <ele>2658.9</ele>
        <time>2023-02-16T14:01:50Z</time>
      </trkpt>
      <trkpt lat="44.85129" lon="6.95517">
        <ele>2658.8</ele>
        <time>2023-02-16T14:01:58Z</time>
      </trkpt>
      <trkpt lat="44.85129" lon="6.95517">
        <ele>2658.8</ele>
        <time>2023-02-16T14:02:16Z</time>
      </trkpt>
      <trkpt lat="44.85124" lon="6.95519">
        <ele>2657.8</ele>
        <time>2023-02-16T14:02:19Z</time>
      </trkpt>
      <trkpt lat="44.85121" lon="6.95521">
        <ele>2657.6</ele>
        <time>2023-02-16T14:02:20Z</time>
      </trkpt>
      <trkpt lat="44.85101" lon="6.95532">
        <ele>2655</ele>
        <time>2023-02-16T14:02:24Z</time>
      </trkpt>
      <trkpt lat="44.8509" lon="6.95536">
        <ele>2652.8</ele>
        <time>2023-02-16T14:02:26Z</time>
      </trkpt>
      <trkpt lat="44.85077" lon="6.95539">
        <ele>2650.7</ele>
        <time>2023-02-16T14:02:28Z</time>
      </trkpt>
      <trkpt lat="44.8507" lon="6.9554">
        <ele>2650</ele>
        <time>2023-02-16T14:02:29Z</time>
      </trkpt>
      <trkpt lat="44.85055" lon="6.9554">
        <ele>2647.9</ele>
        <time>2023-02-16T14:02:31Z</time>
      </trkpt>
      <trkpt lat="44.85043" lon="6.9554">
        <ele>2647.3</ele>
        <time>2023-02-16T14:02:33Z</time>
      </trkpt>
      <trkpt lat="44.85039" lon="6.9554">
        <ele>2647</ele>
        <time>2023-02-16T14:02:34Z</time>
      </trkpt>
      <trkpt lat="44.85036" lon="6.95541">
        <ele>2647.2</ele>
        <time>2023-02-16T14:02:35Z</time>
      </trkpt>
      <trkpt lat="44.85034" lon="6.95541">
        <ele>2647.1</ele>
        <time>2023-02-16T14:02:36Z</time>
      </trkpt>
      <trkpt lat="44.85032" lon="6.9554">
        <ele>2646.6</ele>
        <time>2023-02-16T14:02:37Z</time>
      </trkpt>
      <trkpt lat="44.85028" lon="6.95539">
        <ele>2646.1</ele>
        <time>2023-02-16T14:02:38Z</time>
      </trkpt>
      <trkpt lat="44.85025" lon="6.95539">
        <ele>2645.6</ele>
        <time>2023-02-16T14:02:39Z</time>
      </trkpt>
      <trkpt lat="44.85015" lon="6.95541">
        <ele>2644.9</ele>
        <time>2023-02-16T14:02:41Z</time>
      </trkpt>
      <trkpt lat="44.85009" lon="6.95542">
        <ele>2644.4</ele>
        <time>2023-02-16T14:02:42Z</time>
      </trkpt>
      <trkpt lat="44.84999" lon="6.95544">
        <ele>2643.6</ele>
        <time>2023-02-16T14:02:44Z</time>
      </trkpt>
      <trkpt lat="44.8499" lon="6.95545">
        <ele>2642</ele>
        <time>2023-02-16T14:02:46Z</time>
      </trkpt>
      <trkpt lat="44.84986" lon="6.95546">
        <ele>2641.4</ele>
        <time>2023-02-16T14:02:47Z</time>
      </trkpt>
      <trkpt lat="44.84979" lon="6.95549">
        <ele>2640.7</ele>
        <time>2023-02-16T14:02:49Z</time>
      </trkpt>
      <trkpt lat="44.84973" lon="6.95551">
        <ele>2639.9</ele>
        <time>2023-02-16T14:02:51Z</time>
      </trkpt>
      <trkpt lat="44.84959" lon="6.95555">
        <ele>2637.5</ele>
        <time>2023-02-16T14:02:56Z</time>
      </trkpt>
      <trkpt lat="44.84955" lon="6.95557">
        <ele>2637.1</ele>
        <time>2023-02-16T14:02:57Z</time>
      </trkpt>
      <trkpt lat="44.84947" lon="6.95562">
        <ele>2636.5</ele>
        <time>2023-02-16T14:02:59Z</time>
      </trkpt>
      <trkpt lat="44.84939" lon="6.95567">
        <ele>2635.7</ele>
        <time>2023-02-16T14:03:01Z</time>
      </trkpt>
      <trkpt lat="44.84936" lon="6.9557">
        <ele>2635.7</ele>
        <time>2023-02-16T14:03:02Z</time>
      </trkpt>
      <trkpt lat="44.84933" lon="6.95572">
        <ele>2635.4</ele>
        <time>2023-02-16T14:03:03Z</time>
      </trkpt>
      <trkpt lat="44.84929" lon="6.95575">
        <ele>2635.2</ele>
        <time>2023-02-16T14:03:06Z</time>
      </trkpt>
      <trkpt lat="44.84929" lon="6.95576">
        <ele>2635.4</ele>
        <time>2023-02-16T14:03:11Z</time>
      </trkpt>
      <trkpt lat="44.84929" lon="6.95576">
        <ele>2635.4</ele>
        <time>2023-02-16T14:03:13Z</time>
      </trkpt>
      <trkpt lat="44.84929" lon="6.95576">
        <ele>2635.4</ele>
        <time>2023-02-16T14:03:29Z</time>
      </trkpt>
      <trkpt lat="44.84928" lon="6.95575">
        <ele>2634.9</ele>
        <time>2023-02-16T14:03:39Z</time>
      </trkpt>
      <trkpt lat="44.84923" lon="6.95579">
        <ele>2634.6</ele>
        <time>2023-02-16T14:03:47Z</time>
      </trkpt>
      <trkpt lat="44.84913" lon="6.95588">
        <ele>2634</ele>
        <time>2023-02-16T14:03:50Z</time>
      </trkpt>
      <trkpt lat="44.84909" lon="6.95593">
        <ele>2633.9</ele>
        <time>2023-02-16T14:03:51Z</time>
      </trkpt>
      <trkpt lat="44.84899" lon="6.95605">
        <ele>2633.2</ele>
        <time>2023-02-16T14:03:53Z</time>
      </trkpt>
      <trkpt lat="44.84895" lon="6.9561">
        <ele>2633</ele>
        <time>2023-02-16T14:03:54Z</time>
      </trkpt>
      <trkpt lat="44.84895" lon="6.9561">
        <ele>2633</ele>
        <time>2023-02-16T14:03:55Z</time>
      </trkpt>
      <trkpt lat="44.84889" lon="6.95615">
        <ele>2632.2</ele>
        <time>2023-02-16T14:03:57Z</time>
      </trkpt>
      <trkpt lat="44.84878" lon="6.95624">
        <ele>2629</ele>
        <time>2023-02-16T14:04:04Z</time>
      </trkpt>
      <trkpt lat="44.84876" lon="6.95628">
        <ele>2629.1</ele>
        <time>2023-02-16T14:04:06Z</time>
      </trkpt>
      <trkpt lat="44.84876" lon="6.95629">
        <ele>2629.4</ele>
        <time>2023-02-16T14:04:08Z</time>
      </trkpt>
      <trkpt lat="44.84875" lon="6.9563">
        <ele>2629.1</ele>
        <time>2023-02-16T14:04:18Z</time>
      </trkpt>
      <trkpt lat="44.84875" lon="6.9563">
        <ele>2629.1</ele>
        <time>2023-02-16T14:04:27Z</time>
      </trkpt>
      <trkpt lat="44.84874" lon="6.95627">
        <ele>2627.8</ele>
        <time>2023-02-16T14:04:33Z</time>
      </trkpt>
      <trkpt lat="44.84875" lon="6.95622">
        <ele>2626.9</ele>
        <time>2023-02-16T14:04:34Z</time>
      </trkpt>
      <trkpt lat="44.84875" lon="6.95616">
        <ele>2625.3</ele>
        <time>2023-02-16T14:04:35Z</time>
      </trkpt>
      <trkpt lat="44.84876" lon="6.95611">
        <ele>2624.5</ele>
        <time>2023-02-16T14:04:36Z</time>
      </trkpt>
      <trkpt lat="44.84877" lon="6.95605">
        <ele>2623.8</ele>
        <time>2023-02-16T14:04:37Z</time>
      </trkpt>
      <trkpt lat="44.84878" lon="6.95598">
        <ele>2622.9</ele>
        <time>2023-02-16T14:04:38Z</time>
      </trkpt>
      <trkpt lat="44.84877" lon="6.9559">
        <ele>2620.8</ele>
        <time>2023-02-16T14:04:39Z</time>
      </trkpt>
      <trkpt lat="44.84877" lon="6.95584">
        <ele>2619.6</ele>
        <time>2023-02-16T14:04:40Z</time>
      </trkpt>
      <trkpt lat="44.84876" lon="6.95578">
        <ele>2617.9</ele>
        <time>2023-02-16T14:04:41Z</time>
      </trkpt>
      <trkpt lat="44.84873" lon="6.95568">
        <ele>2614.6</ele>
        <time>2023-02-16T14:04:43Z</time>
      </trkpt>
      <trkpt lat="44.8487" lon="6.95566">
        <ele>2612.8</ele>
        <time>2023-02-16T14:04:44Z</time>
      </trkpt>
      <trkpt lat="44.84863" lon="6.9556">
        <ele>2608.6</ele>
        <time>2023-02-16T14:04:46Z</time>
      </trkpt>
      <trkpt lat="44.84859" lon="6.95558">
        <ele>2606.1</ele>
        <time>2023-02-16T14:04:47Z</time>
      </trkpt>
      <trkpt lat="44.84852" lon="6.95554">
        <ele>2600.8</ele>
        <time>2023-02-16T14:04:49Z</time>
      </trkpt>
      <trkpt lat="44.84849" lon="6.95554">
        <ele>2598.8</ele>
        <time>2023-02-16T14:04:50Z</time>
      </trkpt>
      <trkpt lat="44.84846" lon="6.95551">
        <ele>2596.3</ele>
        <time>2023-02-16T14:04:51Z</time>
      </trkpt>
      <trkpt lat="44.84842" lon="6.95549">
        <ele>2593.4</ele>
        <time>2023-02-16T14:04:52Z</time>
      </trkpt>
      <trkpt lat="44.84838" lon="6.95549">
        <ele>2590.8</ele>
        <time>2023-02-16T14:04:53Z</time>
      </trkpt>
      <trkpt lat="44.84826" lon="6.95545">
        <ele>2581.9</ele>
        <time>2023-02-16T14:04:56Z</time>
      </trkpt>
      <trkpt lat="44.84822" lon="6.95542">
        <ele>2578.6</ele>
        <time>2023-02-16T14:04:57Z</time>
      </trkpt>
      <trkpt lat="44.8482" lon="6.95538">
        <ele>2576.5</ele>
        <time>2023-02-16T14:04:58Z</time>
      </trkpt>
      <trkpt lat="44.84817" lon="6.95535">
        <ele>2574</ele>
        <time>2023-02-16T14:04:59Z</time>
      </trkpt>
      <trkpt lat="44.84813" lon="6.95532">
        <ele>2570.7</ele>
        <time>2023-02-16T14:05:00Z</time>
      </trkpt>
      <trkpt lat="44.8481" lon="6.95527">
        <ele>2567.9</ele>
        <time>2023-02-16T14:05:01Z</time>
      </trkpt>
      <trkpt lat="44.8481" lon="6.95527">
        <ele>2567.9</ele>
        <time>2023-02-16T14:05:02Z</time>
      </trkpt>
      <trkpt lat="44.84805" lon="6.95512">
        <ele>2562.3</ele>
        <time>2023-02-16T14:05:04Z</time>
      </trkpt>
      <trkpt lat="44.84802" lon="6.95511">
        <ele>2560</ele>
        <time>2023-02-16T14:05:05Z</time>
      </trkpt>
      <trkpt lat="44.84798" lon="6.95507">
        <ele>2556.6</ele>
        <time>2023-02-16T14:05:06Z</time>
      </trkpt>
      <trkpt lat="44.84794" lon="6.95504">
        <ele>2553.3</ele>
        <time>2023-02-16T14:05:07Z</time>
      </trkpt>
      <trkpt lat="44.84788" lon="6.95505">
        <ele>2549.1</ele>
        <time>2023-02-16T14:05:08Z</time>
      </trkpt>
      <trkpt lat="44.84783" lon="6.95507">
        <ele>2545.8</ele>
        <time>2023-02-16T14:05:09Z</time>
      </trkpt>
      <trkpt lat="44.84779" lon="6.95504">
        <ele>2542.5</ele>
        <time>2023-02-16T14:05:10Z</time>
      </trkpt>
      <trkpt lat="44.84776" lon="6.95497">
        <ele>2539.6</ele>
        <time>2023-02-16T14:05:11Z</time>
      </trkpt>
      <trkpt lat="44.84774" lon="6.95491">
        <ele>2537.8</ele>
        <time>2023-02-16T14:05:12Z</time>
      </trkpt>
      <trkpt lat="44.84769" lon="6.95489">
        <ele>2534.6</ele>
        <time>2023-02-16T14:05:13Z</time>
      </trkpt>
      <trkpt lat="44.84765" lon="6.95489">
        <ele>2532.3</ele>
        <time>2023-02-16T14:05:14Z</time>
      </trkpt>
      <trkpt lat="44.8476" lon="6.95485">
        <ele>2528.8</ele>
        <time>2023-02-16T14:05:15Z</time>
      </trkpt>
      <trkpt lat="44.84757" lon="6.95479">
        <ele>2526.2</ele>
        <time>2023-02-16T14:05:16Z</time>
      </trkpt>
      <trkpt lat="44.84753" lon="6.95473">
        <ele>2522.9</ele>
        <time>2023-02-16T14:05:17Z</time>
      </trkpt>
      <trkpt lat="44.84747" lon="6.95472">
        <ele>2519.6</ele>
        <time>2023-02-16T14:05:18Z</time>
      </trkpt>
      <trkpt lat="44.84742" lon="6.95477">
        <ele>2517.9</ele>
        <time>2023-02-16T14:05:19Z</time>
      </trkpt>
      <trkpt lat="44.84736" lon="6.95485">
        <ele>2516.1</ele>
        <time>2023-02-16T14:05:20Z</time>
      </trkpt>
      <trkpt lat="44.84732" lon="6.95494">
        <ele>2515.2</ele>
        <time>2023-02-16T14:05:21Z</time>
      </trkpt>
      <trkpt lat="44.84729" lon="6.95502">
        <ele>2514.7</ele>
        <time>2023-02-16T14:05:22Z</time>
      </trkpt>
      <trkpt lat="44.84726" lon="6.95509">
        <ele>2514.2</ele>
        <time>2023-02-16T14:05:23Z</time>
      </trkpt>
      <trkpt lat="44.84723" lon="6.95517">
        <ele>2513.8</ele>
        <time>2023-02-16T14:05:25Z</time>
      </trkpt>
      <trkpt lat="44.84719" lon="6.95524">
        <ele>2513.3</ele>
        <time>2023-02-16T14:05:27Z</time>
      </trkpt>
      <trkpt lat="44.84716" lon="6.9553">
        <ele>2513.1</ele>
        <time>2023-02-16T14:05:29Z</time>
      </trkpt>
      <trkpt lat="44.84715" lon="6.95535">
        <ele>2513.6</ele>
        <time>2023-02-16T14:05:32Z</time>
      </trkpt>
      <trkpt lat="44.84714" lon="6.95533">
        <ele>2512.9</ele>
        <time>2023-02-16T14:05:35Z</time>
      </trkpt>
      <trkpt lat="44.84716" lon="6.95533">
        <ele>2513.6</ele>
        <time>2023-02-16T14:05:46Z</time>
      </trkpt>
      <trkpt lat="44.84715" lon="6.95534">
        <ele>2513.4</ele>
        <time>2023-02-16T14:06:02Z</time>
      </trkpt>
      <trkpt lat="44.84714" lon="6.9553">
        <ele>2512.4</ele>
        <time>2023-02-16T14:06:15Z</time>
      </trkpt>
      <trkpt lat="44.84712" lon="6.95527">
        <ele>2511.2</ele>
        <time>2023-02-16T14:06:16Z</time>
      </trkpt>
      <trkpt lat="44.84707" lon="6.95529">
        <ele>2509.7</ele>
        <time>2023-02-16T14:06:18Z</time>
      </trkpt>
      <trkpt lat="44.84702" lon="6.95534">
        <ele>2508.5</ele>
        <time>2023-02-16T14:06:19Z</time>
      </trkpt>
      <trkpt lat="44.84692" lon="6.95547">
        <ele>2506.1</ele>
        <time>2023-02-16T14:06:21Z</time>
      </trkpt>
      <trkpt lat="44.84686" lon="6.95551">
        <ele>2504.1</ele>
        <time>2023-02-16T14:06:22Z</time>
      </trkpt>
      <trkpt lat="44.8468" lon="6.95553">
        <ele>2501.9</ele>
        <time>2023-02-16T14:06:23Z</time>
      </trkpt>
      <trkpt lat="44.84673" lon="6.95555">
        <ele>2499.4</ele>
        <time>2023-02-16T14:06:24Z</time>
      </trkpt>
      <trkpt lat="44.84667" lon="6.95553">
        <ele>2496.7</ele>
        <time>2023-02-16T14:06:25Z</time>
      </trkpt>
      <trkpt lat="44.84661" lon="6.95552">
        <ele>2494</ele>
        <time>2023-02-16T14:06:26Z</time>
      </trkpt>
      <trkpt lat="44.84655" lon="6.95551">
        <ele>2491.3</ele>
        <time>2023-02-16T14:06:27Z</time>
      </trkpt>
      <trkpt lat="44.84648" lon="6.9555">
        <ele>2488.3</ele>
        <time>2023-02-16T14:06:28Z</time>
      </trkpt>
      <trkpt lat="44.84642" lon="6.9555">
        <ele>2485.9</ele>
        <time>2023-02-16T14:06:29Z</time>
      </trkpt>
      <trkpt lat="44.84635" lon="6.9555">
        <ele>2482.7</ele>
        <time>2023-02-16T14:06:30Z</time>
      </trkpt>
      <trkpt lat="44.84629" lon="6.95549">
        <ele>2479.6</ele>
        <time>2023-02-16T14:06:31Z</time>
      </trkpt>
      <trkpt lat="44.84624" lon="6.95546">
        <ele>2477</ele>
        <time>2023-02-16T14:06:32Z</time>
      </trkpt>
      <trkpt lat="44.84618" lon="6.95546">
        <ele>2474</ele>
        <time>2023-02-16T14:06:33Z</time>
      </trkpt>
      <trkpt lat="44.84612" lon="6.95544">
        <ele>2471</ele>
        <time>2023-02-16T14:06:34Z</time>
      </trkpt>
      <trkpt lat="44.84607" lon="6.95541">
        <ele>2468.4</ele>
        <time>2023-02-16T14:06:35Z</time>
      </trkpt>
      <trkpt lat="44.84603" lon="6.95541">
        <ele>2466.4</ele>
        <time>2023-02-16T14:06:36Z</time>
      </trkpt>
      <trkpt lat="44.84597" lon="6.95543">
        <ele>2463.4</ele>
        <time>2023-02-16T14:06:37Z</time>
      </trkpt>
      <trkpt lat="44.84591" lon="6.95543">
        <ele>2460.4</ele>
        <time>2023-02-16T14:06:38Z</time>
      </trkpt>
      <trkpt lat="44.84585" lon="6.9554">
        <ele>2457.3</ele>
        <time>2023-02-16T14:06:39Z</time>
      </trkpt>
      <trkpt lat="44.8458" lon="6.95537">
        <ele>2454.7</ele>
        <time>2023-02-16T14:06:40Z</time>
      </trkpt>
      <trkpt lat="44.84574" lon="6.95537">
        <ele>2451.7</ele>
        <time>2023-02-16T14:06:41Z</time>
      </trkpt>
      <trkpt lat="44.84568" lon="6.95535">
        <ele>2448.7</ele>
        <time>2023-02-16T14:06:42Z</time>
      </trkpt>
      <trkpt lat="44.84563" lon="6.95533">
        <ele>2446.1</ele>
        <time>2023-02-16T14:06:43Z</time>
      </trkpt>
      <trkpt lat="44.84557" lon="6.95535">
        <ele>2443.2</ele>
        <time>2023-02-16T14:06:44Z</time>
      </trkpt>
      <trkpt lat="44.84553" lon="6.95542">
        <ele>2441.9</ele>
        <time>2023-02-16T14:06:45Z</time>
      </trkpt>
      <trkpt lat="44.84548" lon="6.95547">
        <ele>2440.1</ele>
        <time>2023-02-16T14:06:46Z</time>
      </trkpt>
      <trkpt lat="44.84544" lon="6.95545">
        <ele>2438.2</ele>
        <time>2023-02-16T14:06:47Z</time>
      </trkpt>
      <trkpt lat="44.8454" lon="6.95539">
        <ele>2436.1</ele>
        <time>2023-02-16T14:06:48Z</time>
      </trkpt>
      <trkpt lat="44.84539" lon="6.9553">
        <ele>2435</ele>
        <time>2023-02-16T14:06:49Z</time>
      </trkpt>
      <trkpt lat="44.84538" lon="6.95519">
        <ele>2433.7</ele>
        <time>2023-02-16T14:06:50Z</time>
      </trkpt>
      <trkpt lat="44.84538" lon="6.9551">
        <ele>2433</ele>
        <time>2023-02-16T14:06:51Z</time>
      </trkpt>
      <trkpt lat="44.84536" lon="6.95504">
        <ele>2431.5</ele>
        <time>2023-02-16T14:06:52Z</time>
      </trkpt>
      <trkpt lat="44.84528" lon="6.95495">
        <ele>2426.8</ele>
        <time>2023-02-16T14:06:54Z</time>
      </trkpt>
      <trkpt lat="44.84525" lon="6.95489">
        <ele>2424.9</ele>
        <time>2023-02-16T14:06:55Z</time>
      </trkpt>
      <trkpt lat="44.84521" lon="6.95485">
        <ele>2422.7</ele>
        <time>2023-02-16T14:06:56Z</time>
      </trkpt>
      <trkpt lat="44.84517" lon="6.9548">
        <ele>2420.5</ele>
        <time>2023-02-16T14:06:57Z</time>
      </trkpt>
      <trkpt lat="44.84513" lon="6.95475">
        <ele>2418.3</ele>
        <time>2023-02-16T14:06:58Z</time>
      </trkpt>
      <trkpt lat="44.84508" lon="6.95473">
        <ele>2415.8</ele>
        <time>2023-02-16T14:06:59Z</time>
      </trkpt>
      <trkpt lat="44.84503" lon="6.95469">
        <ele>2413.2</ele>
        <time>2023-02-16T14:07:00Z</time>
      </trkpt>
      <trkpt lat="44.84498" lon="6.95464">
        <ele>2410.5</ele>
        <time>2023-02-16T14:07:01Z</time>
      </trkpt>
      <trkpt lat="44.84495" lon="6.95459">
        <ele>2408.8</ele>
        <time>2023-02-16T14:07:02Z</time>
      </trkpt>
      <trkpt lat="44.84489" lon="6.95459">
        <ele>2406.1</ele>
        <time>2023-02-16T14:07:03Z</time>
      </trkpt>
      <trkpt lat="44.84484" lon="6.95458">
        <ele>2403.8</ele>
        <time>2023-02-16T14:07:04Z</time>
      </trkpt>
      <trkpt lat="44.84479" lon="6.95453">
        <ele>2401</ele>
        <time>2023-02-16T14:07:05Z</time>
      </trkpt>
      <trkpt lat="44.84475" lon="6.95446">
        <ele>2398.5</ele>
        <time>2023-02-16T14:07:06Z</time>
      </trkpt>
      <trkpt lat="44.84471" lon="6.95443">
        <ele>2396.2</ele>
        <time>2023-02-16T14:07:07Z</time>
      </trkpt>
      <trkpt lat="44.84467" lon="6.95444">
        <ele>2394.5</ele>
        <time>2023-02-16T14:07:08Z</time>
      </trkpt>
      <trkpt lat="44.84465" lon="6.95449">
        <ele>2394.1</ele>
        <time>2023-02-16T14:07:09Z</time>
      </trkpt>
      <trkpt lat="44.84462" lon="6.95453">
        <ele>2393.1</ele>
        <time>2023-02-16T14:07:10Z</time>
      </trkpt>
      <trkpt lat="44.8446" lon="6.95458">
        <ele>2392.7</ele>
        <time>2023-02-16T14:07:11Z</time>
      </trkpt>
      <trkpt lat="44.84458" lon="6.95462">
        <ele>2392.2</ele>
        <time>2023-02-16T14:07:12Z</time>
      </trkpt>
      <trkpt lat="44.84457" lon="6.95466">
        <ele>2392.2</ele>
        <time>2023-02-16T14:07:13Z</time>
      </trkpt>
      <trkpt lat="44.84456" lon="6.95471">
        <ele>2392.3</ele>
        <time>2023-02-16T14:07:14Z</time>
      </trkpt>
      <trkpt lat="44.84455" lon="6.95476">
        <ele>2392.3</ele>
        <time>2023-02-16T14:07:16Z</time>
      </trkpt>
      <trkpt lat="44.84453" lon="6.95477">
        <ele>2391.5</ele>
        <time>2023-02-16T14:07:18Z</time>
      </trkpt>
      <trkpt lat="44.84454" lon="6.95477">
        <ele>2391.9</ele>
        <time>2023-02-16T14:07:19Z</time>
      </trkpt>
      <trkpt lat="44.84455" lon="6.95478">
        <ele>2392.5</ele>
        <time>2023-02-16T14:07:20Z</time>
      </trkpt>
      <trkpt lat="44.84455" lon="6.9548">
        <ele>2392.7</ele>
        <time>2023-02-16T14:07:23Z</time>
      </trkpt>
      <trkpt lat="44.84455" lon="6.95481">
        <ele>2392.8</ele>
        <time>2023-02-16T14:07:24Z</time>
      </trkpt>
      <trkpt lat="44.84455" lon="6.95486">
        <ele>2393.2</ele>
        <time>2023-02-16T14:07:37Z</time>
      </trkpt>
      <trkpt lat="44.84454" lon="6.95487">
        <ele>2392.9</ele>
        <time>2023-02-16T14:07:50Z</time>
      </trkpt>
      <trkpt lat="44.84448" lon="6.95486">
        <ele>2390.1</ele>
        <time>2023-02-16T14:07:59Z</time>
      </trkpt>
      <trkpt lat="44.84439" lon="6.95488">
        <ele>2386.4</ele>
        <time>2023-02-16T14:08:01Z</time>
      </trkpt>
      <trkpt lat="44.84434" lon="6.95487">
        <ele>2384.1</ele>
        <time>2023-02-16T14:08:02Z</time>
      </trkpt>
      <trkpt lat="44.84428" lon="6.95487">
        <ele>2381.5</ele>
        <time>2023-02-16T14:08:03Z</time>
      </trkpt>
      <trkpt lat="44.84423" lon="6.95487">
        <ele>2379.3</ele>
        <time>2023-02-16T14:08:04Z</time>
      </trkpt>
      <trkpt lat="44.84418" lon="6.95484">
        <ele>2376.8</ele>
        <time>2023-02-16T14:08:05Z</time>
      </trkpt>
      <trkpt lat="44.84408" lon="6.95478">
        <ele>2371.3</ele>
        <time>2023-02-16T14:08:07Z</time>
      </trkpt>
      <trkpt lat="44.84405" lon="6.9548">
        <ele>2370</ele>
        <time>2023-02-16T14:08:08Z</time>
      </trkpt>
      <trkpt lat="44.84403" lon="6.95484">
        <ele>2369.4</ele>
        <time>2023-02-16T14:08:09Z</time>
      </trkpt>
      <trkpt lat="44.84401" lon="6.95487">
        <ele>2368.7</ele>
        <time>2023-02-16T14:08:10Z</time>
      </trkpt>
      <trkpt lat="44.84399" lon="6.95491">
        <ele>2368.1</ele>
        <time>2023-02-16T14:08:11Z</time>
      </trkpt>
      <trkpt lat="44.84398" lon="6.95494">
        <ele>2367.9</ele>
        <time>2023-02-16T14:08:12Z</time>
      </trkpt>
      <trkpt lat="44.84397" lon="6.95496">
        <ele>2367.7</ele>
        <time>2023-02-16T14:08:13Z</time>
      </trkpt>
      <trkpt lat="44.84393" lon="6.95501">
        <ele>2366.1</ele>
        <time>2023-02-16T14:08:15Z</time>
      </trkpt>
      <trkpt lat="44.84391" lon="6.95507">
        <ele>2365.6</ele>
        <time>2023-02-16T14:08:17Z</time>
      </trkpt>
      <trkpt lat="44.84388" lon="6.95517">
        <ele>2364.8</ele>
        <time>2023-02-16T14:08:19Z</time>
      </trkpt>
      <trkpt lat="44.84384" lon="6.9553">
        <ele>2363.9</ele>
        <time>2023-02-16T14:08:21Z</time>
      </trkpt>
      <trkpt lat="44.84382" lon="6.95537">
        <ele>2363.7</ele>
        <time>2023-02-16T14:08:22Z</time>
      </trkpt>
      <trkpt lat="44.8438" lon="6.95543">
        <ele>2363.3</ele>
        <time>2023-02-16T14:08:23Z</time>
      </trkpt>
      <trkpt lat="44.84377" lon="6.9555">
        <ele>2362.5</ele>
        <time>2023-02-16T14:08:24Z</time>
      </trkpt>
      <trkpt lat="44.84373" lon="6.95553">
        <ele>2360.8</ele>
        <time>2023-02-16T14:08:25Z</time>
      </trkpt>
      <trkpt lat="44.8437" lon="6.95551">
        <ele>2359.1</ele>
        <time>2023-02-16T14:08:26Z</time>
      </trkpt>
      <trkpt lat="44.84367" lon="6.95544">
        <ele>2357</ele>
        <time>2023-02-16T14:08:27Z</time>
      </trkpt>
      <trkpt lat="44.84363" lon="6.95539">
        <ele>2354.7</ele>
        <time>2023-02-16T14:08:28Z</time>
      </trkpt>
      <trkpt lat="44.8436" lon="6.95533">
        <ele>2352.9</ele>
        <time>2023-02-16T14:08:29Z</time>
      </trkpt>
      <trkpt lat="44.84356" lon="6.95528">
        <ele>2350.8</ele>
        <time>2023-02-16T14:08:30Z</time>
      </trkpt>
      <trkpt lat="44.84351" lon="6.95525">
        <ele>2348.3</ele>
        <time>2023-02-16T14:08:31Z</time>
      </trkpt>
      <trkpt lat="44.84345" lon="6.95524">
        <ele>2345.6</ele>
        <time>2023-02-16T14:08:32Z</time>
      </trkpt>
      <trkpt lat="44.8434" lon="6.95521">
        <ele>2343.1</ele>
        <time>2023-02-16T14:08:33Z</time>
      </trkpt>
      <trkpt lat="44.84335" lon="6.95517">
        <ele>2340.6</ele>
        <time>2023-02-16T14:08:34Z</time>
      </trkpt>
      <trkpt lat="44.8433" lon="6.95516">
        <ele>2338.3</ele>
        <time>2023-02-16T14:08:35Z</time>
      </trkpt>
      <trkpt lat="44.84325" lon="6.95517">
        <ele>2336.2</ele>
        <time>2023-02-16T14:08:36Z</time>
      </trkpt>
      <trkpt lat="44.84322" lon="6.95514">
        <ele>2334.4</ele>
        <time>2023-02-16T14:08:37Z</time>
      </trkpt>
      <trkpt lat="44.84321" lon="6.95509">
        <ele>2333.2</ele>
        <time>2023-02-16T14:08:38Z</time>
      </trkpt>
      <trkpt lat="44.84321" lon="6.95503">
        <ele>2332.3</ele>
        <time>2023-02-16T14:08:39Z</time>
      </trkpt>
      <trkpt lat="44.84321" lon="6.95495">
        <ele>2331</ele>
        <time>2023-02-16T14:08:40Z</time>
      </trkpt>
      <trkpt lat="44.84321" lon="6.95487">
        <ele>2329.7</ele>
        <time>2023-02-16T14:08:41Z</time>
      </trkpt>
      <trkpt lat="44.84321" lon="6.95482">
        <ele>2328.8</ele>
        <time>2023-02-16T14:08:42Z</time>
      </trkpt>
      <trkpt lat="44.84319" lon="6.95481">
        <ele>2327.7</ele>
        <time>2023-02-16T14:08:43Z</time>
      </trkpt>
      <trkpt lat="44.84315" lon="6.95487">
        <ele>2326.7</ele>
        <time>2023-02-16T14:08:45Z</time>
      </trkpt>
      <trkpt lat="44.84313" lon="6.95491">
        <ele>2326.4</ele>
        <time>2023-02-16T14:08:46Z</time>
      </trkpt>
      <trkpt lat="44.84309" lon="6.95498">
        <ele>2325.4</ele>
        <time>2023-02-16T14:08:48Z</time>
      </trkpt>
      <trkpt lat="44.84306" lon="6.95502">
        <ele>2324.7</ele>
        <time>2023-02-16T14:08:50Z</time>
      </trkpt>
      <trkpt lat="44.84305" lon="6.95503">
        <ele>2324.5</ele>
        <time>2023-02-16T14:08:51Z</time>
      </trkpt>
      <trkpt lat="44.84304" lon="6.95504">
        <ele>2324.3</ele>
        <time>2023-02-16T14:08:52Z</time>
      </trkpt>
      <trkpt lat="44.84302" lon="6.95506">
        <ele>2324.1</ele>
        <time>2023-02-16T14:08:54Z</time>
      </trkpt>
      <trkpt lat="44.84302" lon="6.95506">
        <ele>2324.1</ele>
        <time>2023-02-16T14:08:55Z</time>
      </trkpt>
      <trkpt lat="44.84301" lon="6.95508">
        <ele>2324.3</ele>
        <time>2023-02-16T14:08:57Z</time>
      </trkpt>
      <trkpt lat="44.843" lon="6.95509">
        <ele>2324.2</ele>
        <time>2023-02-16T14:08:58Z</time>
      </trkpt>
      <trkpt lat="44.84298" lon="6.95511">
        <ele>2324.1</ele>
        <time>2023-02-16T14:09:00Z</time>
      </trkpt>
      <trkpt lat="44.84291" lon="6.9551">
        <ele>2321.7</ele>
        <time>2023-02-16T14:09:04Z</time>
      </trkpt>
      <trkpt lat="44.8429" lon="6.9551">
        <ele>2321.4</ele>
        <time>2023-02-16T14:09:05Z</time>
      </trkpt>
      <trkpt lat="44.84288" lon="6.95512">
        <ele>2321.4</ele>
        <time>2023-02-16T14:09:06Z</time>
      </trkpt>
      <trkpt lat="44.84285" lon="6.95516">
        <ele>2321.8</ele>
        <time>2023-02-16T14:09:08Z</time>
      </trkpt>
      <trkpt lat="44.84282" lon="6.95517">
        <ele>2321.3</ele>
        <time>2023-02-16T14:09:09Z</time>
      </trkpt>
      <trkpt lat="44.8428" lon="6.95518">
        <ele>2321.1</ele>
        <time>2023-02-16T14:09:10Z</time>
      </trkpt>
      <trkpt lat="44.84278" lon="6.95517">
        <ele>2320.2</ele>
        <time>2023-02-16T14:09:11Z</time>
      </trkpt>
      <trkpt lat="44.84277" lon="6.95515">
        <ele>2319.4</ele>
        <time>2023-02-16T14:09:12Z</time>
      </trkpt>
      <trkpt lat="44.84266" lon="6.9551">
        <ele>2316.9</ele>
        <time>2023-02-16T14:09:17Z</time>
      </trkpt>
      <trkpt lat="44.84264" lon="6.95509">
        <ele>2316.4</ele>
        <time>2023-02-16T14:09:18Z</time>
      </trkpt>
      <trkpt lat="44.84255" lon="6.95507">
        <ele>2315.1</ele>
        <time>2023-02-16T14:09:21Z</time>
      </trkpt>
      <trkpt lat="44.84251" lon="6.95508">
        <ele>2315.2</ele>
        <time>2023-02-16T14:09:22Z</time>
      </trkpt>
      <trkpt lat="44.84245" lon="6.95509">
        <ele>2314.5</ele>
        <time>2023-02-16T14:09:24Z</time>
      </trkpt>
      <trkpt lat="44.84232" lon="6.95511">
        <ele>2312.5</ele>
        <time>2023-02-16T14:09:27Z</time>
      </trkpt>
      <trkpt lat="44.84229" lon="6.95512">
        <ele>2312.2</ele>
        <time>2023-02-16T14:09:28Z</time>
      </trkpt>
      <trkpt lat="44.84221" lon="6.95514">
        <ele>2311.2</ele>
        <time>2023-02-16T14:09:30Z</time>
      </trkpt>
      <trkpt lat="44.84217" lon="6.95517">
        <ele>2311.3</ele>
        <time>2023-02-16T14:09:32Z</time>
      </trkpt>
      <trkpt lat="44.84215" lon="6.95518">
        <ele>2311.1</ele>
        <time>2023-02-16T14:09:37Z</time>
      </trkpt>
      <trkpt lat="44.84215" lon="6.95518">
        <ele>2311.1</ele>
        <time>2023-02-16T14:09:52Z</time>
      </trkpt>
      <trkpt lat="44.84216" lon="6.95518">
        <ele>2311.4</ele>
        <time>2023-02-16T14:10:07Z</time>
      </trkpt>
      <trkpt lat="44.84216" lon="6.95518">
        <ele>2311.4</ele>
        <time>2023-02-16T14:10:10Z</time>
      </trkpt>
      <trkpt lat="44.84216" lon="6.95518">
        <ele>2311.4</ele>
        <time>2023-02-16T14:10:28Z</time>
      </trkpt>
      <trkpt lat="44.8421" lon="6.95517">
        <ele>2309.4</ele>
        <time>2023-02-16T14:10:34Z</time>
      </trkpt>
      <trkpt lat="44.84208" lon="6.95517">
        <ele>2308.8</ele>
        <time>2023-02-16T14:10:35Z</time>
      </trkpt>
      <trkpt lat="44.84204" lon="6.95517">
        <ele>2307.7</ele>
        <time>2023-02-16T14:10:36Z</time>
      </trkpt>
      <trkpt lat="44.84198" lon="6.95518">
        <ele>2306.5</ele>
        <time>2023-02-16T14:10:38Z</time>
      </trkpt>
      <trkpt lat="44.84193" lon="6.95519">
        <ele>2305.4</ele>
        <time>2023-02-16T14:10:39Z</time>
      </trkpt>
      <trkpt lat="44.84186" lon="6.95513">
        <ele>2301.2</ele>
        <time>2023-02-16T14:10:41Z</time>
      </trkpt>
      <trkpt lat="44.84183" lon="6.95509">
        <ele>2298.9</ele>
        <time>2023-02-16T14:10:42Z</time>
      </trkpt>
      <trkpt lat="44.84178" lon="6.95506">
        <ele>2296.4</ele>
        <time>2023-02-16T14:10:43Z</time>
      </trkpt>
      <trkpt lat="44.84172" lon="6.95505">
        <ele>2294.3</ele>
        <time>2023-02-16T14:10:44Z</time>
      </trkpt>
      <trkpt lat="44.84168" lon="6.95502">
        <ele>2292.1</ele>
        <time>2023-02-16T14:10:45Z</time>
      </trkpt>
      <trkpt lat="44.84165" lon="6.95497">
        <ele>2289.8</ele>
        <time>2023-02-16T14:10:46Z</time>
      </trkpt>
      <trkpt lat="44.84161" lon="6.95494">
        <ele>2288.3</ele>
        <time>2023-02-16T14:10:47Z</time>
      </trkpt>
      <trkpt lat="44.84157" lon="6.9549">
        <ele>2286.4</ele>
        <time>2023-02-16T14:10:48Z</time>
      </trkpt>
      <trkpt lat="44.84148" lon="6.95482">
        <ele>2282.5</ele>
        <time>2023-02-16T14:10:50Z</time>
      </trkpt>
      <trkpt lat="44.84141" lon="6.95481">
        <ele>2280.9</ele>
        <time>2023-02-16T14:10:51Z</time>
      </trkpt>
      <trkpt lat="44.84136" lon="6.95482">
        <ele>2279.8</ele>
        <time>2023-02-16T14:10:52Z</time>
      </trkpt>
      <trkpt lat="44.84131" lon="6.95483">
        <ele>2278.3</ele>
        <time>2023-02-16T14:10:53Z</time>
      </trkpt>
      <trkpt lat="44.84127" lon="6.9548">
        <ele>2276.1</ele>
        <time>2023-02-16T14:10:54Z</time>
      </trkpt>
      <trkpt lat="44.84124" lon="6.95478">
        <ele>2274.6</ele>
        <time>2023-02-16T14:10:55Z</time>
      </trkpt>
      <trkpt lat="44.84122" lon="6.95478">
        <ele>2273.9</ele>
        <time>2023-02-16T14:10:56Z</time>
      </trkpt>
      <trkpt lat="44.8412" lon="6.95479">
        <ele>2273.5</ele>
        <time>2023-02-16T14:10:57Z</time>
      </trkpt>
      <trkpt lat="44.84119" lon="6.95479">
        <ele>2273.2</ele>
        <time>2023-02-16T14:10:58Z</time>
      </trkpt>
      <trkpt lat="44.84119" lon="6.9548">
        <ele>2273.4</ele>
        <time>2023-02-16T14:11:01Z</time>
      </trkpt>
      <trkpt lat="44.8412" lon="6.9548">
        <ele>2273.7</ele>
        <time>2023-02-16T14:11:02Z</time>
      </trkpt>
      <trkpt lat="44.84124" lon="6.95473">
        <ele>2273.4</ele>
        <time>2023-02-16T14:11:10Z</time>
      </trkpt>
      <trkpt lat="44.84127" lon="6.95469">
        <ele>2273.2</ele>
        <time>2023-02-16T14:11:11Z</time>
      </trkpt>
      <trkpt lat="44.8413" lon="6.9546">
        <ele>2271.6</ele>
        <time>2023-02-16T14:11:13Z</time>
      </trkpt>
      <trkpt lat="44.84127" lon="6.95457">
        <ele>2269.8</ele>
        <time>2023-02-16T14:11:14Z</time>
      </trkpt>
      <trkpt lat="44.84124" lon="6.95453">
        <ele>2267.6</ele>
        <time>2023-02-16T14:11:15Z</time>
      </trkpt>
      <trkpt lat="44.84122" lon="6.95449">
        <ele>2265.8</ele>
        <time>2023-02-16T14:11:16Z</time>
      </trkpt>
      <trkpt lat="44.84119" lon="6.95445">
        <ele>2263.7</ele>
        <time>2023-02-16T14:11:17Z</time>
      </trkpt>
      <trkpt lat="44.84115" lon="6.95444">
        <ele>2262.1</ele>
        <time>2023-02-16T14:11:18Z</time>
      </trkpt>
      <trkpt lat="44.84111" lon="6.95446">
        <ele>2261.4</ele>
        <time>2023-02-16T14:11:19Z</time>
      </trkpt>
      <trkpt lat="44.84106" lon="6.95448">
        <ele>2259.9</ele>
        <time>2023-02-16T14:11:20Z</time>
      </trkpt>
      <trkpt lat="44.84102" lon="6.95448">
        <ele>2258.3</ele>
        <time>2023-02-16T14:11:21Z</time>
      </trkpt>
      <trkpt lat="44.841" lon="6.95443">
        <ele>2256.1</ele>
        <time>2023-02-16T14:11:22Z</time>
      </trkpt>
      <trkpt lat="44.84099" lon="6.95438">
        <ele>2254.1</ele>
        <time>2023-02-16T14:11:23Z</time>
      </trkpt>
      <trkpt lat="44.84098" lon="6.95433">
        <ele>2252.1</ele>
        <time>2023-02-16T14:11:24Z</time>
      </trkpt>
      <trkpt lat="44.84094" lon="6.9543">
        <ele>2249.7</ele>
        <time>2023-02-16T14:11:25Z</time>
      </trkpt>
      <trkpt lat="44.84091" lon="6.95426">
        <ele>2247.4</ele>
        <time>2023-02-16T14:11:26Z</time>
      </trkpt>
      <trkpt lat="44.84088" lon="6.95421">
        <ele>2244.8</ele>
        <time>2023-02-16T14:11:27Z</time>
      </trkpt>
      <trkpt lat="44.84084" lon="6.95417">
        <ele>2242.3</ele>
        <time>2023-02-16T14:11:28Z</time>
      </trkpt>
      <trkpt lat="44.84082" lon="6.9541">
        <ele>2239.3</ele>
        <time>2023-02-16T14:11:29Z</time>
      </trkpt>
      <trkpt lat="44.84081" lon="6.95403">
        <ele>2236.6</ele>
        <time>2023-02-16T14:11:30Z</time>
      </trkpt>
      <trkpt lat="44.84075" lon="6.95395">
        <ele>2233</ele>
        <time>2023-02-16T14:11:31Z</time>
      </trkpt>
      <trkpt lat="44.84069" lon="6.95386">
        <ele>2229.6</ele>
        <time>2023-02-16T14:11:33Z</time>
      </trkpt>
      <trkpt lat="44.84068" lon="6.95379">
        <ele>2227.3</ele>
        <time>2023-02-16T14:11:34Z</time>
      </trkpt>
      <trkpt lat="44.84065" lon="6.95373">
        <ele>2224.9</ele>
        <time>2023-02-16T14:11:35Z</time>
      </trkpt>
      <trkpt lat="44.84061" lon="6.9537">
        <ele>2223.2</ele>
        <time>2023-02-16T14:11:36Z</time>
      </trkpt>
      <trkpt lat="44.84056" lon="6.95366">
        <ele>2220.8</ele>
        <time>2023-02-16T14:11:37Z</time>
      </trkpt>
      <trkpt lat="44.84054" lon="6.95361">
        <ele>2218.9</ele>
        <time>2023-02-16T14:11:38Z</time>
      </trkpt>
      <trkpt lat="44.84052" lon="6.95355">
        <ele>2216.9</ele>
        <time>2023-02-16T14:11:39Z</time>
      </trkpt>
      <trkpt lat="44.84049" lon="6.9535">
        <ele>2215.1</ele>
        <time>2023-02-16T14:11:40Z</time>
      </trkpt>
      <trkpt lat="44.84048" lon="6.95343">
        <ele>2212.9</ele>
        <time>2023-02-16T14:11:41Z</time>
      </trkpt>
      <trkpt lat="44.84046" lon="6.95336">
        <ele>2210.5</ele>
        <time>2023-02-16T14:11:42Z</time>
      </trkpt>
      <trkpt lat="44.84042" lon="6.95332">
        <ele>2208.6</ele>
        <time>2023-02-16T14:11:43Z</time>
      </trkpt>
      <trkpt lat="44.84038" lon="6.95328">
        <ele>2206.8</ele>
        <time>2023-02-16T14:11:44Z</time>
      </trkpt>
      <trkpt lat="44.84034" lon="6.95323">
        <ele>2204.4</ele>
        <time>2023-02-16T14:11:45Z</time>
      </trkpt>
      <trkpt lat="44.84031" lon="6.95317">
        <ele>2201.8</ele>
        <time>2023-02-16T14:11:46Z</time>
      </trkpt>
      <trkpt lat="44.84026" lon="6.95313">
        <ele>2199.4</ele>
        <time>2023-02-16T14:11:47Z</time>
      </trkpt>
      <trkpt lat="44.84024" lon="6.95307">
        <ele>2196.8</ele>
        <time>2023-02-16T14:11:48Z</time>
      </trkpt>
      <trkpt lat="44.84027" lon="6.95301">
        <ele>2195.7</ele>
        <time>2023-02-16T14:11:49Z</time>
      </trkpt>
      <trkpt lat="44.8403" lon="6.95294">
        <ele>2194.7</ele>
        <time>2023-02-16T14:11:50Z</time>
      </trkpt>
      <trkpt lat="44.84031" lon="6.95288">
        <ele>2193.6</ele>
        <time>2023-02-16T14:11:51Z</time>
      </trkpt>
      <trkpt lat="44.8403" lon="6.95283">
        <ele>2192.1</ele>
        <time>2023-02-16T14:11:52Z</time>
      </trkpt>
      <trkpt lat="44.84027" lon="6.95282">
        <ele>2190.9</ele>
        <time>2023-02-16T14:11:53Z</time>
      </trkpt>
      <trkpt lat="44.84022" lon="6.95282">
        <ele>2189.8</ele>
        <time>2023-02-16T14:11:54Z</time>
      </trkpt>
      <trkpt lat="44.84019" lon="6.95282">
        <ele>2189.2</ele>
        <time>2023-02-16T14:11:55Z</time>
      </trkpt>
      <trkpt lat="44.84016" lon="6.95282">
        <ele>2188.6</ele>
        <time>2023-02-16T14:11:56Z</time>
      </trkpt>
      <trkpt lat="44.84015" lon="6.95283">
        <ele>2188.6</ele>
        <time>2023-02-16T14:11:58Z</time>
      </trkpt>
      <trkpt lat="44.84015" lon="6.95283">
        <ele>2188.6</ele>
        <time>2023-02-16T14:11:59Z</time>
      </trkpt>
      <trkpt lat="44.84014" lon="6.95284">
        <ele>2188.7</ele>
        <time>2023-02-16T14:12:06Z</time>
      </trkpt>
      <trkpt lat="44.84015" lon="6.95285">
        <ele>2189.2</ele>
        <time>2023-02-16T14:12:14Z</time>
      </trkpt>
      <trkpt lat="44.84015" lon="6.95287">
        <ele>2189.7</ele>
        <time>2023-02-16T14:12:26Z</time>
      </trkpt>
      <trkpt lat="44.84013" lon="6.95287">
        <ele>2189.3</ele>
        <time>2023-02-16T14:12:27Z</time>
      </trkpt>
      <trkpt lat="44.84008" lon="6.95283">
        <ele>2187.2</ele>
        <time>2023-02-16T14:12:29Z</time>
      </trkpt>
      <trkpt lat="44.84007" lon="6.95278">
        <ele>2185.6</ele>
        <time>2023-02-16T14:12:30Z</time>
      </trkpt>
      <trkpt lat="44.84004" lon="6.95273">
        <ele>2184</ele>
        <time>2023-02-16T14:12:31Z</time>
      </trkpt>
      <trkpt lat="44.84" lon="6.95271">
        <ele>2182.8</ele>
        <time>2023-02-16T14:12:32Z</time>
      </trkpt>
      <trkpt lat="44.83995" lon="6.95268">
        <ele>2181</ele>
        <time>2023-02-16T14:12:33Z</time>
      </trkpt>
      <trkpt lat="44.83992" lon="6.95264">
        <ele>2179.5</ele>
        <time>2023-02-16T14:12:34Z</time>
      </trkpt>
      <trkpt lat="44.83988" lon="6.9526">
        <ele>2177.7</ele>
        <time>2023-02-16T14:12:35Z</time>
      </trkpt>
      <trkpt lat="44.83984" lon="6.95259">
        <ele>2176.4</ele>
        <time>2023-02-16T14:12:36Z</time>
      </trkpt>
      <trkpt lat="44.8398" lon="6.95258">
        <ele>2175.1</ele>
        <time>2023-02-16T14:12:37Z</time>
      </trkpt>
      <trkpt lat="44.83977" lon="6.95257">
        <ele>2174.1</ele>
        <time>2023-02-16T14:12:38Z</time>
      </trkpt>
      <trkpt lat="44.83973" lon="6.95257">
        <ele>2173</ele>
        <time>2023-02-16T14:12:39Z</time>
      </trkpt>
      <trkpt lat="44.83965" lon="6.95261">
        <ele>2171.1</ele>
        <time>2023-02-16T14:12:41Z</time>
      </trkpt>
      <trkpt lat="44.83961" lon="6.95261">
        <ele>2169.6</ele>
        <time>2023-02-16T14:12:42Z</time>
      </trkpt>
      <trkpt lat="44.83953" lon="6.9526">
        <ele>2166.4</ele>
        <time>2023-02-16T14:12:44Z</time>
      </trkpt>
      <trkpt lat="44.83948" lon="6.95262">
        <ele>2164.9</ele>
        <time>2023-02-16T14:12:45Z</time>
      </trkpt>
      <trkpt lat="44.83945" lon="6.95265">
        <ele>2164.5</ele>
        <time>2023-02-16T14:12:46Z</time>
      </trkpt>
      <trkpt lat="44.83942" lon="6.95267">
        <ele>2163.3</ele>
        <time>2023-02-16T14:12:47Z</time>
      </trkpt>
      <trkpt lat="44.83938" lon="6.95271">
        <ele>2161.8</ele>
        <time>2023-02-16T14:12:49Z</time>
      </trkpt>
      <trkpt lat="44.83934" lon="6.95275">
        <ele>2160.2</ele>
        <time>2023-02-16T14:12:53Z</time>
      </trkpt>
      <trkpt lat="44.83934" lon="6.95275">
        <ele>2160.2</ele>
        <time>2023-02-16T14:13:03Z</time>
      </trkpt>
      <trkpt lat="44.83934" lon="6.95275">
        <ele>2160.2</ele>
        <time>2023-02-16T14:13:08Z</time>
      </trkpt>
      <trkpt lat="44.83934" lon="6.95277">
        <ele>2160.5</ele>
        <time>2023-02-16T14:13:12Z</time>
      </trkpt>
      <trkpt lat="44.83934" lon="6.95277">
        <ele>2160.5</ele>
        <time>2023-02-16T14:13:22Z</time>
      </trkpt>
      <trkpt lat="44.83934" lon="6.95278">
        <ele>2160.6</ele>
        <time>2023-02-16T14:13:24Z</time>
      </trkpt>
      <trkpt lat="44.83934" lon="6.95278">
        <ele>2160.6</ele>
        <time>2023-02-16T14:13:35Z</time>
      </trkpt>
      <trkpt lat="44.83934" lon="6.95277">
        <ele>2160.5</ele>
        <time>2023-02-16T14:13:48Z</time>
      </trkpt>
      <trkpt lat="44.83934" lon="6.95277">
        <ele>2160.5</ele>
        <time>2023-02-16T14:14:01Z</time>
      </trkpt>
      <trkpt lat="44.83933" lon="6.95276">
        <ele>2159.7</ele>
        <time>2023-02-16T14:14:10Z</time>
      </trkpt>
      <trkpt lat="44.83933" lon="6.95277">
        <ele>2159.9</ele>
        <time>2023-02-16T14:14:21Z</time>
      </trkpt>
      <trkpt lat="44.83933" lon="6.95277">
        <ele>2159.9</ele>
        <time>2023-02-16T14:14:35Z</time>
      </trkpt>
      <trkpt lat="44.83931" lon="6.95282">
        <ele>2159.1</ele>
        <time>2023-02-16T14:14:48Z</time>
      </trkpt>
      <trkpt lat="44.83928" lon="6.95289">
        <ele>2157.7</ele>
        <time>2023-02-16T14:15:00Z</time>
      </trkpt>
      <trkpt lat="44.83928" lon="6.95294">
        <ele>2158</ele>
        <time>2023-02-16T14:15:13Z</time>
      </trkpt>
      <trkpt lat="44.83927" lon="6.95299">
        <ele>2157.7</ele>
        <time>2023-02-16T14:15:23Z</time>
      </trkpt>
      <trkpt lat="44.83927" lon="6.95299">
        <ele>2157.7</ele>
        <time>2023-02-16T14:15:24Z</time>
      </trkpt>
      <trkpt lat="44.83926" lon="6.95301">
        <ele>2157.1</ele>
        <time>2023-02-16T14:15:28Z</time>
      </trkpt>
      <trkpt lat="44.83926" lon="6.95304">
        <ele>2157.3</ele>
        <time>2023-02-16T14:15:35Z</time>
      </trkpt>
      <trkpt lat="44.83927" lon="6.95308">
        <ele>2158.2</ele>
        <time>2023-02-16T14:15:40Z</time>
      </trkpt>
      <trkpt lat="44.83926" lon="6.95311">
        <ele>2157.6</ele>
        <time>2023-02-16T14:15:46Z</time>
      </trkpt>
      <trkpt lat="44.83926" lon="6.95315">
        <ele>2157.7</ele>
        <time>2023-02-16T14:15:52Z</time>
      </trkpt>
      <trkpt lat="44.83925" lon="6.9532">
        <ele>2157.2</ele>
        <time>2023-02-16T14:15:59Z</time>
      </trkpt>
      <trkpt lat="44.83926" lon="6.95321">
        <ele>2157.9</ele>
        <time>2023-02-16T14:16:01Z</time>
      </trkpt>
      <trkpt lat="44.83924" lon="6.95326">
        <ele>2156.8</ele>
        <time>2023-02-16T14:16:08Z</time>
      </trkpt>
      <trkpt lat="44.83923" lon="6.95328">
        <ele>2156.1</ele>
        <time>2023-02-16T14:16:10Z</time>
      </trkpt>
      <trkpt lat="44.83922" lon="6.95331">
        <ele>2155.6</ele>
        <time>2023-02-16T14:16:12Z</time>
      </trkpt>
      <trkpt lat="44.83921" lon="6.95332">
        <ele>2154.9</ele>
        <time>2023-02-16T14:16:14Z</time>
      </trkpt>
      <trkpt lat="44.8392" lon="6.95334">
        <ele>2154.4</ele>
        <time>2023-02-16T14:16:17Z</time>
      </trkpt>
      <trkpt lat="44.83918" lon="6.95336">
        <ele>2153.3</ele>
        <time>2023-02-16T14:16:20Z</time>
      </trkpt>
      <trkpt lat="44.83918" lon="6.95337">
        <ele>2153.4</ele>
        <time>2023-02-16T14:16:21Z</time>
      </trkpt>
      <trkpt lat="44.83917" lon="6.95339">
        <ele>2153</ele>
        <time>2023-02-16T14:16:24Z</time>
      </trkpt>
      <trkpt lat="44.83916" lon="6.95343">
        <ele>2153.1</ele>
        <time>2023-02-16T14:16:31Z</time>
      </trkpt>
      <trkpt lat="44.83916" lon="6.95343">
        <ele>2153.1</ele>
        <time>2023-02-16T14:16:33Z</time>
      </trkpt>
      <trkpt lat="44.83914" lon="6.95345">
        <ele>2152.4</ele>
        <time>2023-02-16T14:16:43Z</time>
      </trkpt>
      <trkpt lat="44.83914" lon="6.95346">
        <ele>2152.6</ele>
        <time>2023-02-16T14:16:51Z</time>
      </trkpt>
      <trkpt lat="44.83914" lon="6.95347">
        <ele>2152.7</ele>
        <time>2023-02-16T14:16:58Z</time>
      </trkpt>
      <trkpt lat="44.83914" lon="6.95346">
        <ele>2152.6</ele>
        <time>2023-02-16T14:17:16Z</time>
      </trkpt>
      <trkpt lat="44.83912" lon="6.9535">
        <ele>2152.2</ele>
        <time>2023-02-16T14:17:27Z</time>
      </trkpt>
      <trkpt lat="44.83902" lon="6.95361">
        <ele>2149.6</ele>
        <time>2023-02-16T14:17:36Z</time>
      </trkpt>
      <trkpt lat="44.83898" lon="6.95363">
        <ele>2148.3</ele>
        <time>2023-02-16T14:17:41Z</time>
      </trkpt>
      <trkpt lat="44.83896" lon="6.95363">
        <ele>2147.5</ele>
        <time>2023-02-16T14:17:51Z</time>
      </trkpt>
      <trkpt lat="44.83897" lon="6.95361">
        <ele>2147.5</ele>
        <time>2023-02-16T14:17:53Z</time>
      </trkpt>
      <trkpt lat="44.83897" lon="6.95358">
        <ele>2146.9</ele>
        <time>2023-02-16T14:17:55Z</time>
      </trkpt>
      <trkpt lat="44.83897" lon="6.95357">
        <ele>2146.7</ele>
        <time>2023-02-16T14:17:56Z</time>
      </trkpt>
      <trkpt lat="44.83896" lon="6.95356">
        <ele>2146.1</ele>
        <time>2023-02-16T14:17:57Z</time>
      </trkpt>
      <trkpt lat="44.83896" lon="6.95352">
        <ele>2145.3</ele>
        <time>2023-02-16T14:18:00Z</time>
      </trkpt>
      <trkpt lat="44.83896" lon="6.95345">
        <ele>2143.9</ele>
        <time>2023-02-16T14:18:03Z</time>
      </trkpt>
      <trkpt lat="44.83896" lon="6.95343">
        <ele>2143.5</ele>
        <time>2023-02-16T14:18:04Z</time>
      </trkpt>
      <trkpt lat="44.83897" lon="6.95341">
        <ele>2143.6</ele>
        <time>2023-02-16T14:18:05Z</time>
      </trkpt>
      <trkpt lat="44.83896" lon="6.95339">
        <ele>2142.7</ele>
        <time>2023-02-16T14:18:07Z</time>
      </trkpt>
      <trkpt lat="44.83894" lon="6.95339">
        <ele>2141.7</ele>
        <time>2023-02-16T14:18:08Z</time>
      </trkpt>
      <trkpt lat="44.83892" lon="6.95337">
        <ele>2140.3</ele>
        <time>2023-02-16T14:18:12Z</time>
      </trkpt>
      <trkpt lat="44.83892" lon="6.95337">
        <ele>2140.3</ele>
        <time>2023-02-16T14:18:16Z</time>
      </trkpt>
      <trkpt lat="44.83889" lon="6.95341">
        <ele>2139.7</ele>
        <time>2023-02-16T14:18:29Z</time>
      </trkpt>
      <trkpt lat="44.83888" lon="6.95343">
        <ele>2139.6</ele>
        <time>2023-02-16T14:18:30Z</time>
      </trkpt>
      <trkpt lat="44.83888" lon="6.95344">
        <ele>2139.9</ele>
        <time>2023-02-16T14:18:31Z</time>
      </trkpt>
      <trkpt lat="44.83885" lon="6.95345">
        <ele>2138.6</ele>
        <time>2023-02-16T14:18:36Z</time>
      </trkpt>
      <trkpt lat="44.83883" lon="6.95343">
        <ele>2137.1</ele>
        <time>2023-02-16T14:18:48Z</time>
      </trkpt>
      <trkpt lat="44.83882" lon="6.95343">
        <ele>2136.6</ele>
        <time>2023-02-16T14:18:49Z</time>
      </trkpt>
      <trkpt lat="44.83878" lon="6.95345">
        <ele>2135</ele>
        <time>2023-02-16T14:18:55Z</time>
      </trkpt>
      <trkpt lat="44.83876" lon="6.95346">
        <ele>2134.2</ele>
        <time>2023-02-16T14:18:57Z</time>
      </trkpt>
      <trkpt lat="44.83876" lon="6.95346">
        <ele>2134.2</ele>
        <time>2023-02-16T14:18:58Z</time>
      </trkpt>
      <trkpt lat="44.83871" lon="6.9535">
        <ele>2132.6</ele>
        <time>2023-02-16T14:19:02Z</time>
      </trkpt>
      <trkpt lat="44.83869" lon="6.95354">
        <ele>2132.4</ele>
        <time>2023-02-16T14:19:04Z</time>
      </trkpt>
      <trkpt lat="44.83864" lon="6.95357">
        <ele>2130.6</ele>
        <time>2023-02-16T14:19:08Z</time>
      </trkpt>
      <trkpt lat="44.83862" lon="6.95353">
        <ele>2128.7</ele>
        <time>2023-02-16T14:19:10Z</time>
      </trkpt>
      <trkpt lat="44.83861" lon="6.95352">
        <ele>2128</ele>
        <time>2023-02-16T14:19:11Z</time>
      </trkpt>
      <trkpt lat="44.83862" lon="6.9535">
        <ele>2128</ele>
        <time>2023-02-16T14:19:13Z</time>
      </trkpt>
      <trkpt lat="44.83861" lon="6.95351">
        <ele>2127.8</ele>
        <time>2023-02-16T14:19:16Z</time>
      </trkpt>
      <trkpt lat="44.83859" lon="6.95355">
        <ele>2127.9</ele>
        <time>2023-02-16T14:19:18Z</time>
      </trkpt>
      <trkpt lat="44.83857" lon="6.95359">
        <ele>2128.1</ele>
        <time>2023-02-16T14:19:19Z</time>
      </trkpt>
      <trkpt lat="44.83855" lon="6.95363">
        <ele>2128.1</ele>
        <time>2023-02-16T14:19:20Z</time>
      </trkpt>
      <trkpt lat="44.83847" lon="6.95372">
        <ele>2126.9</ele>
        <time>2023-02-16T14:19:22Z</time>
      </trkpt>
      <trkpt lat="44.83842" lon="6.95376">
        <ele>2125.8</ele>
        <time>2023-02-16T14:19:23Z</time>
      </trkpt>
      <trkpt lat="44.83837" lon="6.95379">
        <ele>2124.5</ele>
        <time>2023-02-16T14:19:24Z</time>
      </trkpt>
      <trkpt lat="44.83828" lon="6.95386">
        <ele>2122.9</ele>
        <time>2023-02-16T14:19:26Z</time>
      </trkpt>
      <trkpt lat="44.83815" lon="6.95396">
        <ele>2121.3</ele>
        <time>2023-02-16T14:19:29Z</time>
      </trkpt>
      <trkpt lat="44.83812" lon="6.95397">
        <ele>2120.5</ele>
        <time>2023-02-16T14:19:30Z</time>
      </trkpt>
      <trkpt lat="44.8381" lon="6.95396">
        <ele>2119.7</ele>
        <time>2023-02-16T14:19:31Z</time>
      </trkpt>
      <trkpt lat="44.83809" lon="6.95395">
        <ele>2119.2</ele>
        <time>2023-02-16T14:19:32Z</time>
      </trkpt>
      <trkpt lat="44.83809" lon="6.95394">
        <ele>2119</ele>
        <time>2023-02-16T14:19:33Z</time>
      </trkpt>
      <trkpt lat="44.8381" lon="6.95393">
        <ele>2119.1</ele>
        <time>2023-02-16T14:19:35Z</time>
      </trkpt>
      <trkpt lat="44.8381" lon="6.95392">
        <ele>2118.9</ele>
        <time>2023-02-16T14:19:39Z</time>
      </trkpt>
      <trkpt lat="44.8381" lon="6.9539">
        <ele>2118.5</ele>
        <time>2023-02-16T14:19:53Z</time>
      </trkpt>
      <trkpt lat="44.83811" lon="6.95388">
        <ele>2118.4</ele>
        <time>2023-02-16T14:19:56Z</time>
      </trkpt>
      <trkpt lat="44.83812" lon="6.95386">
        <ele>2118.3</ele>
        <time>2023-02-16T14:19:57Z</time>
      </trkpt>
      <trkpt lat="44.83813" lon="6.9538">
        <ele>2117.5</ele>
        <time>2023-02-16T14:19:59Z</time>
      </trkpt>
      <trkpt lat="44.83815" lon="6.95369">
        <ele>2116.1</ele>
        <time>2023-02-16T14:20:01Z</time>
      </trkpt>
      <trkpt lat="44.83815" lon="6.95358">
        <ele>2114</ele>
        <time>2023-02-16T14:20:03Z</time>
      </trkpt>
      <trkpt lat="44.83815" lon="6.95346">
        <ele>2111.5</ele>
        <time>2023-02-16T14:20:05Z</time>
      </trkpt>
      <trkpt lat="44.83817" lon="6.9534">
        <ele>2110.7</ele>
        <time>2023-02-16T14:20:06Z</time>
      </trkpt>
      <trkpt lat="44.83818" lon="6.95334">
        <ele>2109.7</ele>
        <time>2023-02-16T14:20:07Z</time>
      </trkpt>
      <trkpt lat="44.83819" lon="6.95329">
        <ele>2108.9</ele>
        <time>2023-02-16T14:20:08Z</time>
      </trkpt>
      <trkpt lat="44.83819" lon="6.95319">
        <ele>2106.8</ele>
        <time>2023-02-16T14:20:10Z</time>
      </trkpt>
      <trkpt lat="44.83815" lon="6.95309">
        <ele>2103.5</ele>
        <time>2023-02-16T14:20:12Z</time>
      </trkpt>
      <trkpt lat="44.83813" lon="6.95305">
        <ele>2102</ele>
        <time>2023-02-16T14:20:13Z</time>
      </trkpt>
      <trkpt lat="44.83811" lon="6.95302">
        <ele>2100.6</ele>
        <time>2023-02-16T14:20:14Z</time>
      </trkpt>
      <trkpt lat="44.83809" lon="6.95298">
        <ele>2098.8</ele>
        <time>2023-02-16T14:20:15Z</time>
      </trkpt>
      <trkpt lat="44.83808" lon="6.95294">
        <ele>2097.4</ele>
        <time>2023-02-16T14:20:16Z</time>
      </trkpt>
      <trkpt lat="44.83806" lon="6.95291">
        <ele>2095.9</ele>
        <time>2023-02-16T14:20:17Z</time>
      </trkpt>
      <trkpt lat="44.83803" lon="6.9529">
        <ele>2094.5</ele>
        <time>2023-02-16T14:20:18Z</time>
      </trkpt>
      <trkpt lat="44.83801" lon="6.9529">
        <ele>2093.7</ele>
        <time>2023-02-16T14:20:19Z</time>
      </trkpt>
      <trkpt lat="44.83799" lon="6.95289">
        <ele>2092.7</ele>
        <time>2023-02-16T14:20:20Z</time>
      </trkpt>
      <trkpt lat="44.83798" lon="6.95287">
        <ele>2091.8</ele>
        <time>2023-02-16T14:20:21Z</time>
      </trkpt>
      <trkpt lat="44.83798" lon="6.95284">
        <ele>2091</ele>
        <time>2023-02-16T14:20:22Z</time>
      </trkpt>
      <trkpt lat="44.83798" lon="6.95282">
        <ele>2090.4</ele>
        <time>2023-02-16T14:20:23Z</time>
      </trkpt>
      <trkpt lat="44.83798" lon="6.9528">
        <ele>2089.9</ele>
        <time>2023-02-16T14:20:24Z</time>
      </trkpt>
      <trkpt lat="44.83798" lon="6.95279">
        <ele>2089.6</ele>
        <time>2023-02-16T14:20:25Z</time>
      </trkpt>
      <trkpt lat="44.83798" lon="6.95279">
        <ele>2089.6</ele>
        <time>2023-02-16T14:20:26Z</time>
      </trkpt>
      <trkpt lat="44.83797" lon="6.95278">
        <ele>2089</ele>
        <time>2023-02-16T14:20:27Z</time>
      </trkpt>
      <trkpt lat="44.83796" lon="6.95277">
        <ele>2088.4</ele>
        <time>2023-02-16T14:20:28Z</time>
      </trkpt>
      <trkpt lat="44.83794" lon="6.95273">
        <ele>2086.8</ele>
        <time>2023-02-16T14:20:29Z</time>
      </trkpt>
      <trkpt lat="44.83793" lon="6.95266">
        <ele>2084.9</ele>
        <time>2023-02-16T14:20:30Z</time>
      </trkpt>
      <trkpt lat="44.83793" lon="6.9526">
        <ele>2083.6</ele>
        <time>2023-02-16T14:20:31Z</time>
      </trkpt>
      <trkpt lat="44.83791" lon="6.95257">
        <ele>2082.3</ele>
        <time>2023-02-16T14:20:32Z</time>
      </trkpt>
      <trkpt lat="44.83788" lon="6.95254">
        <ele>2080.8</ele>
        <time>2023-02-16T14:20:33Z</time>
      </trkpt>
      <trkpt lat="44.83785" lon="6.95256">
        <ele>2080.3</ele>
        <time>2023-02-16T14:20:34Z</time>
      </trkpt>
      <trkpt lat="44.83782" lon="6.95258">
        <ele>2079.7</ele>
        <time>2023-02-16T14:20:35Z</time>
      </trkpt>
      <trkpt lat="44.83774" lon="6.95266">
        <ele>2078.7</ele>
        <time>2023-02-16T14:20:37Z</time>
      </trkpt>
      <trkpt lat="44.83767" lon="6.9527">
        <ele>2077.4</ele>
        <time>2023-02-16T14:20:38Z</time>
      </trkpt>
      <trkpt lat="44.83763" lon="6.9527">
        <ele>2076.2</ele>
        <time>2023-02-16T14:20:39Z</time>
      </trkpt>
      <trkpt lat="44.83758" lon="6.95268">
        <ele>2074.3</ele>
        <time>2023-02-16T14:20:40Z</time>
      </trkpt>
      <trkpt lat="44.83753" lon="6.95267">
        <ele>2072.6</ele>
        <time>2023-02-16T14:20:41Z</time>
      </trkpt>
      <trkpt lat="44.83748" lon="6.95266">
        <ele>2070.7</ele>
        <time>2023-02-16T14:20:42Z</time>
      </trkpt>
      <trkpt lat="44.83745" lon="6.95263">
        <ele>2069</ele>
        <time>2023-02-16T14:20:43Z</time>
      </trkpt>
      <trkpt lat="44.83743" lon="6.95257">
        <ele>2067</ele>
        <time>2023-02-16T14:20:44Z</time>
      </trkpt>
      <trkpt lat="44.8374" lon="6.95254">
        <ele>2065.3</ele>
        <time>2023-02-16T14:20:45Z</time>
      </trkpt>
      <trkpt lat="44.83736" lon="6.95252">
        <ele>2063.4</ele>
        <time>2023-02-16T14:20:46Z</time>
      </trkpt>
      <trkpt lat="44.83734" lon="6.9525">
        <ele>2062.2</ele>
        <time>2023-02-16T14:20:47Z</time>
      </trkpt>
      <trkpt lat="44.83733" lon="6.95244">
        <ele>2060.5</ele>
        <time>2023-02-16T14:20:49Z</time>
      </trkpt>
      <trkpt lat="44.83733" lon="6.95243">
        <ele>2060.3</ele>
        <time>2023-02-16T14:20:50Z</time>
      </trkpt>
      <trkpt lat="44.83734" lon="6.95239">
        <ele>2059.8</ele>
        <time>2023-02-16T14:20:52Z</time>
      </trkpt>
      <trkpt lat="44.83734" lon="6.95236">
        <ele>2059.1</ele>
        <time>2023-02-16T14:20:53Z</time>
      </trkpt>
      <trkpt lat="44.83733" lon="6.95235">
        <ele>2058.5</ele>
        <time>2023-02-16T14:20:54Z</time>
      </trkpt>
      <trkpt lat="44.8373" lon="6.95235">
        <ele>2057.3</ele>
        <time>2023-02-16T14:20:56Z</time>
      </trkpt>
      <trkpt lat="44.83728" lon="6.95237">
        <ele>2057</ele>
        <time>2023-02-16T14:20:58Z</time>
      </trkpt>
      <trkpt lat="44.83726" lon="6.95238">
        <ele>2056.5</ele>
        <time>2023-02-16T14:20:59Z</time>
      </trkpt>
      <trkpt lat="44.8372" lon="6.95242">
        <ele>2054.7</ele>
        <time>2023-02-16T14:21:05Z</time>
      </trkpt>
      <trkpt lat="44.83717" lon="6.95248">
        <ele>2054.6</ele>
        <time>2023-02-16T14:21:16Z</time>
      </trkpt>
      <trkpt lat="44.83718" lon="6.95255">
        <ele>2056.9</ele>
        <time>2023-02-16T14:21:27Z</time>
      </trkpt>
      <trkpt lat="44.83718" lon="6.9526">
        <ele>2058</ele>
        <time>2023-02-16T14:21:38Z</time>
      </trkpt>
      <trkpt lat="44.83718" lon="6.95262">
        <ele>2058.4</ele>
        <time>2023-02-16T14:21:39Z</time>
      </trkpt>
      <trkpt lat="44.83712" lon="6.95273">
        <ele>2058.1</ele>
        <time>2023-02-16T14:21:43Z</time>
      </trkpt>
      <trkpt lat="44.83707" lon="6.95282">
        <ele>2057.8</ele>
        <time>2023-02-16T14:21:46Z</time>
      </trkpt>
      <trkpt lat="44.83702" lon="6.95288">
        <ele>2056.7</ele>
        <time>2023-02-16T14:21:49Z</time>
      </trkpt>
      <trkpt lat="44.837" lon="6.95291">
        <ele>2056.5</ele>
        <time>2023-02-16T14:21:51Z</time>
      </trkpt>
      <trkpt lat="44.83694" lon="6.95298">
        <ele>2055.1</ele>
        <time>2023-02-16T14:21:55Z</time>
      </trkpt>
      <trkpt lat="44.83689" lon="6.95301">
        <ele>2052.9</ele>
        <time>2023-02-16T14:22:00Z</time>
      </trkpt>
      <trkpt lat="44.83688" lon="6.95302">
        <ele>2052.5</ele>
        <time>2023-02-16T14:22:01Z</time>
      </trkpt>
      <trkpt lat="44.83685" lon="6.95303">
        <ele>2051</ele>
        <time>2023-02-16T14:22:03Z</time>
      </trkpt>
      <trkpt lat="44.83684" lon="6.95304">
        <ele>2050.7</ele>
        <time>2023-02-16T14:22:05Z</time>
      </trkpt>
      <trkpt lat="44.83681" lon="6.95308">
        <ele>2049.7</ele>
        <time>2023-02-16T14:22:07Z</time>
      </trkpt>
      <trkpt lat="44.83679" lon="6.95309">
        <ele>2048.7</ele>
        <time>2023-02-16T14:22:09Z</time>
      </trkpt>
      <trkpt lat="44.83678" lon="6.95309">
        <ele>2048.1</ele>
        <time>2023-02-16T14:22:10Z</time>
      </trkpt>
      <trkpt lat="44.83676" lon="6.9531">
        <ele>2047.2</ele>
        <time>2023-02-16T14:22:12Z</time>
      </trkpt>
      <trkpt lat="44.83674" lon="6.95313">
        <ele>2046.6</ele>
        <time>2023-02-16T14:22:14Z</time>
      </trkpt>
      <trkpt lat="44.83673" lon="6.95315">
        <ele>2046.3</ele>
        <time>2023-02-16T14:22:15Z</time>
      </trkpt>
      <trkpt lat="44.83672" lon="6.95317">
        <ele>2046.1</ele>
        <time>2023-02-16T14:22:16Z</time>
      </trkpt>
      <trkpt lat="44.83667" lon="6.95326">
        <ele>2044.9</ele>
        <time>2023-02-16T14:22:20Z</time>
      </trkpt>
      <trkpt lat="44.83665" lon="6.95329">
        <ele>2044.1</ele>
        <time>2023-02-16T14:22:22Z</time>
      </trkpt>
      <trkpt lat="44.83663" lon="6.95334">
        <ele>2043.7</ele>
        <time>2023-02-16T14:22:28Z</time>
      </trkpt>
      <trkpt lat="44.83663" lon="6.95337">
        <ele>2044</ele>
        <time>2023-02-16T14:22:37Z</time>
      </trkpt>
      <trkpt lat="44.83661" lon="6.95341">
        <ele>2043.2</ele>
        <time>2023-02-16T14:22:47Z</time>
      </trkpt>
      <trkpt lat="44.8366" lon="6.95346">
        <ele>2043.2</ele>
        <time>2023-02-16T14:22:53Z</time>
      </trkpt>
      <trkpt lat="44.8366" lon="6.95348">
        <ele>2043.4</ele>
        <time>2023-02-16T14:22:54Z</time>
      </trkpt>
      <trkpt lat="44.83659" lon="6.95352">
        <ele>2043.2</ele>
        <time>2023-02-16T14:22:56Z</time>
      </trkpt>
      <trkpt lat="44.83656" lon="6.95362">
        <ele>2042.5</ele>
        <time>2023-02-16T14:22:59Z</time>
      </trkpt>
      <trkpt lat="44.83654" lon="6.95372">
        <ele>2041.6</ele>
        <time>2023-02-16T14:23:02Z</time>
      </trkpt>
      <trkpt lat="44.83654" lon="6.95374">
        <ele>2041.7</ele>
        <time>2023-02-16T14:23:03Z</time>
      </trkpt>
      <trkpt lat="44.83654" lon="6.95374">
        <ele>2041.7</ele>
        <time>2023-02-16T14:23:06Z</time>
      </trkpt>
      <trkpt lat="44.83652" lon="6.95378">
        <ele>2040.7</ele>
        <time>2023-02-16T14:23:16Z</time>
      </trkpt>
      <trkpt lat="44.83652" lon="6.95379">
        <ele>2040.7</ele>
        <time>2023-02-16T14:23:17Z</time>
      </trkpt>
      <trkpt lat="44.83652" lon="6.95384">
        <ele>2040.9</ele>
        <time>2023-02-16T14:23:20Z</time>
      </trkpt>
      <trkpt lat="44.8365" lon="6.95397">
        <ele>2040.8</ele>
        <time>2023-02-16T14:23:24Z</time>
      </trkpt>
      <trkpt lat="44.83649" lon="6.95398">
        <ele>2040.4</ele>
        <time>2023-02-16T14:23:25Z</time>
      </trkpt>
      <trkpt lat="44.8365" lon="6.95401">
        <ele>2041.2</ele>
        <time>2023-02-16T14:23:28Z</time>
      </trkpt>
      <trkpt lat="44.8365" lon="6.95401">
        <ele>2041.2</ele>
        <time>2023-02-16T14:23:29Z</time>
      </trkpt>
      <trkpt lat="44.83644" lon="6.95398">
        <ele>2037.9</ele>
        <time>2023-02-16T14:23:32Z</time>
      </trkpt>
      <trkpt lat="44.8364" lon="6.95392">
        <ele>2035</ele>
        <time>2023-02-16T14:23:34Z</time>
      </trkpt>
      <trkpt lat="44.83638" lon="6.95387">
        <ele>2033.5</ele>
        <time>2023-02-16T14:23:35Z</time>
      </trkpt>
      <trkpt lat="44.83636" lon="6.95379">
        <ele>2032.1</ele>
        <time>2023-02-16T14:23:36Z</time>
      </trkpt>
      <trkpt lat="44.83636" lon="6.95371">
        <ele>2031.3</ele>
        <time>2023-02-16T14:23:37Z</time>
      </trkpt>
      <trkpt lat="44.83636" lon="6.95371">
        <ele>2031.3</ele>
        <time>2023-02-16T14:23:38Z</time>
      </trkpt>
      <trkpt lat="44.83636" lon="6.95354">
        <ele>2029.4</ele>
        <time>2023-02-16T14:23:40Z</time>
      </trkpt>
      <trkpt lat="44.83634" lon="6.95351">
        <ele>2027.8</ele>
        <time>2023-02-16T14:23:41Z</time>
      </trkpt>
      <trkpt lat="44.83631" lon="6.95352">
        <ele>2026.3</ele>
        <time>2023-02-16T14:23:43Z</time>
      </trkpt>
      <trkpt lat="44.83627" lon="6.95358">
        <ele>2025.1</ele>
        <time>2023-02-16T14:23:45Z</time>
      </trkpt>
      <trkpt lat="44.83625" lon="6.95361">
        <ele>2024.5</ele>
        <time>2023-02-16T14:23:46Z</time>
      </trkpt>
      <trkpt lat="44.83622" lon="6.95369">
        <ele>2024.3</ele>
        <time>2023-02-16T14:23:48Z</time>
      </trkpt>
      <trkpt lat="44.8362" lon="6.95375">
        <ele>2024.5</ele>
        <time>2023-02-16T14:23:50Z</time>
      </trkpt>
      <trkpt lat="44.83615" lon="6.9538">
        <ele>2023.4</ele>
        <time>2023-02-16T14:23:54Z</time>
      </trkpt>
      <trkpt lat="44.83614" lon="6.9538">
        <ele>2023</ele>
        <time>2023-02-16T14:23:55Z</time>
      </trkpt>
      <trkpt lat="44.83613" lon="6.95381">
        <ele>2022.8</ele>
        <time>2023-02-16T14:23:56Z</time>
      </trkpt>
      <trkpt lat="44.83612" lon="6.95383">
        <ele>2022.9</ele>
        <time>2023-02-16T14:23:57Z</time>
      </trkpt>
      <trkpt lat="44.83607" lon="6.95385">
        <ele>2021.5</ele>
        <time>2023-02-16T14:23:59Z</time>
      </trkpt>
      <trkpt lat="44.83602" lon="6.95386">
        <ele>2019.9</ele>
        <time>2023-02-16T14:24:00Z</time>
      </trkpt>
      <trkpt lat="44.83602" lon="6.95381">
        <ele>2018.5</ele>
        <time>2023-02-16T14:24:02Z</time>
      </trkpt>
      <trkpt lat="44.83601" lon="6.95374">
        <ele>2016</ele>
        <time>2023-02-16T14:24:03Z</time>
      </trkpt>
      <trkpt lat="44.83603" lon="6.95366">
        <ele>2014.6</ele>
        <time>2023-02-16T14:24:04Z</time>
      </trkpt>
      <trkpt lat="44.83607" lon="6.95346">
        <ele>2012.4</ele>
        <time>2023-02-16T14:24:06Z</time>
      </trkpt>
      <trkpt lat="44.8361" lon="6.95321">
        <ele>2010.2</ele>
        <time>2023-02-16T14:24:08Z</time>
      </trkpt>
      <trkpt lat="44.8361" lon="6.95295">
        <ele>2008.2</ele>
        <time>2023-02-16T14:24:10Z</time>
      </trkpt>
      <trkpt lat="44.83611" lon="6.95284">
        <ele>2008.2</ele>
        <time>2023-02-16T14:24:11Z</time>
      </trkpt>
      <trkpt lat="44.83612" lon="6.95264">
        <ele>2007.3</ele>
        <time>2023-02-16T14:24:13Z</time>
      </trkpt>
      <trkpt lat="44.83614" lon="6.95249">
        <ele>2006.8</ele>
        <time>2023-02-16T14:24:15Z</time>
      </trkpt>
      <trkpt lat="44.83615" lon="6.95243">
        <ele>2006.1</ele>
        <time>2023-02-16T14:24:17Z</time>
      </trkpt>
      <trkpt lat="44.83614" lon="6.95241">
        <ele>2005.5</ele>
        <time>2023-02-16T14:24:18Z</time>
      </trkpt>
      <trkpt lat="44.83614" lon="6.95234">
        <ele>2004.5</ele>
        <time>2023-02-16T14:24:20Z</time>
      </trkpt>
      <trkpt lat="44.83614" lon="6.95221">
        <ele>2002.3</ele>
        <time>2023-02-16T14:24:22Z</time>
      </trkpt>
      <trkpt lat="44.83619" lon="6.95207">
        <ele>1999.7</ele>
        <time>2023-02-16T14:24:24Z</time>
      </trkpt>
      <trkpt lat="44.83627" lon="6.9519">
        <ele>1996.8</ele>
        <time>2023-02-16T14:24:26Z</time>
      </trkpt>
      <trkpt lat="44.83631" lon="6.95181">
        <ele>1995.3</ele>
        <time>2023-02-16T14:24:27Z</time>
      </trkpt>
      <trkpt lat="44.83634" lon="6.95162">
        <ele>1991.8</ele>
        <time>2023-02-16T14:24:29Z</time>
      </trkpt>
      <trkpt lat="44.83634" lon="6.95153">
        <ele>1990.7</ele>
        <time>2023-02-16T14:24:30Z</time>
      </trkpt>
      <trkpt lat="44.83633" lon="6.95144">
        <ele>1989.5</ele>
        <time>2023-02-16T14:24:31Z</time>
      </trkpt>
      <trkpt lat="44.83636" lon="6.95112">
        <ele>1987.2</ele>
        <time>2023-02-16T14:24:35Z</time>
      </trkpt>
      <trkpt lat="44.83637" lon="6.95107">
        <ele>1987</ele>
        <time>2023-02-16T14:24:36Z</time>
      </trkpt>
      <trkpt lat="44.83639" lon="6.95103">
        <ele>1987.2</ele>
        <time>2023-02-16T14:24:37Z</time>
      </trkpt>
      <trkpt lat="44.83641" lon="6.95097">
        <ele>1987.4</ele>
        <time>2023-02-16T14:24:39Z</time>
      </trkpt>
      <trkpt lat="44.83638" lon="6.95078">
        <ele>1984.4</ele>
        <time>2023-02-16T14:24:42Z</time>
      </trkpt>
      <trkpt lat="44.83638" lon="6.95068">
        <ele>1983.7</ele>
        <time>2023-02-16T14:24:43Z</time>
      </trkpt>
      <trkpt lat="44.83639" lon="6.95049">
        <ele>1982.8</ele>
        <time>2023-02-16T14:24:45Z</time>
      </trkpt>
      <trkpt lat="44.83639" lon="6.9503">
        <ele>1982.1</ele>
        <time>2023-02-16T14:24:47Z</time>
      </trkpt>
      <trkpt lat="44.83639" lon="6.95021">
        <ele>1981.6</ele>
        <time>2023-02-16T14:24:48Z</time>
      </trkpt>
      <trkpt lat="44.8364" lon="6.95007">
        <ele>1980.9</ele>
        <time>2023-02-16T14:24:50Z</time>
      </trkpt>
      <trkpt lat="44.83642" lon="6.94993">
        <ele>1979.8</ele>
        <time>2023-02-16T14:24:52Z</time>
      </trkpt>
      <trkpt lat="44.83645" lon="6.94982">
        <ele>1979.2</ele>
        <time>2023-02-16T14:24:55Z</time>
      </trkpt>
      <trkpt lat="44.83646" lon="6.94964">
        <ele>1977</ele>
        <time>2023-02-16T14:25:00Z</time>
      </trkpt>
      <trkpt lat="44.83646" lon="6.94963">
        <ele>1976.8</ele>
        <time>2023-02-16T14:25:02Z</time>
      </trkpt>
      <trkpt lat="44.83645" lon="6.94963">
        <ele>1976.4</ele>
        <time>2023-02-16T14:25:03Z</time>
      </trkpt>
      <trkpt lat="44.83645" lon="6.94962">
        <ele>1976.2</ele>
        <time>2023-02-16T14:25:05Z</time>
      </trkpt>
      <trkpt lat="44.83643" lon="6.94954">
        <ele>1974.2</ele>
        <time>2023-02-16T14:25:07Z</time>
      </trkpt>
      <trkpt lat="44.83643" lon="6.94946">
        <ele>1973.1</ele>
        <time>2023-02-16T14:25:08Z</time>
      </trkpt>
      <trkpt lat="44.83643" lon="6.94937">
        <ele>1971.9</ele>
        <time>2023-02-16T14:25:09Z</time>
      </trkpt>
      <trkpt lat="44.83643" lon="6.94929">
        <ele>1970.7</ele>
        <time>2023-02-16T14:25:10Z</time>
      </trkpt>
      <trkpt lat="44.83641" lon="6.94923">
        <ele>1968.9</ele>
        <time>2023-02-16T14:25:11Z</time>
      </trkpt>
      <trkpt lat="44.83636" lon="6.94909">
        <ele>1964.4</ele>
        <time>2023-02-16T14:25:13Z</time>
      </trkpt>
      <trkpt lat="44.83635" lon="6.94902">
        <ele>1962.9</ele>
        <time>2023-02-16T14:25:14Z</time>
      </trkpt>
      <trkpt lat="44.83634" lon="6.94894">
        <ele>1961.2</ele>
        <time>2023-02-16T14:25:15Z</time>
      </trkpt>
      <trkpt lat="44.83634" lon="6.94888">
        <ele>1960.4</ele>
        <time>2023-02-16T14:25:16Z</time>
      </trkpt>
      <trkpt lat="44.83635" lon="6.94881">
        <ele>1959.5</ele>
        <time>2023-02-16T14:25:17Z</time>
      </trkpt>
      <trkpt lat="44.83635" lon="6.94875">
        <ele>1958.3</ele>
        <time>2023-02-16T14:25:18Z</time>
      </trkpt>
      <trkpt lat="44.83634" lon="6.94871">
        <ele>1957</ele>
        <time>2023-02-16T14:25:19Z</time>
      </trkpt>
      <trkpt lat="44.83632" lon="6.94867">
        <ele>1955.4</ele>
        <time>2023-02-16T14:25:20Z</time>
      </trkpt>
      <trkpt lat="44.8363" lon="6.94862">
        <ele>1953.6</ele>
        <time>2023-02-16T14:25:21Z</time>
      </trkpt>
      <trkpt lat="44.8363" lon="6.94857">
        <ele>1952.4</ele>
        <time>2023-02-16T14:25:22Z</time>
      </trkpt>
      <trkpt lat="44.8363" lon="6.94852">
        <ele>1951.2</ele>
        <time>2023-02-16T14:25:23Z</time>
      </trkpt>
      <trkpt lat="44.83632" lon="6.94847">
        <ele>1950.6</ele>
        <time>2023-02-16T14:25:24Z</time>
      </trkpt>
      <trkpt lat="44.83632" lon="6.94843">
        <ele>1949.5</ele>
        <time>2023-02-16T14:25:25Z</time>
      </trkpt>
      <trkpt lat="44.83632" lon="6.94841">
        <ele>1949</ele>
        <time>2023-02-16T14:25:26Z</time>
      </trkpt>
      <trkpt lat="44.83631" lon="6.94841">
        <ele>1948.7</ele>
        <time>2023-02-16T14:25:27Z</time>
      </trkpt>
      <trkpt lat="44.8363" lon="6.94842">
        <ele>1948.6</ele>
        <time>2023-02-16T14:25:28Z</time>
      </trkpt>
      <trkpt lat="44.83627" lon="6.94844">
        <ele>1948.2</ele>
        <time>2023-02-16T14:25:29Z</time>
      </trkpt>
      <trkpt lat="44.83622" lon="6.94849">
        <ele>1947.6</ele>
        <time>2023-02-16T14:25:31Z</time>
      </trkpt>
      <trkpt lat="44.83618" lon="6.94851">
        <ele>1946.6</ele>
        <time>2023-02-16T14:25:33Z</time>
      </trkpt>
      <trkpt lat="44.83617" lon="6.9485">
        <ele>1946.1</ele>
        <time>2023-02-16T14:25:34Z</time>
      </trkpt>
      <trkpt lat="44.83617" lon="6.94849">
        <ele>1945.9</ele>
        <time>2023-02-16T14:25:36Z</time>
      </trkpt>
      <trkpt lat="44.83617" lon="6.94848">
        <ele>1945.7</ele>
        <time>2023-02-16T14:25:37Z</time>
      </trkpt>
      <trkpt lat="44.83618" lon="6.94846">
        <ele>1945.6</ele>
        <time>2023-02-16T14:25:38Z</time>
      </trkpt>
      <trkpt lat="44.83618" lon="6.9484">
        <ele>1944.4</ele>
        <time>2023-02-16T14:25:41Z</time>
      </trkpt>
      <trkpt lat="44.83619" lon="6.94837">
        <ele>1944</ele>
        <time>2023-02-16T14:25:45Z</time>
      </trkpt>
      <trkpt lat="44.83615" lon="6.94832">
        <ele>1941.9</ele>
        <time>2023-02-16T14:25:51Z</time>
      </trkpt>
      <trkpt lat="44.83617" lon="6.94825">
        <ele>1941.1</ele>
        <time>2023-02-16T14:25:53Z</time>
      </trkpt>
      <trkpt lat="44.8362" lon="6.94819">
        <ele>1940.6</ele>
        <time>2023-02-16T14:25:55Z</time>
      </trkpt>
      <trkpt lat="44.83628" lon="6.94812">
        <ele>1941.1</ele>
        <time>2023-02-16T14:25:57Z</time>
      </trkpt>
      <trkpt lat="44.83632" lon="6.94808">
        <ele>1941.1</ele>
        <time>2023-02-16T14:25:58Z</time>
      </trkpt>
      <trkpt lat="44.83637" lon="6.948">
        <ele>1940.4</ele>
        <time>2023-02-16T14:26:00Z</time>
      </trkpt>
      <trkpt lat="44.8364" lon="6.94796">
        <ele>1940.2</ele>
        <time>2023-02-16T14:26:02Z</time>
      </trkpt>
      <trkpt lat="44.83642" lon="6.9479">
        <ele>1939.5</ele>
        <time>2023-02-16T14:26:04Z</time>
      </trkpt>
      <trkpt lat="44.83642" lon="6.94786">
        <ele>1938.7</ele>
        <time>2023-02-16T14:26:06Z</time>
      </trkpt>
      <trkpt lat="44.83638" lon="6.94787">
        <ele>1937.8</ele>
        <time>2023-02-16T14:26:07Z</time>
      </trkpt>
      <trkpt lat="44.83635" lon="6.94788">
        <ele>1937.5</ele>
        <time>2023-02-16T14:26:08Z</time>
      </trkpt>
      <trkpt lat="44.8363" lon="6.94789">
        <ele>1936.9</ele>
        <time>2023-02-16T14:26:09Z</time>
      </trkpt>
      <trkpt lat="44.83627" lon="6.94789">
        <ele>1936.4</ele>
        <time>2023-02-16T14:26:10Z</time>
      </trkpt>
      <trkpt lat="44.83623" lon="6.94789">
        <ele>1935.7</ele>
        <time>2023-02-16T14:26:11Z</time>
      </trkpt>
      <trkpt lat="44.83622" lon="6.9478">
        <ele>1934</ele>
        <time>2023-02-16T14:26:13Z</time>
      </trkpt>
      <trkpt lat="44.83621" lon="6.94771">
        <ele>1932.4</ele>
        <time>2023-02-16T14:26:15Z</time>
      </trkpt>
      <trkpt lat="44.83621" lon="6.94765">
        <ele>1931.5</ele>
        <time>2023-02-16T14:26:18Z</time>
      </trkpt>
      <trkpt lat="44.83621" lon="6.94762">
        <ele>1931</ele>
        <time>2023-02-16T14:26:22Z</time>
      </trkpt>
      <trkpt lat="44.8362" lon="6.94761">
        <ele>1930.6</ele>
        <time>2023-02-16T14:26:23Z</time>
      </trkpt>
      <trkpt lat="44.83614" lon="6.94757">
        <ele>1928.8</ele>
        <time>2023-02-16T14:26:25Z</time>
      </trkpt>
      <trkpt lat="44.83613" lon="6.94755">
        <ele>1928.3</ele>
        <time>2023-02-16T14:26:26Z</time>
      </trkpt>
      <trkpt lat="44.83611" lon="6.94751">
        <ele>1927.2</ele>
        <time>2023-02-16T14:26:28Z</time>
      </trkpt>
      <trkpt lat="44.83609" lon="6.94745">
        <ele>1925.9</ele>
        <time>2023-02-16T14:26:30Z</time>
      </trkpt>
      <trkpt lat="44.83607" lon="6.94743">
        <ele>1925.6</ele>
        <time>2023-02-16T14:26:32Z</time>
      </trkpt>
      <trkpt lat="44.83607" lon="6.94743">
        <ele>1925.6</ele>
        <time>2023-02-16T14:26:34Z</time>
      </trkpt>
      <trkpt lat="44.83606" lon="6.94743">
        <ele>1925.7</ele>
        <time>2023-02-16T14:26:40Z</time>
      </trkpt>
      <trkpt lat="44.83605" lon="6.94744">
        <ele>1926.1</ele>
        <time>2023-02-16T14:26:42Z</time>
      </trkpt>
      <trkpt lat="44.83607" lon="6.94744">
        <ele>1925.9</ele>
        <time>2023-02-16T14:26:50Z</time>
      </trkpt>
      <trkpt lat="44.83605" lon="6.94743">
        <ele>1925.8</ele>
        <time>2023-02-16T14:26:57Z</time>
      </trkpt>
      <trkpt lat="44.83605" lon="6.94744">
        <ele>1926.1</ele>
        <time>2023-02-16T14:27:05Z</time>
      </trkpt>
      <trkpt lat="44.83608" lon="6.94744">
        <ele>1925.8</ele>
        <time>2023-02-16T14:27:12Z</time>
      </trkpt>
      <trkpt lat="44.83609" lon="6.94743">
        <ele>1925.4</ele>
        <time>2023-02-16T14:27:20Z</time>
      </trkpt>
      <trkpt lat="44.83612" lon="6.94739">
        <ele>1924.5</ele>
        <time>2023-02-16T14:27:26Z</time>
      </trkpt>
      <trkpt lat="44.83613" lon="6.94736">
        <ele>1924.1</ele>
        <time>2023-02-16T14:27:27Z</time>
      </trkpt>
      <trkpt lat="44.83614" lon="6.94735">
        <ele>1924.1</ele>
        <time>2023-02-16T14:27:28Z</time>
      </trkpt>
      <trkpt lat="44.83614" lon="6.94734">
        <ele>1923.9</ele>
        <time>2023-02-16T14:27:31Z</time>
      </trkpt>
      <trkpt lat="44.83611" lon="6.94732">
        <ele>1922.5</ele>
        <time>2023-02-16T14:27:40Z</time>
      </trkpt>
      <trkpt lat="44.83609" lon="6.94731">
        <ele>1922.3</ele>
        <time>2023-02-16T14:27:44Z</time>
      </trkpt>
      <trkpt lat="44.83609" lon="6.94732">
        <ele>1922.6</ele>
        <time>2023-02-16T14:27:48Z</time>
      </trkpt>
      <trkpt lat="44.8361" lon="6.94734">
        <ele>1923</ele>
        <time>2023-02-16T14:27:57Z</time>
      </trkpt>
      <trkpt lat="44.83617" lon="6.94735">
        <ele>1925.1</ele>
        <time>2023-02-16T14:28:07Z</time>
      </trkpt>
      <trkpt lat="44.83616" lon="6.94716">
        <ele>1920.6</ele>
        <time>2023-02-16T14:28:11Z</time>
      </trkpt>
      <trkpt lat="44.83617" lon="6.947">
        <ele>1917.5</ele>
        <time>2023-02-16T14:28:14Z</time>
      </trkpt>
      <trkpt lat="44.83619" lon="6.94685">
        <ele>1914.7</ele>
        <time>2023-02-16T14:28:17Z</time>
      </trkpt>
      <trkpt lat="44.83622" lon="6.94676">
        <ele>1913.7</ele>
        <time>2023-02-16T14:28:19Z</time>
      </trkpt>
      <trkpt lat="44.83634" lon="6.94658">
        <ele>1914.5</ele>
        <time>2023-02-16T14:28:23Z</time>
      </trkpt>
      <trkpt lat="44.8364" lon="6.94643">
        <ele>1914.2</ele>
        <time>2023-02-16T14:28:25Z</time>
      </trkpt>
      <trkpt lat="44.83643" lon="6.94627">
        <ele>1912.6</ele>
        <time>2023-02-16T14:28:27Z</time>
      </trkpt>
      <trkpt lat="44.83644" lon="6.94613">
        <ele>1910.5</ele>
        <time>2023-02-16T14:28:29Z</time>
      </trkpt>
      <trkpt lat="44.83645" lon="6.94602">
        <ele>1909.1</ele>
        <time>2023-02-16T14:28:31Z</time>
      </trkpt>
      <trkpt lat="44.83645" lon="6.94588">
        <ele>1906.7</ele>
        <time>2023-02-16T14:28:33Z</time>
      </trkpt>
      <trkpt lat="44.83646" lon="6.94572">
        <ele>1904.9</ele>
        <time>2023-02-16T14:28:35Z</time>
      </trkpt>
      <trkpt lat="44.83647" lon="6.94565">
        <ele>1904.5</ele>
        <time>2023-02-16T14:28:36Z</time>
      </trkpt>
      <trkpt lat="44.83647" lon="6.94557">
        <ele>1903.6</ele>
        <time>2023-02-16T14:28:37Z</time>
      </trkpt>
      <trkpt lat="44.83647" lon="6.9455">
        <ele>1902.8</ele>
        <time>2023-02-16T14:28:38Z</time>
      </trkpt>
      <trkpt lat="44.83648" lon="6.94539">
        <ele>1902.1</ele>
        <time>2023-02-16T14:28:40Z</time>
      </trkpt>
      <trkpt lat="44.83649" lon="6.94532">
        <ele>1901.9</ele>
        <time>2023-02-16T14:28:43Z</time>
      </trkpt>
      <trkpt lat="44.83649" lon="6.94533">
        <ele>1902</ele>
        <time>2023-02-16T14:28:45Z</time>
      </trkpt>
      <trkpt lat="44.8365" lon="6.94531">
        <ele>1902.3</ele>
        <time>2023-02-16T14:28:51Z</time>
      </trkpt>
      <trkpt lat="44.83651" lon="6.94529">
        <ele>1902.7</ele>
        <time>2023-02-16T14:28:53Z</time>
      </trkpt>
      <trkpt lat="44.83653" lon="6.94517">
        <ele>1901.9</ele>
        <time>2023-02-16T14:28:57Z</time>
      </trkpt>
      <trkpt lat="44.83654" lon="6.94508">
        <ele>1901</ele>
        <time>2023-02-16T14:29:00Z</time>
      </trkpt>
      <trkpt lat="44.83655" lon="6.945">
        <ele>1900.3</ele>
        <time>2023-02-16T14:29:03Z</time>
      </trkpt>
      <trkpt lat="44.83655" lon="6.94495">
        <ele>1899.6</ele>
        <time>2023-02-16T14:29:06Z</time>
      </trkpt>
      <trkpt lat="44.83655" lon="6.94494">
        <ele>1899.4</ele>
        <time>2023-02-16T14:29:08Z</time>
      </trkpt>
      <trkpt lat="44.83655" lon="6.94493">
        <ele>1899.3</ele>
        <time>2023-02-16T14:29:11Z</time>
      </trkpt>
      <trkpt lat="44.83655" lon="6.9449">
        <ele>1898.8</ele>
        <time>2023-02-16T14:29:13Z</time>
      </trkpt>
      <trkpt lat="44.83654" lon="6.94488">
        <ele>1898</ele>
        <time>2023-02-16T14:29:14Z</time>
      </trkpt>
      <trkpt lat="44.83654" lon="6.94476">
        <ele>1896.2</ele>
        <time>2023-02-16T14:29:17Z</time>
      </trkpt>
      <trkpt lat="44.83654" lon="6.94472">
        <ele>1895.7</ele>
        <time>2023-02-16T14:29:18Z</time>
      </trkpt>
      <trkpt lat="44.83657" lon="6.9446">
        <ele>1895.7</ele>
        <time>2023-02-16T14:29:22Z</time>
      </trkpt>
      <trkpt lat="44.83659" lon="6.94454">
        <ele>1896</ele>
        <time>2023-02-16T14:29:24Z</time>
      </trkpt>
      <trkpt lat="44.83661" lon="6.94447">
        <ele>1896.1</ele>
        <time>2023-02-16T14:29:26Z</time>
      </trkpt>
      <trkpt lat="44.83662" lon="6.9444">
        <ele>1895.8</ele>
        <time>2023-02-16T14:29:28Z</time>
      </trkpt>
      <trkpt lat="44.83663" lon="6.94439">
        <ele>1896.3</ele>
        <time>2023-02-16T14:29:31Z</time>
      </trkpt>
      <trkpt lat="44.83663" lon="6.94439">
        <ele>1896.3</ele>
        <time>2023-02-16T14:29:33Z</time>
      </trkpt>
      <trkpt lat="44.8366" lon="6.94442">
        <ele>1894.9</ele>
        <time>2023-02-16T14:29:35Z</time>
      </trkpt>
      <trkpt lat="44.83656" lon="6.94446">
        <ele>1893.1</ele>
        <time>2023-02-16T14:29:38Z</time>
      </trkpt>
      <trkpt lat="44.83654" lon="6.94449">
        <ele>1892.4</ele>
        <time>2023-02-16T14:29:41Z</time>
      </trkpt>
      <trkpt lat="44.83654" lon="6.9445">
        <ele>1892.5</ele>
        <time>2023-02-16T14:29:42Z</time>
      </trkpt>
      <trkpt lat="44.83652" lon="6.94453">
        <ele>1891.8</ele>
        <time>2023-02-16T14:29:50Z</time>
      </trkpt>
      <trkpt lat="44.83653" lon="6.94448">
        <ele>1891.6</ele>
        <time>2023-02-16T14:29:53Z</time>
      </trkpt>
      <trkpt lat="44.83654" lon="6.94443">
        <ele>1891.5</ele>
        <time>2023-02-16T14:29:56Z</time>
      </trkpt>
      <trkpt lat="44.83653" lon="6.94441">
        <ele>1890.8</ele>
        <time>2023-02-16T14:29:59Z</time>
      </trkpt>
      <trkpt lat="44.83652" lon="6.94438">
        <ele>1889.9</ele>
        <time>2023-02-16T14:30:03Z</time>
      </trkpt>
      <trkpt lat="44.83649" lon="6.94438">
        <ele>1888.1</ele>
        <time>2023-02-16T14:30:09Z</time>
      </trkpt>
      <trkpt lat="44.83647" lon="6.94437">
        <ele>1886.9</ele>
        <time>2023-02-16T14:30:15Z</time>
      </trkpt>
      <trkpt lat="44.83644" lon="6.94443">
        <ele>1885.8</ele>
        <time>2023-02-16T14:30:22Z</time>
      </trkpt>
      <trkpt lat="44.83643" lon="6.94444">
        <ele>1885.3</ele>
        <time>2023-02-16T14:30:23Z</time>
      </trkpt>
      <trkpt lat="44.83638" lon="6.94446">
        <ele>1883</ele>
        <time>2023-02-16T14:30:29Z</time>
      </trkpt>
      <trkpt lat="44.83637" lon="6.94446">
        <ele>1882.7</ele>
        <time>2023-02-16T14:30:31Z</time>
      </trkpt>
      <trkpt lat="44.83636" lon="6.94446">
        <ele>1882.4</ele>
        <time>2023-02-16T14:30:33Z</time>
      </trkpt>
      <trkpt lat="44.83633" lon="6.94447">
        <ele>1881.7</ele>
        <time>2023-02-16T14:30:38Z</time>
      </trkpt>
      <trkpt lat="44.83632" lon="6.94445">
        <ele>1881.1</ele>
        <time>2023-02-16T14:30:40Z</time>
      </trkpt>
      <trkpt lat="44.83633" lon="6.9444">
        <ele>1880.8</ele>
        <time>2023-02-16T14:30:42Z</time>
      </trkpt>
      <trkpt lat="44.83633" lon="6.94436">
        <ele>1880.4</ele>
        <time>2023-02-16T14:30:43Z</time>
      </trkpt>
      <trkpt lat="44.83633" lon="6.94433">
        <ele>1880.1</ele>
        <time>2023-02-16T14:30:44Z</time>
      </trkpt>
      <trkpt lat="44.83633" lon="6.94432">
        <ele>1880</ele>
        <time>2023-02-16T14:30:45Z</time>
      </trkpt>
      <trkpt lat="44.83632" lon="6.94431">
        <ele>1879.6</ele>
        <time>2023-02-16T14:30:48Z</time>
      </trkpt>
      <trkpt lat="44.83631" lon="6.94431">
        <ele>1879.3</ele>
        <time>2023-02-16T14:30:51Z</time>
      </trkpt>
      <trkpt lat="44.83632" lon="6.9443">
        <ele>1879.5</ele>
        <time>2023-02-16T14:30:55Z</time>
      </trkpt>
      <trkpt lat="44.83631" lon="6.94427">
        <ele>1878.8</ele>
        <time>2023-02-16T14:30:58Z</time>
      </trkpt>
      <trkpt lat="44.8363" lon="6.94425">
        <ele>1878.3</ele>
        <time>2023-02-16T14:30:59Z</time>
      </trkpt>
      <trkpt lat="44.8363" lon="6.94424">
        <ele>1878.2</ele>
        <time>2023-02-16T14:31:00Z</time>
      </trkpt>
      <trkpt lat="44.8363" lon="6.94422">
        <ele>1878</ele>
        <time>2023-02-16T14:31:03Z</time>
      </trkpt>
      <trkpt lat="44.8363" lon="6.9442">
        <ele>1877.8</ele>
        <time>2023-02-16T14:31:05Z</time>
      </trkpt>
      <trkpt lat="44.83629" lon="6.94419">
        <ele>1877.4</ele>
        <time>2023-02-16T14:31:06Z</time>
      </trkpt>
      <trkpt lat="44.83628" lon="6.94416">
        <ele>1876.8</ele>
        <time>2023-02-16T14:31:09Z</time>
      </trkpt>
      <trkpt lat="44.83628" lon="6.94414">
        <ele>1876.5</ele>
        <time>2023-02-16T14:31:11Z</time>
      </trkpt>
      <trkpt lat="44.83628" lon="6.94414">
        <ele>1876.5</ele>
        <time>2023-02-16T14:31:12Z</time>
      </trkpt>
      <trkpt lat="44.83627" lon="6.94409">
        <ele>1875.6</ele>
        <time>2023-02-16T14:31:17Z</time>
      </trkpt>
      <trkpt lat="44.83627" lon="6.94406">
        <ele>1875.3</ele>
        <time>2023-02-16T14:31:19Z</time>
      </trkpt>
      <trkpt lat="44.83627" lon="6.94401">
        <ele>1874.6</ele>
        <time>2023-02-16T14:31:22Z</time>
      </trkpt>
      <trkpt lat="44.83625" lon="6.94399">
        <ele>1873.8</ele>
        <time>2023-02-16T14:31:24Z</time>
      </trkpt>
      <trkpt lat="44.83623" lon="6.94391">
        <ele>1872.1</ele>
        <time>2023-02-16T14:31:26Z</time>
      </trkpt>
      <trkpt lat="44.83622" lon="6.9438">
        <ele>1870.9</ele>
        <time>2023-02-16T14:31:28Z</time>
      </trkpt>
      <trkpt lat="44.83622" lon="6.94375">
        <ele>1870.5</ele>
        <time>2023-02-16T14:31:29Z</time>
      </trkpt>
      <trkpt lat="44.8362" lon="6.94369">
        <ele>1869.4</ele>
        <time>2023-02-16T14:31:31Z</time>
      </trkpt>
      <trkpt lat="44.83617" lon="6.94354">
        <ele>1867.1</ele>
        <time>2023-02-16T14:31:35Z</time>
      </trkpt>
      <trkpt lat="44.83616" lon="6.94348">
        <ele>1866.1</ele>
        <time>2023-02-16T14:31:36Z</time>
      </trkpt>
      <trkpt lat="44.83613" lon="6.94334">
        <ele>1863.6</ele>
        <time>2023-02-16T14:31:38Z</time>
      </trkpt>
      <trkpt lat="44.83612" lon="6.94327">
        <ele>1862.8</ele>
        <time>2023-02-16T14:31:39Z</time>
      </trkpt>
      <trkpt lat="44.83616" lon="6.94323">
        <ele>1863.6</ele>
        <time>2023-02-16T14:31:40Z</time>
      </trkpt>
      <trkpt lat="44.83617" lon="6.94321">
        <ele>1863.7</ele>
        <time>2023-02-16T14:31:41Z</time>
      </trkpt>
      <trkpt lat="44.83617" lon="6.9432">
        <ele>1863.6</ele>
        <time>2023-02-16T14:31:42Z</time>
      </trkpt>
      <trkpt lat="44.83618" lon="6.94319">
        <ele>1863.8</ele>
        <time>2023-02-16T14:31:43Z</time>
      </trkpt>
      <trkpt lat="44.8362" lon="6.94309">
        <ele>1863.5</ele>
        <time>2023-02-16T14:31:46Z</time>
      </trkpt>
      <trkpt lat="44.83619" lon="6.94301">
        <ele>1862.3</ele>
        <time>2023-02-16T14:31:48Z</time>
      </trkpt>
      <trkpt lat="44.83619" lon="6.94295">
        <ele>1861.3</ele>
        <time>2023-02-16T14:31:50Z</time>
      </trkpt>
      <trkpt lat="44.83618" lon="6.94278">
        <ele>1858.3</ele>
        <time>2023-02-16T14:31:53Z</time>
      </trkpt>
      <trkpt lat="44.83616" lon="6.94259">
        <ele>1855.1</ele>
        <time>2023-02-16T14:31:56Z</time>
      </trkpt>
      <trkpt lat="44.83616" lon="6.94247">
        <ele>1853.5</ele>
        <time>2023-02-16T14:31:58Z</time>
      </trkpt>
      <trkpt lat="44.83615" lon="6.94235">
        <ele>1851.5</ele>
        <time>2023-02-16T14:32:00Z</time>
      </trkpt>
      <trkpt lat="44.83613" lon="6.94215">
        <ele>1848.8</ele>
        <time>2023-02-16T14:32:03Z</time>
      </trkpt>
      <trkpt lat="44.83613" lon="6.94208">
        <ele>1848.7</ele>
        <time>2023-02-16T14:32:04Z</time>
      </trkpt>
      <trkpt lat="44.83612" lon="6.942">
        <ele>1848.3</ele>
        <time>2023-02-16T14:32:05Z</time>
      </trkpt>
      <trkpt lat="44.8361" lon="6.94186">
        <ele>1847.9</ele>
        <time>2023-02-16T14:32:07Z</time>
      </trkpt>
      <trkpt lat="44.83609" lon="6.94183">
        <ele>1847.8</ele>
        <time>2023-02-16T14:32:08Z</time>
      </trkpt>
      <trkpt lat="44.8361" lon="6.94181">
        <ele>1847.9</ele>
        <time>2023-02-16T14:32:12Z</time>
      </trkpt>
      <trkpt lat="44.8361" lon="6.94182">
        <ele>1847.9</ele>
        <time>2023-02-16T14:32:20Z</time>
      </trkpt>
      <trkpt lat="44.83607" lon="6.94181">
        <ele>1847.6</ele>
        <time>2023-02-16T14:32:21Z</time>
      </trkpt>
      <trkpt lat="44.83604" lon="6.94176">
        <ele>1847.1</ele>
        <time>2023-02-16T14:32:24Z</time>
      </trkpt>
      <trkpt lat="44.83604" lon="6.94176">
        <ele>1847.1</ele>
        <time>2023-02-16T14:32:25Z</time>
      </trkpt>
      <trkpt lat="44.83605" lon="6.94175">
        <ele>1847.2</ele>
        <time>2023-02-16T14:32:30Z</time>
      </trkpt>
      <trkpt lat="44.83602" lon="6.94173">
        <ele>1846.7</ele>
        <time>2023-02-16T14:32:37Z</time>
      </trkpt>
      <trkpt lat="44.83602" lon="6.94173">
        <ele>1846.7</ele>
        <time>2023-02-16T14:32:38Z</time>
      </trkpt>
      <trkpt lat="44.83601" lon="6.94171">
        <ele>1846.4</ele>
        <time>2023-02-16T14:32:44Z</time>
      </trkpt>
      <trkpt lat="44.836" lon="6.9417">
        <ele>1846.2</ele>
        <time>2023-02-16T14:32:52Z</time>
      </trkpt>
      <trkpt lat="44.836" lon="6.94173">
        <ele>1846.4</ele>
        <time>2023-02-16T14:32:59Z</time>
      </trkpt>
      <trkpt lat="44.83598" lon="6.94172">
        <ele>1846</ele>
        <time>2023-02-16T14:33:08Z</time>
      </trkpt>
      <trkpt lat="44.83599" lon="6.94171">
        <ele>1846.1</ele>
        <time>2023-02-16T14:33:10Z</time>
      </trkpt>
      <trkpt lat="44.83599" lon="6.94167">
        <ele>1845.8</ele>
        <time>2023-02-16T14:33:23Z</time>
      </trkpt>
      <trkpt lat="44.836" lon="6.94168">
        <ele>1846.1</ele>
        <time>2023-02-16T14:33:30Z</time>
      </trkpt>
      <trkpt lat="44.83601" lon="6.94167">
        <ele>1846.2</ele>
        <time>2023-02-16T14:33:38Z</time>
      </trkpt>
      <trkpt lat="44.83604" lon="6.94168">
        <ele>1846.8</ele>
        <time>2023-02-16T14:33:43Z</time>
      </trkpt>
      <trkpt lat="44.83609" lon="6.94169">
        <ele>1847.6</ele>
        <time>2023-02-16T14:33:51Z</time>
      </trkpt>
      <trkpt lat="44.83612" lon="6.94168">
        <ele>1848.3</ele>
        <time>2023-02-16T14:33:56Z</time>
      </trkpt>
      <trkpt lat="44.83614" lon="6.94169">
        <ele>1849</ele>
        <time>2023-02-16T14:34:04Z</time>
      </trkpt>
      <trkpt lat="44.83614" lon="6.94169">
        <ele>1849</ele>
        <time>2023-02-16T14:34:17Z</time>
      </trkpt>
      <trkpt lat="44.83614" lon="6.94169">
        <ele>1849</ele>
        <time>2023-02-16T14:34:18Z</time>
      </trkpt>
      <trkpt lat="44.83613" lon="6.94169">
        <ele>1848.7</ele>
        <time>2023-02-16T14:34:34Z</time>
      </trkpt>
      <trkpt lat="44.83613" lon="6.9417">
        <ele>1848.7</ele>
        <time>2023-02-16T14:34:49Z</time>
      </trkpt>
      <trkpt lat="44.83614" lon="6.94171">
        <ele>1849</ele>
        <time>2023-02-16T14:35:02Z</time>
      </trkpt>
      <trkpt lat="44.83614" lon="6.94166">
        <ele>1849.1</ele>
        <time>2023-02-16T14:35:14Z</time>
      </trkpt>
      <trkpt lat="44.83614" lon="6.94164">
        <ele>1849.3</ele>
        <time>2023-02-16T14:35:16Z</time>
      </trkpt>
      <trkpt lat="44.83611" lon="6.94161">
        <ele>1848.6</ele>
        <time>2023-02-16T14:35:18Z</time>
      </trkpt>
      <trkpt lat="44.83608" lon="6.94155">
        <ele>1848.5</ele>
        <time>2023-02-16T14:35:21Z</time>
      </trkpt>
      <trkpt lat="44.83607" lon="6.94152">
        <ele>1848.5</ele>
        <time>2023-02-16T14:35:22Z</time>
      </trkpt>
      <trkpt lat="44.83602" lon="6.94137">
        <ele>1848.3</ele>
        <time>2023-02-16T14:35:26Z</time>
      </trkpt>
      <trkpt lat="44.83601" lon="6.94135">
        <ele>1848.3</ele>
        <time>2023-02-16T14:35:27Z</time>
      </trkpt>
      <trkpt lat="44.83599" lon="6.94138">
        <ele>1847.2</ele>
        <time>2023-02-16T14:35:29Z</time>
      </trkpt>
      <trkpt lat="44.83598" lon="6.94141">
        <ele>1846.7</ele>
        <time>2023-02-16T14:35:30Z</time>
      </trkpt>
      <trkpt lat="44.83596" lon="6.94148">
        <ele>1845.8</ele>
        <time>2023-02-16T14:35:32Z</time>
      </trkpt>
      <trkpt lat="44.83594" lon="6.94152">
        <ele>1845.2</ele>
        <time>2023-02-16T14:35:34Z</time>
      </trkpt>
      <trkpt lat="44.83591" lon="6.94153">
        <ele>1844.4</ele>
        <time>2023-02-16T14:35:35Z</time>
      </trkpt>
      <trkpt lat="44.83587" lon="6.9415">
        <ele>1843.4</ele>
        <time>2023-02-16T14:35:38Z</time>
      </trkpt>
      <trkpt lat="44.83584" lon="6.94148">
        <ele>1842.5</ele>
        <time>2023-02-16T14:35:41Z</time>
      </trkpt>
      <trkpt lat="44.83584" lon="6.94147">
        <ele>1842.5</ele>
        <time>2023-02-16T14:35:42Z</time>
      </trkpt>
      <trkpt lat="44.83582" lon="6.94143">
        <ele>1842.1</ele>
        <time>2023-02-16T14:35:45Z</time>
      </trkpt>
      <trkpt lat="44.8358" lon="6.9414">
        <ele>1841.8</ele>
        <time>2023-02-16T14:35:47Z</time>
      </trkpt>
      <trkpt lat="44.83577" lon="6.94135">
        <ele>1841.6</ele>
        <time>2023-02-16T14:35:53Z</time>
      </trkpt>
      <trkpt lat="44.83577" lon="6.94136">
        <ele>1841.6</ele>
        <time>2023-02-16T14:35:55Z</time>
      </trkpt>
      <trkpt lat="44.83578" lon="6.94142">
        <ele>1841.8</ele>
        <time>2023-02-16T14:35:57Z</time>
      </trkpt>
      <trkpt lat="44.83575" lon="6.94144">
        <ele>1841.9</ele>
        <time>2023-02-16T14:36:01Z</time>
      </trkpt>
      <trkpt lat="44.83575" lon="6.94145">
        <ele>1841.9</ele>
        <time>2023-02-16T14:36:02Z</time>
      </trkpt>
      <trkpt lat="44.83571" lon="6.94148">
        <ele>1842.2</ele>
        <time>2023-02-16T14:36:06Z</time>
      </trkpt>
      <trkpt lat="44.83569" lon="6.94151">
        <ele>1842.5</ele>
        <time>2023-02-16T14:36:12Z</time>
      </trkpt>
      <trkpt lat="44.83562" lon="6.94152">
        <ele>1842.7</ele>
        <time>2023-02-16T14:36:19Z</time>
      </trkpt>
      <trkpt lat="44.83557" lon="6.9415">
        <ele>1842.4</ele>
        <time>2023-02-16T14:36:21Z</time>
      </trkpt>
      <trkpt lat="44.83539" lon="6.94133">
        <ele>1841.6</ele>
        <time>2023-02-16T14:36:26Z</time>
      </trkpt>
      <trkpt lat="44.8353" lon="6.94123">
        <ele>1840.2</ele>
        <time>2023-02-16T14:36:28Z</time>
      </trkpt>
      <trkpt lat="44.83519" lon="6.94112">
        <ele>1838.5</ele>
        <time>2023-02-16T14:36:30Z</time>
      </trkpt>
      <trkpt lat="44.83502" lon="6.94098">
        <ele>1837.5</ele>
        <time>2023-02-16T14:36:33Z</time>
      </trkpt>
      <trkpt lat="44.83492" lon="6.94092">
        <ele>1836.1</ele>
        <time>2023-02-16T14:36:35Z</time>
      </trkpt>
      <trkpt lat="44.83488" lon="6.9409">
        <ele>1835.5</ele>
        <time>2023-02-16T14:36:36Z</time>
      </trkpt>
      <trkpt lat="44.83476" lon="6.94087">
        <ele>1834.3</ele>
        <time>2023-02-16T14:36:39Z</time>
      </trkpt>
      <trkpt lat="44.8346" lon="6.94084">
        <ele>1833.2</ele>
        <time>2023-02-16T14:36:45Z</time>
      </trkpt>
      <trkpt lat="44.83448" lon="6.94084">
        <ele>1833.2</ele>
        <time>2023-02-16T14:36:51Z</time>
      </trkpt>
      <trkpt lat="44.8344" lon="6.94083">
        <ele>1832.8</ele>
        <time>2023-02-16T14:36:56Z</time>
      </trkpt>
      <trkpt lat="44.83427" lon="6.94083">
        <ele>1832.3</ele>
        <time>2023-02-16T14:37:01Z</time>
      </trkpt>
      <trkpt lat="44.83412" lon="6.94087">
        <ele>1833.3</ele>
        <time>2023-02-16T14:37:07Z</time>
      </trkpt>
      <trkpt lat="44.83403" lon="6.9409">
        <ele>1834.8</ele>
        <time>2023-02-16T14:37:11Z</time>
      </trkpt>
      <trkpt lat="44.83392" lon="6.9409">
        <ele>1835.4</ele>
        <time>2023-02-16T14:37:15Z</time>
      </trkpt>
      <trkpt lat="44.83379" lon="6.94089">
        <ele>1836.6</ele>
        <time>2023-02-16T14:37:22Z</time>
      </trkpt>
      <trkpt lat="44.83364" lon="6.94083">
        <ele>1836.5</ele>
        <time>2023-02-16T14:37:29Z</time>
      </trkpt>
      <trkpt lat="44.83356" lon="6.94082">
        <ele>1837.3</ele>
        <time>2023-02-16T14:37:35Z</time>
      </trkpt>
      <trkpt lat="44.83352" lon="6.94082">
        <ele>1837.9</ele>
        <time>2023-02-16T14:37:40Z</time>
      </trkpt>
      <trkpt lat="44.83346" lon="6.9408">
        <ele>1838.1</ele>
        <time>2023-02-16T14:37:49Z</time>
      </trkpt>
      <trkpt lat="44.83343" lon="6.9408">
        <ele>1838.5</ele>
        <time>2023-02-16T14:37:54Z</time>
      </trkpt>
      <trkpt lat="44.83337" lon="6.94079">
        <ele>1839.1</ele>
        <time>2023-02-16T14:38:01Z</time>
      </trkpt>
      <trkpt lat="44.83326" lon="6.94073">
        <ele>1838.9</ele>
        <time>2023-02-16T14:38:12Z</time>
      </trkpt>
      <trkpt lat="44.83325" lon="6.94072">
        <ele>1838.7</ele>
        <time>2023-02-16T14:38:14Z</time>
      </trkpt>
      <trkpt lat="44.8332" lon="6.9407">
        <ele>1838.8</ele>
        <time>2023-02-16T14:38:20Z</time>
      </trkpt>
      <trkpt lat="44.83314" lon="6.94059">
        <ele>1836</ele>
        <time>2023-02-16T14:38:33Z</time>
      </trkpt>
      <trkpt lat="44.83313" lon="6.94055">
        <ele>1834.7</ele>
        <time>2023-02-16T14:38:41Z</time>
      </trkpt>
      <trkpt lat="44.83312" lon="6.94051">
        <ele>1833.5</ele>
        <time>2023-02-16T14:38:44Z</time>
      </trkpt>
      <trkpt lat="44.83305" lon="6.94045">
        <ele>1832.2</ele>
        <time>2023-02-16T14:38:54Z</time>
      </trkpt>
      <trkpt lat="44.83305" lon="6.94044">
        <ele>1831.9</ele>
        <time>2023-02-16T14:38:55Z</time>
      </trkpt>
      <trkpt lat="44.83288" lon="6.94037">
        <ele>1830.2</ele>
        <time>2023-02-16T14:39:10Z</time>
      </trkpt>
      <trkpt lat="44.83274" lon="6.94036">
        <ele>1830.3</ele>
        <time>2023-02-16T14:39:15Z</time>
      </trkpt>
      <trkpt lat="44.8325" lon="6.9404">
        <ele>1831.8</ele>
        <time>2023-02-16T14:39:22Z</time>
      </trkpt>
      <trkpt lat="44.83239" lon="6.94043">
        <ele>1832</ele>
        <time>2023-02-16T14:39:25Z</time>
      </trkpt>
      <trkpt lat="44.83224" lon="6.94049">
        <ele>1832.3</ele>
        <time>2023-02-16T14:39:29Z</time>
      </trkpt>
      <trkpt lat="44.83214" lon="6.9405">
        <ele>1831.9</ele>
        <time>2023-02-16T14:39:32Z</time>
      </trkpt>
      <trkpt lat="44.832" lon="6.94053">
        <ele>1831.7</ele>
        <time>2023-02-16T14:39:36Z</time>
      </trkpt>
      <trkpt lat="44.83197" lon="6.94053">
        <ele>1831.5</ele>
        <time>2023-02-16T14:39:37Z</time>
      </trkpt>
      <trkpt lat="44.83175" lon="6.94058">
        <ele>1830.7</ele>
        <time>2023-02-16T14:39:42Z</time>
      </trkpt>
      <trkpt lat="44.83148" lon="6.9406">
        <ele>1827.2</ele>
        <time>2023-02-16T14:39:48Z</time>
      </trkpt>
      <trkpt lat="44.83145" lon="6.94061">
        <ele>1827</ele>
        <time>2023-02-16T14:39:49Z</time>
      </trkpt>
      <trkpt lat="44.8313" lon="6.94065">
        <ele>1825.8</ele>
        <time>2023-02-16T14:39:54Z</time>
      </trkpt>
      <trkpt lat="44.83126" lon="6.94067">
        <ele>1825.8</ele>
        <time>2023-02-16T14:39:56Z</time>
      </trkpt>
      <trkpt lat="44.83113" lon="6.94078">
        <ele>1827.4</ele>
        <time>2023-02-16T14:40:02Z</time>
      </trkpt>
      <trkpt lat="44.83096" lon="6.94087">
        <ele>1828.5</ele>
        <time>2023-02-16T14:40:09Z</time>
      </trkpt>
      <trkpt lat="44.83086" lon="6.94086">
        <ele>1826.6</ele>
        <time>2023-02-16T14:40:12Z</time>
      </trkpt>
      <trkpt lat="44.83079" lon="6.94085">
        <ele>1825.3</ele>
        <time>2023-02-16T14:40:14Z</time>
      </trkpt>
      <trkpt lat="44.83067" lon="6.94086">
        <ele>1824.5</ele>
        <time>2023-02-16T14:40:17Z</time>
      </trkpt>
      <trkpt lat="44.83053" lon="6.94088">
        <ele>1824.1</ele>
        <time>2023-02-16T14:40:20Z</time>
      </trkpt>
      <trkpt lat="44.83048" lon="6.94088">
        <ele>1823.9</ele>
        <time>2023-02-16T14:40:21Z</time>
      </trkpt>
      <trkpt lat="44.83039" lon="6.94089">
        <ele>1823.9</ele>
        <time>2023-02-16T14:40:23Z</time>
      </trkpt>
      <trkpt lat="44.83021" lon="6.94089">
        <ele>1823.2</ele>
        <time>2023-02-16T14:40:26Z</time>
      </trkpt>
      <trkpt lat="44.83015" lon="6.94087">
        <ele>1822.1</ele>
        <time>2023-02-16T14:40:27Z</time>
      </trkpt>
      <trkpt lat="44.82996" lon="6.94084">
        <ele>1820</ele>
        <time>2023-02-16T14:40:30Z</time>
      </trkpt>
      <trkpt lat="44.82983" lon="6.94084">
        <ele>1819</ele>
        <time>2023-02-16T14:40:32Z</time>
      </trkpt>
      <trkpt lat="44.82976" lon="6.94084">
        <ele>1818.5</ele>
        <time>2023-02-16T14:40:33Z</time>
      </trkpt>
      <trkpt lat="44.82969" lon="6.94083">
        <ele>1817.6</ele>
        <time>2023-02-16T14:40:34Z</time>
      </trkpt>
      <trkpt lat="44.82954" lon="6.94084">
        <ele>1817</ele>
        <time>2023-02-16T14:40:36Z</time>
      </trkpt>
      <trkpt lat="44.82938" lon="6.94086">
        <ele>1816.6</ele>
        <time>2023-02-16T14:40:38Z</time>
      </trkpt>
      <trkpt lat="44.82921" lon="6.94088">
        <ele>1816.2</ele>
        <time>2023-02-16T14:40:40Z</time>
      </trkpt>
      <trkpt lat="44.82913" lon="6.94089">
        <ele>1815.9</ele>
        <time>2023-02-16T14:40:41Z</time>
      </trkpt>
      <trkpt lat="44.82905" lon="6.9409">
        <ele>1815.6</ele>
        <time>2023-02-16T14:40:42Z</time>
      </trkpt>
      <trkpt lat="44.8288" lon="6.94094">
        <ele>1815</ele>
        <time>2023-02-16T14:40:45Z</time>
      </trkpt>
      <trkpt lat="44.82858" lon="6.94096">
        <ele>1814.8</ele>
        <time>2023-02-16T14:40:48Z</time>
      </trkpt>
      <trkpt lat="44.82843" lon="6.94095">
        <ele>1815.4</ele>
        <time>2023-02-16T14:40:50Z</time>
      </trkpt>
      <trkpt lat="44.82819" lon="6.94092">
        <ele>1813.3</ele>
        <time>2023-02-16T14:40:55Z</time>
      </trkpt>
      <trkpt lat="44.82798" lon="6.94091">
        <ele>1809.9</ele>
        <time>2023-02-16T14:41:00Z</time>
      </trkpt>
      <trkpt lat="44.82798" lon="6.94093">
        <ele>1810.5</ele>
        <time>2023-02-16T14:41:01Z</time>
      </trkpt>
      <trkpt lat="44.82789" lon="6.94101">
        <ele>1811.5</ele>
        <time>2023-02-16T14:41:05Z</time>
      </trkpt>
      <trkpt lat="44.82778" lon="6.94097">
        <ele>1808.5</ele>
        <time>2023-02-16T14:41:06Z</time>
      </trkpt>
      <trkpt lat="44.82776" lon="6.94096">
        <ele>1807.8</ele>
        <time>2023-02-16T14:41:07Z</time>
      </trkpt>
      <trkpt lat="44.82769" lon="6.94096">
        <ele>1806.5</ele>
        <time>2023-02-16T14:41:09Z</time>
      </trkpt>
      <trkpt lat="44.8276" lon="6.94094">
        <ele>1804.3</ele>
        <time>2023-02-16T14:41:11Z</time>
      </trkpt>
      <trkpt lat="44.82755" lon="6.94094">
        <ele>1803.4</ele>
        <time>2023-02-16T14:41:12Z</time>
      </trkpt>
      <trkpt lat="44.82751" lon="6.94094">
        <ele>1802.6</ele>
        <time>2023-02-16T14:41:13Z</time>
      </trkpt>
      <trkpt lat="44.82747" lon="6.94095">
        <ele>1802</ele>
        <time>2023-02-16T14:41:14Z</time>
      </trkpt>
      <trkpt lat="44.82743" lon="6.94097">
        <ele>1801.5</ele>
        <time>2023-02-16T14:41:15Z</time>
      </trkpt>
      <trkpt lat="44.82739" lon="6.94098">
        <ele>1800.8</ele>
        <time>2023-02-16T14:41:16Z</time>
      </trkpt>
      <trkpt lat="44.82736" lon="6.941">
        <ele>1800.7</ele>
        <time>2023-02-16T14:41:17Z</time>
      </trkpt>
      <trkpt lat="44.82732" lon="6.94101">
        <ele>1800</ele>
        <time>2023-02-16T14:41:18Z</time>
      </trkpt>
      <trkpt lat="44.82727" lon="6.94102">
        <ele>1799</ele>
        <time>2023-02-16T14:41:19Z</time>
      </trkpt>
      <trkpt lat="44.82718" lon="6.94105">
        <ele>1797.6</ele>
        <time>2023-02-16T14:41:21Z</time>
      </trkpt>
      <trkpt lat="44.82709" lon="6.94111">
        <ele>1797.2</ele>
        <time>2023-02-16T14:41:23Z</time>
      </trkpt>
      <trkpt lat="44.82705" lon="6.94113">
        <ele>1796.6</ele>
        <time>2023-02-16T14:41:24Z</time>
      </trkpt>
      <trkpt lat="44.82702" lon="6.94114">
        <ele>1796</ele>
        <time>2023-02-16T14:41:25Z</time>
      </trkpt>
      <trkpt lat="44.82698" lon="6.94116">
        <ele>1795.4</ele>
        <time>2023-02-16T14:41:27Z</time>
      </trkpt>
      <trkpt lat="44.82696" lon="6.94118">
        <ele>1795.4</ele>
        <time>2023-02-16T14:41:30Z</time>
      </trkpt>
      <trkpt lat="44.82694" lon="6.9412">
        <ele>1795.4</ele>
        <time>2023-02-16T14:41:36Z</time>
      </trkpt>
      <trkpt lat="44.82683" lon="6.94116">
        <ele>1790.5</ele>
        <time>2023-02-16T14:41:43Z</time>
      </trkpt>
      <trkpt lat="44.82682" lon="6.94118">
        <ele>1790.8</ele>
        <time>2023-02-16T14:41:46Z</time>
      </trkpt>
      <trkpt lat="44.82683" lon="6.94122">
        <ele>1792.5</ele>
        <time>2023-02-16T14:41:49Z</time>
      </trkpt>
      <trkpt lat="44.82683" lon="6.94124">
        <ele>1793.2</ele>
        <time>2023-02-16T14:41:51Z</time>
      </trkpt>
      <trkpt lat="44.82683" lon="6.94128">
        <ele>1794.5</ele>
        <time>2023-02-16T14:41:54Z</time>
      </trkpt>
      <trkpt lat="44.82675" lon="6.94137">
        <ele>1795.4</ele>
        <time>2023-02-16T14:42:00Z</time>
      </trkpt>
      <trkpt lat="44.8267" lon="6.9414">
        <ele>1795.2</ele>
        <time>2023-02-16T14:42:02Z</time>
      </trkpt>
      <trkpt lat="44.82663" lon="6.94147">
        <ele>1796.6</ele>
        <time>2023-02-16T14:42:06Z</time>
      </trkpt>
      <trkpt lat="44.82649" lon="6.94149">
        <ele>1796</ele>
        <time>2023-02-16T14:42:12Z</time>
      </trkpt>
      <trkpt lat="44.82642" lon="6.94149">
        <ele>1795.3</ele>
        <time>2023-02-16T14:42:14Z</time>
      </trkpt>
      <trkpt lat="44.82627" lon="6.94148">
        <ele>1795</ele>
        <time>2023-02-16T14:42:18Z</time>
      </trkpt>
      <trkpt lat="44.82623" lon="6.94147">
        <ele>1794.8</ele>
        <time>2023-02-16T14:42:19Z</time>
      </trkpt>
      <trkpt lat="44.82599" lon="6.9414">
        <ele>1792</ele>
        <time>2023-02-16T14:42:24Z</time>
      </trkpt>
      <trkpt lat="44.82588" lon="6.94137">
        <ele>1790.4</ele>
        <time>2023-02-16T14:42:26Z</time>
      </trkpt>
      <trkpt lat="44.82583" lon="6.94135">
        <ele>1789.2</ele>
        <time>2023-02-16T14:42:27Z</time>
      </trkpt>
      <trkpt lat="44.82578" lon="6.94134">
        <ele>1787.7</ele>
        <time>2023-02-16T14:42:28Z</time>
      </trkpt>
      <trkpt lat="44.82567" lon="6.94132">
        <ele>1784.5</ele>
        <time>2023-02-16T14:42:30Z</time>
      </trkpt>
      <trkpt lat="44.82562" lon="6.94132">
        <ele>1783.4</ele>
        <time>2023-02-16T14:42:31Z</time>
      </trkpt>
      <trkpt lat="44.82557" lon="6.94133">
        <ele>1782.8</ele>
        <time>2023-02-16T14:42:32Z</time>
      </trkpt>
      <trkpt lat="44.82551" lon="6.94135">
        <ele>1782.7</ele>
        <time>2023-02-16T14:42:33Z</time>
      </trkpt>
      <trkpt lat="44.8254" lon="6.94144">
        <ele>1784.7</ele>
        <time>2023-02-16T14:42:35Z</time>
      </trkpt>
      <trkpt lat="44.82535" lon="6.9415">
        <ele>1786.1</ele>
        <time>2023-02-16T14:42:36Z</time>
      </trkpt>
      <trkpt lat="44.82529" lon="6.94155">
        <ele>1787</ele>
        <time>2023-02-16T14:42:37Z</time>
      </trkpt>
      <trkpt lat="44.82515" lon="6.94164">
        <ele>1791.3</ele>
        <time>2023-02-16T14:42:39Z</time>
      </trkpt>
      <trkpt lat="44.82508" lon="6.94161">
        <ele>1790.7</ele>
        <time>2023-02-16T14:42:40Z</time>
      </trkpt>
      <trkpt lat="44.82504" lon="6.94155">
        <ele>1788.3</ele>
        <time>2023-02-16T14:42:41Z</time>
      </trkpt>
      <trkpt lat="44.82499" lon="6.9415">
        <ele>1786.1</ele>
        <time>2023-02-16T14:42:42Z</time>
      </trkpt>
      <trkpt lat="44.82495" lon="6.94144">
        <ele>1783.1</ele>
        <time>2023-02-16T14:42:43Z</time>
      </trkpt>
      <trkpt lat="44.82484" lon="6.94135">
        <ele>1778</ele>
        <time>2023-02-16T14:42:45Z</time>
      </trkpt>
      <trkpt lat="44.82479" lon="6.94132">
        <ele>1776.1</ele>
        <time>2023-02-16T14:42:46Z</time>
      </trkpt>
      <trkpt lat="44.82472" lon="6.94131">
        <ele>1775</ele>
        <time>2023-02-16T14:42:47Z</time>
      </trkpt>
      <trkpt lat="44.82466" lon="6.94131">
        <ele>1773.6</ele>
        <time>2023-02-16T14:42:48Z</time>
      </trkpt>
      <trkpt lat="44.82459" lon="6.94132">
        <ele>1772.6</ele>
        <time>2023-02-16T14:42:49Z</time>
      </trkpt>
      <trkpt lat="44.82453" lon="6.94134">
        <ele>1772.1</ele>
        <time>2023-02-16T14:42:50Z</time>
      </trkpt>
      <trkpt lat="44.82447" lon="6.94137">
        <ele>1771.9</ele>
        <time>2023-02-16T14:42:51Z</time>
      </trkpt>
      <trkpt lat="44.82441" lon="6.94142">
        <ele>1771.9</ele>
        <time>2023-02-16T14:42:52Z</time>
      </trkpt>
      <trkpt lat="44.8243" lon="6.94156">
        <ele>1773.2</ele>
        <time>2023-02-16T14:42:54Z</time>
      </trkpt>
      <trkpt lat="44.82418" lon="6.94174">
        <ele>1776.2</ele>
        <time>2023-02-16T14:42:57Z</time>
      </trkpt>
      <trkpt lat="44.82409" lon="6.9418">
        <ele>1778.2</ele>
        <time>2023-02-16T14:42:59Z</time>
      </trkpt>
      <trkpt lat="44.82394" lon="6.94178">
        <ele>1776.4</ele>
        <time>2023-02-16T14:43:03Z</time>
      </trkpt>
      <trkpt lat="44.82376" lon="6.94175">
        <ele>1772.9</ele>
        <time>2023-02-16T14:43:08Z</time>
      </trkpt>
      <trkpt lat="44.82372" lon="6.94176">
        <ele>1772.5</ele>
        <time>2023-02-16T14:43:09Z</time>
      </trkpt>
      <trkpt lat="44.82351" lon="6.94185">
        <ele>1770.6</ele>
        <time>2023-02-16T14:43:13Z</time>
      </trkpt>
      <trkpt lat="44.82345" lon="6.94188">
        <ele>1769.8</ele>
        <time>2023-02-16T14:43:14Z</time>
      </trkpt>
      <trkpt lat="44.82339" lon="6.94191">
        <ele>1768.8</ele>
        <time>2023-02-16T14:43:15Z</time>
      </trkpt>
      <trkpt lat="44.82328" lon="6.94203">
        <ele>1768</ele>
        <time>2023-02-16T14:43:17Z</time>
      </trkpt>
      <trkpt lat="44.82323" lon="6.94209">
        <ele>1767.8</ele>
        <time>2023-02-16T14:43:18Z</time>
      </trkpt>
      <trkpt lat="44.82312" lon="6.9422">
        <ele>1767.3</ele>
        <time>2023-02-16T14:43:20Z</time>
      </trkpt>
      <trkpt lat="44.82292" lon="6.94235">
        <ele>1765.8</ele>
        <time>2023-02-16T14:43:23Z</time>
      </trkpt>
      <trkpt lat="44.82285" lon="6.94237">
        <ele>1764.6</ele>
        <time>2023-02-16T14:43:24Z</time>
      </trkpt>
      <trkpt lat="44.82269" lon="6.94242">
        <ele>1761.8</ele>
        <time>2023-02-16T14:43:27Z</time>
      </trkpt>
      <trkpt lat="44.82266" lon="6.94244">
        <ele>1761.6</ele>
        <time>2023-02-16T14:43:28Z</time>
      </trkpt>
      <trkpt lat="44.82256" lon="6.94257">
        <ele>1762.7</ele>
        <time>2023-02-16T14:43:32Z</time>
      </trkpt>
      <trkpt lat="44.82249" lon="6.94263">
        <ele>1762.5</ele>
        <time>2023-02-16T14:43:35Z</time>
      </trkpt>
      <trkpt lat="44.82243" lon="6.94268">
        <ele>1762.2</ele>
        <time>2023-02-16T14:43:37Z</time>
      </trkpt>
      <trkpt lat="44.82235" lon="6.94276">
        <ele>1762.2</ele>
        <time>2023-02-16T14:43:40Z</time>
      </trkpt>
      <trkpt lat="44.82224" lon="6.94287">
        <ele>1762.8</ele>
        <time>2023-02-16T14:43:44Z</time>
      </trkpt>
      <trkpt lat="44.82216" lon="6.94293">
        <ele>1763.3</ele>
        <time>2023-02-16T14:43:47Z</time>
      </trkpt>
      <trkpt lat="44.82214" lon="6.94295">
        <ele>1763.6</ele>
        <time>2023-02-16T14:43:49Z</time>
      </trkpt>
      <trkpt lat="44.82214" lon="6.94296">
        <ele>1764</ele>
        <time>2023-02-16T14:43:56Z</time>
      </trkpt>
      <trkpt lat="44.82215" lon="6.94296">
        <ele>1764.2</ele>
        <time>2023-02-16T14:44:07Z</time>
      </trkpt>
      <trkpt lat="44.82215" lon="6.94296">
        <ele>1764.2</ele>
        <time>2023-02-16T14:44:08Z</time>
      </trkpt>
      <trkpt lat="44.82214" lon="6.94294">
        <ele>1763.2</ele>
        <time>2023-02-16T14:44:20Z</time>
      </trkpt>
      <trkpt lat="44.82213" lon="6.94296">
        <ele>1763.8</ele>
        <time>2023-02-16T14:44:33Z</time>
      </trkpt>
      <trkpt lat="44.82213" lon="6.94296">
        <ele>1763.8</ele>
        <time>2023-02-16T14:44:45Z</time>
      </trkpt>
      <trkpt lat="44.82207" lon="6.94297">
        <ele>1763</ele>
        <time>2023-02-16T14:44:56Z</time>
      </trkpt>
      <trkpt lat="44.82208" lon="6.94298">
        <ele>1763.6</ele>
        <time>2023-02-16T14:45:06Z</time>
      </trkpt>
      <trkpt lat="44.82205" lon="6.94298">
        <ele>1763</ele>
        <time>2023-02-16T14:45:20Z</time>
      </trkpt>
      <trkpt lat="44.82196" lon="6.94302">
        <ele>1762.9</ele>
        <time>2023-02-16T14:45:33Z</time>
      </trkpt>
      <trkpt lat="44.82193" lon="6.94301">
        <ele>1761.9</ele>
        <time>2023-02-16T14:45:35Z</time>
      </trkpt>
      <trkpt lat="44.82188" lon="6.94304">
        <ele>1762</ele>
        <time>2023-02-16T14:45:43Z</time>
      </trkpt>
      <trkpt lat="44.82176" lon="6.94315">
        <ele>1763.6</ele>
        <time>2023-02-16T14:45:59Z</time>
      </trkpt>
      <trkpt lat="44.82172" lon="6.94316">
        <ele>1763.1</ele>
        <time>2023-02-16T14:46:03Z</time>
      </trkpt>
      <trkpt lat="44.82164" lon="6.94321">
        <ele>1762.8</ele>
        <time>2023-02-16T14:46:12Z</time>
      </trkpt>
      <trkpt lat="44.82152" lon="6.94331">
        <ele>1763</ele>
        <time>2023-02-16T14:46:28Z</time>
      </trkpt>
      <trkpt lat="44.82138" lon="6.94339">
        <ele>1760.8</ele>
        <time>2023-02-16T14:46:44Z</time>
      </trkpt>
      <trkpt lat="44.8213" lon="6.94346">
        <ele>1759.9</ele>
        <time>2023-02-16T14:46:54Z</time>
      </trkpt>
      <trkpt lat="44.82125" lon="6.94347">
        <ele>1758.7</ele>
        <time>2023-02-16T14:46:59Z</time>
      </trkpt>
      <trkpt lat="44.82122" lon="6.9435">
        <ele>1758.4</ele>
        <time>2023-02-16T14:47:04Z</time>
      </trkpt>
      <trkpt lat="44.8212" lon="6.94357">
        <ele>1758.9</ele>
        <time>2023-02-16T14:47:13Z</time>
      </trkpt>
      <trkpt lat="44.8212" lon="6.9436">
        <ele>1759.4</ele>
        <time>2023-02-16T14:47:18Z</time>
      </trkpt>
      <trkpt lat="44.82118" lon="6.94365">
        <ele>1759.4</ele>
        <time>2023-02-16T14:47:25Z</time>
      </trkpt>
      <trkpt lat="44.82119" lon="6.9437">
        <ele>1760.2</ele>
        <time>2023-02-16T14:47:33Z</time>
      </trkpt>
      <trkpt lat="44.82119" lon="6.94373">
        <ele>1760.6</ele>
        <time>2023-02-16T14:47:37Z</time>
      </trkpt>
      <trkpt lat="44.82119" lon="6.94381">
        <ele>1761.4</ele>
        <time>2023-02-16T14:47:47Z</time>
      </trkpt>
      <trkpt lat="44.82117" lon="6.94384">
        <ele>1761.2</ele>
        <time>2023-02-16T14:47:49Z</time>
      </trkpt>
      <trkpt lat="44.82112" lon="6.94384">
        <ele>1759.7</ele>
        <time>2023-02-16T14:47:57Z</time>
      </trkpt>
      <trkpt lat="44.82112" lon="6.94384">
        <ele>1759.7</ele>
        <time>2023-02-16T14:47:59Z</time>
      </trkpt>
      <trkpt lat="44.82112" lon="6.94386">
        <ele>1759.9</ele>
        <time>2023-02-16T14:48:01Z</time>
      </trkpt>
    </trkseg>
  </trk>
</gpx>